<?xml version="1.0" encoding="UTF-8" standalone="no" ?>
<gpx xmlns="http://www.topografix.com/GPX/1/1" xmlns:xsi="http://www.w3.org/2001/XMLSchema-instance" xsi:schemaLocation="http://www.topografix.com/GPX/1/1 http://www.topografix.com/GPX/1/1/gpx.xsd" version="1.1" creator="VisuGPX - https://www.visugpx.com">
  <metadata>
    <name>Rando vtt Montamisé 2019</name>
    <desc><![CDATA[Belle journée pour cette rando vtt en forêt de Moulière.
2 passages techniques intéressants après le premier ravito.....]]></desc>
  </metadata>
  <trk>
    <name><![CDATA[Rando vtt Montamisé 2019]]></name>
    <trkseg>
      <trkpt lat="46.6326" lon="0.49106">
        <ele>114.45</ele>
        <time>2019-02-24T07:37:42.650Z</time>
      </trkpt>
      <trkpt lat="46.63251" lon="0.49092">
        <ele>120.91</ele>
        <time>2019-02-24T07:37:44.650Z</time>
      </trkpt>
      <trkpt lat="46.63248" lon="0.49106">
        <ele>126.96</ele>
        <time>2019-02-24T07:37:50.650Z</time>
      </trkpt>
      <trkpt lat="46.63262" lon="0.49098">
        <ele>127.26</ele>
        <time>2019-02-24T07:38:18.652Z</time>
      </trkpt>
      <trkpt lat="46.63251" lon="0.49089">
        <ele>153.78</ele>
        <time>2019-02-24T07:38:43.000Z</time>
      </trkpt>
      <trkpt lat="46.63241" lon="0.49087">
        <ele>154.52</ele>
        <time>2019-02-24T07:39:04.000Z</time>
      </trkpt>
      <trkpt lat="46.63232" lon="0.49085">
        <ele>154.75</ele>
        <time>2019-02-24T07:39:14.000Z</time>
      </trkpt>
      <trkpt lat="46.63239" lon="0.49096">
        <ele>157.55</ele>
        <time>2019-02-24T07:40:22.000Z</time>
      </trkpt>
      <trkpt lat="46.63235" lon="0.49109">
        <ele>158.79</ele>
        <time>2019-02-24T07:40:33.000Z</time>
      </trkpt>
      <trkpt lat="46.63239" lon="0.49122">
        <ele>159.47</ele>
        <time>2019-02-24T07:40:38.000Z</time>
      </trkpt>
      <trkpt lat="46.63244" lon="0.49134">
        <ele>159.95</ele>
        <time>2019-02-24T07:40:43.000Z</time>
      </trkpt>
      <trkpt lat="46.63248" lon="0.49148">
        <ele>160.59</ele>
        <time>2019-02-24T07:40:48.000Z</time>
      </trkpt>
      <trkpt lat="46.63252" lon="0.4916">
        <ele>160.94</ele>
        <time>2019-02-24T07:40:51.000Z</time>
      </trkpt>
      <trkpt lat="46.63259" lon="0.49172">
        <ele>161.2</ele>
        <time>2019-02-24T07:40:54.000Z</time>
      </trkpt>
      <trkpt lat="46.63263" lon="0.49186">
        <ele>161.37</ele>
        <time>2019-02-24T07:40:57.000Z</time>
      </trkpt>
      <trkpt lat="46.6327" lon="0.492">
        <ele>161.53</ele>
        <time>2019-02-24T07:41:00.000Z</time>
      </trkpt>
      <trkpt lat="46.63276" lon="0.49211">
        <ele>161.64</ele>
        <time>2019-02-24T07:41:03.000Z</time>
      </trkpt>
      <trkpt lat="46.63281" lon="0.49222">
        <ele>161.78</ele>
        <time>2019-02-24T07:41:06.000Z</time>
      </trkpt>
      <trkpt lat="46.63289" lon="0.49236">
        <ele>162.16</ele>
        <time>2019-02-24T07:41:10.000Z</time>
      </trkpt>
      <trkpt lat="46.63296" lon="0.49251">
        <ele>162.39</ele>
        <time>2019-02-24T07:41:13.000Z</time>
      </trkpt>
      <trkpt lat="46.63303" lon="0.49268">
        <ele>162.43</ele>
        <time>2019-02-24T07:41:16.000Z</time>
      </trkpt>
      <trkpt lat="46.63311" lon="0.49281">
        <ele>162.32</ele>
        <time>2019-02-24T07:41:19.000Z</time>
      </trkpt>
      <trkpt lat="46.63317" lon="0.49294">
        <ele>162.22</ele>
        <time>2019-02-24T07:41:22.000Z</time>
      </trkpt>
      <trkpt lat="46.63324" lon="0.49307">
        <ele>162.11</ele>
        <time>2019-02-24T07:41:25.000Z</time>
      </trkpt>
      <trkpt lat="46.6333" lon="0.4932">
        <ele>161.99</ele>
        <time>2019-02-24T07:41:28.000Z</time>
      </trkpt>
      <trkpt lat="46.63337" lon="0.49333">
        <ele>161.91</ele>
        <time>2019-02-24T07:41:31.000Z</time>
      </trkpt>
      <trkpt lat="46.63345" lon="0.49343">
        <ele>161.95</ele>
        <time>2019-02-24T07:41:34.000Z</time>
      </trkpt>
      <trkpt lat="46.63352" lon="0.49358">
        <ele>162.21</ele>
        <time>2019-02-24T07:41:38.000Z</time>
      </trkpt>
      <trkpt lat="46.63358" lon="0.4937">
        <ele>162.2</ele>
        <time>2019-02-24T07:41:40.000Z</time>
      </trkpt>
      <trkpt lat="46.63364" lon="0.49385">
        <ele>161.95</ele>
        <time>2019-02-24T07:41:44.000Z</time>
      </trkpt>
      <trkpt lat="46.6337" lon="0.49398">
        <ele>161.72</ele>
        <time>2019-02-24T07:41:47.000Z</time>
      </trkpt>
      <trkpt lat="46.63376" lon="0.49411">
        <ele>161.65</ele>
        <time>2019-02-24T07:41:50.000Z</time>
      </trkpt>
      <trkpt lat="46.63383" lon="0.49427">
        <ele>161.71</ele>
        <time>2019-02-24T07:41:53.000Z</time>
      </trkpt>
      <trkpt lat="46.6339" lon="0.49443">
        <ele>161.73</ele>
        <time>2019-02-24T07:41:56.000Z</time>
      </trkpt>
      <trkpt lat="46.63397" lon="0.49452">
        <ele>161.73</ele>
        <time>2019-02-24T07:41:59.000Z</time>
      </trkpt>
      <trkpt lat="46.63402" lon="0.49463">
        <ele>161.76</ele>
        <time>2019-02-24T07:42:02.000Z</time>
      </trkpt>
      <trkpt lat="46.63409" lon="0.49477">
        <ele>161.72</ele>
        <time>2019-02-24T07:42:05.000Z</time>
      </trkpt>
      <trkpt lat="46.63416" lon="0.49489">
        <ele>161.71</ele>
        <time>2019-02-24T07:42:08.000Z</time>
      </trkpt>
      <trkpt lat="46.6342" lon="0.49501">
        <ele>161.76</ele>
        <time>2019-02-24T07:42:10.000Z</time>
      </trkpt>
      <trkpt lat="46.63425" lon="0.49512">
        <ele>161.79</ele>
        <time>2019-02-24T07:42:12.000Z</time>
      </trkpt>
      <trkpt lat="46.6343" lon="0.49523">
        <ele>161.76</ele>
        <time>2019-02-24T07:42:14.000Z</time>
      </trkpt>
      <trkpt lat="46.63438" lon="0.49537">
        <ele>161.66</ele>
        <time>2019-02-24T07:42:17.000Z</time>
      </trkpt>
      <trkpt lat="46.63446" lon="0.49552">
        <ele>161.58</ele>
        <time>2019-02-24T07:42:20.000Z</time>
      </trkpt>
      <trkpt lat="46.63451" lon="0.49562">
        <ele>161.51</ele>
        <time>2019-02-24T07:42:22.000Z</time>
      </trkpt>
      <trkpt lat="46.63459" lon="0.49575">
        <ele>161.35</ele>
        <time>2019-02-24T07:42:25.000Z</time>
      </trkpt>
      <trkpt lat="46.6347" lon="0.49578">
        <ele>161.14</ele>
        <time>2019-02-24T07:42:28.000Z</time>
      </trkpt>
      <trkpt lat="46.63475" lon="0.49564">
        <ele>160.91</ele>
        <time>2019-02-24T07:42:30.000Z</time>
      </trkpt>
      <trkpt lat="46.63481" lon="0.49542">
        <ele>160.52</ele>
        <time>2019-02-24T07:42:33.000Z</time>
      </trkpt>
      <trkpt lat="46.63485" lon="0.49526">
        <ele>159.2</ele>
        <time>2019-02-24T07:42:36.000Z</time>
      </trkpt>
      <trkpt lat="46.63487" lon="0.49511">
        <ele>159.02</ele>
        <time>2019-02-24T07:42:38.000Z</time>
      </trkpt>
      <trkpt lat="46.63489" lon="0.49497">
        <ele>158.91</ele>
        <time>2019-02-24T07:42:40.000Z</time>
      </trkpt>
      <trkpt lat="46.6349" lon="0.49482">
        <ele>158.65</ele>
        <time>2019-02-24T07:42:43.000Z</time>
      </trkpt>
      <trkpt lat="46.63492" lon="0.49466">
        <ele>158.6</ele>
        <time>2019-02-24T07:42:46.000Z</time>
      </trkpt>
      <trkpt lat="46.63494" lon="0.49447">
        <ele>158.62</ele>
        <time>2019-02-24T07:42:49.000Z</time>
      </trkpt>
      <trkpt lat="46.63496" lon="0.4943">
        <ele>158.75</ele>
        <time>2019-02-24T07:42:52.000Z</time>
      </trkpt>
      <trkpt lat="46.63498" lon="0.49417">
        <ele>158.84</ele>
        <time>2019-02-24T07:42:54.000Z</time>
      </trkpt>
      <trkpt lat="46.63498" lon="0.49403">
        <ele>158.92</ele>
        <time>2019-02-24T07:42:57.000Z</time>
      </trkpt>
      <trkpt lat="46.63499" lon="0.49388">
        <ele>159</ele>
        <time>2019-02-24T07:42:59.000Z</time>
      </trkpt>
      <trkpt lat="46.63499" lon="0.4937">
        <ele>159.22</ele>
        <time>2019-02-24T07:43:03.000Z</time>
      </trkpt>
      <trkpt lat="46.635" lon="0.49354">
        <ele>159.38</ele>
        <time>2019-02-24T07:43:06.000Z</time>
      </trkpt>
      <trkpt lat="46.63503" lon="0.49336">
        <ele>159.54</ele>
        <time>2019-02-24T07:43:09.000Z</time>
      </trkpt>
      <trkpt lat="46.63503" lon="0.49318">
        <ele>159.74</ele>
        <time>2019-02-24T07:43:12.000Z</time>
      </trkpt>
      <trkpt lat="46.63503" lon="0.49304">
        <ele>159.99</ele>
        <time>2019-02-24T07:43:16.000Z</time>
      </trkpt>
      <trkpt lat="46.63511" lon="0.49291">
        <ele>160.22</ele>
        <time>2019-02-24T07:43:20.000Z</time>
      </trkpt>
      <trkpt lat="46.63519" lon="0.49278">
        <ele>160.47</ele>
        <time>2019-02-24T07:43:23.000Z</time>
      </trkpt>
      <trkpt lat="46.63528" lon="0.49268">
        <ele>160.81</ele>
        <time>2019-02-24T07:43:27.000Z</time>
      </trkpt>
      <trkpt lat="46.63536" lon="0.49255">
        <ele>161.1</ele>
        <time>2019-02-24T07:43:30.000Z</time>
      </trkpt>
      <trkpt lat="46.63544" lon="0.49249">
        <ele>161.39</ele>
        <time>2019-02-24T07:43:33.000Z</time>
      </trkpt>
      <trkpt lat="46.63553" lon="0.49239">
        <ele>161.65</ele>
        <time>2019-02-24T07:43:36.000Z</time>
      </trkpt>
      <trkpt lat="46.63561" lon="0.4923">
        <ele>161.92</ele>
        <time>2019-02-24T07:43:39.000Z</time>
      </trkpt>
      <trkpt lat="46.6357" lon="0.49219">
        <ele>162.23</ele>
        <time>2019-02-24T07:43:42.000Z</time>
      </trkpt>
      <trkpt lat="46.63578" lon="0.49211">
        <ele>162.44</ele>
        <time>2019-02-24T07:43:44.000Z</time>
      </trkpt>
      <trkpt lat="46.63588" lon="0.492">
        <ele>162.8</ele>
        <time>2019-02-24T07:43:47.000Z</time>
      </trkpt>
      <trkpt lat="46.63597" lon="0.49191">
        <ele>163.32</ele>
        <time>2019-02-24T07:43:50.000Z</time>
      </trkpt>
      <trkpt lat="46.63607" lon="0.4918">
        <ele>163.91</ele>
        <time>2019-02-24T07:43:53.000Z</time>
      </trkpt>
      <trkpt lat="46.63617" lon="0.4917">
        <ele>164.43</ele>
        <time>2019-02-24T07:43:56.000Z</time>
      </trkpt>
      <trkpt lat="46.63626" lon="0.49159">
        <ele>164.99</ele>
        <time>2019-02-24T07:43:59.000Z</time>
      </trkpt>
      <trkpt lat="46.63634" lon="0.49151">
        <ele>165.35</ele>
        <time>2019-02-24T07:44:01.000Z</time>
      </trkpt>
      <trkpt lat="46.63644" lon="0.49141">
        <ele>165.84</ele>
        <time>2019-02-24T07:44:04.000Z</time>
      </trkpt>
      <trkpt lat="46.63654" lon="0.49131">
        <ele>166.49</ele>
        <time>2019-02-24T07:44:07.000Z</time>
      </trkpt>
      <trkpt lat="46.63662" lon="0.49124">
        <ele>167.19</ele>
        <time>2019-02-24T07:44:10.000Z</time>
      </trkpt>
      <trkpt lat="46.6367" lon="0.49113">
        <ele>167.78</ele>
        <time>2019-02-24T07:44:13.000Z</time>
      </trkpt>
      <trkpt lat="46.6368" lon="0.49099">
        <ele>168.28</ele>
        <time>2019-02-24T07:44:16.000Z</time>
      </trkpt>
      <trkpt lat="46.63689" lon="0.49092">
        <ele>168.89</ele>
        <time>2019-02-24T07:44:20.000Z</time>
      </trkpt>
      <trkpt lat="46.63697" lon="0.49082">
        <ele>169.66</ele>
        <time>2019-02-24T07:44:25.000Z</time>
      </trkpt>
      <trkpt lat="46.63705" lon="0.49072">
        <ele>170</ele>
        <time>2019-02-24T07:44:28.000Z</time>
      </trkpt>
      <trkpt lat="46.63716" lon="0.49062">
        <ele>170.41</ele>
        <time>2019-02-24T07:44:32.000Z</time>
      </trkpt>
      <trkpt lat="46.63726" lon="0.49054">
        <ele>170.53</ele>
        <time>2019-02-24T07:44:35.000Z</time>
      </trkpt>
      <trkpt lat="46.63735" lon="0.49045">
        <ele>170.66</ele>
        <time>2019-02-24T07:44:38.000Z</time>
      </trkpt>
      <trkpt lat="46.63744" lon="0.49036">
        <ele>170.98</ele>
        <time>2019-02-24T07:44:42.000Z</time>
      </trkpt>
      <trkpt lat="46.63754" lon="0.49026">
        <ele>171.21</ele>
        <time>2019-02-24T07:44:45.000Z</time>
      </trkpt>
      <trkpt lat="46.63762" lon="0.49016">
        <ele>171.38</ele>
        <time>2019-02-24T07:44:48.000Z</time>
      </trkpt>
      <trkpt lat="46.63769" lon="0.49006">
        <ele>171.41</ele>
        <time>2019-02-24T07:44:50.000Z</time>
      </trkpt>
      <trkpt lat="46.63776" lon="0.48998">
        <ele>171.33</ele>
        <time>2019-02-24T07:44:53.000Z</time>
      </trkpt>
      <trkpt lat="46.63786" lon="0.48989">
        <ele>171.09</ele>
        <time>2019-02-24T07:44:57.000Z</time>
      </trkpt>
      <trkpt lat="46.63794" lon="0.48981">
        <ele>170.97</ele>
        <time>2019-02-24T07:45:00.000Z</time>
      </trkpt>
      <trkpt lat="46.63802" lon="0.48971">
        <ele>170.85</ele>
        <time>2019-02-24T07:45:02.000Z</time>
      </trkpt>
      <trkpt lat="46.63811" lon="0.48964">
        <ele>170.53</ele>
        <time>2019-02-24T07:45:05.000Z</time>
      </trkpt>
      <trkpt lat="46.63822" lon="0.48957">
        <ele>170.26</ele>
        <time>2019-02-24T07:45:08.000Z</time>
      </trkpt>
      <trkpt lat="46.63829" lon="0.48949">
        <ele>170.24</ele>
        <time>2019-02-24T07:45:10.000Z</time>
      </trkpt>
      <trkpt lat="46.63838" lon="0.48941">
        <ele>170.53</ele>
        <time>2019-02-24T07:45:14.000Z</time>
      </trkpt>
      <trkpt lat="46.63848" lon="0.48929">
        <ele>171.02</ele>
        <time>2019-02-24T07:45:17.000Z</time>
      </trkpt>
      <trkpt lat="46.63855" lon="0.48921">
        <ele>171.28</ele>
        <time>2019-02-24T07:45:19.000Z</time>
      </trkpt>
      <trkpt lat="46.63863" lon="0.48912">
        <ele>171.62</ele>
        <time>2019-02-24T07:45:22.000Z</time>
      </trkpt>
      <trkpt lat="46.63871" lon="0.48901">
        <ele>171.85</ele>
        <time>2019-02-24T07:45:24.000Z</time>
      </trkpt>
      <trkpt lat="46.63879" lon="0.48891">
        <ele>172.13</ele>
        <time>2019-02-24T07:45:26.000Z</time>
      </trkpt>
      <trkpt lat="46.63887" lon="0.48882">
        <ele>172.43</ele>
        <time>2019-02-24T07:45:28.000Z</time>
      </trkpt>
      <trkpt lat="46.63895" lon="0.48874">
        <ele>172.86</ele>
        <time>2019-02-24T07:45:31.000Z</time>
      </trkpt>
      <trkpt lat="46.63904" lon="0.48863">
        <ele>173.13</ele>
        <time>2019-02-24T07:45:33.000Z</time>
      </trkpt>
      <trkpt lat="46.63911" lon="0.48854">
        <ele>173.3</ele>
        <time>2019-02-24T07:45:35.000Z</time>
      </trkpt>
      <trkpt lat="46.63922" lon="0.48845">
        <ele>173.65</ele>
        <time>2019-02-24T07:45:37.000Z</time>
      </trkpt>
      <trkpt lat="46.6393" lon="0.48836">
        <ele>173.5</ele>
        <time>2019-02-24T07:45:39.000Z</time>
      </trkpt>
      <trkpt lat="46.63939" lon="0.48827">
        <ele>173.38</ele>
        <time>2019-02-24T07:45:41.000Z</time>
      </trkpt>
      <trkpt lat="46.6395" lon="0.48824">
        <ele>173.2</ele>
        <time>2019-02-24T07:45:44.000Z</time>
      </trkpt>
      <trkpt lat="46.63955" lon="0.48837">
        <ele>172.92</ele>
        <time>2019-02-24T07:45:47.000Z</time>
      </trkpt>
      <trkpt lat="46.63962" lon="0.48853">
        <ele>171.95</ele>
        <time>2019-02-24T07:45:50.000Z</time>
      </trkpt>
      <trkpt lat="46.6397" lon="0.48868">
        <ele>171</ele>
        <time>2019-02-24T07:45:53.000Z</time>
      </trkpt>
      <trkpt lat="46.63978" lon="0.48882">
        <ele>170.26</ele>
        <time>2019-02-24T07:45:56.000Z</time>
      </trkpt>
      <trkpt lat="46.63984" lon="0.48894">
        <ele>170.15</ele>
        <time>2019-02-24T07:45:59.000Z</time>
      </trkpt>
      <trkpt lat="46.63988" lon="0.48909">
        <ele>170.06</ele>
        <time>2019-02-24T07:46:01.000Z</time>
      </trkpt>
      <trkpt lat="46.63992" lon="0.48924">
        <ele>169.64</ele>
        <time>2019-02-24T07:46:04.000Z</time>
      </trkpt>
      <trkpt lat="46.63999" lon="0.4894">
        <ele>169.63</ele>
        <time>2019-02-24T07:46:07.000Z</time>
      </trkpt>
      <trkpt lat="46.64004" lon="0.4895">
        <ele>169.62</ele>
        <time>2019-02-24T07:46:09.000Z</time>
      </trkpt>
      <trkpt lat="46.64012" lon="0.48963">
        <ele>169.68</ele>
        <time>2019-02-24T07:46:12.000Z</time>
      </trkpt>
      <trkpt lat="46.64019" lon="0.48978">
        <ele>169.71</ele>
        <time>2019-02-24T07:46:15.000Z</time>
      </trkpt>
      <trkpt lat="46.64024" lon="0.48989">
        <ele>169.67</ele>
        <time>2019-02-24T07:46:18.000Z</time>
      </trkpt>
      <trkpt lat="46.64034" lon="0.48999">
        <ele>169.66</ele>
        <time>2019-02-24T07:46:22.000Z</time>
      </trkpt>
      <trkpt lat="46.64043" lon="0.49002">
        <ele>169.65</ele>
        <time>2019-02-24T07:46:24.000Z</time>
      </trkpt>
      <trkpt lat="46.64053" lon="0.4901">
        <ele>169.51</ele>
        <time>2019-02-24T07:46:27.000Z</time>
      </trkpt>
      <trkpt lat="46.64064" lon="0.4901">
        <ele>169.16</ele>
        <time>2019-02-24T07:46:31.000Z</time>
      </trkpt>
      <trkpt lat="46.64072" lon="0.49005">
        <ele>169.23</ele>
        <time>2019-02-24T07:46:34.000Z</time>
      </trkpt>
      <trkpt lat="46.64082" lon="0.48998">
        <ele>169.3</ele>
        <time>2019-02-24T07:46:37.000Z</time>
      </trkpt>
      <trkpt lat="46.64092" lon="0.48987">
        <ele>169.44</ele>
        <time>2019-02-24T07:46:40.000Z</time>
      </trkpt>
      <trkpt lat="46.64105" lon="0.48972">
        <ele>169.68</ele>
        <time>2019-02-24T07:46:43.000Z</time>
      </trkpt>
      <trkpt lat="46.64114" lon="0.48962">
        <ele>171.95</ele>
        <time>2019-02-24T07:46:45.000Z</time>
      </trkpt>
      <trkpt lat="46.64124" lon="0.4895">
        <ele>173.32</ele>
        <time>2019-02-24T07:46:47.000Z</time>
      </trkpt>
      <trkpt lat="46.64135" lon="0.4894">
        <ele>173.45</ele>
        <time>2019-02-24T07:46:49.000Z</time>
      </trkpt>
      <trkpt lat="46.64142" lon="0.48932">
        <ele>173.13</ele>
        <time>2019-02-24T07:46:51.000Z</time>
      </trkpt>
      <trkpt lat="46.6415" lon="0.48923">
        <ele>173.01</ele>
        <time>2019-02-24T07:46:53.000Z</time>
      </trkpt>
      <trkpt lat="46.64157" lon="0.48916">
        <ele>171.39</ele>
        <time>2019-02-24T07:46:55.000Z</time>
      </trkpt>
      <trkpt lat="46.64169" lon="0.48903">
        <ele>168.1</ele>
        <time>2019-02-24T07:46:58.000Z</time>
      </trkpt>
      <trkpt lat="46.6418" lon="0.48894">
        <ele>165.89</ele>
        <time>2019-02-24T07:47:00.000Z</time>
      </trkpt>
      <trkpt lat="46.64188" lon="0.48884">
        <ele>163.67</ele>
        <time>2019-02-24T07:47:02.000Z</time>
      </trkpt>
      <trkpt lat="46.64199" lon="0.48871">
        <ele>162.3</ele>
        <time>2019-02-24T07:47:04.000Z</time>
      </trkpt>
      <trkpt lat="46.64211" lon="0.48859">
        <ele>160.89</ele>
        <time>2019-02-24T07:47:06.000Z</time>
      </trkpt>
      <trkpt lat="46.64223" lon="0.48848">
        <ele>159.83</ele>
        <time>2019-02-24T07:47:08.000Z</time>
      </trkpt>
      <trkpt lat="46.64233" lon="0.48839">
        <ele>159.35</ele>
        <time>2019-02-24T07:47:10.000Z</time>
      </trkpt>
      <trkpt lat="46.64243" lon="0.48837">
        <ele>158.49</ele>
        <time>2019-02-24T07:47:12.000Z</time>
      </trkpt>
      <trkpt lat="46.64256" lon="0.48836">
        <ele>157.91</ele>
        <time>2019-02-24T07:47:14.000Z</time>
      </trkpt>
      <trkpt lat="46.64267" lon="0.48836">
        <ele>157.32</ele>
        <time>2019-02-24T07:47:16.000Z</time>
      </trkpt>
      <trkpt lat="46.6428" lon="0.48838">
        <ele>156.45</ele>
        <time>2019-02-24T07:47:18.000Z</time>
      </trkpt>
      <trkpt lat="46.64291" lon="0.48843">
        <ele>155.31</ele>
        <time>2019-02-24T07:47:20.000Z</time>
      </trkpt>
      <trkpt lat="46.64302" lon="0.48847">
        <ele>154.87</ele>
        <time>2019-02-24T07:47:22.000Z</time>
      </trkpt>
      <trkpt lat="46.64315" lon="0.4885">
        <ele>153.94</ele>
        <time>2019-02-24T07:47:24.000Z</time>
      </trkpt>
      <trkpt lat="46.64328" lon="0.48852">
        <ele>153.35</ele>
        <time>2019-02-24T07:47:26.000Z</time>
      </trkpt>
      <trkpt lat="46.64339" lon="0.48855">
        <ele>152.88</ele>
        <time>2019-02-24T07:47:28.000Z</time>
      </trkpt>
      <trkpt lat="46.64349" lon="0.48852">
        <ele>152.41</ele>
        <time>2019-02-24T07:47:30.000Z</time>
      </trkpt>
      <trkpt lat="46.64362" lon="0.48847">
        <ele>153.42</ele>
        <time>2019-02-24T07:47:33.000Z</time>
      </trkpt>
      <trkpt lat="46.64372" lon="0.48847">
        <ele>153.9</ele>
        <time>2019-02-24T07:47:35.000Z</time>
      </trkpt>
      <trkpt lat="46.64384" lon="0.48843">
        <ele>154.17</ele>
        <time>2019-02-24T07:47:38.000Z</time>
      </trkpt>
      <trkpt lat="46.64395" lon="0.4884">
        <ele>154.59</ele>
        <time>2019-02-24T07:47:41.000Z</time>
      </trkpt>
      <trkpt lat="46.64406" lon="0.48844">
        <ele>155.39</ele>
        <time>2019-02-24T07:47:45.000Z</time>
      </trkpt>
      <trkpt lat="46.64413" lon="0.48854">
        <ele>156.18</ele>
        <time>2019-02-24T07:47:48.000Z</time>
      </trkpt>
      <trkpt lat="46.6442" lon="0.4887">
        <ele>159.66</ele>
        <time>2019-02-24T07:47:51.000Z</time>
      </trkpt>
      <trkpt lat="46.64428" lon="0.48882">
        <ele>160.33</ele>
        <time>2019-02-24T07:47:54.000Z</time>
      </trkpt>
      <trkpt lat="46.64438" lon="0.48896">
        <ele>160.94</ele>
        <time>2019-02-24T07:47:57.000Z</time>
      </trkpt>
      <trkpt lat="46.64446" lon="0.48908">
        <ele>161.29</ele>
        <time>2019-02-24T07:47:59.000Z</time>
      </trkpt>
      <trkpt lat="46.64452" lon="0.48919">
        <ele>161.72</ele>
        <time>2019-02-24T07:48:03.000Z</time>
      </trkpt>
      <trkpt lat="46.64462" lon="0.48915">
        <ele>162.17</ele>
        <time>2019-02-24T07:48:06.000Z</time>
      </trkpt>
      <trkpt lat="46.64474" lon="0.48906">
        <ele>165.42</ele>
        <time>2019-02-24T07:48:08.000Z</time>
      </trkpt>
      <trkpt lat="46.64484" lon="0.48894">
        <ele>167.6</ele>
        <time>2019-02-24T07:48:10.000Z</time>
      </trkpt>
      <trkpt lat="46.64494" lon="0.48883">
        <ele>168.37</ele>
        <time>2019-02-24T07:48:12.000Z</time>
      </trkpt>
      <trkpt lat="46.64505" lon="0.48871">
        <ele>167.48</ele>
        <time>2019-02-24T07:48:14.000Z</time>
      </trkpt>
      <trkpt lat="46.64516" lon="0.48857">
        <ele>166.54</ele>
        <time>2019-02-24T07:48:16.000Z</time>
      </trkpt>
      <trkpt lat="46.64525" lon="0.48851">
        <ele>166.61</ele>
        <time>2019-02-24T07:48:18.000Z</time>
      </trkpt>
      <trkpt lat="46.64534" lon="0.48839">
        <ele>166.89</ele>
        <time>2019-02-24T07:48:21.000Z</time>
      </trkpt>
      <trkpt lat="46.64542" lon="0.48831">
        <ele>167.08</ele>
        <time>2019-02-24T07:48:23.000Z</time>
      </trkpt>
      <trkpt lat="46.6455" lon="0.48818">
        <ele>167.05</ele>
        <time>2019-02-24T07:48:25.000Z</time>
      </trkpt>
      <trkpt lat="46.64558" lon="0.4881">
        <ele>167.21</ele>
        <time>2019-02-24T07:48:28.000Z</time>
      </trkpt>
      <trkpt lat="46.64568" lon="0.48804">
        <ele>167.34</ele>
        <time>2019-02-24T07:48:31.000Z</time>
      </trkpt>
      <trkpt lat="46.64576" lon="0.48795">
        <ele>167.37</ele>
        <time>2019-02-24T07:48:33.000Z</time>
      </trkpt>
      <trkpt lat="46.64584" lon="0.48788">
        <ele>168.1</ele>
        <time>2019-02-24T07:48:35.000Z</time>
      </trkpt>
      <trkpt lat="46.64596" lon="0.48775">
        <ele>170.3</ele>
        <time>2019-02-24T07:48:38.000Z</time>
      </trkpt>
      <trkpt lat="46.64605" lon="0.48765">
        <ele>171.72</ele>
        <time>2019-02-24T07:48:41.000Z</time>
      </trkpt>
      <trkpt lat="46.64613" lon="0.48758">
        <ele>171.77</ele>
        <time>2019-02-24T07:48:43.000Z</time>
      </trkpt>
      <trkpt lat="46.64621" lon="0.48751">
        <ele>171.67</ele>
        <time>2019-02-24T07:48:45.000Z</time>
      </trkpt>
      <trkpt lat="46.64631" lon="0.4874">
        <ele>171.19</ele>
        <time>2019-02-24T07:48:48.000Z</time>
      </trkpt>
      <trkpt lat="46.64638" lon="0.48731">
        <ele>170.86</ele>
        <time>2019-02-24T07:48:50.000Z</time>
      </trkpt>
      <trkpt lat="46.64647" lon="0.48723">
        <ele>170.6</ele>
        <time>2019-02-24T07:48:52.000Z</time>
      </trkpt>
      <trkpt lat="46.64656" lon="0.48713">
        <ele>168.51</ele>
        <time>2019-02-24T07:48:55.000Z</time>
      </trkpt>
      <trkpt lat="46.64666" lon="0.48704">
        <ele>166.53</ele>
        <time>2019-02-24T07:48:57.000Z</time>
      </trkpt>
      <trkpt lat="46.64674" lon="0.48696">
        <ele>165.18</ele>
        <time>2019-02-24T07:48:59.000Z</time>
      </trkpt>
      <trkpt lat="46.64682" lon="0.48688">
        <ele>164.27</ele>
        <time>2019-02-24T07:49:01.000Z</time>
      </trkpt>
      <trkpt lat="46.64689" lon="0.48677">
        <ele>164.26</ele>
        <time>2019-02-24T07:49:04.000Z</time>
      </trkpt>
      <trkpt lat="46.64697" lon="0.48669">
        <ele>164.23</ele>
        <time>2019-02-24T07:49:06.000Z</time>
      </trkpt>
      <trkpt lat="46.64706" lon="0.48659">
        <ele>164.26</ele>
        <time>2019-02-24T07:49:09.000Z</time>
      </trkpt>
      <trkpt lat="46.64716" lon="0.48649">
        <ele>165.32</ele>
        <time>2019-02-24T07:49:12.000Z</time>
      </trkpt>
      <trkpt lat="46.64724" lon="0.48642">
        <ele>165.6</ele>
        <time>2019-02-24T07:49:14.000Z</time>
      </trkpt>
      <trkpt lat="46.64734" lon="0.48633">
        <ele>165.66</ele>
        <time>2019-02-24T07:49:17.000Z</time>
      </trkpt>
      <trkpt lat="46.64743" lon="0.48625">
        <ele>165.83</ele>
        <time>2019-02-24T07:49:21.000Z</time>
      </trkpt>
      <trkpt lat="46.64754" lon="0.48622">
        <ele>165.88</ele>
        <time>2019-02-24T07:49:24.000Z</time>
      </trkpt>
      <trkpt lat="46.64757" lon="0.48635">
        <ele>164.28</ele>
        <time>2019-02-24T07:49:27.000Z</time>
      </trkpt>
      <trkpt lat="46.64761" lon="0.4865">
        <ele>162.18</ele>
        <time>2019-02-24T07:49:30.000Z</time>
      </trkpt>
      <trkpt lat="46.64769" lon="0.48667">
        <ele>161.22</ele>
        <time>2019-02-24T07:49:33.000Z</time>
      </trkpt>
      <trkpt lat="46.64775" lon="0.48678">
        <ele>160.64</ele>
        <time>2019-02-24T07:49:35.000Z</time>
      </trkpt>
      <trkpt lat="46.6478" lon="0.4869">
        <ele>160.48</ele>
        <time>2019-02-24T07:49:37.000Z</time>
      </trkpt>
      <trkpt lat="46.64786" lon="0.48703">
        <ele>160.55</ele>
        <time>2019-02-24T07:49:39.000Z</time>
      </trkpt>
      <trkpt lat="46.64793" lon="0.48714">
        <ele>161.02</ele>
        <time>2019-02-24T07:49:41.000Z</time>
      </trkpt>
      <trkpt lat="46.64798" lon="0.48727">
        <ele>161.22</ele>
        <time>2019-02-24T07:49:43.000Z</time>
      </trkpt>
      <trkpt lat="46.64804" lon="0.48738">
        <ele>161.37</ele>
        <time>2019-02-24T07:49:45.000Z</time>
      </trkpt>
      <trkpt lat="46.64811" lon="0.48751">
        <ele>162.02</ele>
        <time>2019-02-24T07:49:48.000Z</time>
      </trkpt>
      <trkpt lat="46.64819" lon="0.48764">
        <ele>162.28</ele>
        <time>2019-02-24T07:49:51.000Z</time>
      </trkpt>
      <trkpt lat="46.64826" lon="0.48776">
        <ele>162.46</ele>
        <time>2019-02-24T07:49:54.000Z</time>
      </trkpt>
      <trkpt lat="46.64833" lon="0.48789">
        <ele>163.74</ele>
        <time>2019-02-24T07:49:57.000Z</time>
      </trkpt>
      <trkpt lat="46.64841" lon="0.48805">
        <ele>165.12</ele>
        <time>2019-02-24T07:50:00.000Z</time>
      </trkpt>
      <trkpt lat="46.64847" lon="0.48819">
        <ele>165.7</ele>
        <time>2019-02-24T07:50:03.000Z</time>
      </trkpt>
      <trkpt lat="46.64853" lon="0.48832">
        <ele>165.99</ele>
        <time>2019-02-24T07:50:06.000Z</time>
      </trkpt>
      <trkpt lat="46.64859" lon="0.48849">
        <ele>166.4</ele>
        <time>2019-02-24T07:50:09.000Z</time>
      </trkpt>
      <trkpt lat="46.64865" lon="0.48859">
        <ele>166.62</ele>
        <time>2019-02-24T07:50:11.000Z</time>
      </trkpt>
      <trkpt lat="46.64871" lon="0.4887">
        <ele>166.78</ele>
        <time>2019-02-24T07:50:13.000Z</time>
      </trkpt>
      <trkpt lat="46.64877" lon="0.4888">
        <ele>166.88</ele>
        <time>2019-02-24T07:50:15.000Z</time>
      </trkpt>
      <trkpt lat="46.64882" lon="0.48892">
        <ele>166.92</ele>
        <time>2019-02-24T07:50:17.000Z</time>
      </trkpt>
      <trkpt lat="46.64888" lon="0.48904">
        <ele>166.66</ele>
        <time>2019-02-24T07:50:19.000Z</time>
      </trkpt>
      <trkpt lat="46.64897" lon="0.48909">
        <ele>166.09</ele>
        <time>2019-02-24T07:50:21.000Z</time>
      </trkpt>
      <trkpt lat="46.64906" lon="0.48902">
        <ele>166.74</ele>
        <time>2019-02-24T07:50:23.000Z</time>
      </trkpt>
      <trkpt lat="46.64916" lon="0.48891">
        <ele>167.21</ele>
        <time>2019-02-24T07:50:25.000Z</time>
      </trkpt>
      <trkpt lat="46.64927" lon="0.48883">
        <ele>167.83</ele>
        <time>2019-02-24T07:50:27.000Z</time>
      </trkpt>
      <trkpt lat="46.64937" lon="0.48875">
        <ele>165.81</ele>
        <time>2019-02-24T07:50:30.000Z</time>
      </trkpt>
      <trkpt lat="46.64946" lon="0.4887">
        <ele>165.54</ele>
        <time>2019-02-24T07:50:33.000Z</time>
      </trkpt>
      <trkpt lat="46.64955" lon="0.48863">
        <ele>165.41</ele>
        <time>2019-02-24T07:50:36.000Z</time>
      </trkpt>
      <trkpt lat="46.64965" lon="0.48851">
        <ele>165.31</ele>
        <time>2019-02-24T07:50:39.000Z</time>
      </trkpt>
      <trkpt lat="46.64972" lon="0.48843">
        <ele>165.21</ele>
        <time>2019-02-24T07:50:41.000Z</time>
      </trkpt>
      <trkpt lat="46.64981" lon="0.48831">
        <ele>164.98</ele>
        <time>2019-02-24T07:50:44.000Z</time>
      </trkpt>
      <trkpt lat="46.64991" lon="0.48819">
        <ele>164.87</ele>
        <time>2019-02-24T07:50:47.000Z</time>
      </trkpt>
      <trkpt lat="46.64999" lon="0.48812">
        <ele>164.72</ele>
        <time>2019-02-24T07:50:49.000Z</time>
      </trkpt>
      <trkpt lat="46.65008" lon="0.48805">
        <ele>164.73</ele>
        <time>2019-02-24T07:50:52.000Z</time>
      </trkpt>
      <trkpt lat="46.65017" lon="0.48796">
        <ele>164.75</ele>
        <time>2019-02-24T07:50:54.000Z</time>
      </trkpt>
      <trkpt lat="46.65026" lon="0.48788">
        <ele>164.74</ele>
        <time>2019-02-24T07:50:56.000Z</time>
      </trkpt>
      <trkpt lat="46.65034" lon="0.48779">
        <ele>164.65</ele>
        <time>2019-02-24T07:50:58.000Z</time>
      </trkpt>
      <trkpt lat="46.65043" lon="0.48767">
        <ele>163.46</ele>
        <time>2019-02-24T07:51:00.000Z</time>
      </trkpt>
      <trkpt lat="46.65051" lon="0.48757">
        <ele>163.47</ele>
        <time>2019-02-24T07:51:02.000Z</time>
      </trkpt>
      <trkpt lat="46.65059" lon="0.48745">
        <ele>164.02</ele>
        <time>2019-02-24T07:51:04.000Z</time>
      </trkpt>
      <trkpt lat="46.65067" lon="0.48736">
        <ele>165.22</ele>
        <time>2019-02-24T07:51:06.000Z</time>
      </trkpt>
      <trkpt lat="46.65076" lon="0.48728">
        <ele>166.8</ele>
        <time>2019-02-24T07:51:08.000Z</time>
      </trkpt>
      <trkpt lat="46.65088" lon="0.48718">
        <ele>169.18</ele>
        <time>2019-02-24T07:51:11.000Z</time>
      </trkpt>
      <trkpt lat="46.651" lon="0.48708">
        <ele>172.76</ele>
        <time>2019-02-24T07:51:14.000Z</time>
      </trkpt>
      <trkpt lat="46.65109" lon="0.48697">
        <ele>174.52</ele>
        <time>2019-02-24T07:51:16.000Z</time>
      </trkpt>
      <trkpt lat="46.65118" lon="0.48685">
        <ele>176.38</ele>
        <time>2019-02-24T07:51:18.000Z</time>
      </trkpt>
      <trkpt lat="46.65129" lon="0.48675">
        <ele>177.23</ele>
        <time>2019-02-24T07:51:20.000Z</time>
      </trkpt>
      <trkpt lat="46.65139" lon="0.48666">
        <ele>176.89</ele>
        <time>2019-02-24T07:51:23.000Z</time>
      </trkpt>
      <trkpt lat="46.65148" lon="0.48663">
        <ele>176.48</ele>
        <time>2019-02-24T07:51:25.000Z</time>
      </trkpt>
      <trkpt lat="46.65158" lon="0.4866">
        <ele>176.33</ele>
        <time>2019-02-24T07:51:28.000Z</time>
      </trkpt>
      <trkpt lat="46.6517" lon="0.48656">
        <ele>176.08</ele>
        <time>2019-02-24T07:51:31.000Z</time>
      </trkpt>
      <trkpt lat="46.6518" lon="0.48654">
        <ele>175.8</ele>
        <time>2019-02-24T07:51:34.000Z</time>
      </trkpt>
      <trkpt lat="46.6519" lon="0.48657">
        <ele>175.5</ele>
        <time>2019-02-24T07:51:38.000Z</time>
      </trkpt>
      <trkpt lat="46.65197" lon="0.48667">
        <ele>175.18</ele>
        <time>2019-02-24T07:51:42.000Z</time>
      </trkpt>
      <trkpt lat="46.65206" lon="0.48676">
        <ele>174.42</ele>
        <time>2019-02-24T07:51:47.000Z</time>
      </trkpt>
      <trkpt lat="46.65215" lon="0.48688">
        <ele>173.97</ele>
        <time>2019-02-24T07:51:50.000Z</time>
      </trkpt>
      <trkpt lat="46.65225" lon="0.48699">
        <ele>173.54</ele>
        <time>2019-02-24T07:51:53.000Z</time>
      </trkpt>
      <trkpt lat="46.65231" lon="0.48712">
        <ele>172.6</ele>
        <time>2019-02-24T07:51:58.000Z</time>
      </trkpt>
      <trkpt lat="46.65237" lon="0.48722">
        <ele>171.26</ele>
        <time>2019-02-24T07:52:10.000Z</time>
      </trkpt>
      <trkpt lat="46.65245" lon="0.48733">
        <ele>171.68</ele>
        <time>2019-02-24T07:52:15.000Z</time>
      </trkpt>
      <trkpt lat="46.6525" lon="0.48745">
        <ele>172.28</ele>
        <time>2019-02-24T07:52:19.000Z</time>
      </trkpt>
      <trkpt lat="46.65258" lon="0.48759">
        <ele>173.17</ele>
        <time>2019-02-24T07:52:23.000Z</time>
      </trkpt>
      <trkpt lat="46.65263" lon="0.4877">
        <ele>173.37</ele>
        <time>2019-02-24T07:52:25.000Z</time>
      </trkpt>
      <trkpt lat="46.6527" lon="0.48783">
        <ele>173.18</ele>
        <time>2019-02-24T07:52:29.000Z</time>
      </trkpt>
      <trkpt lat="46.65275" lon="0.48795">
        <ele>173.07</ele>
        <time>2019-02-24T07:52:33.000Z</time>
      </trkpt>
      <trkpt lat="46.65281" lon="0.48807">
        <ele>173.01</ele>
        <time>2019-02-24T07:52:36.000Z</time>
      </trkpt>
      <trkpt lat="46.6528" lon="0.48823">
        <ele>173.25</ele>
        <time>2019-02-24T07:52:40.000Z</time>
      </trkpt>
      <trkpt lat="46.65279" lon="0.48841">
        <ele>173.8</ele>
        <time>2019-02-24T07:52:44.000Z</time>
      </trkpt>
      <trkpt lat="46.65276" lon="0.48856">
        <ele>174.21</ele>
        <time>2019-02-24T07:52:47.000Z</time>
      </trkpt>
      <trkpt lat="46.65277" lon="0.48872">
        <ele>174.66</ele>
        <time>2019-02-24T07:52:51.000Z</time>
      </trkpt>
      <trkpt lat="46.6528" lon="0.48884">
        <ele>174.95</ele>
        <time>2019-02-24T07:52:54.000Z</time>
      </trkpt>
      <trkpt lat="46.65284" lon="0.48899">
        <ele>175.27</ele>
        <time>2019-02-24T07:52:57.000Z</time>
      </trkpt>
      <trkpt lat="46.65287" lon="0.48912">
        <ele>175.42</ele>
        <time>2019-02-24T07:53:00.000Z</time>
      </trkpt>
      <trkpt lat="46.65292" lon="0.48929">
        <ele>175.58</ele>
        <time>2019-02-24T07:53:04.000Z</time>
      </trkpt>
      <trkpt lat="46.65294" lon="0.48942">
        <ele>175.79</ele>
        <time>2019-02-24T07:53:07.000Z</time>
      </trkpt>
      <trkpt lat="46.65293" lon="0.48957">
        <ele>176.07</ele>
        <time>2019-02-24T07:53:11.000Z</time>
      </trkpt>
      <trkpt lat="46.65293" lon="0.48971">
        <ele>176.35</ele>
        <time>2019-02-24T07:53:14.000Z</time>
      </trkpt>
      <trkpt lat="46.65292" lon="0.48985">
        <ele>176.53</ele>
        <time>2019-02-24T07:53:17.000Z</time>
      </trkpt>
      <trkpt lat="46.65291" lon="0.48998">
        <ele>176.56</ele>
        <time>2019-02-24T07:53:20.000Z</time>
      </trkpt>
      <trkpt lat="46.65287" lon="0.49011">
        <ele>176.73</ele>
        <time>2019-02-24T07:53:24.000Z</time>
      </trkpt>
      <trkpt lat="46.65287" lon="0.49029">
        <ele>176.85</ele>
        <time>2019-02-24T07:53:28.000Z</time>
      </trkpt>
      <trkpt lat="46.65286" lon="0.49043">
        <ele>176.87</ele>
        <time>2019-02-24T07:53:31.000Z</time>
      </trkpt>
      <trkpt lat="46.65286" lon="0.49056">
        <ele>176.86</ele>
        <time>2019-02-24T07:53:34.000Z</time>
      </trkpt>
      <trkpt lat="46.65287" lon="0.4907">
        <ele>176.82</ele>
        <time>2019-02-24T07:53:37.000Z</time>
      </trkpt>
      <trkpt lat="46.65286" lon="0.49084">
        <ele>177.01</ele>
        <time>2019-02-24T07:53:41.000Z</time>
      </trkpt>
      <trkpt lat="46.65288" lon="0.49097">
        <ele>177.23</ele>
        <time>2019-02-24T07:53:45.000Z</time>
      </trkpt>
      <trkpt lat="46.65291" lon="0.49111">
        <ele>177.52</ele>
        <time>2019-02-24T07:53:48.000Z</time>
      </trkpt>
      <trkpt lat="46.65294" lon="0.49125">
        <ele>177.83</ele>
        <time>2019-02-24T07:53:52.000Z</time>
      </trkpt>
      <trkpt lat="46.65293" lon="0.49139">
        <ele>178.05</ele>
        <time>2019-02-24T07:53:55.000Z</time>
      </trkpt>
      <trkpt lat="46.65289" lon="0.49154">
        <ele>178.67</ele>
        <time>2019-02-24T07:54:00.000Z</time>
      </trkpt>
      <trkpt lat="46.65283" lon="0.49168">
        <ele>179.42</ele>
        <time>2019-02-24T07:54:04.000Z</time>
      </trkpt>
      <trkpt lat="46.65281" lon="0.4918">
        <ele>180.25</ele>
        <time>2019-02-24T07:54:07.000Z</time>
      </trkpt>
      <trkpt lat="46.65278" lon="0.49196">
        <ele>181.08</ele>
        <time>2019-02-24T07:54:10.000Z</time>
      </trkpt>
      <trkpt lat="46.65274" lon="0.49211">
        <ele>181.81</ele>
        <time>2019-02-24T07:54:13.000Z</time>
      </trkpt>
      <trkpt lat="46.65271" lon="0.49226">
        <ele>182.39</ele>
        <time>2019-02-24T07:54:16.000Z</time>
      </trkpt>
      <trkpt lat="46.65267" lon="0.49241">
        <ele>182.91</ele>
        <time>2019-02-24T07:54:19.000Z</time>
      </trkpt>
      <trkpt lat="46.65262" lon="0.49255">
        <ele>183.45</ele>
        <time>2019-02-24T07:54:23.000Z</time>
      </trkpt>
      <trkpt lat="46.65258" lon="0.49269">
        <ele>183.82</ele>
        <time>2019-02-24T07:54:26.000Z</time>
      </trkpt>
      <trkpt lat="46.65256" lon="0.49286">
        <ele>184.28</ele>
        <time>2019-02-24T07:54:29.000Z</time>
      </trkpt>
      <trkpt lat="46.65253" lon="0.49302">
        <ele>184.85</ele>
        <time>2019-02-24T07:54:32.000Z</time>
      </trkpt>
      <trkpt lat="46.65252" lon="0.49322">
        <ele>185.32</ele>
        <time>2019-02-24T07:54:35.000Z</time>
      </trkpt>
      <trkpt lat="46.65252" lon="0.49337">
        <ele>185.53</ele>
        <time>2019-02-24T07:54:37.000Z</time>
      </trkpt>
      <trkpt lat="46.6525" lon="0.49353">
        <ele>185.91</ele>
        <time>2019-02-24T07:54:40.000Z</time>
      </trkpt>
      <trkpt lat="46.65247" lon="0.49368">
        <ele>186.41</ele>
        <time>2019-02-24T07:54:43.000Z</time>
      </trkpt>
      <trkpt lat="46.65245" lon="0.49383">
        <ele>186.87</ele>
        <time>2019-02-24T07:54:46.000Z</time>
      </trkpt>
      <trkpt lat="46.65243" lon="0.49397">
        <ele>187.35</ele>
        <time>2019-02-24T07:54:50.000Z</time>
      </trkpt>
      <trkpt lat="46.65239" lon="0.49415">
        <ele>187.68</ele>
        <time>2019-02-24T07:54:54.000Z</time>
      </trkpt>
      <trkpt lat="46.65234" lon="0.49427">
        <ele>187.82</ele>
        <time>2019-02-24T07:54:56.000Z</time>
      </trkpt>
      <trkpt lat="46.65229" lon="0.49441">
        <ele>188.1</ele>
        <time>2019-02-24T07:54:59.000Z</time>
      </trkpt>
      <trkpt lat="46.65223" lon="0.49458">
        <ele>188.39</ele>
        <time>2019-02-24T07:55:02.000Z</time>
      </trkpt>
      <trkpt lat="46.65218" lon="0.49473">
        <ele>188.74</ele>
        <time>2019-02-24T07:55:05.000Z</time>
      </trkpt>
      <trkpt lat="46.65212" lon="0.49491">
        <ele>189.06</ele>
        <time>2019-02-24T07:55:08.000Z</time>
      </trkpt>
      <trkpt lat="46.65204" lon="0.49504">
        <ele>189.32</ele>
        <time>2019-02-24T07:55:11.000Z</time>
      </trkpt>
      <trkpt lat="46.65206" lon="0.4952">
        <ele>189.65</ele>
        <time>2019-02-24T07:55:16.000Z</time>
      </trkpt>
      <trkpt lat="46.65213" lon="0.49532">
        <ele>189.63</ele>
        <time>2019-02-24T07:55:19.000Z</time>
      </trkpt>
      <trkpt lat="46.6522" lon="0.49547">
        <ele>189.43</ele>
        <time>2019-02-24T07:55:22.000Z</time>
      </trkpt>
      <trkpt lat="46.65226" lon="0.49561">
        <ele>189.17</ele>
        <time>2019-02-24T07:55:25.000Z</time>
      </trkpt>
      <trkpt lat="46.65233" lon="0.49576">
        <ele>189</ele>
        <time>2019-02-24T07:55:28.000Z</time>
      </trkpt>
      <trkpt lat="46.65239" lon="0.49591">
        <ele>188.62</ele>
        <time>2019-02-24T07:55:31.000Z</time>
      </trkpt>
      <trkpt lat="46.65246" lon="0.49606">
        <ele>188.18</ele>
        <time>2019-02-24T07:55:34.000Z</time>
      </trkpt>
      <trkpt lat="46.65251" lon="0.49618">
        <ele>187.85</ele>
        <time>2019-02-24T07:55:36.000Z</time>
      </trkpt>
      <trkpt lat="46.65256" lon="0.49629">
        <ele>187.45</ele>
        <time>2019-02-24T07:55:39.000Z</time>
      </trkpt>
      <trkpt lat="46.65262" lon="0.49638">
        <ele>187.04</ele>
        <time>2019-02-24T07:55:42.000Z</time>
      </trkpt>
      <trkpt lat="46.65267" lon="0.49652">
        <ele>186.65</ele>
        <time>2019-02-24T07:55:47.000Z</time>
      </trkpt>
      <trkpt lat="46.65273" lon="0.49664">
        <ele>186.58</ele>
        <time>2019-02-24T07:55:49.000Z</time>
      </trkpt>
      <trkpt lat="46.65278" lon="0.4968">
        <ele>186.22</ele>
        <time>2019-02-24T07:55:52.000Z</time>
      </trkpt>
      <trkpt lat="46.65284" lon="0.49692">
        <ele>185.67</ele>
        <time>2019-02-24T07:55:55.000Z</time>
      </trkpt>
      <trkpt lat="46.65288" lon="0.49705">
        <ele>184.92</ele>
        <time>2019-02-24T07:55:58.000Z</time>
      </trkpt>
      <trkpt lat="46.65292" lon="0.49719">
        <ele>184.03</ele>
        <time>2019-02-24T07:56:02.000Z</time>
      </trkpt>
      <trkpt lat="46.65302" lon="0.49732">
        <ele>181.03</ele>
        <time>2019-02-24T07:56:06.000Z</time>
      </trkpt>
      <trkpt lat="46.65308" lon="0.49745">
        <ele>176.66</ele>
        <time>2019-02-24T07:56:09.000Z</time>
      </trkpt>
      <trkpt lat="46.65315" lon="0.49757">
        <ele>174.84</ele>
        <time>2019-02-24T07:56:11.000Z</time>
      </trkpt>
      <trkpt lat="46.6532" lon="0.4977">
        <ele>173.17</ele>
        <time>2019-02-24T07:56:13.000Z</time>
      </trkpt>
      <trkpt lat="46.65328" lon="0.49788">
        <ele>172.79</ele>
        <time>2019-02-24T07:56:16.000Z</time>
      </trkpt>
      <trkpt lat="46.65334" lon="0.49804">
        <ele>172.37</ele>
        <time>2019-02-24T07:56:18.000Z</time>
      </trkpt>
      <trkpt lat="46.65342" lon="0.49821">
        <ele>171.5</ele>
        <time>2019-02-24T07:56:20.000Z</time>
      </trkpt>
      <trkpt lat="46.6535" lon="0.49838">
        <ele>170.49</ele>
        <time>2019-02-24T07:56:22.000Z</time>
      </trkpt>
      <trkpt lat="46.6536" lon="0.49855">
        <ele>168.83</ele>
        <time>2019-02-24T07:56:24.000Z</time>
      </trkpt>
      <trkpt lat="46.65369" lon="0.49871">
        <ele>167.15</ele>
        <time>2019-02-24T07:56:26.000Z</time>
      </trkpt>
      <trkpt lat="46.65377" lon="0.49886">
        <ele>165.89</ele>
        <time>2019-02-24T07:56:28.000Z</time>
      </trkpt>
      <trkpt lat="46.65385" lon="0.49901">
        <ele>165.14</ele>
        <time>2019-02-24T07:56:30.000Z</time>
      </trkpt>
      <trkpt lat="46.65395" lon="0.49917">
        <ele>164.86</ele>
        <time>2019-02-24T07:56:32.000Z</time>
      </trkpt>
      <trkpt lat="46.65404" lon="0.49933">
        <ele>164.18</ele>
        <time>2019-02-24T07:56:34.000Z</time>
      </trkpt>
      <trkpt lat="46.65413" lon="0.49949">
        <ele>163.64</ele>
        <time>2019-02-24T07:56:36.000Z</time>
      </trkpt>
      <trkpt lat="46.65421" lon="0.49964">
        <ele>163.41</ele>
        <time>2019-02-24T07:56:38.000Z</time>
      </trkpt>
      <trkpt lat="46.65428" lon="0.4998">
        <ele>162.84</ele>
        <time>2019-02-24T07:56:40.000Z</time>
      </trkpt>
      <trkpt lat="46.65435" lon="0.49994">
        <ele>163.04</ele>
        <time>2019-02-24T07:56:42.000Z</time>
      </trkpt>
      <trkpt lat="46.6544" lon="0.50006">
        <ele>163.21</ele>
        <time>2019-02-24T07:56:44.000Z</time>
      </trkpt>
      <trkpt lat="46.65444" lon="0.5002">
        <ele>163.3</ele>
        <time>2019-02-24T07:56:59.000Z</time>
      </trkpt>
      <trkpt lat="46.65456" lon="0.50009">
        <ele>163.72</ele>
        <time>2019-02-24T07:58:46.000Z</time>
      </trkpt>
      <trkpt lat="46.65468" lon="0.49997">
        <ele>163.88</ele>
        <time>2019-02-24T07:58:48.000Z</time>
      </trkpt>
      <trkpt lat="46.65479" lon="0.49989">
        <ele>164.03</ele>
        <time>2019-02-24T07:58:50.000Z</time>
      </trkpt>
      <trkpt lat="46.65489" lon="0.49981">
        <ele>164.52</ele>
        <time>2019-02-24T07:59:00.000Z</time>
      </trkpt>
      <trkpt lat="46.655" lon="0.49971">
        <ele>164.78</ele>
        <time>2019-02-24T07:59:04.000Z</time>
      </trkpt>
      <trkpt lat="46.65508" lon="0.49963">
        <ele>165.13</ele>
        <time>2019-02-24T07:59:07.000Z</time>
      </trkpt>
      <trkpt lat="46.65517" lon="0.49954">
        <ele>165.44</ele>
        <time>2019-02-24T07:59:10.000Z</time>
      </trkpt>
      <trkpt lat="46.65527" lon="0.49943">
        <ele>165.8</ele>
        <time>2019-02-24T07:59:13.000Z</time>
      </trkpt>
      <trkpt lat="46.65538" lon="0.49931">
        <ele>166.2</ele>
        <time>2019-02-24T07:59:16.000Z</time>
      </trkpt>
      <trkpt lat="46.65549" lon="0.49922">
        <ele>166.78</ele>
        <time>2019-02-24T07:59:19.000Z</time>
      </trkpt>
      <trkpt lat="46.65558" lon="0.49913">
        <ele>167.53</ele>
        <time>2019-02-24T07:59:22.000Z</time>
      </trkpt>
      <trkpt lat="46.65566" lon="0.49906">
        <ele>168.28</ele>
        <time>2019-02-24T07:59:25.000Z</time>
      </trkpt>
      <trkpt lat="46.65575" lon="0.49898">
        <ele>168.95</ele>
        <time>2019-02-24T07:59:28.000Z</time>
      </trkpt>
      <trkpt lat="46.65585" lon="0.49887">
        <ele>169.48</ele>
        <time>2019-02-24T07:59:31.000Z</time>
      </trkpt>
      <trkpt lat="46.65594" lon="0.49876">
        <ele>169.99</ele>
        <time>2019-02-24T07:59:34.000Z</time>
      </trkpt>
      <trkpt lat="46.65602" lon="0.49866">
        <ele>170.59</ele>
        <time>2019-02-24T07:59:38.000Z</time>
      </trkpt>
      <trkpt lat="46.65611" lon="0.49857">
        <ele>170.86</ele>
        <time>2019-02-24T07:59:41.000Z</time>
      </trkpt>
      <trkpt lat="46.65622" lon="0.49846">
        <ele>171.2</ele>
        <time>2019-02-24T07:59:44.000Z</time>
      </trkpt>
      <trkpt lat="46.6563" lon="0.49836">
        <ele>171.65</ele>
        <time>2019-02-24T07:59:47.000Z</time>
      </trkpt>
      <trkpt lat="46.65638" lon="0.49828">
        <ele>171.97</ele>
        <time>2019-02-24T07:59:50.000Z</time>
      </trkpt>
      <trkpt lat="46.65646" lon="0.49819">
        <ele>172.14</ele>
        <time>2019-02-24T07:59:53.000Z</time>
      </trkpt>
      <trkpt lat="46.65655" lon="0.49809">
        <ele>172.36</ele>
        <time>2019-02-24T07:59:56.000Z</time>
      </trkpt>
      <trkpt lat="46.65663" lon="0.498">
        <ele>172.67</ele>
        <time>2019-02-24T07:59:59.000Z</time>
      </trkpt>
      <trkpt lat="46.65671" lon="0.49791">
        <ele>172.98</ele>
        <time>2019-02-24T08:00:02.000Z</time>
      </trkpt>
      <trkpt lat="46.6568" lon="0.49781">
        <ele>173.3</ele>
        <time>2019-02-24T08:00:06.000Z</time>
      </trkpt>
      <trkpt lat="46.65691" lon="0.4977">
        <ele>173.51</ele>
        <time>2019-02-24T08:00:09.000Z</time>
      </trkpt>
      <trkpt lat="46.65699" lon="0.4976">
        <ele>173.71</ele>
        <time>2019-02-24T08:00:13.000Z</time>
      </trkpt>
      <trkpt lat="46.65709" lon="0.4975">
        <ele>174.07</ele>
        <time>2019-02-24T08:00:16.000Z</time>
      </trkpt>
      <trkpt lat="46.65718" lon="0.4974">
        <ele>174.12</ele>
        <time>2019-02-24T08:00:19.000Z</time>
      </trkpt>
      <trkpt lat="46.65726" lon="0.49731">
        <ele>174.18</ele>
        <time>2019-02-24T08:00:22.000Z</time>
      </trkpt>
      <trkpt lat="46.65736" lon="0.4973">
        <ele>174.21</ele>
        <time>2019-02-24T08:00:27.000Z</time>
      </trkpt>
      <trkpt lat="46.65743" lon="0.49741">
        <ele>173.22</ele>
        <time>2019-02-24T08:00:29.000Z</time>
      </trkpt>
      <trkpt lat="46.65749" lon="0.49753">
        <ele>171.23</ele>
        <time>2019-02-24T08:00:31.000Z</time>
      </trkpt>
      <trkpt lat="46.65756" lon="0.49766">
        <ele>169.67</ele>
        <time>2019-02-24T08:00:33.000Z</time>
      </trkpt>
      <trkpt lat="46.65763" lon="0.49779">
        <ele>168.1</ele>
        <time>2019-02-24T08:00:35.000Z</time>
      </trkpt>
      <trkpt lat="46.65772" lon="0.49793">
        <ele>167.05</ele>
        <time>2019-02-24T08:00:38.000Z</time>
      </trkpt>
      <trkpt lat="46.65779" lon="0.49809">
        <ele>167.4</ele>
        <time>2019-02-24T08:00:40.000Z</time>
      </trkpt>
      <trkpt lat="46.65788" lon="0.49828">
        <ele>167.61</ele>
        <time>2019-02-24T08:00:42.000Z</time>
      </trkpt>
      <trkpt lat="46.65796" lon="0.49842">
        <ele>168.18</ele>
        <time>2019-02-24T08:00:45.000Z</time>
      </trkpt>
      <trkpt lat="46.65804" lon="0.4986">
        <ele>168.34</ele>
        <time>2019-02-24T08:00:48.000Z</time>
      </trkpt>
      <trkpt lat="46.65811" lon="0.49873">
        <ele>168.55</ele>
        <time>2019-02-24T08:00:50.000Z</time>
      </trkpt>
      <trkpt lat="46.65818" lon="0.49889">
        <ele>168.49</ele>
        <time>2019-02-24T08:00:53.000Z</time>
      </trkpt>
      <trkpt lat="46.65825" lon="0.49902">
        <ele>167.87</ele>
        <time>2019-02-24T08:00:55.000Z</time>
      </trkpt>
      <trkpt lat="46.65831" lon="0.49915">
        <ele>168.05</ele>
        <time>2019-02-24T08:00:57.000Z</time>
      </trkpt>
      <trkpt lat="46.6584" lon="0.49933">
        <ele>167.67</ele>
        <time>2019-02-24T08:00:59.000Z</time>
      </trkpt>
      <trkpt lat="46.65846" lon="0.49944">
        <ele>166.91</ele>
        <time>2019-02-24T08:01:01.000Z</time>
      </trkpt>
      <trkpt lat="46.65853" lon="0.4996">
        <ele>166.23</ele>
        <time>2019-02-24T08:01:03.000Z</time>
      </trkpt>
      <trkpt lat="46.65859" lon="0.49974">
        <ele>165.85</ele>
        <time>2019-02-24T08:01:05.000Z</time>
      </trkpt>
      <trkpt lat="46.65864" lon="0.49985">
        <ele>165.31</ele>
        <time>2019-02-24T08:01:07.000Z</time>
      </trkpt>
      <trkpt lat="46.65872" lon="0.5">
        <ele>165.03</ele>
        <time>2019-02-24T08:01:10.000Z</time>
      </trkpt>
      <trkpt lat="46.65877" lon="0.50011">
        <ele>164.97</ele>
        <time>2019-02-24T08:01:12.000Z</time>
      </trkpt>
      <trkpt lat="46.65886" lon="0.50029">
        <ele>164.68</ele>
        <time>2019-02-24T08:01:14.000Z</time>
      </trkpt>
      <trkpt lat="46.65892" lon="0.50043">
        <ele>164.09</ele>
        <time>2019-02-24T08:01:16.000Z</time>
      </trkpt>
      <trkpt lat="46.65898" lon="0.50055">
        <ele>163.35</ele>
        <time>2019-02-24T08:01:18.000Z</time>
      </trkpt>
      <trkpt lat="46.65903" lon="0.50067">
        <ele>162.47</ele>
        <time>2019-02-24T08:01:20.000Z</time>
      </trkpt>
      <trkpt lat="46.6591" lon="0.5008">
        <ele>161.63</ele>
        <time>2019-02-24T08:01:22.000Z</time>
      </trkpt>
      <trkpt lat="46.65918" lon="0.50095">
        <ele>161.01</ele>
        <time>2019-02-24T08:01:24.000Z</time>
      </trkpt>
      <trkpt lat="46.65926" lon="0.5011">
        <ele>160.71</ele>
        <time>2019-02-24T08:01:26.000Z</time>
      </trkpt>
      <trkpt lat="46.65934" lon="0.50125">
        <ele>160.51</ele>
        <time>2019-02-24T08:01:28.000Z</time>
      </trkpt>
      <trkpt lat="46.65942" lon="0.5014">
        <ele>160.07</ele>
        <time>2019-02-24T08:01:30.000Z</time>
      </trkpt>
      <trkpt lat="46.6595" lon="0.50152">
        <ele>160.42</ele>
        <time>2019-02-24T08:01:32.000Z</time>
      </trkpt>
      <trkpt lat="46.65958" lon="0.50165">
        <ele>161.37</ele>
        <time>2019-02-24T08:01:34.000Z</time>
      </trkpt>
      <trkpt lat="46.65966" lon="0.5018">
        <ele>161.99</ele>
        <time>2019-02-24T08:01:36.000Z</time>
      </trkpt>
      <trkpt lat="46.65974" lon="0.50196">
        <ele>162.17</ele>
        <time>2019-02-24T08:01:38.000Z</time>
      </trkpt>
      <trkpt lat="46.65982" lon="0.50212">
        <ele>162.17</ele>
        <time>2019-02-24T08:01:40.000Z</time>
      </trkpt>
      <trkpt lat="46.65991" lon="0.50227">
        <ele>162.23</ele>
        <time>2019-02-24T08:01:42.000Z</time>
      </trkpt>
      <trkpt lat="46.65999" lon="0.50242">
        <ele>162.43</ele>
        <time>2019-02-24T08:01:44.000Z</time>
      </trkpt>
      <trkpt lat="46.66007" lon="0.50259">
        <ele>162.66</ele>
        <time>2019-02-24T08:01:46.000Z</time>
      </trkpt>
      <trkpt lat="46.66015" lon="0.50275">
        <ele>162.75</ele>
        <time>2019-02-24T08:01:48.000Z</time>
      </trkpt>
      <trkpt lat="46.66023" lon="0.5029">
        <ele>162.7</ele>
        <time>2019-02-24T08:01:50.000Z</time>
      </trkpt>
      <trkpt lat="46.66031" lon="0.50307">
        <ele>162.76</ele>
        <time>2019-02-24T08:01:52.000Z</time>
      </trkpt>
      <trkpt lat="46.6604" lon="0.50323">
        <ele>162.81</ele>
        <time>2019-02-24T08:01:54.000Z</time>
      </trkpt>
      <trkpt lat="46.66049" lon="0.50339">
        <ele>162.9</ele>
        <time>2019-02-24T08:01:56.000Z</time>
      </trkpt>
      <trkpt lat="46.66057" lon="0.50356">
        <ele>163.05</ele>
        <time>2019-02-24T08:01:58.000Z</time>
      </trkpt>
      <trkpt lat="46.66064" lon="0.5037">
        <ele>163.23</ele>
        <time>2019-02-24T08:02:00.000Z</time>
      </trkpt>
      <trkpt lat="46.66069" lon="0.50384">
        <ele>163.1</ele>
        <time>2019-02-24T08:02:02.000Z</time>
      </trkpt>
      <trkpt lat="46.66076" lon="0.50398">
        <ele>162.87</ele>
        <time>2019-02-24T08:02:04.000Z</time>
      </trkpt>
      <trkpt lat="46.66082" lon="0.50413">
        <ele>162.86</ele>
        <time>2019-02-24T08:02:06.000Z</time>
      </trkpt>
      <trkpt lat="46.66088" lon="0.50426">
        <ele>163.21</ele>
        <time>2019-02-24T08:02:08.000Z</time>
      </trkpt>
      <trkpt lat="46.66093" lon="0.50438">
        <ele>163.26</ele>
        <time>2019-02-24T08:02:10.000Z</time>
      </trkpt>
      <trkpt lat="46.661" lon="0.50453">
        <ele>162.95</ele>
        <time>2019-02-24T08:02:13.000Z</time>
      </trkpt>
      <trkpt lat="46.66106" lon="0.50465">
        <ele>162.98</ele>
        <time>2019-02-24T08:02:15.000Z</time>
      </trkpt>
      <trkpt lat="46.66112" lon="0.50478">
        <ele>163</ele>
        <time>2019-02-24T08:02:17.000Z</time>
      </trkpt>
      <trkpt lat="46.66118" lon="0.5049">
        <ele>162.83</ele>
        <time>2019-02-24T08:02:19.000Z</time>
      </trkpt>
      <trkpt lat="46.66125" lon="0.50504">
        <ele>162.51</ele>
        <time>2019-02-24T08:02:21.000Z</time>
      </trkpt>
      <trkpt lat="46.66132" lon="0.50519">
        <ele>162.12</ele>
        <time>2019-02-24T08:02:23.000Z</time>
      </trkpt>
      <trkpt lat="46.6614" lon="0.50531">
        <ele>161.88</ele>
        <time>2019-02-24T08:02:25.000Z</time>
      </trkpt>
      <trkpt lat="46.66146" lon="0.50542">
        <ele>161.77</ele>
        <time>2019-02-24T08:02:27.000Z</time>
      </trkpt>
      <trkpt lat="46.66151" lon="0.50557">
        <ele>161.59</ele>
        <time>2019-02-24T08:02:29.000Z</time>
      </trkpt>
      <trkpt lat="46.6616" lon="0.50572">
        <ele>161.37</ele>
        <time>2019-02-24T08:02:31.000Z</time>
      </trkpt>
      <trkpt lat="46.66167" lon="0.50585">
        <ele>160.91</ele>
        <time>2019-02-24T08:02:33.000Z</time>
      </trkpt>
      <trkpt lat="46.66174" lon="0.50596">
        <ele>160.37</ele>
        <time>2019-02-24T08:02:35.000Z</time>
      </trkpt>
      <trkpt lat="46.6618" lon="0.50607">
        <ele>159.83</ele>
        <time>2019-02-24T08:02:37.000Z</time>
      </trkpt>
      <trkpt lat="46.66186" lon="0.50623">
        <ele>159.53</ele>
        <time>2019-02-24T08:02:40.000Z</time>
      </trkpt>
      <trkpt lat="46.66193" lon="0.50637">
        <ele>159.42</ele>
        <time>2019-02-24T08:02:43.000Z</time>
      </trkpt>
      <trkpt lat="46.66199" lon="0.50652">
        <ele>158.9</ele>
        <time>2019-02-24T08:02:46.000Z</time>
      </trkpt>
      <trkpt lat="46.66206" lon="0.50668">
        <ele>159.01</ele>
        <time>2019-02-24T08:02:49.000Z</time>
      </trkpt>
      <trkpt lat="46.66213" lon="0.50683">
        <ele>159.19</ele>
        <time>2019-02-24T08:02:52.000Z</time>
      </trkpt>
      <trkpt lat="46.66222" lon="0.50699">
        <ele>159.47</ele>
        <time>2019-02-24T08:02:55.000Z</time>
      </trkpt>
      <trkpt lat="46.66229" lon="0.5071">
        <ele>158.84</ele>
        <time>2019-02-24T08:02:57.000Z</time>
      </trkpt>
      <trkpt lat="46.66234" lon="0.50721">
        <ele>158.36</ele>
        <time>2019-02-24T08:02:59.000Z</time>
      </trkpt>
      <trkpt lat="46.6624" lon="0.50733">
        <ele>158.15</ele>
        <time>2019-02-24T08:03:01.000Z</time>
      </trkpt>
      <trkpt lat="46.66245" lon="0.50746">
        <ele>158.56</ele>
        <time>2019-02-24T08:03:03.000Z</time>
      </trkpt>
      <trkpt lat="46.66251" lon="0.50758">
        <ele>158.68</ele>
        <time>2019-02-24T08:03:05.000Z</time>
      </trkpt>
      <trkpt lat="46.66257" lon="0.50772">
        <ele>158.92</ele>
        <time>2019-02-24T08:03:07.000Z</time>
      </trkpt>
      <trkpt lat="46.66265" lon="0.50787">
        <ele>158.78</ele>
        <time>2019-02-24T08:03:09.000Z</time>
      </trkpt>
      <trkpt lat="46.66274" lon="0.50804">
        <ele>158.73</ele>
        <time>2019-02-24T08:03:11.000Z</time>
      </trkpt>
      <trkpt lat="46.66278" lon="0.50816">
        <ele>159.32</ele>
        <time>2019-02-24T08:03:13.000Z</time>
      </trkpt>
      <trkpt lat="46.66284" lon="0.5083">
        <ele>159.36</ele>
        <time>2019-02-24T08:03:15.000Z</time>
      </trkpt>
      <trkpt lat="46.6629" lon="0.50841">
        <ele>158.64</ele>
        <time>2019-02-24T08:03:17.000Z</time>
      </trkpt>
      <trkpt lat="46.66297" lon="0.50855">
        <ele>157.15</ele>
        <time>2019-02-24T08:03:19.000Z</time>
      </trkpt>
      <trkpt lat="46.66303" lon="0.50866">
        <ele>156.73</ele>
        <time>2019-02-24T08:03:21.000Z</time>
      </trkpt>
      <trkpt lat="46.66308" lon="0.50877">
        <ele>156.56</ele>
        <time>2019-02-24T08:03:23.000Z</time>
      </trkpt>
      <trkpt lat="46.66316" lon="0.50892">
        <ele>156.39</ele>
        <time>2019-02-24T08:03:27.000Z</time>
      </trkpt>
      <trkpt lat="46.66323" lon="0.50901">
        <ele>156.8</ele>
        <time>2019-02-24T08:03:32.000Z</time>
      </trkpt>
      <trkpt lat="46.6633" lon="0.50914">
        <ele>157.5</ele>
        <time>2019-02-24T08:03:37.000Z</time>
      </trkpt>
      <trkpt lat="46.66336" lon="0.50925">
        <ele>157.94</ele>
        <time>2019-02-24T08:03:41.000Z</time>
      </trkpt>
      <trkpt lat="46.66344" lon="0.5094">
        <ele>158.32</ele>
        <time>2019-02-24T08:03:45.000Z</time>
      </trkpt>
      <trkpt lat="46.6635" lon="0.50953">
        <ele>158.64</ele>
        <time>2019-02-24T08:03:50.000Z</time>
      </trkpt>
      <trkpt lat="46.66358" lon="0.50966">
        <ele>159.09</ele>
        <time>2019-02-24T08:03:54.000Z</time>
      </trkpt>
      <trkpt lat="46.66363" lon="0.50978">
        <ele>159.46</ele>
        <time>2019-02-24T08:03:58.000Z</time>
      </trkpt>
      <trkpt lat="46.66368" lon="0.50992">
        <ele>160.34</ele>
        <time>2019-02-24T08:04:03.000Z</time>
      </trkpt>
      <trkpt lat="46.66373" lon="0.51003">
        <ele>160.84</ele>
        <time>2019-02-24T08:04:06.000Z</time>
      </trkpt>
      <trkpt lat="46.66378" lon="0.51016">
        <ele>161.16</ele>
        <time>2019-02-24T08:04:10.000Z</time>
      </trkpt>
      <trkpt lat="46.66384" lon="0.51027">
        <ele>161.23</ele>
        <time>2019-02-24T08:04:14.000Z</time>
      </trkpt>
      <trkpt lat="46.6639" lon="0.51038">
        <ele>161.56</ele>
        <time>2019-02-24T08:04:19.000Z</time>
      </trkpt>
      <trkpt lat="46.66397" lon="0.51052">
        <ele>162.02</ele>
        <time>2019-02-24T08:04:23.000Z</time>
      </trkpt>
      <trkpt lat="46.66403" lon="0.51063">
        <ele>162.3</ele>
        <time>2019-02-24T08:04:27.000Z</time>
      </trkpt>
      <trkpt lat="46.66409" lon="0.51075">
        <ele>162.59</ele>
        <time>2019-02-24T08:04:31.000Z</time>
      </trkpt>
      <trkpt lat="46.66416" lon="0.51088">
        <ele>163.09</ele>
        <time>2019-02-24T08:04:35.000Z</time>
      </trkpt>
      <trkpt lat="46.66422" lon="0.51103">
        <ele>163.45</ele>
        <time>2019-02-24T08:04:38.000Z</time>
      </trkpt>
      <trkpt lat="46.66427" lon="0.51114">
        <ele>163.77</ele>
        <time>2019-02-24T08:04:41.000Z</time>
      </trkpt>
      <trkpt lat="46.66435" lon="0.51128">
        <ele>164.08</ele>
        <time>2019-02-24T08:04:44.000Z</time>
      </trkpt>
      <trkpt lat="46.66444" lon="0.51133">
        <ele>164.14</ele>
        <time>2019-02-24T08:04:48.000Z</time>
      </trkpt>
      <trkpt lat="46.66456" lon="0.51127">
        <ele>164.02</ele>
        <time>2019-02-24T08:04:51.000Z</time>
      </trkpt>
      <trkpt lat="46.66465" lon="0.51119">
        <ele>163.9</ele>
        <time>2019-02-24T08:04:54.000Z</time>
      </trkpt>
      <trkpt lat="46.66474" lon="0.5111">
        <ele>163.65</ele>
        <time>2019-02-24T08:04:58.000Z</time>
      </trkpt>
      <trkpt lat="46.66481" lon="0.51103">
        <ele>163.49</ele>
        <time>2019-02-24T08:05:01.000Z</time>
      </trkpt>
      <trkpt lat="46.66493" lon="0.5109">
        <ele>163.36</ele>
        <time>2019-02-24T08:05:04.000Z</time>
      </trkpt>
      <trkpt lat="46.665" lon="0.51082">
        <ele>163.3</ele>
        <time>2019-02-24T08:05:06.000Z</time>
      </trkpt>
      <trkpt lat="46.66509" lon="0.51075">
        <ele>163.27</ele>
        <time>2019-02-24T08:05:08.000Z</time>
      </trkpt>
      <trkpt lat="46.6652" lon="0.51065">
        <ele>163.86</ele>
        <time>2019-02-24T08:05:10.000Z</time>
      </trkpt>
      <trkpt lat="46.66529" lon="0.51057">
        <ele>164.37</ele>
        <time>2019-02-24T08:05:12.000Z</time>
      </trkpt>
      <trkpt lat="46.66537" lon="0.51049">
        <ele>165.92</ele>
        <time>2019-02-24T08:05:14.000Z</time>
      </trkpt>
      <trkpt lat="46.66546" lon="0.51038">
        <ele>167.66</ele>
        <time>2019-02-24T08:05:16.000Z</time>
      </trkpt>
      <trkpt lat="46.66553" lon="0.5103">
        <ele>168.7</ele>
        <time>2019-02-24T08:05:19.000Z</time>
      </trkpt>
      <trkpt lat="46.66563" lon="0.51018">
        <ele>167.91</ele>
        <time>2019-02-24T08:05:22.000Z</time>
      </trkpt>
      <trkpt lat="46.66573" lon="0.51009">
        <ele>167.83</ele>
        <time>2019-02-24T08:05:25.000Z</time>
      </trkpt>
      <trkpt lat="46.66581" lon="0.50998">
        <ele>167.85</ele>
        <time>2019-02-24T08:05:28.000Z</time>
      </trkpt>
      <trkpt lat="46.6659" lon="0.50987">
        <ele>167.89</ele>
        <time>2019-02-24T08:05:31.000Z</time>
      </trkpt>
      <trkpt lat="46.66598" lon="0.50977">
        <ele>167.9</ele>
        <time>2019-02-24T08:05:34.000Z</time>
      </trkpt>
      <trkpt lat="46.66607" lon="0.50969">
        <ele>167.91</ele>
        <time>2019-02-24T08:05:37.000Z</time>
      </trkpt>
      <trkpt lat="46.66615" lon="0.50961">
        <ele>167.95</ele>
        <time>2019-02-24T08:05:39.000Z</time>
      </trkpt>
      <trkpt lat="46.66625" lon="0.50953">
        <ele>168.13</ele>
        <time>2019-02-24T08:05:42.000Z</time>
      </trkpt>
      <trkpt lat="46.66633" lon="0.50945">
        <ele>168.3</ele>
        <time>2019-02-24T08:05:45.000Z</time>
      </trkpt>
      <trkpt lat="46.66641" lon="0.50935">
        <ele>168.48</ele>
        <time>2019-02-24T08:05:48.000Z</time>
      </trkpt>
      <trkpt lat="46.66649" lon="0.50928">
        <ele>168.81</ele>
        <time>2019-02-24T08:05:51.000Z</time>
      </trkpt>
      <trkpt lat="46.66656" lon="0.50921">
        <ele>169.22</ele>
        <time>2019-02-24T08:05:54.000Z</time>
      </trkpt>
      <trkpt lat="46.66665" lon="0.50913">
        <ele>169.74</ele>
        <time>2019-02-24T08:05:57.000Z</time>
      </trkpt>
      <trkpt lat="46.66674" lon="0.50904">
        <ele>170.43</ele>
        <time>2019-02-24T08:06:00.000Z</time>
      </trkpt>
      <trkpt lat="46.66683" lon="0.50894">
        <ele>171.11</ele>
        <time>2019-02-24T08:06:03.000Z</time>
      </trkpt>
      <trkpt lat="46.6669" lon="0.50885">
        <ele>171.69</ele>
        <time>2019-02-24T08:06:06.000Z</time>
      </trkpt>
      <trkpt lat="46.66699" lon="0.50876">
        <ele>172.18</ele>
        <time>2019-02-24T08:06:09.000Z</time>
      </trkpt>
      <trkpt lat="46.66709" lon="0.50866">
        <ele>172.84</ele>
        <time>2019-02-24T08:06:13.000Z</time>
      </trkpt>
      <trkpt lat="46.66716" lon="0.50856">
        <ele>173.28</ele>
        <time>2019-02-24T08:06:16.000Z</time>
      </trkpt>
      <trkpt lat="46.66724" lon="0.50847">
        <ele>173.53</ele>
        <time>2019-02-24T08:06:19.000Z</time>
      </trkpt>
      <trkpt lat="46.66732" lon="0.5084">
        <ele>173.86</ele>
        <time>2019-02-24T08:06:23.000Z</time>
      </trkpt>
      <trkpt lat="46.66741" lon="0.5083">
        <ele>174.68</ele>
        <time>2019-02-24T08:06:29.000Z</time>
      </trkpt>
      <trkpt lat="46.6675" lon="0.50824">
        <ele>175.3</ele>
        <time>2019-02-24T08:06:34.000Z</time>
      </trkpt>
      <trkpt lat="46.66759" lon="0.50815">
        <ele>175.64</ele>
        <time>2019-02-24T08:06:39.000Z</time>
      </trkpt>
      <trkpt lat="46.66771" lon="0.50807">
        <ele>175.82</ele>
        <time>2019-02-24T08:06:43.000Z</time>
      </trkpt>
      <trkpt lat="46.66779" lon="0.50797">
        <ele>175.95</ele>
        <time>2019-02-24T08:06:45.000Z</time>
      </trkpt>
      <trkpt lat="46.66787" lon="0.50787">
        <ele>176.05</ele>
        <time>2019-02-24T08:06:47.000Z</time>
      </trkpt>
      <trkpt lat="46.66795" lon="0.50778">
        <ele>176.12</ele>
        <time>2019-02-24T08:06:49.000Z</time>
      </trkpt>
      <trkpt lat="46.66808" lon="0.50766">
        <ele>176.14</ele>
        <time>2019-02-24T08:06:52.000Z</time>
      </trkpt>
      <trkpt lat="46.66816" lon="0.50759">
        <ele>176.16</ele>
        <time>2019-02-24T08:06:54.000Z</time>
      </trkpt>
      <trkpt lat="46.66826" lon="0.50752">
        <ele>176.34</ele>
        <time>2019-02-24T08:06:57.000Z</time>
      </trkpt>
      <trkpt lat="46.66835" lon="0.5074">
        <ele>176.54</ele>
        <time>2019-02-24T08:07:00.000Z</time>
      </trkpt>
      <trkpt lat="46.66845" lon="0.50727">
        <ele>176.67</ele>
        <time>2019-02-24T08:07:03.000Z</time>
      </trkpt>
      <trkpt lat="46.66852" lon="0.50718">
        <ele>176.73</ele>
        <time>2019-02-24T08:07:06.000Z</time>
      </trkpt>
      <trkpt lat="46.66863" lon="0.50707">
        <ele>176.65</ele>
        <time>2019-02-24T08:07:09.000Z</time>
      </trkpt>
      <trkpt lat="46.66873" lon="0.50697">
        <ele>176.46</ele>
        <time>2019-02-24T08:07:12.000Z</time>
      </trkpt>
      <trkpt lat="46.66882" lon="0.50687">
        <ele>176.27</ele>
        <time>2019-02-24T08:07:15.000Z</time>
      </trkpt>
      <trkpt lat="46.66889" lon="0.50677">
        <ele>175.98</ele>
        <time>2019-02-24T08:07:18.000Z</time>
      </trkpt>
      <trkpt lat="46.669" lon="0.50668">
        <ele>175.67</ele>
        <time>2019-02-24T08:07:22.000Z</time>
      </trkpt>
      <trkpt lat="46.66909" lon="0.50655">
        <ele>175.51</ele>
        <time>2019-02-24T08:07:25.000Z</time>
      </trkpt>
      <trkpt lat="46.66916" lon="0.50647">
        <ele>175.29</ele>
        <time>2019-02-24T08:07:28.000Z</time>
      </trkpt>
      <trkpt lat="46.66927" lon="0.5064">
        <ele>175.01</ele>
        <time>2019-02-24T08:07:32.000Z</time>
      </trkpt>
      <trkpt lat="46.66936" lon="0.50631">
        <ele>174.89</ele>
        <time>2019-02-24T08:07:36.000Z</time>
      </trkpt>
      <trkpt lat="46.66946" lon="0.50623">
        <ele>174.99</ele>
        <time>2019-02-24T08:07:39.000Z</time>
      </trkpt>
      <trkpt lat="46.66955" lon="0.50615">
        <ele>175.38</ele>
        <time>2019-02-24T08:07:43.000Z</time>
      </trkpt>
      <trkpt lat="46.66964" lon="0.50603">
        <ele>175.84</ele>
        <time>2019-02-24T08:07:47.000Z</time>
      </trkpt>
      <trkpt lat="46.66972" lon="0.50597">
        <ele>176.39</ele>
        <time>2019-02-24T08:07:51.000Z</time>
      </trkpt>
      <trkpt lat="46.6698" lon="0.50587">
        <ele>176.96</ele>
        <time>2019-02-24T08:07:55.000Z</time>
      </trkpt>
      <trkpt lat="46.66987" lon="0.50578">
        <ele>177.25</ele>
        <time>2019-02-24T08:07:57.000Z</time>
      </trkpt>
      <trkpt lat="46.66996" lon="0.50566">
        <ele>177.64</ele>
        <time>2019-02-24T08:08:00.000Z</time>
      </trkpt>
      <trkpt lat="46.67005" lon="0.50558">
        <ele>177.96</ele>
        <time>2019-02-24T08:08:03.000Z</time>
      </trkpt>
      <trkpt lat="46.67013" lon="0.50549">
        <ele>178.29</ele>
        <time>2019-02-24T08:08:08.000Z</time>
      </trkpt>
      <trkpt lat="46.6702" lon="0.5054">
        <ele>178.41</ele>
        <time>2019-02-24T08:08:10.000Z</time>
      </trkpt>
      <trkpt lat="46.67027" lon="0.50532">
        <ele>178.52</ele>
        <time>2019-02-24T08:08:12.000Z</time>
      </trkpt>
      <trkpt lat="46.67036" lon="0.50525">
        <ele>178.71</ele>
        <time>2019-02-24T08:08:15.000Z</time>
      </trkpt>
      <trkpt lat="46.67047" lon="0.50512">
        <ele>178.87</ele>
        <time>2019-02-24T08:08:19.000Z</time>
      </trkpt>
      <trkpt lat="46.67058" lon="0.50502">
        <ele>178.94</ele>
        <time>2019-02-24T08:08:21.000Z</time>
      </trkpt>
      <trkpt lat="46.67067" lon="0.50494">
        <ele>179.49</ele>
        <time>2019-02-24T08:08:23.000Z</time>
      </trkpt>
      <trkpt lat="46.67075" lon="0.50488">
        <ele>180.22</ele>
        <time>2019-02-24T08:08:25.000Z</time>
      </trkpt>
      <trkpt lat="46.67082" lon="0.5048">
        <ele>180.52</ele>
        <time>2019-02-24T08:08:28.000Z</time>
      </trkpt>
      <trkpt lat="46.6709" lon="0.50471">
        <ele>180.89</ele>
        <time>2019-02-24T08:08:31.000Z</time>
      </trkpt>
      <trkpt lat="46.67099" lon="0.5046">
        <ele>181.26</ele>
        <time>2019-02-24T08:08:34.000Z</time>
      </trkpt>
      <trkpt lat="46.67108" lon="0.50453">
        <ele>181.55</ele>
        <time>2019-02-24T08:08:37.000Z</time>
      </trkpt>
      <trkpt lat="46.67116" lon="0.50443">
        <ele>181.8</ele>
        <time>2019-02-24T08:08:40.000Z</time>
      </trkpt>
      <trkpt lat="46.67123" lon="0.50433">
        <ele>181.95</ele>
        <time>2019-02-24T08:08:43.000Z</time>
      </trkpt>
      <trkpt lat="46.67131" lon="0.50424">
        <ele>182.04</ele>
        <time>2019-02-24T08:08:45.000Z</time>
      </trkpt>
      <trkpt lat="46.67142" lon="0.50413">
        <ele>182.02</ele>
        <time>2019-02-24T08:08:48.000Z</time>
      </trkpt>
      <trkpt lat="46.6715" lon="0.50405">
        <ele>182.02</ele>
        <time>2019-02-24T08:08:51.000Z</time>
      </trkpt>
      <trkpt lat="46.67157" lon="0.50397">
        <ele>182.14</ele>
        <time>2019-02-24T08:08:53.000Z</time>
      </trkpt>
      <trkpt lat="46.67165" lon="0.50391">
        <ele>182.27</ele>
        <time>2019-02-24T08:08:57.000Z</time>
      </trkpt>
      <trkpt lat="46.67175" lon="0.50384">
        <ele>182.55</ele>
        <time>2019-02-24T08:09:00.000Z</time>
      </trkpt>
      <trkpt lat="46.67183" lon="0.50376">
        <ele>183</ele>
        <time>2019-02-24T08:09:03.000Z</time>
      </trkpt>
      <trkpt lat="46.67192" lon="0.50367">
        <ele>183.45</ele>
        <time>2019-02-24T08:09:06.000Z</time>
      </trkpt>
      <trkpt lat="46.67201" lon="0.50357">
        <ele>183.87</ele>
        <time>2019-02-24T08:09:09.000Z</time>
      </trkpt>
      <trkpt lat="46.6721" lon="0.50347">
        <ele>184.17</ele>
        <time>2019-02-24T08:09:11.000Z</time>
      </trkpt>
      <trkpt lat="46.67219" lon="0.50336">
        <ele>184.55</ele>
        <time>2019-02-24T08:09:14.000Z</time>
      </trkpt>
      <trkpt lat="46.67231" lon="0.50325">
        <ele>184.81</ele>
        <time>2019-02-24T08:09:16.000Z</time>
      </trkpt>
      <trkpt lat="46.67239" lon="0.50317">
        <ele>185.11</ele>
        <time>2019-02-24T08:09:18.000Z</time>
      </trkpt>
      <trkpt lat="46.67249" lon="0.50305">
        <ele>185.54</ele>
        <time>2019-02-24T08:09:21.000Z</time>
      </trkpt>
      <trkpt lat="46.6726" lon="0.50294">
        <ele>185.98</ele>
        <time>2019-02-24T08:09:24.000Z</time>
      </trkpt>
      <trkpt lat="46.67268" lon="0.50285">
        <ele>187.28</ele>
        <time>2019-02-24T08:09:26.000Z</time>
      </trkpt>
      <trkpt lat="46.67275" lon="0.50275">
        <ele>188.18</ele>
        <time>2019-02-24T08:09:28.000Z</time>
      </trkpt>
      <trkpt lat="46.67284" lon="0.50263">
        <ele>188.2</ele>
        <time>2019-02-24T08:09:33.000Z</time>
      </trkpt>
      <trkpt lat="46.67294" lon="0.50254">
        <ele>187.92</ele>
        <time>2019-02-24T08:09:36.000Z</time>
      </trkpt>
      <trkpt lat="46.67304" lon="0.50263">
        <ele>183.38</ele>
        <time>2019-02-24T08:09:40.000Z</time>
      </trkpt>
      <trkpt lat="46.67309" lon="0.50277">
        <ele>181.27</ele>
        <time>2019-02-24T08:09:42.000Z</time>
      </trkpt>
      <trkpt lat="46.67315" lon="0.50292">
        <ele>179.72</ele>
        <time>2019-02-24T08:09:44.000Z</time>
      </trkpt>
      <trkpt lat="46.67322" lon="0.50307">
        <ele>178.44</ele>
        <time>2019-02-24T08:09:46.000Z</time>
      </trkpt>
      <trkpt lat="46.67329" lon="0.50324">
        <ele>176.54</ele>
        <time>2019-02-24T08:09:48.000Z</time>
      </trkpt>
      <trkpt lat="46.67337" lon="0.50339">
        <ele>174.7</ele>
        <time>2019-02-24T08:09:50.000Z</time>
      </trkpt>
      <trkpt lat="46.67346" lon="0.50356">
        <ele>172.91</ele>
        <time>2019-02-24T08:09:52.000Z</time>
      </trkpt>
      <trkpt lat="46.67353" lon="0.50376">
        <ele>170.96</ele>
        <time>2019-02-24T08:09:54.000Z</time>
      </trkpt>
      <trkpt lat="46.67363" lon="0.50394">
        <ele>169.5</ele>
        <time>2019-02-24T08:09:56.000Z</time>
      </trkpt>
      <trkpt lat="46.67372" lon="0.50415">
        <ele>168.13</ele>
        <time>2019-02-24T08:09:58.000Z</time>
      </trkpt>
      <trkpt lat="46.67378" lon="0.50426">
        <ele>167.4</ele>
        <time>2019-02-24T08:09:59.000Z</time>
      </trkpt>
      <trkpt lat="46.67384" lon="0.50437">
        <ele>166.45</ele>
        <time>2019-02-24T08:10:00.000Z</time>
      </trkpt>
      <trkpt lat="46.67389" lon="0.50449">
        <ele>165.83</ele>
        <time>2019-02-24T08:10:01.000Z</time>
      </trkpt>
      <trkpt lat="46.67394" lon="0.5046">
        <ele>165.24</ele>
        <time>2019-02-24T08:10:02.000Z</time>
      </trkpt>
      <trkpt lat="46.67405" lon="0.50481">
        <ele>163.84</ele>
        <time>2019-02-24T08:10:04.000Z</time>
      </trkpt>
      <trkpt lat="46.67411" lon="0.50491">
        <ele>163.28</ele>
        <time>2019-02-24T08:10:05.000Z</time>
      </trkpt>
      <trkpt lat="46.67417" lon="0.50501">
        <ele>162.65</ele>
        <time>2019-02-24T08:10:06.000Z</time>
      </trkpt>
      <trkpt lat="46.67423" lon="0.50512">
        <ele>161.98</ele>
        <time>2019-02-24T08:10:07.000Z</time>
      </trkpt>
      <trkpt lat="46.67427" lon="0.50523">
        <ele>161.3</ele>
        <time>2019-02-24T08:10:08.000Z</time>
      </trkpt>
      <trkpt lat="46.67439" lon="0.50543">
        <ele>160.16</ele>
        <time>2019-02-24T08:10:10.000Z</time>
      </trkpt>
      <trkpt lat="46.67449" lon="0.5056">
        <ele>159.21</ele>
        <time>2019-02-24T08:10:12.000Z</time>
      </trkpt>
      <trkpt lat="46.67456" lon="0.50577">
        <ele>158.17</ele>
        <time>2019-02-24T08:10:14.000Z</time>
      </trkpt>
      <trkpt lat="46.67462" lon="0.50589">
        <ele>157.37</ele>
        <time>2019-02-24T08:10:16.000Z</time>
      </trkpt>
      <trkpt lat="46.67468" lon="0.50601">
        <ele>156.83</ele>
        <time>2019-02-24T08:10:18.000Z</time>
      </trkpt>
      <trkpt lat="46.67474" lon="0.50612">
        <ele>156.89</ele>
        <time>2019-02-24T08:10:20.000Z</time>
      </trkpt>
      <trkpt lat="46.67482" lon="0.5062">
        <ele>157.44</ele>
        <time>2019-02-24T08:10:22.000Z</time>
      </trkpt>
      <trkpt lat="46.67493" lon="0.50612">
        <ele>157.72</ele>
        <time>2019-02-24T08:10:25.000Z</time>
      </trkpt>
      <trkpt lat="46.67502" lon="0.506">
        <ele>158.5</ele>
        <time>2019-02-24T08:10:28.000Z</time>
      </trkpt>
      <trkpt lat="46.67511" lon="0.5059">
        <ele>159.69</ele>
        <time>2019-02-24T08:10:30.000Z</time>
      </trkpt>
      <trkpt lat="46.67521" lon="0.50579">
        <ele>160.88</ele>
        <time>2019-02-24T08:10:32.000Z</time>
      </trkpt>
      <trkpt lat="46.67531" lon="0.5057">
        <ele>162.15</ele>
        <time>2019-02-24T08:10:34.000Z</time>
      </trkpt>
      <trkpt lat="46.67539" lon="0.50563">
        <ele>163.43</ele>
        <time>2019-02-24T08:10:36.000Z</time>
      </trkpt>
      <trkpt lat="46.67548" lon="0.50555">
        <ele>163.65</ele>
        <time>2019-02-24T08:10:39.000Z</time>
      </trkpt>
      <trkpt lat="46.67557" lon="0.50547">
        <ele>164.07</ele>
        <time>2019-02-24T08:10:43.000Z</time>
      </trkpt>
      <trkpt lat="46.67565" lon="0.50537">
        <ele>164.44</ele>
        <time>2019-02-24T08:10:46.000Z</time>
      </trkpt>
      <trkpt lat="46.67572" lon="0.50529">
        <ele>164.81</ele>
        <time>2019-02-24T08:10:49.000Z</time>
      </trkpt>
      <trkpt lat="46.67581" lon="0.5052">
        <ele>165.11</ele>
        <time>2019-02-24T08:10:52.000Z</time>
      </trkpt>
      <trkpt lat="46.67588" lon="0.50511">
        <ele>165.26</ele>
        <time>2019-02-24T08:10:54.000Z</time>
      </trkpt>
      <trkpt lat="46.67596" lon="0.50501">
        <ele>165.4</ele>
        <time>2019-02-24T08:10:57.000Z</time>
      </trkpt>
      <trkpt lat="46.67605" lon="0.50491">
        <ele>165.45</ele>
        <time>2019-02-24T08:11:00.000Z</time>
      </trkpt>
      <trkpt lat="46.67615" lon="0.5048">
        <ele>165.46</ele>
        <time>2019-02-24T08:11:03.000Z</time>
      </trkpt>
      <trkpt lat="46.67623" lon="0.50472">
        <ele>165.58</ele>
        <time>2019-02-24T08:11:06.000Z</time>
      </trkpt>
      <trkpt lat="46.67632" lon="0.50464">
        <ele>166.03</ele>
        <time>2019-02-24T08:11:11.000Z</time>
      </trkpt>
      <trkpt lat="46.6764" lon="0.50456">
        <ele>167.04</ele>
        <time>2019-02-24T08:11:18.000Z</time>
      </trkpt>
      <trkpt lat="46.6765" lon="0.50446">
        <ele>167.99</ele>
        <time>2019-02-24T08:11:24.000Z</time>
      </trkpt>
      <trkpt lat="46.67659" lon="0.50436">
        <ele>169.02</ele>
        <time>2019-02-24T08:11:30.000Z</time>
      </trkpt>
      <trkpt lat="46.67672" lon="0.50425">
        <ele>169.8</ele>
        <time>2019-02-24T08:11:34.000Z</time>
      </trkpt>
      <trkpt lat="46.67679" lon="0.50416">
        <ele>170.27</ele>
        <time>2019-02-24T08:11:36.000Z</time>
      </trkpt>
      <trkpt lat="46.67688" lon="0.50408">
        <ele>170.95</ele>
        <time>2019-02-24T08:11:39.000Z</time>
      </trkpt>
      <trkpt lat="46.67697" lon="0.50397">
        <ele>171.71</ele>
        <time>2019-02-24T08:11:43.000Z</time>
      </trkpt>
      <trkpt lat="46.67705" lon="0.50388">
        <ele>172.39</ele>
        <time>2019-02-24T08:11:47.000Z</time>
      </trkpt>
      <trkpt lat="46.67713" lon="0.50379">
        <ele>173.07</ele>
        <time>2019-02-24T08:11:51.000Z</time>
      </trkpt>
      <trkpt lat="46.67721" lon="0.5037">
        <ele>173.76</ele>
        <time>2019-02-24T08:11:55.000Z</time>
      </trkpt>
      <trkpt lat="46.67729" lon="0.50362">
        <ele>174.35</ele>
        <time>2019-02-24T08:11:58.000Z</time>
      </trkpt>
      <trkpt lat="46.6774" lon="0.50354">
        <ele>175.15</ele>
        <time>2019-02-24T08:12:01.000Z</time>
      </trkpt>
      <trkpt lat="46.67747" lon="0.50345">
        <ele>175.76</ele>
        <time>2019-02-24T08:12:03.000Z</time>
      </trkpt>
      <trkpt lat="46.67755" lon="0.50355">
        <ele>176.61</ele>
        <time>2019-02-24T08:12:08.000Z</time>
      </trkpt>
      <trkpt lat="46.67759" lon="0.50368">
        <ele>176.5</ele>
        <time>2019-02-24T08:12:11.000Z</time>
      </trkpt>
      <trkpt lat="46.67765" lon="0.5038">
        <ele>176.35</ele>
        <time>2019-02-24T08:12:14.000Z</time>
      </trkpt>
      <trkpt lat="46.67772" lon="0.50391">
        <ele>176.39</ele>
        <time>2019-02-24T08:12:17.000Z</time>
      </trkpt>
      <trkpt lat="46.67778" lon="0.50402">
        <ele>176.74</ele>
        <time>2019-02-24T08:12:22.000Z</time>
      </trkpt>
      <trkpt lat="46.67784" lon="0.50412">
        <ele>177.08</ele>
        <time>2019-02-24T08:12:25.000Z</time>
      </trkpt>
      <trkpt lat="46.6779" lon="0.50422">
        <ele>177.45</ele>
        <time>2019-02-24T08:12:28.000Z</time>
      </trkpt>
      <trkpt lat="46.67796" lon="0.50433">
        <ele>177.82</ele>
        <time>2019-02-24T08:12:31.000Z</time>
      </trkpt>
      <trkpt lat="46.678" lon="0.50447">
        <ele>178.18</ele>
        <time>2019-02-24T08:12:34.000Z</time>
      </trkpt>
      <trkpt lat="46.67805" lon="0.50461">
        <ele>178.64</ele>
        <time>2019-02-24T08:12:38.000Z</time>
      </trkpt>
      <trkpt lat="46.6781" lon="0.50474">
        <ele>179.23</ele>
        <time>2019-02-24T08:12:43.000Z</time>
      </trkpt>
      <trkpt lat="46.67818" lon="0.50484">
        <ele>180.01</ele>
        <time>2019-02-24T08:12:49.000Z</time>
      </trkpt>
      <trkpt lat="46.67823" lon="0.50496">
        <ele>180.99</ele>
        <time>2019-02-24T08:12:54.000Z</time>
      </trkpt>
      <trkpt lat="46.67827" lon="0.50507">
        <ele>182.4</ele>
        <time>2019-02-24T08:12:59.000Z</time>
      </trkpt>
      <trkpt lat="46.67832" lon="0.50519">
        <ele>183.97</ele>
        <time>2019-02-24T08:13:04.000Z</time>
      </trkpt>
      <trkpt lat="46.67839" lon="0.50529">
        <ele>184.77</ele>
        <time>2019-02-24T08:13:07.000Z</time>
      </trkpt>
      <trkpt lat="46.67846" lon="0.50541">
        <ele>185.06</ele>
        <time>2019-02-24T08:13:10.000Z</time>
      </trkpt>
      <trkpt lat="46.67852" lon="0.50551">
        <ele>185.15</ele>
        <time>2019-02-24T08:13:15.000Z</time>
      </trkpt>
      <trkpt lat="46.67857" lon="0.50564">
        <ele>185.13</ele>
        <time>2019-02-24T08:13:18.000Z</time>
      </trkpt>
      <trkpt lat="46.67864" lon="0.50578">
        <ele>185.03</ele>
        <time>2019-02-24T08:13:22.000Z</time>
      </trkpt>
      <trkpt lat="46.6787" lon="0.5059">
        <ele>184.8</ele>
        <time>2019-02-24T08:13:25.000Z</time>
      </trkpt>
      <trkpt lat="46.67876" lon="0.50603">
        <ele>184.43</ele>
        <time>2019-02-24T08:13:28.000Z</time>
      </trkpt>
      <trkpt lat="46.67881" lon="0.50614">
        <ele>184.12</ele>
        <time>2019-02-24T08:13:31.000Z</time>
      </trkpt>
      <trkpt lat="46.67888" lon="0.50627">
        <ele>183.93</ele>
        <time>2019-02-24T08:13:34.000Z</time>
      </trkpt>
      <trkpt lat="46.67893" lon="0.50638">
        <ele>183.78</ele>
        <time>2019-02-24T08:13:36.000Z</time>
      </trkpt>
      <trkpt lat="46.67898" lon="0.5065">
        <ele>183.67</ele>
        <time>2019-02-24T08:13:38.000Z</time>
      </trkpt>
      <trkpt lat="46.67903" lon="0.50663">
        <ele>183.55</ele>
        <time>2019-02-24T08:13:40.000Z</time>
      </trkpt>
      <trkpt lat="46.67909" lon="0.50677">
        <ele>183.45</ele>
        <time>2019-02-24T08:13:42.000Z</time>
      </trkpt>
      <trkpt lat="46.67918" lon="0.5069">
        <ele>180.66</ele>
        <time>2019-02-24T08:13:44.000Z</time>
      </trkpt>
      <trkpt lat="46.67929" lon="0.50708">
        <ele>178.15</ele>
        <time>2019-02-24T08:13:46.000Z</time>
      </trkpt>
      <trkpt lat="46.67939" lon="0.50726">
        <ele>177.37</ele>
        <time>2019-02-24T08:13:48.000Z</time>
      </trkpt>
      <trkpt lat="46.67945" lon="0.50738">
        <ele>176.95</ele>
        <time>2019-02-24T08:13:50.000Z</time>
      </trkpt>
      <trkpt lat="46.67959" lon="0.50734">
        <ele>176.92</ele>
        <time>2019-02-24T08:13:57.000Z</time>
      </trkpt>
      <trkpt lat="46.67968" lon="0.5073">
        <ele>177.23</ele>
        <time>2019-02-24T08:14:04.000Z</time>
      </trkpt>
      <trkpt lat="46.67979" lon="0.50726">
        <ele>178.38</ele>
        <time>2019-02-24T08:14:11.000Z</time>
      </trkpt>
      <trkpt lat="46.67989" lon="0.50721">
        <ele>180.5</ele>
        <time>2019-02-24T08:14:18.000Z</time>
      </trkpt>
      <trkpt lat="46.67998" lon="0.50715">
        <ele>182.06</ele>
        <time>2019-02-24T08:14:22.000Z</time>
      </trkpt>
      <trkpt lat="46.68008" lon="0.50702">
        <ele>182.9</ele>
        <time>2019-02-24T08:14:24.000Z</time>
      </trkpt>
      <trkpt lat="46.68017" lon="0.50692">
        <ele>184.35</ele>
        <time>2019-02-24T08:14:28.000Z</time>
      </trkpt>
      <trkpt lat="46.68024" lon="0.50683">
        <ele>185.7</ele>
        <time>2019-02-24T08:14:34.000Z</time>
      </trkpt>
      <trkpt lat="46.68033" lon="0.50682">
        <ele>186.21</ele>
        <time>2019-02-24T08:14:48.000Z</time>
      </trkpt>
      <trkpt lat="46.68041" lon="0.50697">
        <ele>186</ele>
        <time>2019-02-24T08:14:53.000Z</time>
      </trkpt>
      <trkpt lat="46.68047" lon="0.50708">
        <ele>185.72</ele>
        <time>2019-02-24T08:14:56.000Z</time>
      </trkpt>
      <trkpt lat="46.68055" lon="0.50718">
        <ele>185.33</ele>
        <time>2019-02-24T08:14:59.000Z</time>
      </trkpt>
      <trkpt lat="46.6806" lon="0.5073">
        <ele>184.9</ele>
        <time>2019-02-24T08:15:03.000Z</time>
      </trkpt>
      <trkpt lat="46.68066" lon="0.5074">
        <ele>184.5</ele>
        <time>2019-02-24T08:15:06.000Z</time>
      </trkpt>
      <trkpt lat="46.68073" lon="0.50753">
        <ele>184.01</ele>
        <time>2019-02-24T08:15:10.000Z</time>
      </trkpt>
      <trkpt lat="46.6808" lon="0.50768">
        <ele>183.52</ele>
        <time>2019-02-24T08:15:14.000Z</time>
      </trkpt>
      <trkpt lat="46.68086" lon="0.5078">
        <ele>183.06</ele>
        <time>2019-02-24T08:15:17.000Z</time>
      </trkpt>
      <trkpt lat="46.68091" lon="0.50795">
        <ele>182.63</ele>
        <time>2019-02-24T08:15:20.000Z</time>
      </trkpt>
      <trkpt lat="46.68098" lon="0.50806">
        <ele>181.22</ele>
        <time>2019-02-24T08:15:22.000Z</time>
      </trkpt>
      <trkpt lat="46.68103" lon="0.50817">
        <ele>180.99</ele>
        <time>2019-02-24T08:15:24.000Z</time>
      </trkpt>
      <trkpt lat="46.68109" lon="0.50828">
        <ele>179.43</ele>
        <time>2019-02-24T08:15:26.000Z</time>
      </trkpt>
      <trkpt lat="46.68114" lon="0.50839">
        <ele>177.21</ele>
        <time>2019-02-24T08:15:28.000Z</time>
      </trkpt>
      <trkpt lat="46.68122" lon="0.50852">
        <ele>175.22</ele>
        <time>2019-02-24T08:15:30.000Z</time>
      </trkpt>
      <trkpt lat="46.68128" lon="0.50865">
        <ele>173.73</ele>
        <time>2019-02-24T08:15:32.000Z</time>
      </trkpt>
      <trkpt lat="46.68134" lon="0.50881">
        <ele>172.39</ele>
        <time>2019-02-24T08:15:34.000Z</time>
      </trkpt>
      <trkpt lat="46.6814" lon="0.50896">
        <ele>170.52</ele>
        <time>2019-02-24T08:15:36.000Z</time>
      </trkpt>
      <trkpt lat="46.68148" lon="0.5091">
        <ele>168.85</ele>
        <time>2019-02-24T08:15:38.000Z</time>
      </trkpt>
      <trkpt lat="46.68156" lon="0.50928">
        <ele>167.73</ele>
        <time>2019-02-24T08:15:40.000Z</time>
      </trkpt>
      <trkpt lat="46.68166" lon="0.50949">
        <ele>166.86</ele>
        <time>2019-02-24T08:15:42.000Z</time>
      </trkpt>
      <trkpt lat="46.68178" lon="0.50969">
        <ele>166.25</ele>
        <time>2019-02-24T08:15:44.000Z</time>
      </trkpt>
      <trkpt lat="46.68189" lon="0.50987">
        <ele>166.17</ele>
        <time>2019-02-24T08:15:46.000Z</time>
      </trkpt>
      <trkpt lat="46.68195" lon="0.51002">
        <ele>166.17</ele>
        <time>2019-02-24T08:15:48.000Z</time>
      </trkpt>
      <trkpt lat="46.68201" lon="0.51014">
        <ele>166.21</ele>
        <time>2019-02-24T08:15:51.000Z</time>
      </trkpt>
      <trkpt lat="46.68208" lon="0.51026">
        <ele>166.51</ele>
        <time>2019-02-24T08:15:55.000Z</time>
      </trkpt>
      <trkpt lat="46.68215" lon="0.51039">
        <ele>167.99</ele>
        <time>2019-02-24T08:15:58.000Z</time>
      </trkpt>
      <trkpt lat="46.68221" lon="0.51053">
        <ele>170.68</ele>
        <time>2019-02-24T08:16:01.000Z</time>
      </trkpt>
      <trkpt lat="46.68228" lon="0.51068">
        <ele>171.86</ele>
        <time>2019-02-24T08:16:04.000Z</time>
      </trkpt>
      <trkpt lat="46.68234" lon="0.51082">
        <ele>172.94</ele>
        <time>2019-02-24T08:16:07.000Z</time>
      </trkpt>
      <trkpt lat="46.68239" lon="0.51092">
        <ele>174.5</ele>
        <time>2019-02-24T08:16:09.000Z</time>
      </trkpt>
      <trkpt lat="46.68246" lon="0.51106">
        <ele>174.96</ele>
        <time>2019-02-24T08:16:11.000Z</time>
      </trkpt>
      <trkpt lat="46.68253" lon="0.51121">
        <ele>175.01</ele>
        <time>2019-02-24T08:16:14.000Z</time>
      </trkpt>
      <trkpt lat="46.68263" lon="0.51138">
        <ele>174.82</ele>
        <time>2019-02-24T08:16:17.000Z</time>
      </trkpt>
      <trkpt lat="46.68269" lon="0.51149">
        <ele>174.75</ele>
        <time>2019-02-24T08:16:19.000Z</time>
      </trkpt>
      <trkpt lat="46.68259" lon="0.51156">
        <ele>173.4</ele>
        <time>2019-02-24T08:16:28.000Z</time>
      </trkpt>
      <trkpt lat="46.68243" lon="0.51156">
        <ele>172.01</ele>
        <time>2019-02-24T08:16:30.000Z</time>
      </trkpt>
      <trkpt lat="46.68233" lon="0.51154">
        <ele>171.4</ele>
        <time>2019-02-24T08:16:31.000Z</time>
      </trkpt>
      <trkpt lat="46.6822" lon="0.51154">
        <ele>170.36</ele>
        <time>2019-02-24T08:16:33.000Z</time>
      </trkpt>
      <trkpt lat="46.68203" lon="0.51152">
        <ele>169.13</ele>
        <time>2019-02-24T08:16:35.000Z</time>
      </trkpt>
      <trkpt lat="46.68193" lon="0.51148">
        <ele>168.34</ele>
        <time>2019-02-24T08:16:38.000Z</time>
      </trkpt>
      <trkpt lat="46.68186" lon="0.51138">
        <ele>168.23</ele>
        <time>2019-02-24T08:16:44.000Z</time>
      </trkpt>
      <trkpt lat="46.68177" lon="0.51132">
        <ele>168.76</ele>
        <time>2019-02-24T08:16:51.000Z</time>
      </trkpt>
      <trkpt lat="46.68169" lon="0.51125">
        <ele>169.84</ele>
        <time>2019-02-24T08:16:59.000Z</time>
      </trkpt>
      <trkpt lat="46.68163" lon="0.51115">
        <ele>171.21</ele>
        <time>2019-02-24T08:17:05.000Z</time>
      </trkpt>
      <trkpt lat="46.68159" lon="0.51103">
        <ele>172.25</ele>
        <time>2019-02-24T08:17:09.000Z</time>
      </trkpt>
      <trkpt lat="46.68151" lon="0.5109">
        <ele>173.33</ele>
        <time>2019-02-24T08:17:14.000Z</time>
      </trkpt>
      <trkpt lat="46.68145" lon="0.51079">
        <ele>174.02</ele>
        <time>2019-02-24T08:17:19.000Z</time>
      </trkpt>
      <trkpt lat="46.68136" lon="0.5107">
        <ele>174.58</ele>
        <time>2019-02-24T08:17:24.000Z</time>
      </trkpt>
      <trkpt lat="46.68126" lon="0.51063">
        <ele>174.74</ele>
        <time>2019-02-24T08:17:29.000Z</time>
      </trkpt>
      <trkpt lat="46.68117" lon="0.51054">
        <ele>174.74</ele>
        <time>2019-02-24T08:17:33.000Z</time>
      </trkpt>
      <trkpt lat="46.68108" lon="0.51048">
        <ele>175.18</ele>
        <time>2019-02-24T08:17:38.000Z</time>
      </trkpt>
      <trkpt lat="46.68095" lon="0.51052">
        <ele>175.63</ele>
        <time>2019-02-24T08:17:42.000Z</time>
      </trkpt>
      <trkpt lat="46.68086" lon="0.51056">
        <ele>175.59</ele>
        <time>2019-02-24T08:17:44.000Z</time>
      </trkpt>
      <trkpt lat="46.68078" lon="0.51061">
        <ele>175.33</ele>
        <time>2019-02-24T08:17:46.000Z</time>
      </trkpt>
      <trkpt lat="46.68068" lon="0.51063">
        <ele>175.08</ele>
        <time>2019-02-24T08:17:49.000Z</time>
      </trkpt>
      <trkpt lat="46.68059" lon="0.51068">
        <ele>175.08</ele>
        <time>2019-02-24T08:17:52.000Z</time>
      </trkpt>
      <trkpt lat="46.68046" lon="0.5108">
        <ele>175.93</ele>
        <time>2019-02-24T08:17:55.000Z</time>
      </trkpt>
      <trkpt lat="46.68036" lon="0.5109">
        <ele>175.39</ele>
        <time>2019-02-24T08:17:57.000Z</time>
      </trkpt>
      <trkpt lat="46.68025" lon="0.51098">
        <ele>173.64</ele>
        <time>2019-02-24T08:17:59.000Z</time>
      </trkpt>
      <trkpt lat="46.68012" lon="0.51109">
        <ele>172.55</ele>
        <time>2019-02-24T08:18:01.000Z</time>
      </trkpt>
      <trkpt lat="46.68004" lon="0.51115">
        <ele>172.63</ele>
        <time>2019-02-24T08:18:02.000Z</time>
      </trkpt>
      <trkpt lat="46.67995" lon="0.51121">
        <ele>173.07</ele>
        <time>2019-02-24T08:18:03.000Z</time>
      </trkpt>
      <trkpt lat="46.67981" lon="0.51132">
        <ele>174.18</ele>
        <time>2019-02-24T08:18:05.000Z</time>
      </trkpt>
      <trkpt lat="46.67969" lon="0.51143">
        <ele>175.06</ele>
        <time>2019-02-24T08:18:07.000Z</time>
      </trkpt>
      <trkpt lat="46.67955" lon="0.51154">
        <ele>175.33</ele>
        <time>2019-02-24T08:18:09.000Z</time>
      </trkpt>
      <trkpt lat="46.6794" lon="0.51159">
        <ele>175.31</ele>
        <time>2019-02-24T08:18:11.000Z</time>
      </trkpt>
      <trkpt lat="46.67926" lon="0.51156">
        <ele>174.79</ele>
        <time>2019-02-24T08:18:13.000Z</time>
      </trkpt>
      <trkpt lat="46.67912" lon="0.51154">
        <ele>173.81</ele>
        <time>2019-02-24T08:18:15.000Z</time>
      </trkpt>
      <trkpt lat="46.67898" lon="0.51149">
        <ele>172.31</ele>
        <time>2019-02-24T08:18:17.000Z</time>
      </trkpt>
      <trkpt lat="46.67886" lon="0.51145">
        <ele>170.71</ele>
        <time>2019-02-24T08:18:19.000Z</time>
      </trkpt>
      <trkpt lat="46.67875" lon="0.51137">
        <ele>169.19</ele>
        <time>2019-02-24T08:18:21.000Z</time>
      </trkpt>
      <trkpt lat="46.67871" lon="0.51121">
        <ele>167.45</ele>
        <time>2019-02-24T08:18:24.000Z</time>
      </trkpt>
      <trkpt lat="46.67866" lon="0.51104">
        <ele>165.88</ele>
        <time>2019-02-24T08:18:27.000Z</time>
      </trkpt>
      <trkpt lat="46.67861" lon="0.51092">
        <ele>164.42</ele>
        <time>2019-02-24T08:18:29.000Z</time>
      </trkpt>
      <trkpt lat="46.67856" lon="0.51077">
        <ele>163.56</ele>
        <time>2019-02-24T08:18:31.000Z</time>
      </trkpt>
      <trkpt lat="46.67851" lon="0.51065">
        <ele>163.3</ele>
        <time>2019-02-24T08:18:33.000Z</time>
      </trkpt>
      <trkpt lat="46.6784" lon="0.51052">
        <ele>162.67</ele>
        <time>2019-02-24T08:18:35.000Z</time>
      </trkpt>
      <trkpt lat="46.67827" lon="0.51044">
        <ele>161.18</ele>
        <time>2019-02-24T08:18:37.000Z</time>
      </trkpt>
      <trkpt lat="46.67812" lon="0.51048">
        <ele>160.07</ele>
        <time>2019-02-24T08:18:39.000Z</time>
      </trkpt>
      <trkpt lat="46.67802" lon="0.51057">
        <ele>158.03</ele>
        <time>2019-02-24T08:18:41.000Z</time>
      </trkpt>
      <trkpt lat="46.67795" lon="0.51066">
        <ele>155.61</ele>
        <time>2019-02-24T08:18:43.000Z</time>
      </trkpt>
      <trkpt lat="46.67788" lon="0.51077">
        <ele>153.28</ele>
        <time>2019-02-24T08:18:45.000Z</time>
      </trkpt>
      <trkpt lat="46.6778" lon="0.5109">
        <ele>151.84</ele>
        <time>2019-02-24T08:18:47.000Z</time>
      </trkpt>
      <trkpt lat="46.67774" lon="0.51103">
        <ele>151.33</ele>
        <time>2019-02-24T08:18:49.000Z</time>
      </trkpt>
      <trkpt lat="46.67769" lon="0.51113">
        <ele>150.51</ele>
        <time>2019-02-24T08:18:51.000Z</time>
      </trkpt>
      <trkpt lat="46.67763" lon="0.51124">
        <ele>149.88</ele>
        <time>2019-02-24T08:18:53.000Z</time>
      </trkpt>
      <trkpt lat="46.67757" lon="0.51135">
        <ele>149.85</ele>
        <time>2019-02-24T08:18:55.000Z</time>
      </trkpt>
      <trkpt lat="46.6775" lon="0.51149">
        <ele>149.82</ele>
        <time>2019-02-24T08:18:58.000Z</time>
      </trkpt>
      <trkpt lat="46.67744" lon="0.51164">
        <ele>149.48</ele>
        <time>2019-02-24T08:19:00.000Z</time>
      </trkpt>
      <trkpt lat="46.6774" lon="0.51178">
        <ele>149.4</ele>
        <time>2019-02-24T08:19:02.000Z</time>
      </trkpt>
      <trkpt lat="46.67733" lon="0.51192">
        <ele>149.1</ele>
        <time>2019-02-24T08:19:04.000Z</time>
      </trkpt>
      <trkpt lat="46.67727" lon="0.51208">
        <ele>148.71</ele>
        <time>2019-02-24T08:19:07.000Z</time>
      </trkpt>
      <trkpt lat="46.6772" lon="0.51221">
        <ele>147.93</ele>
        <time>2019-02-24T08:19:09.000Z</time>
      </trkpt>
      <trkpt lat="46.67713" lon="0.51232">
        <ele>147.34</ele>
        <time>2019-02-24T08:19:11.000Z</time>
      </trkpt>
      <trkpt lat="46.67706" lon="0.51244">
        <ele>146.62</ele>
        <time>2019-02-24T08:19:13.000Z</time>
      </trkpt>
      <trkpt lat="46.67697" lon="0.51255">
        <ele>145.92</ele>
        <time>2019-02-24T08:19:16.000Z</time>
      </trkpt>
      <trkpt lat="46.67689" lon="0.51264">
        <ele>145.63</ele>
        <time>2019-02-24T08:19:19.000Z</time>
      </trkpt>
      <trkpt lat="46.67679" lon="0.51272">
        <ele>145.14</ele>
        <time>2019-02-24T08:19:25.000Z</time>
      </trkpt>
      <trkpt lat="46.67669" lon="0.51279">
        <ele>145.01</ele>
        <time>2019-02-24T08:19:28.000Z</time>
      </trkpt>
      <trkpt lat="46.67662" lon="0.51286">
        <ele>145.11</ele>
        <time>2019-02-24T08:19:31.000Z</time>
      </trkpt>
      <trkpt lat="46.67654" lon="0.51295">
        <ele>145.42</ele>
        <time>2019-02-24T08:19:35.000Z</time>
      </trkpt>
      <trkpt lat="46.67646" lon="0.51303">
        <ele>145.98</ele>
        <time>2019-02-24T08:19:40.000Z</time>
      </trkpt>
      <trkpt lat="46.67638" lon="0.51313">
        <ele>146.78</ele>
        <time>2019-02-24T08:19:45.000Z</time>
      </trkpt>
      <trkpt lat="46.67629" lon="0.51323">
        <ele>147.24</ele>
        <time>2019-02-24T08:19:49.000Z</time>
      </trkpt>
      <trkpt lat="46.6762" lon="0.51325">
        <ele>148.22</ele>
        <time>2019-02-24T08:19:56.000Z</time>
      </trkpt>
      <trkpt lat="46.67611" lon="0.51323">
        <ele>149.21</ele>
        <time>2019-02-24T08:20:02.000Z</time>
      </trkpt>
      <trkpt lat="46.67601" lon="0.51318">
        <ele>149.94</ele>
        <time>2019-02-24T08:20:07.000Z</time>
      </trkpt>
      <trkpt lat="46.6759" lon="0.51313">
        <ele>150.23</ele>
        <time>2019-02-24T08:20:10.000Z</time>
      </trkpt>
      <trkpt lat="46.67581" lon="0.51309">
        <ele>150.43</ele>
        <time>2019-02-24T08:20:15.000Z</time>
      </trkpt>
      <trkpt lat="46.67569" lon="0.51304">
        <ele>150.35</ele>
        <time>2019-02-24T08:20:19.000Z</time>
      </trkpt>
      <trkpt lat="46.67562" lon="0.51294">
        <ele>150.62</ele>
        <time>2019-02-24T08:20:26.000Z</time>
      </trkpt>
      <trkpt lat="46.67554" lon="0.51287">
        <ele>151.12</ele>
        <time>2019-02-24T08:20:30.000Z</time>
      </trkpt>
      <trkpt lat="46.67543" lon="0.51282">
        <ele>151.54</ele>
        <time>2019-02-24T08:20:33.000Z</time>
      </trkpt>
      <trkpt lat="46.67532" lon="0.51281">
        <ele>152.15</ele>
        <time>2019-02-24T08:20:37.000Z</time>
      </trkpt>
      <trkpt lat="46.67521" lon="0.51279">
        <ele>152.5</ele>
        <time>2019-02-24T08:20:41.000Z</time>
      </trkpt>
      <trkpt lat="46.6751" lon="0.51275">
        <ele>153.11</ele>
        <time>2019-02-24T08:20:46.000Z</time>
      </trkpt>
      <trkpt lat="46.67501" lon="0.51268">
        <ele>153.55</ele>
        <time>2019-02-24T08:20:49.000Z</time>
      </trkpt>
      <trkpt lat="46.67491" lon="0.51264">
        <ele>153.69</ele>
        <time>2019-02-24T08:20:51.000Z</time>
      </trkpt>
      <trkpt lat="46.6748" lon="0.51265">
        <ele>153.75</ele>
        <time>2019-02-24T08:20:54.000Z</time>
      </trkpt>
      <trkpt lat="46.67468" lon="0.51268">
        <ele>153.74</ele>
        <time>2019-02-24T08:20:57.000Z</time>
      </trkpt>
      <trkpt lat="46.67458" lon="0.51272">
        <ele>153.85</ele>
        <time>2019-02-24T08:21:00.000Z</time>
      </trkpt>
      <trkpt lat="46.67448" lon="0.51275">
        <ele>154.06</ele>
        <time>2019-02-24T08:21:04.000Z</time>
      </trkpt>
      <trkpt lat="46.67442" lon="0.51284">
        <ele>154.27</ele>
        <time>2019-02-24T08:21:09.000Z</time>
      </trkpt>
      <trkpt lat="46.67434" lon="0.51292">
        <ele>154.63</ele>
        <time>2019-02-24T08:21:14.000Z</time>
      </trkpt>
      <trkpt lat="46.67423" lon="0.51297">
        <ele>155.23</ele>
        <time>2019-02-24T08:21:19.000Z</time>
      </trkpt>
      <trkpt lat="46.67414" lon="0.51305">
        <ele>156.11</ele>
        <time>2019-02-24T08:21:24.000Z</time>
      </trkpt>
      <trkpt lat="46.67407" lon="0.51312">
        <ele>156.73</ele>
        <time>2019-02-24T08:21:28.000Z</time>
      </trkpt>
      <trkpt lat="46.67397" lon="0.51321">
        <ele>157.28</ele>
        <time>2019-02-24T08:21:32.000Z</time>
      </trkpt>
      <trkpt lat="46.67389" lon="0.51327">
        <ele>157.67</ele>
        <time>2019-02-24T08:21:35.000Z</time>
      </trkpt>
      <trkpt lat="46.67382" lon="0.5134">
        <ele>158.17</ele>
        <time>2019-02-24T08:21:39.000Z</time>
      </trkpt>
      <trkpt lat="46.67376" lon="0.51353">
        <ele>158.53</ele>
        <time>2019-02-24T08:21:42.000Z</time>
      </trkpt>
      <trkpt lat="46.67371" lon="0.51367">
        <ele>158.83</ele>
        <time>2019-02-24T08:21:44.000Z</time>
      </trkpt>
      <trkpt lat="46.67363" lon="0.51379">
        <ele>157.43</ele>
        <time>2019-02-24T08:21:46.000Z</time>
      </trkpt>
      <trkpt lat="46.67354" lon="0.51386">
        <ele>155.11</ele>
        <time>2019-02-24T08:21:48.000Z</time>
      </trkpt>
      <trkpt lat="46.67347" lon="0.51397">
        <ele>153.29</ele>
        <time>2019-02-24T08:21:50.000Z</time>
      </trkpt>
      <trkpt lat="46.67339" lon="0.51408">
        <ele>152.05</ele>
        <time>2019-02-24T08:21:52.000Z</time>
      </trkpt>
      <trkpt lat="46.67329" lon="0.51421">
        <ele>151.16</ele>
        <time>2019-02-24T08:21:54.000Z</time>
      </trkpt>
      <trkpt lat="46.6732" lon="0.51438">
        <ele>150.72</ele>
        <time>2019-02-24T08:21:56.000Z</time>
      </trkpt>
      <trkpt lat="46.67311" lon="0.51454">
        <ele>149.87</ele>
        <time>2019-02-24T08:21:58.000Z</time>
      </trkpt>
      <trkpt lat="46.67304" lon="0.51468">
        <ele>149.45</ele>
        <time>2019-02-24T08:22:00.000Z</time>
      </trkpt>
      <trkpt lat="46.67292" lon="0.51476">
        <ele>149.47</ele>
        <time>2019-02-24T08:22:02.000Z</time>
      </trkpt>
      <trkpt lat="46.67281" lon="0.5148">
        <ele>149.66</ele>
        <time>2019-02-24T08:22:04.000Z</time>
      </trkpt>
      <trkpt lat="46.67271" lon="0.51486">
        <ele>149.73</ele>
        <time>2019-02-24T08:22:07.000Z</time>
      </trkpt>
      <trkpt lat="46.67262" lon="0.51484">
        <ele>150.13</ele>
        <time>2019-02-24T08:22:10.000Z</time>
      </trkpt>
      <trkpt lat="46.67253" lon="0.5148">
        <ele>151.12</ele>
        <time>2019-02-24T08:22:12.000Z</time>
      </trkpt>
      <trkpt lat="46.67243" lon="0.51476">
        <ele>151.74</ele>
        <time>2019-02-24T08:22:14.000Z</time>
      </trkpt>
      <trkpt lat="46.67234" lon="0.51473">
        <ele>152.03</ele>
        <time>2019-02-24T08:22:16.000Z</time>
      </trkpt>
      <trkpt lat="46.67222" lon="0.5147">
        <ele>152.2</ele>
        <time>2019-02-24T08:22:19.000Z</time>
      </trkpt>
      <trkpt lat="46.67211" lon="0.51469">
        <ele>152.58</ele>
        <time>2019-02-24T08:22:22.000Z</time>
      </trkpt>
      <trkpt lat="46.672" lon="0.51468">
        <ele>153.14</ele>
        <time>2019-02-24T08:22:25.000Z</time>
      </trkpt>
      <trkpt lat="46.67189" lon="0.51468">
        <ele>154.46</ele>
        <time>2019-02-24T08:22:30.000Z</time>
      </trkpt>
      <trkpt lat="46.67176" lon="0.51465">
        <ele>155.69</ele>
        <time>2019-02-24T08:22:34.000Z</time>
      </trkpt>
      <trkpt lat="46.67167" lon="0.51464">
        <ele>156.56</ele>
        <time>2019-02-24T08:22:37.000Z</time>
      </trkpt>
      <trkpt lat="46.67156" lon="0.51465">
        <ele>157.38</ele>
        <time>2019-02-24T08:22:40.000Z</time>
      </trkpt>
      <trkpt lat="46.67146" lon="0.51463">
        <ele>158.17</ele>
        <time>2019-02-24T08:22:44.000Z</time>
      </trkpt>
      <trkpt lat="46.67136" lon="0.51462">
        <ele>158.68</ele>
        <time>2019-02-24T08:22:48.000Z</time>
      </trkpt>
      <trkpt lat="46.67127" lon="0.51463">
        <ele>159.07</ele>
        <time>2019-02-24T08:22:52.000Z</time>
      </trkpt>
      <trkpt lat="46.67117" lon="0.51467">
        <ele>159.77</ele>
        <time>2019-02-24T08:22:59.000Z</time>
      </trkpt>
      <trkpt lat="46.67107" lon="0.5147">
        <ele>159.63</ele>
        <time>2019-02-24T08:23:05.000Z</time>
      </trkpt>
      <trkpt lat="46.67097" lon="0.51476">
        <ele>159.02</ele>
        <time>2019-02-24T08:23:09.000Z</time>
      </trkpt>
      <trkpt lat="46.67088" lon="0.51478">
        <ele>157.74</ele>
        <time>2019-02-24T08:23:17.000Z</time>
      </trkpt>
      <trkpt lat="46.6708" lon="0.51484">
        <ele>157.27</ele>
        <time>2019-02-24T08:23:20.000Z</time>
      </trkpt>
      <trkpt lat="46.67069" lon="0.51485">
        <ele>156.8</ele>
        <time>2019-02-24T08:23:23.000Z</time>
      </trkpt>
      <trkpt lat="46.6706" lon="0.51485">
        <ele>156.49</ele>
        <time>2019-02-24T08:23:26.000Z</time>
      </trkpt>
      <trkpt lat="46.67051" lon="0.51488">
        <ele>156.41</ele>
        <time>2019-02-24T08:23:30.000Z</time>
      </trkpt>
      <trkpt lat="46.6704" lon="0.5149">
        <ele>156.34</ele>
        <time>2019-02-24T08:23:33.000Z</time>
      </trkpt>
      <trkpt lat="46.6703" lon="0.51489">
        <ele>155.54</ele>
        <time>2019-02-24T08:23:36.000Z</time>
      </trkpt>
      <trkpt lat="46.6702" lon="0.51492">
        <ele>155.44</ele>
        <time>2019-02-24T08:23:38.000Z</time>
      </trkpt>
      <trkpt lat="46.6701" lon="0.51494">
        <ele>155.29</ele>
        <time>2019-02-24T08:23:40.000Z</time>
      </trkpt>
      <trkpt lat="46.66999" lon="0.51497">
        <ele>154.99</ele>
        <time>2019-02-24T08:23:43.000Z</time>
      </trkpt>
      <trkpt lat="46.66988" lon="0.51499">
        <ele>154.82</ele>
        <time>2019-02-24T08:23:46.000Z</time>
      </trkpt>
      <trkpt lat="46.66977" lon="0.515">
        <ele>154.73</ele>
        <time>2019-02-24T08:23:49.000Z</time>
      </trkpt>
      <trkpt lat="46.66966" lon="0.51497">
        <ele>155.04</ele>
        <time>2019-02-24T08:23:53.000Z</time>
      </trkpt>
      <trkpt lat="46.66956" lon="0.51492">
        <ele>155.18</ele>
        <time>2019-02-24T08:23:55.000Z</time>
      </trkpt>
      <trkpt lat="46.66942" lon="0.51489">
        <ele>153.89</ele>
        <time>2019-02-24T08:23:58.000Z</time>
      </trkpt>
      <trkpt lat="46.66929" lon="0.515">
        <ele>152.68</ele>
        <time>2019-02-24T08:24:00.000Z</time>
      </trkpt>
      <trkpt lat="46.66916" lon="0.51505">
        <ele>151.34</ele>
        <time>2019-02-24T08:24:02.000Z</time>
      </trkpt>
      <trkpt lat="46.66904" lon="0.51507">
        <ele>150.04</ele>
        <time>2019-02-24T08:24:04.000Z</time>
      </trkpt>
      <trkpt lat="46.66888" lon="0.5151">
        <ele>149.84</ele>
        <time>2019-02-24T08:24:06.000Z</time>
      </trkpt>
      <trkpt lat="46.66876" lon="0.5151">
        <ele>150.24</ele>
        <time>2019-02-24T08:24:08.000Z</time>
      </trkpt>
      <trkpt lat="46.66864" lon="0.51512">
        <ele>150.89</ele>
        <time>2019-02-24T08:24:10.000Z</time>
      </trkpt>
      <trkpt lat="46.66848" lon="0.51517">
        <ele>151.53</ele>
        <time>2019-02-24T08:24:12.000Z</time>
      </trkpt>
      <trkpt lat="46.66839" lon="0.5151">
        <ele>150.99</ele>
        <time>2019-02-24T08:24:14.000Z</time>
      </trkpt>
      <trkpt lat="46.66829" lon="0.51506">
        <ele>151.04</ele>
        <time>2019-02-24T08:24:17.000Z</time>
      </trkpt>
      <trkpt lat="46.66817" lon="0.5151">
        <ele>151.25</ele>
        <time>2019-02-24T08:24:20.000Z</time>
      </trkpt>
      <trkpt lat="46.66804" lon="0.51512">
        <ele>151.48</ele>
        <time>2019-02-24T08:24:23.000Z</time>
      </trkpt>
      <trkpt lat="46.66794" lon="0.51512">
        <ele>151.61</ele>
        <time>2019-02-24T08:24:25.000Z</time>
      </trkpt>
      <trkpt lat="46.66784" lon="0.51513">
        <ele>151.75</ele>
        <time>2019-02-24T08:24:27.000Z</time>
      </trkpt>
      <trkpt lat="46.66773" lon="0.51516">
        <ele>152.05</ele>
        <time>2019-02-24T08:24:30.000Z</time>
      </trkpt>
      <trkpt lat="46.66763" lon="0.51517">
        <ele>152.55</ele>
        <time>2019-02-24T08:24:34.000Z</time>
      </trkpt>
      <trkpt lat="46.66753" lon="0.5152">
        <ele>153</ele>
        <time>2019-02-24T08:24:37.000Z</time>
      </trkpt>
      <trkpt lat="46.66742" lon="0.51522">
        <ele>153.32</ele>
        <time>2019-02-24T08:24:40.000Z</time>
      </trkpt>
      <trkpt lat="46.66732" lon="0.51523">
        <ele>153.48</ele>
        <time>2019-02-24T08:24:43.000Z</time>
      </trkpt>
      <trkpt lat="46.66721" lon="0.51527">
        <ele>153.54</ele>
        <time>2019-02-24T08:24:46.000Z</time>
      </trkpt>
      <trkpt lat="46.66712" lon="0.51532">
        <ele>153.54</ele>
        <time>2019-02-24T08:24:49.000Z</time>
      </trkpt>
      <trkpt lat="46.66707" lon="0.51543">
        <ele>153.44</ele>
        <time>2019-02-24T08:24:52.000Z</time>
      </trkpt>
      <trkpt lat="46.66703" lon="0.51558">
        <ele>153.1</ele>
        <time>2019-02-24T08:24:55.000Z</time>
      </trkpt>
      <trkpt lat="46.66699" lon="0.51575">
        <ele>152.43</ele>
        <time>2019-02-24T08:24:59.000Z</time>
      </trkpt>
      <trkpt lat="46.66697" lon="0.51589">
        <ele>152.09</ele>
        <time>2019-02-24T08:25:02.000Z</time>
      </trkpt>
      <trkpt lat="46.66698" lon="0.51606">
        <ele>151.76</ele>
        <time>2019-02-24T08:25:05.000Z</time>
      </trkpt>
      <trkpt lat="46.66698" lon="0.51619">
        <ele>151.26</ele>
        <time>2019-02-24T08:25:09.000Z</time>
      </trkpt>
      <trkpt lat="46.66699" lon="0.51635">
        <ele>150.51</ele>
        <time>2019-02-24T08:25:13.000Z</time>
      </trkpt>
      <trkpt lat="46.66701" lon="0.51651">
        <ele>149.64</ele>
        <time>2019-02-24T08:25:17.000Z</time>
      </trkpt>
      <trkpt lat="46.66703" lon="0.51665">
        <ele>148.4</ele>
        <time>2019-02-24T08:25:22.000Z</time>
      </trkpt>
      <trkpt lat="46.66697" lon="0.51675">
        <ele>147.21</ele>
        <time>2019-02-24T08:25:32.000Z</time>
      </trkpt>
      <trkpt lat="46.66694" lon="0.51688">
        <ele>148.25</ele>
        <time>2019-02-24T08:25:41.000Z</time>
      </trkpt>
      <trkpt lat="46.66688" lon="0.517">
        <ele>149.04</ele>
        <time>2019-02-24T08:25:46.000Z</time>
      </trkpt>
      <trkpt lat="46.66688" lon="0.51715">
        <ele>149.24</ele>
        <time>2019-02-24T08:25:52.000Z</time>
      </trkpt>
      <trkpt lat="46.66693" lon="0.51726">
        <ele>149.01</ele>
        <time>2019-02-24T08:26:02.000Z</time>
      </trkpt>
      <trkpt lat="46.66691" lon="0.5174">
        <ele>149.11</ele>
        <time>2019-02-24T08:26:21.000Z</time>
      </trkpt>
      <trkpt lat="46.66693" lon="0.51754">
        <ele>152.64</ele>
        <time>2019-02-24T08:26:49.000Z</time>
      </trkpt>
      <trkpt lat="46.66692" lon="0.51769">
        <ele>155.14</ele>
        <time>2019-02-24T08:27:04.000Z</time>
      </trkpt>
      <trkpt lat="46.66689" lon="0.51784">
        <ele>155.74</ele>
        <time>2019-02-24T08:27:10.000Z</time>
      </trkpt>
      <trkpt lat="46.6669" lon="0.51799">
        <ele>156.34</ele>
        <time>2019-02-24T08:27:15.000Z</time>
      </trkpt>
      <trkpt lat="46.66689" lon="0.51814">
        <ele>156.4</ele>
        <time>2019-02-24T08:27:18.000Z</time>
      </trkpt>
      <trkpt lat="46.6669" lon="0.5183">
        <ele>156.22</ele>
        <time>2019-02-24T08:27:23.000Z</time>
      </trkpt>
      <trkpt lat="46.66694" lon="0.51843">
        <ele>155.93</ele>
        <time>2019-02-24T08:27:27.000Z</time>
      </trkpt>
      <trkpt lat="46.66698" lon="0.51854">
        <ele>155.56</ele>
        <time>2019-02-24T08:27:31.000Z</time>
      </trkpt>
      <trkpt lat="46.66703" lon="0.51869">
        <ele>155.15</ele>
        <time>2019-02-24T08:27:37.000Z</time>
      </trkpt>
      <trkpt lat="46.66705" lon="0.51882">
        <ele>154.91</ele>
        <time>2019-02-24T08:27:44.000Z</time>
      </trkpt>
      <trkpt lat="46.66703" lon="0.51899">
        <ele>155.17</ele>
        <time>2019-02-24T08:27:49.000Z</time>
      </trkpt>
      <trkpt lat="46.66699" lon="0.51913">
        <ele>155.93</ele>
        <time>2019-02-24T08:27:55.000Z</time>
      </trkpt>
      <trkpt lat="46.66699" lon="0.51927">
        <ele>156.55</ele>
        <time>2019-02-24T08:27:59.000Z</time>
      </trkpt>
      <trkpt lat="46.66698" lon="0.5194">
        <ele>157.07</ele>
        <time>2019-02-24T08:28:04.000Z</time>
      </trkpt>
      <trkpt lat="46.66697" lon="0.51954">
        <ele>157.59</ele>
        <time>2019-02-24T08:28:08.000Z</time>
      </trkpt>
      <trkpt lat="46.66695" lon="0.51969">
        <ele>158</ele>
        <time>2019-02-24T08:28:11.000Z</time>
      </trkpt>
      <trkpt lat="46.66694" lon="0.51985">
        <ele>158.56</ele>
        <time>2019-02-24T08:28:15.000Z</time>
      </trkpt>
      <trkpt lat="46.66691" lon="0.51998">
        <ele>159.39</ele>
        <time>2019-02-24T08:28:20.000Z</time>
      </trkpt>
      <trkpt lat="46.66689" lon="0.52012">
        <ele>160.07</ele>
        <time>2019-02-24T08:28:24.000Z</time>
      </trkpt>
      <trkpt lat="46.66687" lon="0.52028">
        <ele>160.69</ele>
        <time>2019-02-24T08:28:28.000Z</time>
      </trkpt>
      <trkpt lat="46.66677" lon="0.52035">
        <ele>161.46</ele>
        <time>2019-02-24T08:28:33.000Z</time>
      </trkpt>
      <trkpt lat="46.66668" lon="0.52038">
        <ele>161.95</ele>
        <time>2019-02-24T08:28:36.000Z</time>
      </trkpt>
      <trkpt lat="46.66659" lon="0.52043">
        <ele>162.56</ele>
        <time>2019-02-24T08:28:40.000Z</time>
      </trkpt>
      <trkpt lat="46.66647" lon="0.52049">
        <ele>162.92</ele>
        <time>2019-02-24T08:28:43.000Z</time>
      </trkpt>
      <trkpt lat="46.66634" lon="0.52055">
        <ele>163.41</ele>
        <time>2019-02-24T08:28:46.000Z</time>
      </trkpt>
      <trkpt lat="46.66625" lon="0.52058">
        <ele>163.78</ele>
        <time>2019-02-24T08:28:48.000Z</time>
      </trkpt>
      <trkpt lat="46.66617" lon="0.52063">
        <ele>164.13</ele>
        <time>2019-02-24T08:28:50.000Z</time>
      </trkpt>
      <trkpt lat="46.66608" lon="0.52068">
        <ele>165.73</ele>
        <time>2019-02-24T08:28:52.000Z</time>
      </trkpt>
      <trkpt lat="46.66602" lon="0.52079">
        <ele>165.89</ele>
        <time>2019-02-24T08:28:56.000Z</time>
      </trkpt>
      <trkpt lat="46.66594" lon="0.52088">
        <ele>166.76</ele>
        <time>2019-02-24T08:29:19.000Z</time>
      </trkpt>
      <trkpt lat="46.66586" lon="0.52099">
        <ele>167.11</ele>
        <time>2019-02-24T08:29:22.000Z</time>
      </trkpt>
      <trkpt lat="46.66581" lon="0.52113">
        <ele>169.1</ele>
        <time>2019-02-24T08:29:25.000Z</time>
      </trkpt>
      <trkpt lat="46.66578" lon="0.52129">
        <ele>170.98</ele>
        <time>2019-02-24T08:29:27.000Z</time>
      </trkpt>
      <trkpt lat="46.66575" lon="0.52144">
        <ele>171.56</ele>
        <time>2019-02-24T08:29:29.000Z</time>
      </trkpt>
      <trkpt lat="46.66568" lon="0.52167">
        <ele>171.79</ele>
        <time>2019-02-24T08:29:31.000Z</time>
      </trkpt>
      <trkpt lat="46.66566" lon="0.52187">
        <ele>170.81</ele>
        <time>2019-02-24T08:29:33.000Z</time>
      </trkpt>
      <trkpt lat="46.66564" lon="0.52208">
        <ele>169.44</ele>
        <time>2019-02-24T08:29:35.000Z</time>
      </trkpt>
      <trkpt lat="46.66562" lon="0.52228">
        <ele>167.32</ele>
        <time>2019-02-24T08:29:37.000Z</time>
      </trkpt>
      <trkpt lat="46.66558" lon="0.52242">
        <ele>165.03</ele>
        <time>2019-02-24T08:29:39.000Z</time>
      </trkpt>
      <trkpt lat="46.66555" lon="0.52259">
        <ele>162.74</ele>
        <time>2019-02-24T08:29:41.000Z</time>
      </trkpt>
      <trkpt lat="46.66558" lon="0.52274">
        <ele>161.55</ele>
        <time>2019-02-24T08:29:43.000Z</time>
      </trkpt>
      <trkpt lat="46.66561" lon="0.52289">
        <ele>161.18</ele>
        <time>2019-02-24T08:29:46.000Z</time>
      </trkpt>
      <trkpt lat="46.66566" lon="0.52306">
        <ele>159.94</ele>
        <time>2019-02-24T08:29:49.000Z</time>
      </trkpt>
      <trkpt lat="46.66571" lon="0.52322">
        <ele>159.08</ele>
        <time>2019-02-24T08:29:52.000Z</time>
      </trkpt>
      <trkpt lat="46.66576" lon="0.52336">
        <ele>158.88</ele>
        <time>2019-02-24T08:29:55.000Z</time>
      </trkpt>
      <trkpt lat="46.6658" lon="0.52353">
        <ele>157.9</ele>
        <time>2019-02-24T08:29:58.000Z</time>
      </trkpt>
      <trkpt lat="46.66585" lon="0.52367">
        <ele>156.96</ele>
        <time>2019-02-24T08:30:01.000Z</time>
      </trkpt>
      <trkpt lat="46.66591" lon="0.52387">
        <ele>156.77</ele>
        <time>2019-02-24T08:30:04.000Z</time>
      </trkpt>
      <trkpt lat="46.66598" lon="0.52402">
        <ele>156.54</ele>
        <time>2019-02-24T08:30:07.000Z</time>
      </trkpt>
      <trkpt lat="46.66605" lon="0.52416">
        <ele>156.23</ele>
        <time>2019-02-24T08:30:10.000Z</time>
      </trkpt>
      <trkpt lat="46.66611" lon="0.52425">
        <ele>155.89</ele>
        <time>2019-02-24T08:30:13.000Z</time>
      </trkpt>
      <trkpt lat="46.66617" lon="0.52439">
        <ele>155.41</ele>
        <time>2019-02-24T08:30:18.000Z</time>
      </trkpt>
      <trkpt lat="46.66623" lon="0.52449">
        <ele>155.13</ele>
        <time>2019-02-24T08:30:21.000Z</time>
      </trkpt>
      <trkpt lat="46.66628" lon="0.52461">
        <ele>154.76</ele>
        <time>2019-02-24T08:30:24.000Z</time>
      </trkpt>
      <trkpt lat="46.66634" lon="0.52474">
        <ele>154.35</ele>
        <time>2019-02-24T08:30:28.000Z</time>
      </trkpt>
      <trkpt lat="46.66642" lon="0.52483">
        <ele>154.11</ele>
        <time>2019-02-24T08:30:33.000Z</time>
      </trkpt>
      <trkpt lat="46.6665" lon="0.52492">
        <ele>154.08</ele>
        <time>2019-02-24T08:30:37.000Z</time>
      </trkpt>
      <trkpt lat="46.66657" lon="0.525">
        <ele>154.12</ele>
        <time>2019-02-24T08:30:40.000Z</time>
      </trkpt>
      <trkpt lat="46.66665" lon="0.5251">
        <ele>154.29</ele>
        <time>2019-02-24T08:30:44.000Z</time>
      </trkpt>
      <trkpt lat="46.66674" lon="0.52516">
        <ele>154.71</ele>
        <time>2019-02-24T08:30:48.000Z</time>
      </trkpt>
      <trkpt lat="46.66685" lon="0.52523">
        <ele>155.15</ele>
        <time>2019-02-24T08:30:52.000Z</time>
      </trkpt>
      <trkpt lat="46.66694" lon="0.5253">
        <ele>155.71</ele>
        <time>2019-02-24T08:30:57.000Z</time>
      </trkpt>
      <trkpt lat="46.66705" lon="0.52536">
        <ele>156.87</ele>
        <time>2019-02-24T08:31:02.000Z</time>
      </trkpt>
      <trkpt lat="46.66713" lon="0.52546">
        <ele>158.06</ele>
        <time>2019-02-24T08:31:07.000Z</time>
      </trkpt>
      <trkpt lat="46.66723" lon="0.52551">
        <ele>159.6</ele>
        <time>2019-02-24T08:31:12.000Z</time>
      </trkpt>
      <trkpt lat="46.6673" lon="0.52563">
        <ele>161.56</ele>
        <time>2019-02-24T08:31:18.000Z</time>
      </trkpt>
      <trkpt lat="46.66736" lon="0.52574">
        <ele>162.93</ele>
        <time>2019-02-24T08:31:23.000Z</time>
      </trkpt>
      <trkpt lat="46.66742" lon="0.52584">
        <ele>164.78</ele>
        <time>2019-02-24T08:31:30.000Z</time>
      </trkpt>
      <trkpt lat="46.6675" lon="0.52595">
        <ele>166.09</ele>
        <time>2019-02-24T08:31:35.000Z</time>
      </trkpt>
      <trkpt lat="46.66755" lon="0.52607">
        <ele>167.25</ele>
        <time>2019-02-24T08:31:41.000Z</time>
      </trkpt>
      <trkpt lat="46.66761" lon="0.52619">
        <ele>168.22</ele>
        <time>2019-02-24T08:31:47.000Z</time>
      </trkpt>
      <trkpt lat="46.66767" lon="0.52632">
        <ele>169.01</ele>
        <time>2019-02-24T08:31:52.000Z</time>
      </trkpt>
      <trkpt lat="46.66771" lon="0.52644">
        <ele>170.17</ele>
        <time>2019-02-24T08:31:58.000Z</time>
      </trkpt>
      <trkpt lat="46.66776" lon="0.52657">
        <ele>171.5</ele>
        <time>2019-02-24T08:32:04.000Z</time>
      </trkpt>
      <trkpt lat="46.66781" lon="0.52669">
        <ele>172.39</ele>
        <time>2019-02-24T08:32:09.000Z</time>
      </trkpt>
      <trkpt lat="46.66787" lon="0.5268">
        <ele>173.54</ele>
        <time>2019-02-24T08:32:16.000Z</time>
      </trkpt>
      <trkpt lat="46.66793" lon="0.52692">
        <ele>174.2</ele>
        <time>2019-02-24T08:32:21.000Z</time>
      </trkpt>
      <trkpt lat="46.66797" lon="0.52704">
        <ele>174.8</ele>
        <time>2019-02-24T08:32:27.000Z</time>
      </trkpt>
      <trkpt lat="46.66802" lon="0.52718">
        <ele>175.4</ele>
        <time>2019-02-24T08:32:33.000Z</time>
      </trkpt>
      <trkpt lat="46.66807" lon="0.5273">
        <ele>175.79</ele>
        <time>2019-02-24T08:32:38.000Z</time>
      </trkpt>
      <trkpt lat="46.66816" lon="0.52736">
        <ele>176.1</ele>
        <time>2019-02-24T08:32:43.000Z</time>
      </trkpt>
      <trkpt lat="46.66825" lon="0.52742">
        <ele>176.47</ele>
        <time>2019-02-24T08:32:48.000Z</time>
      </trkpt>
      <trkpt lat="46.66835" lon="0.52748">
        <ele>176.92</ele>
        <time>2019-02-24T08:32:52.000Z</time>
      </trkpt>
      <trkpt lat="46.66842" lon="0.52759">
        <ele>177.51</ele>
        <time>2019-02-24T08:32:57.000Z</time>
      </trkpt>
      <trkpt lat="46.66848" lon="0.52769">
        <ele>177.81</ele>
        <time>2019-02-24T08:33:01.000Z</time>
      </trkpt>
      <trkpt lat="46.66855" lon="0.52778">
        <ele>178.07</ele>
        <time>2019-02-24T08:33:06.000Z</time>
      </trkpt>
      <trkpt lat="46.66864" lon="0.52786">
        <ele>178.04</ele>
        <time>2019-02-24T08:33:10.000Z</time>
      </trkpt>
      <trkpt lat="46.66872" lon="0.52796">
        <ele>177.84</ele>
        <time>2019-02-24T08:33:15.000Z</time>
      </trkpt>
      <trkpt lat="46.66882" lon="0.52801">
        <ele>177.92</ele>
        <time>2019-02-24T08:33:21.000Z</time>
      </trkpt>
      <trkpt lat="46.66876" lon="0.52817">
        <ele>178.67</ele>
        <time>2019-02-24T08:33:33.000Z</time>
      </trkpt>
      <trkpt lat="46.66869" lon="0.52825">
        <ele>178.79</ele>
        <time>2019-02-24T08:33:37.000Z</time>
      </trkpt>
      <trkpt lat="46.66859" lon="0.52835">
        <ele>179</ele>
        <time>2019-02-24T08:33:41.000Z</time>
      </trkpt>
      <trkpt lat="46.66851" lon="0.52846">
        <ele>179.46</ele>
        <time>2019-02-24T08:33:45.000Z</time>
      </trkpt>
      <trkpt lat="46.66845" lon="0.52855">
        <ele>179.93</ele>
        <time>2019-02-24T08:33:48.000Z</time>
      </trkpt>
      <trkpt lat="46.66837" lon="0.52865">
        <ele>180.73</ele>
        <time>2019-02-24T08:33:52.000Z</time>
      </trkpt>
      <trkpt lat="46.6683" lon="0.52873">
        <ele>181.39</ele>
        <time>2019-02-24T08:33:55.000Z</time>
      </trkpt>
      <trkpt lat="46.66821" lon="0.5288">
        <ele>181.98</ele>
        <time>2019-02-24T08:33:58.000Z</time>
      </trkpt>
      <trkpt lat="46.66815" lon="0.52891">
        <ele>182.59</ele>
        <time>2019-02-24T08:34:01.000Z</time>
      </trkpt>
      <trkpt lat="46.66808" lon="0.52903">
        <ele>182.95</ele>
        <time>2019-02-24T08:34:04.000Z</time>
      </trkpt>
      <trkpt lat="46.66802" lon="0.52917">
        <ele>183.17</ele>
        <time>2019-02-24T08:34:08.000Z</time>
      </trkpt>
      <trkpt lat="46.66794" lon="0.52927">
        <ele>183.23</ele>
        <time>2019-02-24T08:34:12.000Z</time>
      </trkpt>
      <trkpt lat="46.66787" lon="0.52938">
        <ele>183.41</ele>
        <time>2019-02-24T08:34:16.000Z</time>
      </trkpt>
      <trkpt lat="46.66778" lon="0.52949">
        <ele>183.76</ele>
        <time>2019-02-24T08:34:20.000Z</time>
      </trkpt>
      <trkpt lat="46.6677" lon="0.5296">
        <ele>184.15</ele>
        <time>2019-02-24T08:34:23.000Z</time>
      </trkpt>
      <trkpt lat="46.66762" lon="0.5297">
        <ele>184.52</ele>
        <time>2019-02-24T08:34:26.000Z</time>
      </trkpt>
      <trkpt lat="46.66757" lon="0.52984">
        <ele>184.73</ele>
        <time>2019-02-24T08:34:28.000Z</time>
      </trkpt>
      <trkpt lat="46.6675" lon="0.52996">
        <ele>185.21</ele>
        <time>2019-02-24T08:34:30.000Z</time>
      </trkpt>
      <trkpt lat="46.66743" lon="0.5301">
        <ele>185.34</ele>
        <time>2019-02-24T08:34:33.000Z</time>
      </trkpt>
      <trkpt lat="46.66735" lon="0.53023">
        <ele>185.3</ele>
        <time>2019-02-24T08:34:36.000Z</time>
      </trkpt>
      <trkpt lat="46.66725" lon="0.53034">
        <ele>184.65</ele>
        <time>2019-02-24T08:34:39.000Z</time>
      </trkpt>
      <trkpt lat="46.66718" lon="0.53044">
        <ele>184.02</ele>
        <time>2019-02-24T08:34:41.000Z</time>
      </trkpt>
      <trkpt lat="46.66711" lon="0.53053">
        <ele>183.58</ele>
        <time>2019-02-24T08:34:43.000Z</time>
      </trkpt>
      <trkpt lat="46.66705" lon="0.53063">
        <ele>183.19</ele>
        <time>2019-02-24T08:34:45.000Z</time>
      </trkpt>
      <trkpt lat="46.66699" lon="0.53076">
        <ele>182.97</ele>
        <time>2019-02-24T08:34:48.000Z</time>
      </trkpt>
      <trkpt lat="46.66694" lon="0.53089">
        <ele>183.06</ele>
        <time>2019-02-24T08:34:50.000Z</time>
      </trkpt>
      <trkpt lat="46.66689" lon="0.531">
        <ele>183.22</ele>
        <time>2019-02-24T08:34:52.000Z</time>
      </trkpt>
      <trkpt lat="46.66684" lon="0.53112">
        <ele>183.42</ele>
        <time>2019-02-24T08:34:54.000Z</time>
      </trkpt>
      <trkpt lat="46.66679" lon="0.53124">
        <ele>183.6</ele>
        <time>2019-02-24T08:34:56.000Z</time>
      </trkpt>
      <trkpt lat="46.66674" lon="0.53135">
        <ele>183.76</ele>
        <time>2019-02-24T08:34:58.000Z</time>
      </trkpt>
      <trkpt lat="46.66668" lon="0.53151">
        <ele>183.84</ele>
        <time>2019-02-24T08:35:01.000Z</time>
      </trkpt>
      <trkpt lat="46.66662" lon="0.53161">
        <ele>183.93</ele>
        <time>2019-02-24T08:35:04.000Z</time>
      </trkpt>
      <trkpt lat="46.66653" lon="0.53173">
        <ele>184.06</ele>
        <time>2019-02-24T08:35:07.000Z</time>
      </trkpt>
      <trkpt lat="46.66645" lon="0.53182">
        <ele>183.95</ele>
        <time>2019-02-24T08:35:10.000Z</time>
      </trkpt>
      <trkpt lat="46.66639" lon="0.53193">
        <ele>183.74</ele>
        <time>2019-02-24T08:35:13.000Z</time>
      </trkpt>
      <trkpt lat="46.66631" lon="0.53198">
        <ele>183.53</ele>
        <time>2019-02-24T08:35:15.000Z</time>
      </trkpt>
      <trkpt lat="46.6662" lon="0.53204">
        <ele>182.3</ele>
        <time>2019-02-24T08:35:17.000Z</time>
      </trkpt>
      <trkpt lat="46.6661" lon="0.53207">
        <ele>182.17</ele>
        <time>2019-02-24T08:35:19.000Z</time>
      </trkpt>
      <trkpt lat="46.666" lon="0.53207">
        <ele>181.63</ele>
        <time>2019-02-24T08:35:21.000Z</time>
      </trkpt>
      <trkpt lat="46.66589" lon="0.53214">
        <ele>181.96</ele>
        <time>2019-02-24T08:35:23.000Z</time>
      </trkpt>
      <trkpt lat="46.6658" lon="0.53225">
        <ele>182.19</ele>
        <time>2019-02-24T08:35:26.000Z</time>
      </trkpt>
      <trkpt lat="46.66571" lon="0.53235">
        <ele>182.19</ele>
        <time>2019-02-24T08:35:29.000Z</time>
      </trkpt>
      <trkpt lat="46.66563" lon="0.53243">
        <ele>182.21</ele>
        <time>2019-02-24T08:35:31.000Z</time>
      </trkpt>
      <trkpt lat="46.66553" lon="0.53253">
        <ele>182.06</ele>
        <time>2019-02-24T08:35:34.000Z</time>
      </trkpt>
      <trkpt lat="46.66544" lon="0.5326">
        <ele>181.16</ele>
        <time>2019-02-24T08:35:37.000Z</time>
      </trkpt>
      <trkpt lat="46.66539" lon="0.53271">
        <ele>181.12</ele>
        <time>2019-02-24T08:35:40.000Z</time>
      </trkpt>
      <trkpt lat="46.66528" lon="0.53278">
        <ele>180.98</ele>
        <time>2019-02-24T08:35:46.000Z</time>
      </trkpt>
      <trkpt lat="46.66517" lon="0.53287">
        <ele>181.02</ele>
        <time>2019-02-24T08:35:51.000Z</time>
      </trkpt>
      <trkpt lat="46.66505" lon="0.53297">
        <ele>181.25</ele>
        <time>2019-02-24T08:35:55.000Z</time>
      </trkpt>
      <trkpt lat="46.66496" lon="0.53305">
        <ele>181.44</ele>
        <time>2019-02-24T08:35:58.000Z</time>
      </trkpt>
      <trkpt lat="46.66489" lon="0.53316">
        <ele>181.53</ele>
        <time>2019-02-24T08:36:01.000Z</time>
      </trkpt>
      <trkpt lat="46.6648" lon="0.53322">
        <ele>181.28</ele>
        <time>2019-02-24T08:36:05.000Z</time>
      </trkpt>
      <trkpt lat="46.66471" lon="0.5333">
        <ele>180.92</ele>
        <time>2019-02-24T08:36:09.000Z</time>
      </trkpt>
      <trkpt lat="46.66464" lon="0.53339">
        <ele>180.61</ele>
        <time>2019-02-24T08:36:12.000Z</time>
      </trkpt>
      <trkpt lat="46.66457" lon="0.53352">
        <ele>180.17</ele>
        <time>2019-02-24T08:36:15.000Z</time>
      </trkpt>
      <trkpt lat="46.66451" lon="0.53365">
        <ele>179.34</ele>
        <time>2019-02-24T08:36:19.000Z</time>
      </trkpt>
      <trkpt lat="46.66444" lon="0.53374">
        <ele>178.68</ele>
        <time>2019-02-24T08:36:22.000Z</time>
      </trkpt>
      <trkpt lat="46.66438" lon="0.53384">
        <ele>177.77</ele>
        <time>2019-02-24T08:36:26.000Z</time>
      </trkpt>
      <trkpt lat="46.66428" lon="0.53392">
        <ele>177.02</ele>
        <time>2019-02-24T08:36:30.000Z</time>
      </trkpt>
      <trkpt lat="46.66421" lon="0.534">
        <ele>176.5</ele>
        <time>2019-02-24T08:36:33.000Z</time>
      </trkpt>
      <trkpt lat="46.66412" lon="0.53409">
        <ele>175.85</ele>
        <time>2019-02-24T08:36:37.000Z</time>
      </trkpt>
      <trkpt lat="46.66402" lon="0.53416">
        <ele>175.67</ele>
        <time>2019-02-24T08:36:41.000Z</time>
      </trkpt>
      <trkpt lat="46.66393" lon="0.53421">
        <ele>175.88</ele>
        <time>2019-02-24T08:36:44.000Z</time>
      </trkpt>
      <trkpt lat="46.66383" lon="0.53432">
        <ele>176.31</ele>
        <time>2019-02-24T08:36:48.000Z</time>
      </trkpt>
      <trkpt lat="46.66372" lon="0.53441">
        <ele>176.85</ele>
        <time>2019-02-24T08:36:52.000Z</time>
      </trkpt>
      <trkpt lat="46.66363" lon="0.53448">
        <ele>177.44</ele>
        <time>2019-02-24T08:36:56.000Z</time>
      </trkpt>
      <trkpt lat="46.66355" lon="0.53455">
        <ele>178.24</ele>
        <time>2019-02-24T08:37:01.000Z</time>
      </trkpt>
      <trkpt lat="46.66346" lon="0.53461">
        <ele>178.76</ele>
        <time>2019-02-24T08:37:04.000Z</time>
      </trkpt>
      <trkpt lat="46.66338" lon="0.5347">
        <ele>179.48</ele>
        <time>2019-02-24T08:37:08.000Z</time>
      </trkpt>
      <trkpt lat="46.6633" lon="0.53478">
        <ele>180.15</ele>
        <time>2019-02-24T08:37:12.000Z</time>
      </trkpt>
      <trkpt lat="46.66321" lon="0.53482">
        <ele>180.98</ele>
        <time>2019-02-24T08:37:16.000Z</time>
      </trkpt>
      <trkpt lat="46.66311" lon="0.5349">
        <ele>182.14</ele>
        <time>2019-02-24T08:37:21.000Z</time>
      </trkpt>
      <trkpt lat="46.66305" lon="0.53501">
        <ele>183.24</ele>
        <time>2019-02-24T08:37:25.000Z</time>
      </trkpt>
      <trkpt lat="46.66295" lon="0.53508">
        <ele>183.78</ele>
        <time>2019-02-24T08:37:28.000Z</time>
      </trkpt>
      <trkpt lat="46.66292" lon="0.53521">
        <ele>184.79</ele>
        <time>2019-02-24T08:37:36.000Z</time>
      </trkpt>
      <trkpt lat="46.66286" lon="0.53532">
        <ele>184.77</ele>
        <time>2019-02-24T08:37:42.000Z</time>
      </trkpt>
      <trkpt lat="46.66276" lon="0.53537">
        <ele>184.44</ele>
        <time>2019-02-24T08:37:46.000Z</time>
      </trkpt>
      <trkpt lat="46.66266" lon="0.53548">
        <ele>184.15</ele>
        <time>2019-02-24T08:37:49.000Z</time>
      </trkpt>
      <trkpt lat="46.66254" lon="0.53555">
        <ele>183.02</ele>
        <time>2019-02-24T08:37:52.000Z</time>
      </trkpt>
      <trkpt lat="46.66245" lon="0.53564">
        <ele>182.32</ele>
        <time>2019-02-24T08:37:55.000Z</time>
      </trkpt>
      <trkpt lat="46.66235" lon="0.53576">
        <ele>181.9</ele>
        <time>2019-02-24T08:37:58.000Z</time>
      </trkpt>
      <trkpt lat="46.66229" lon="0.5359">
        <ele>181.8</ele>
        <time>2019-02-24T08:38:01.000Z</time>
      </trkpt>
      <trkpt lat="46.6622" lon="0.53603">
        <ele>181.63</ele>
        <time>2019-02-24T08:38:04.000Z</time>
      </trkpt>
      <trkpt lat="46.6621" lon="0.53612">
        <ele>181.34</ele>
        <time>2019-02-24T08:38:07.000Z</time>
      </trkpt>
      <trkpt lat="46.66201" lon="0.5362">
        <ele>181.04</ele>
        <time>2019-02-24T08:38:10.000Z</time>
      </trkpt>
      <trkpt lat="46.66191" lon="0.5363">
        <ele>180.75</ele>
        <time>2019-02-24T08:38:13.000Z</time>
      </trkpt>
      <trkpt lat="46.66182" lon="0.53641">
        <ele>180.52</ele>
        <time>2019-02-24T08:38:16.000Z</time>
      </trkpt>
      <trkpt lat="46.66175" lon="0.5365">
        <ele>180.41</ele>
        <time>2019-02-24T08:38:19.000Z</time>
      </trkpt>
      <trkpt lat="46.66167" lon="0.53659">
        <ele>180.41</ele>
        <time>2019-02-24T08:38:21.000Z</time>
      </trkpt>
      <trkpt lat="46.6616" lon="0.53667">
        <ele>180.42</ele>
        <time>2019-02-24T08:38:23.000Z</time>
      </trkpt>
      <trkpt lat="46.66151" lon="0.53675">
        <ele>180.41</ele>
        <time>2019-02-24T08:38:25.000Z</time>
      </trkpt>
      <trkpt lat="46.6614" lon="0.53685">
        <ele>180.38</ele>
        <time>2019-02-24T08:38:28.000Z</time>
      </trkpt>
      <trkpt lat="46.66131" lon="0.53697">
        <ele>180.38</ele>
        <time>2019-02-24T08:38:31.000Z</time>
      </trkpt>
      <trkpt lat="46.66122" lon="0.53705">
        <ele>180.36</ele>
        <time>2019-02-24T08:38:33.000Z</time>
      </trkpt>
      <trkpt lat="46.66114" lon="0.53714">
        <ele>179.82</ele>
        <time>2019-02-24T08:38:35.000Z</time>
      </trkpt>
      <trkpt lat="46.66106" lon="0.53724">
        <ele>178.96</ele>
        <time>2019-02-24T08:38:37.000Z</time>
      </trkpt>
      <trkpt lat="46.66096" lon="0.53733">
        <ele>178.54</ele>
        <time>2019-02-24T08:38:40.000Z</time>
      </trkpt>
      <trkpt lat="46.66085" lon="0.53743">
        <ele>178.51</ele>
        <time>2019-02-24T08:38:43.000Z</time>
      </trkpt>
      <trkpt lat="46.66078" lon="0.53751">
        <ele>178.33</ele>
        <time>2019-02-24T08:38:45.000Z</time>
      </trkpt>
      <trkpt lat="46.66069" lon="0.5376">
        <ele>178.37</ele>
        <time>2019-02-24T08:38:47.000Z</time>
      </trkpt>
      <trkpt lat="46.66062" lon="0.53768">
        <ele>178.98</ele>
        <time>2019-02-24T08:38:49.000Z</time>
      </trkpt>
      <trkpt lat="46.66052" lon="0.53778">
        <ele>179.17</ele>
        <time>2019-02-24T08:38:52.000Z</time>
      </trkpt>
      <trkpt lat="46.66042" lon="0.53787">
        <ele>179.48</ele>
        <time>2019-02-24T08:38:55.000Z</time>
      </trkpt>
      <trkpt lat="46.66032" lon="0.53796">
        <ele>179.87</ele>
        <time>2019-02-24T08:38:58.000Z</time>
      </trkpt>
      <trkpt lat="46.66023" lon="0.53807">
        <ele>180.33</ele>
        <time>2019-02-24T08:39:01.000Z</time>
      </trkpt>
      <trkpt lat="46.66016" lon="0.53817">
        <ele>180.83</ele>
        <time>2019-02-24T08:39:04.000Z</time>
      </trkpt>
      <trkpt lat="46.66006" lon="0.5382">
        <ele>181.36</ele>
        <time>2019-02-24T08:39:07.000Z</time>
      </trkpt>
      <trkpt lat="46.66001" lon="0.53809">
        <ele>182.11</ele>
        <time>2019-02-24T08:39:12.000Z</time>
      </trkpt>
      <trkpt lat="46.65995" lon="0.53793">
        <ele>183.01</ele>
        <time>2019-02-24T08:39:15.000Z</time>
      </trkpt>
      <trkpt lat="46.65989" lon="0.5378">
        <ele>183.12</ele>
        <time>2019-02-24T08:39:18.000Z</time>
      </trkpt>
      <trkpt lat="46.65986" lon="0.53766">
        <ele>183.8</ele>
        <time>2019-02-24T08:39:29.000Z</time>
      </trkpt>
      <trkpt lat="46.65977" lon="0.53755">
        <ele>184.8</ele>
        <time>2019-02-24T08:39:51.000Z</time>
      </trkpt>
      <trkpt lat="46.65972" lon="0.53743">
        <ele>185.16</ele>
        <time>2019-02-24T08:39:55.000Z</time>
      </trkpt>
      <trkpt lat="46.65968" lon="0.53731">
        <ele>185.39</ele>
        <time>2019-02-24T08:39:58.000Z</time>
      </trkpt>
      <trkpt lat="46.65962" lon="0.53713">
        <ele>185.62</ele>
        <time>2019-02-24T08:40:02.000Z</time>
      </trkpt>
      <trkpt lat="46.65956" lon="0.53699">
        <ele>185.75</ele>
        <time>2019-02-24T08:40:05.000Z</time>
      </trkpt>
      <trkpt lat="46.65951" lon="0.53685">
        <ele>185.76</ele>
        <time>2019-02-24T08:40:08.000Z</time>
      </trkpt>
      <trkpt lat="46.65948" lon="0.53671">
        <ele>185.67</ele>
        <time>2019-02-24T08:40:10.000Z</time>
      </trkpt>
      <trkpt lat="46.65942" lon="0.5366">
        <ele>185.15</ele>
        <time>2019-02-24T08:40:12.000Z</time>
      </trkpt>
      <trkpt lat="46.65934" lon="0.53647">
        <ele>184.9</ele>
        <time>2019-02-24T08:40:15.000Z</time>
      </trkpt>
      <trkpt lat="46.65927" lon="0.53635">
        <ele>184.62</ele>
        <time>2019-02-24T08:40:18.000Z</time>
      </trkpt>
      <trkpt lat="46.65921" lon="0.53621">
        <ele>184.26</ele>
        <time>2019-02-24T08:40:21.000Z</time>
      </trkpt>
      <trkpt lat="46.65914" lon="0.53612">
        <ele>183.99</ele>
        <time>2019-02-24T08:40:24.000Z</time>
      </trkpt>
      <trkpt lat="46.65906" lon="0.53599">
        <ele>184.04</ele>
        <time>2019-02-24T08:40:29.000Z</time>
      </trkpt>
      <trkpt lat="46.65901" lon="0.53587">
        <ele>184.18</ele>
        <time>2019-02-24T08:40:32.000Z</time>
      </trkpt>
      <trkpt lat="46.65896" lon="0.53572">
        <ele>184.44</ele>
        <time>2019-02-24T08:40:36.000Z</time>
      </trkpt>
      <trkpt lat="46.65888" lon="0.53564">
        <ele>184.64</ele>
        <time>2019-02-24T08:40:39.000Z</time>
      </trkpt>
      <trkpt lat="46.65881" lon="0.53548">
        <ele>184.86</ele>
        <time>2019-02-24T08:40:42.000Z</time>
      </trkpt>
      <trkpt lat="46.65875" lon="0.53537">
        <ele>185.24</ele>
        <time>2019-02-24T08:40:45.000Z</time>
      </trkpt>
      <trkpt lat="46.65868" lon="0.53524">
        <ele>185.67</ele>
        <time>2019-02-24T08:40:48.000Z</time>
      </trkpt>
      <trkpt lat="46.65862" lon="0.53512">
        <ele>186.05</ele>
        <time>2019-02-24T08:40:51.000Z</time>
      </trkpt>
      <trkpt lat="46.65855" lon="0.535">
        <ele>186.3</ele>
        <time>2019-02-24T08:40:54.000Z</time>
      </trkpt>
      <trkpt lat="46.65847" lon="0.53491">
        <ele>186.39</ele>
        <time>2019-02-24T08:40:56.000Z</time>
      </trkpt>
      <trkpt lat="46.65841" lon="0.53481">
        <ele>186.37</ele>
        <time>2019-02-24T08:40:58.000Z</time>
      </trkpt>
      <trkpt lat="46.65838" lon="0.53465">
        <ele>186.37</ele>
        <time>2019-02-24T08:41:01.000Z</time>
      </trkpt>
      <trkpt lat="46.65832" lon="0.53452">
        <ele>186.56</ele>
        <time>2019-02-24T08:41:04.000Z</time>
      </trkpt>
      <trkpt lat="46.65823" lon="0.53437">
        <ele>186.83</ele>
        <time>2019-02-24T08:41:07.000Z</time>
      </trkpt>
      <trkpt lat="46.65815" lon="0.53425">
        <ele>187.4</ele>
        <time>2019-02-24T08:41:10.000Z</time>
      </trkpt>
      <trkpt lat="46.65808" lon="0.53414">
        <ele>188.06</ele>
        <time>2019-02-24T08:41:13.000Z</time>
      </trkpt>
      <trkpt lat="46.65802" lon="0.53404">
        <ele>188.41</ele>
        <time>2019-02-24T08:41:15.000Z</time>
      </trkpt>
      <trkpt lat="46.65796" lon="0.5339">
        <ele>188.8</ele>
        <time>2019-02-24T08:41:18.000Z</time>
      </trkpt>
      <trkpt lat="46.6579" lon="0.53377">
        <ele>189.18</ele>
        <time>2019-02-24T08:41:21.000Z</time>
      </trkpt>
      <trkpt lat="46.65784" lon="0.5336">
        <ele>189.43</ele>
        <time>2019-02-24T08:41:24.000Z</time>
      </trkpt>
      <trkpt lat="46.65778" lon="0.5335">
        <ele>189.54</ele>
        <time>2019-02-24T08:41:27.000Z</time>
      </trkpt>
      <trkpt lat="46.65772" lon="0.5334">
        <ele>189.72</ele>
        <time>2019-02-24T08:41:31.000Z</time>
      </trkpt>
      <trkpt lat="46.65765" lon="0.53328">
        <ele>189.92</ele>
        <time>2019-02-24T08:41:34.000Z</time>
      </trkpt>
      <trkpt lat="46.6576" lon="0.53316">
        <ele>190.04</ele>
        <time>2019-02-24T08:41:37.000Z</time>
      </trkpt>
      <trkpt lat="46.65753" lon="0.53301">
        <ele>190.26</ele>
        <time>2019-02-24T08:41:41.000Z</time>
      </trkpt>
      <trkpt lat="46.65747" lon="0.53287">
        <ele>190.51</ele>
        <time>2019-02-24T08:41:43.000Z</time>
      </trkpt>
      <trkpt lat="46.65741" lon="0.53277">
        <ele>190.54</ele>
        <time>2019-02-24T08:41:45.000Z</time>
      </trkpt>
      <trkpt lat="46.65733" lon="0.53261">
        <ele>190.57</ele>
        <time>2019-02-24T08:41:48.000Z</time>
      </trkpt>
      <trkpt lat="46.65728" lon="0.5325">
        <ele>190.63</ele>
        <time>2019-02-24T08:41:50.000Z</time>
      </trkpt>
      <trkpt lat="46.65723" lon="0.53237">
        <ele>190.83</ele>
        <time>2019-02-24T08:41:52.000Z</time>
      </trkpt>
      <trkpt lat="46.65715" lon="0.53221">
        <ele>191.82</ele>
        <time>2019-02-24T08:41:55.000Z</time>
      </trkpt>
      <trkpt lat="46.65712" lon="0.53209">
        <ele>192.89</ele>
        <time>2019-02-24T08:41:57.000Z</time>
      </trkpt>
      <trkpt lat="46.65706" lon="0.53198">
        <ele>193.57</ele>
        <time>2019-02-24T08:41:59.000Z</time>
      </trkpt>
      <trkpt lat="46.65701" lon="0.53186">
        <ele>193.44</ele>
        <time>2019-02-24T08:42:01.000Z</time>
      </trkpt>
      <trkpt lat="46.65696" lon="0.53172">
        <ele>192.47</ele>
        <time>2019-02-24T08:42:03.000Z</time>
      </trkpt>
      <trkpt lat="46.6569" lon="0.53155">
        <ele>191.89</ele>
        <time>2019-02-24T08:42:06.000Z</time>
      </trkpt>
      <trkpt lat="46.65685" lon="0.53144">
        <ele>191.49</ele>
        <time>2019-02-24T08:42:08.000Z</time>
      </trkpt>
      <trkpt lat="46.65678" lon="0.53132">
        <ele>191.25</ele>
        <time>2019-02-24T08:42:10.000Z</time>
      </trkpt>
      <trkpt lat="46.65672" lon="0.53122">
        <ele>190.98</ele>
        <time>2019-02-24T08:42:12.000Z</time>
      </trkpt>
      <trkpt lat="46.65666" lon="0.53109">
        <ele>190.45</ele>
        <time>2019-02-24T08:42:14.000Z</time>
      </trkpt>
      <trkpt lat="46.65658" lon="0.53095">
        <ele>190.29</ele>
        <time>2019-02-24T08:42:17.000Z</time>
      </trkpt>
      <trkpt lat="46.65651" lon="0.53081">
        <ele>189.98</ele>
        <time>2019-02-24T08:42:20.000Z</time>
      </trkpt>
      <trkpt lat="46.65643" lon="0.53067">
        <ele>189.76</ele>
        <time>2019-02-24T08:42:23.000Z</time>
      </trkpt>
      <trkpt lat="46.65638" lon="0.53055">
        <ele>189.77</ele>
        <time>2019-02-24T08:42:26.000Z</time>
      </trkpt>
      <trkpt lat="46.65627" lon="0.5305">
        <ele>189.86</ele>
        <time>2019-02-24T08:42:30.000Z</time>
      </trkpt>
      <trkpt lat="46.65615" lon="0.53058">
        <ele>189.75</ele>
        <time>2019-02-24T08:42:33.000Z</time>
      </trkpt>
      <trkpt lat="46.65605" lon="0.53067">
        <ele>188.15</ele>
        <time>2019-02-24T08:42:35.000Z</time>
      </trkpt>
      <trkpt lat="46.65593" lon="0.53074">
        <ele>186.55</ele>
        <time>2019-02-24T08:42:38.000Z</time>
      </trkpt>
      <trkpt lat="46.65584" lon="0.53086">
        <ele>186.14</ele>
        <time>2019-02-24T08:42:41.000Z</time>
      </trkpt>
      <trkpt lat="46.65578" lon="0.53098">
        <ele>185.75</ele>
        <time>2019-02-24T08:42:44.000Z</time>
      </trkpt>
      <trkpt lat="46.65569" lon="0.53108">
        <ele>184.31</ele>
        <time>2019-02-24T08:42:47.000Z</time>
      </trkpt>
      <trkpt lat="46.65559" lon="0.53117">
        <ele>183.3</ele>
        <time>2019-02-24T08:42:50.000Z</time>
      </trkpt>
      <trkpt lat="46.6555" lon="0.53126">
        <ele>183.16</ele>
        <time>2019-02-24T08:42:53.000Z</time>
      </trkpt>
      <trkpt lat="46.65541" lon="0.53137">
        <ele>183.07</ele>
        <time>2019-02-24T08:42:56.000Z</time>
      </trkpt>
      <trkpt lat="46.65532" lon="0.53148">
        <ele>182.99</ele>
        <time>2019-02-24T08:42:59.000Z</time>
      </trkpt>
      <trkpt lat="46.65523" lon="0.53157">
        <ele>182.9</ele>
        <time>2019-02-24T08:43:02.000Z</time>
      </trkpt>
      <trkpt lat="46.65514" lon="0.53165">
        <ele>182.79</ele>
        <time>2019-02-24T08:43:05.000Z</time>
      </trkpt>
      <trkpt lat="46.65507" lon="0.5318">
        <ele>181.89</ele>
        <time>2019-02-24T08:43:08.000Z</time>
      </trkpt>
      <trkpt lat="46.65497" lon="0.53189">
        <ele>181.62</ele>
        <time>2019-02-24T08:43:11.000Z</time>
      </trkpt>
      <trkpt lat="46.65487" lon="0.53196">
        <ele>181.99</ele>
        <time>2019-02-24T08:43:14.000Z</time>
      </trkpt>
      <trkpt lat="46.65478" lon="0.53204">
        <ele>182.11</ele>
        <time>2019-02-24T08:43:17.000Z</time>
      </trkpt>
      <trkpt lat="46.65468" lon="0.53212">
        <ele>182.89</ele>
        <time>2019-02-24T08:43:20.000Z</time>
      </trkpt>
      <trkpt lat="46.65458" lon="0.53223">
        <ele>184.34</ele>
        <time>2019-02-24T08:43:23.000Z</time>
      </trkpt>
      <trkpt lat="46.65448" lon="0.53233">
        <ele>184.66</ele>
        <time>2019-02-24T08:43:26.000Z</time>
      </trkpt>
      <trkpt lat="46.65439" lon="0.53244">
        <ele>184.87</ele>
        <time>2019-02-24T08:43:29.000Z</time>
      </trkpt>
      <trkpt lat="46.65429" lon="0.53255">
        <ele>184.76</ele>
        <time>2019-02-24T08:43:32.000Z</time>
      </trkpt>
      <trkpt lat="46.65421" lon="0.53266">
        <ele>184.75</ele>
        <time>2019-02-24T08:43:35.000Z</time>
      </trkpt>
      <trkpt lat="46.6541" lon="0.53277">
        <ele>184.58</ele>
        <time>2019-02-24T08:43:38.000Z</time>
      </trkpt>
      <trkpt lat="46.65398" lon="0.53285">
        <ele>183.82</ele>
        <time>2019-02-24T08:43:41.000Z</time>
      </trkpt>
      <trkpt lat="46.65387" lon="0.53295">
        <ele>184.02</ele>
        <time>2019-02-24T08:43:44.000Z</time>
      </trkpt>
      <trkpt lat="46.65379" lon="0.53303">
        <ele>184.4</ele>
        <time>2019-02-24T08:43:46.000Z</time>
      </trkpt>
      <trkpt lat="46.65372" lon="0.53313">
        <ele>184.33</ele>
        <time>2019-02-24T08:43:48.000Z</time>
      </trkpt>
      <trkpt lat="46.65361" lon="0.53324">
        <ele>184.64</ele>
        <time>2019-02-24T08:43:51.000Z</time>
      </trkpt>
      <trkpt lat="46.65354" lon="0.53333">
        <ele>184.9</ele>
        <time>2019-02-24T08:43:53.000Z</time>
      </trkpt>
      <trkpt lat="46.65343" lon="0.53341">
        <ele>185.12</ele>
        <time>2019-02-24T08:43:56.000Z</time>
      </trkpt>
      <trkpt lat="46.65335" lon="0.53334">
        <ele>185.57</ele>
        <time>2019-02-24T08:44:00.000Z</time>
      </trkpt>
      <trkpt lat="46.65328" lon="0.5332">
        <ele>186.46</ele>
        <time>2019-02-24T08:44:03.000Z</time>
      </trkpt>
      <trkpt lat="46.65323" lon="0.53302">
        <ele>188.45</ele>
        <time>2019-02-24T08:44:06.000Z</time>
      </trkpt>
      <trkpt lat="46.65316" lon="0.53285">
        <ele>189.78</ele>
        <time>2019-02-24T08:44:09.000Z</time>
      </trkpt>
      <trkpt lat="46.6531" lon="0.53274">
        <ele>189.94</ele>
        <time>2019-02-24T08:44:11.000Z</time>
      </trkpt>
      <trkpt lat="46.65304" lon="0.53262">
        <ele>190.53</ele>
        <time>2019-02-24T08:44:13.000Z</time>
      </trkpt>
      <trkpt lat="46.65299" lon="0.5325">
        <ele>191.27</ele>
        <time>2019-02-24T08:44:15.000Z</time>
      </trkpt>
      <trkpt lat="46.65294" lon="0.53238">
        <ele>191.96</ele>
        <time>2019-02-24T08:44:17.000Z</time>
      </trkpt>
      <trkpt lat="46.65289" lon="0.53226">
        <ele>192.45</ele>
        <time>2019-02-24T08:44:19.000Z</time>
      </trkpt>
      <trkpt lat="46.6528" lon="0.53214">
        <ele>192.51</ele>
        <time>2019-02-24T08:44:21.000Z</time>
      </trkpt>
      <trkpt lat="46.65273" lon="0.53201">
        <ele>192.24</ele>
        <time>2019-02-24T08:44:23.000Z</time>
      </trkpt>
      <trkpt lat="46.65268" lon="0.5319">
        <ele>192.26</ele>
        <time>2019-02-24T08:44:25.000Z</time>
      </trkpt>
      <trkpt lat="46.65262" lon="0.53174">
        <ele>192.48</ele>
        <time>2019-02-24T08:44:28.000Z</time>
      </trkpt>
      <trkpt lat="46.65254" lon="0.5316">
        <ele>192.71</ele>
        <time>2019-02-24T08:44:31.000Z</time>
      </trkpt>
      <trkpt lat="46.65249" lon="0.53149">
        <ele>192.81</ele>
        <time>2019-02-24T08:44:34.000Z</time>
      </trkpt>
      <trkpt lat="46.65244" lon="0.53134">
        <ele>194.15</ele>
        <time>2019-02-24T08:44:37.000Z</time>
      </trkpt>
      <trkpt lat="46.65237" lon="0.53119">
        <ele>195.94</ele>
        <time>2019-02-24T08:44:40.000Z</time>
      </trkpt>
      <trkpt lat="46.6523" lon="0.53103">
        <ele>197.91</ele>
        <time>2019-02-24T08:44:43.000Z</time>
      </trkpt>
      <trkpt lat="46.65223" lon="0.53091">
        <ele>198.46</ele>
        <time>2019-02-24T08:44:45.000Z</time>
      </trkpt>
      <trkpt lat="46.65219" lon="0.53079">
        <ele>198.46</ele>
        <time>2019-02-24T08:44:47.000Z</time>
      </trkpt>
      <trkpt lat="46.65207" lon="0.53079">
        <ele>198.29</ele>
        <time>2019-02-24T08:44:49.000Z</time>
      </trkpt>
      <trkpt lat="46.65196" lon="0.53086">
        <ele>197.44</ele>
        <time>2019-02-24T08:44:51.000Z</time>
      </trkpt>
      <trkpt lat="46.65186" lon="0.53093">
        <ele>196.48</ele>
        <time>2019-02-24T08:44:53.000Z</time>
      </trkpt>
      <trkpt lat="46.65177" lon="0.531">
        <ele>194.62</ele>
        <time>2019-02-24T08:44:55.000Z</time>
      </trkpt>
      <trkpt lat="46.65166" lon="0.53105">
        <ele>193.06</ele>
        <time>2019-02-24T08:44:57.000Z</time>
      </trkpt>
      <trkpt lat="46.65156" lon="0.5311">
        <ele>192.14</ele>
        <time>2019-02-24T08:44:59.000Z</time>
      </trkpt>
      <trkpt lat="46.65145" lon="0.53116">
        <ele>190.87</ele>
        <time>2019-02-24T08:45:01.000Z</time>
      </trkpt>
      <trkpt lat="46.65135" lon="0.53124">
        <ele>189.27</ele>
        <time>2019-02-24T08:45:03.000Z</time>
      </trkpt>
      <trkpt lat="46.65126" lon="0.53131">
        <ele>187.93</ele>
        <time>2019-02-24T08:45:05.000Z</time>
      </trkpt>
      <trkpt lat="46.65118" lon="0.53138">
        <ele>187.04</ele>
        <time>2019-02-24T08:45:07.000Z</time>
      </trkpt>
      <trkpt lat="46.65108" lon="0.53144">
        <ele>186.31</ele>
        <time>2019-02-24T08:45:09.000Z</time>
      </trkpt>
      <trkpt lat="46.65099" lon="0.5315">
        <ele>185.76</ele>
        <time>2019-02-24T08:45:11.000Z</time>
      </trkpt>
      <trkpt lat="46.65087" lon="0.53157">
        <ele>185.07</ele>
        <time>2019-02-24T08:45:13.000Z</time>
      </trkpt>
      <trkpt lat="46.65076" lon="0.53166">
        <ele>183.9</ele>
        <time>2019-02-24T08:45:15.000Z</time>
      </trkpt>
      <trkpt lat="46.65066" lon="0.53179">
        <ele>182.31</ele>
        <time>2019-02-24T08:45:17.000Z</time>
      </trkpt>
      <trkpt lat="46.65056" lon="0.53186">
        <ele>181.56</ele>
        <time>2019-02-24T08:45:19.000Z</time>
      </trkpt>
      <trkpt lat="46.65047" lon="0.53192">
        <ele>181.21</ele>
        <time>2019-02-24T08:45:21.000Z</time>
      </trkpt>
      <trkpt lat="46.65038" lon="0.53198">
        <ele>180.44</ele>
        <time>2019-02-24T08:45:23.000Z</time>
      </trkpt>
      <trkpt lat="46.65027" lon="0.53208">
        <ele>180.13</ele>
        <time>2019-02-24T08:45:25.000Z</time>
      </trkpt>
      <trkpt lat="46.65017" lon="0.53218">
        <ele>179.47</ele>
        <time>2019-02-24T08:45:27.000Z</time>
      </trkpt>
      <trkpt lat="46.65007" lon="0.53225">
        <ele>179.27</ele>
        <time>2019-02-24T08:45:29.000Z</time>
      </trkpt>
      <trkpt lat="46.64996" lon="0.53233">
        <ele>179.05</ele>
        <time>2019-02-24T08:45:31.000Z</time>
      </trkpt>
      <trkpt lat="46.64981" lon="0.53243">
        <ele>178.38</ele>
        <time>2019-02-24T08:45:33.000Z</time>
      </trkpt>
      <trkpt lat="46.64972" lon="0.53252">
        <ele>178.23</ele>
        <time>2019-02-24T08:45:35.000Z</time>
      </trkpt>
      <trkpt lat="46.64959" lon="0.53262">
        <ele>177.6</ele>
        <time>2019-02-24T08:45:37.000Z</time>
      </trkpt>
      <trkpt lat="46.64946" lon="0.53271">
        <ele>176.65</ele>
        <time>2019-02-24T08:45:39.000Z</time>
      </trkpt>
      <trkpt lat="46.64934" lon="0.53284">
        <ele>175.34</ele>
        <time>2019-02-24T08:45:41.000Z</time>
      </trkpt>
      <trkpt lat="46.64925" lon="0.53291">
        <ele>174.1</ele>
        <time>2019-02-24T08:45:43.000Z</time>
      </trkpt>
      <trkpt lat="46.64914" lon="0.53294">
        <ele>173.98</ele>
        <time>2019-02-24T08:45:46.000Z</time>
      </trkpt>
      <trkpt lat="46.64901" lon="0.53296">
        <ele>173.94</ele>
        <time>2019-02-24T08:45:50.000Z</time>
      </trkpt>
      <trkpt lat="46.64893" lon="0.53304">
        <ele>174.07</ele>
        <time>2019-02-24T08:45:52.000Z</time>
      </trkpt>
      <trkpt lat="46.64883" lon="0.53307">
        <ele>174.24</ele>
        <time>2019-02-24T08:45:54.000Z</time>
      </trkpt>
      <trkpt lat="46.64875" lon="0.53316">
        <ele>175.37</ele>
        <time>2019-02-24T08:45:56.000Z</time>
      </trkpt>
      <trkpt lat="46.64869" lon="0.53328">
        <ele>175.65</ele>
        <time>2019-02-24T08:45:58.000Z</time>
      </trkpt>
      <trkpt lat="46.64856" lon="0.53338">
        <ele>178.23</ele>
        <time>2019-02-24T08:46:00.000Z</time>
      </trkpt>
      <trkpt lat="46.64842" lon="0.53346">
        <ele>180.05</ele>
        <time>2019-02-24T08:46:02.000Z</time>
      </trkpt>
      <trkpt lat="46.64831" lon="0.53352">
        <ele>181.17</ele>
        <time>2019-02-24T08:46:04.000Z</time>
      </trkpt>
      <trkpt lat="46.64821" lon="0.53357">
        <ele>182.34</ele>
        <time>2019-02-24T08:46:06.000Z</time>
      </trkpt>
      <trkpt lat="46.64809" lon="0.53366">
        <ele>182.82</ele>
        <time>2019-02-24T08:46:09.000Z</time>
      </trkpt>
      <trkpt lat="46.64797" lon="0.53374">
        <ele>183.33</ele>
        <time>2019-02-24T08:46:12.000Z</time>
      </trkpt>
      <trkpt lat="46.64788" lon="0.53379">
        <ele>183.58</ele>
        <time>2019-02-24T08:46:14.000Z</time>
      </trkpt>
      <trkpt lat="46.64775" lon="0.53387">
        <ele>184.16</ele>
        <time>2019-02-24T08:46:17.000Z</time>
      </trkpt>
      <trkpt lat="46.64765" lon="0.53397">
        <ele>184.18</ele>
        <time>2019-02-24T08:46:20.000Z</time>
      </trkpt>
      <trkpt lat="46.64763" lon="0.53409">
        <ele>184.11</ele>
        <time>2019-02-24T08:46:23.000Z</time>
      </trkpt>
      <trkpt lat="46.64768" lon="0.53423">
        <ele>184.01</ele>
        <time>2019-02-24T08:46:25.000Z</time>
      </trkpt>
      <trkpt lat="46.64775" lon="0.53436">
        <ele>182.85</ele>
        <time>2019-02-24T08:46:27.000Z</time>
      </trkpt>
      <trkpt lat="46.64781" lon="0.53449">
        <ele>182.6</ele>
        <time>2019-02-24T08:46:29.000Z</time>
      </trkpt>
      <trkpt lat="46.64786" lon="0.53462">
        <ele>183.03</ele>
        <time>2019-02-24T08:46:31.000Z</time>
      </trkpt>
      <trkpt lat="46.64792" lon="0.53479">
        <ele>182.26</ele>
        <time>2019-02-24T08:46:33.000Z</time>
      </trkpt>
      <trkpt lat="46.648" lon="0.53491">
        <ele>182.1</ele>
        <time>2019-02-24T08:46:35.000Z</time>
      </trkpt>
      <trkpt lat="46.64807" lon="0.53506">
        <ele>182.63</ele>
        <time>2019-02-24T08:46:37.000Z</time>
      </trkpt>
      <trkpt lat="46.64814" lon="0.5352">
        <ele>182.84</ele>
        <time>2019-02-24T08:46:39.000Z</time>
      </trkpt>
      <trkpt lat="46.64822" lon="0.53534">
        <ele>182.99</ele>
        <time>2019-02-24T08:46:42.000Z</time>
      </trkpt>
      <trkpt lat="46.6483" lon="0.53549">
        <ele>184.03</ele>
        <time>2019-02-24T08:46:45.000Z</time>
      </trkpt>
      <trkpt lat="46.6483" lon="0.53565">
        <ele>185.51</ele>
        <time>2019-02-24T08:46:48.000Z</time>
      </trkpt>
      <trkpt lat="46.64821" lon="0.53577">
        <ele>186.17</ele>
        <time>2019-02-24T08:46:51.000Z</time>
      </trkpt>
      <trkpt lat="46.64813" lon="0.53584">
        <ele>185.92</ele>
        <time>2019-02-24T08:46:53.000Z</time>
      </trkpt>
      <trkpt lat="46.64804" lon="0.53596">
        <ele>185.48</ele>
        <time>2019-02-24T08:46:56.000Z</time>
      </trkpt>
      <trkpt lat="46.64796" lon="0.53606">
        <ele>185.43</ele>
        <time>2019-02-24T08:46:59.000Z</time>
      </trkpt>
      <trkpt lat="46.64788" lon="0.53616">
        <ele>184.96</ele>
        <time>2019-02-24T08:47:02.000Z</time>
      </trkpt>
      <trkpt lat="46.64779" lon="0.53626">
        <ele>184.64</ele>
        <time>2019-02-24T08:47:05.000Z</time>
      </trkpt>
      <trkpt lat="46.64772" lon="0.53634">
        <ele>184.41</ele>
        <time>2019-02-24T08:47:07.000Z</time>
      </trkpt>
      <trkpt lat="46.64762" lon="0.53646">
        <ele>183.66</ele>
        <time>2019-02-24T08:47:10.000Z</time>
      </trkpt>
      <trkpt lat="46.64752" lon="0.53658">
        <ele>183.26</ele>
        <time>2019-02-24T08:47:13.000Z</time>
      </trkpt>
      <trkpt lat="46.64745" lon="0.53667">
        <ele>182.61</ele>
        <time>2019-02-24T08:47:15.000Z</time>
      </trkpt>
      <trkpt lat="46.64736" lon="0.53679">
        <ele>182.24</ele>
        <time>2019-02-24T08:47:18.000Z</time>
      </trkpt>
      <trkpt lat="46.64726" lon="0.53691">
        <ele>182.28</ele>
        <time>2019-02-24T08:47:21.000Z</time>
      </trkpt>
      <trkpt lat="46.64718" lon="0.53706">
        <ele>182.78</ele>
        <time>2019-02-24T08:47:24.000Z</time>
      </trkpt>
      <trkpt lat="46.6471" lon="0.5372">
        <ele>183.76</ele>
        <time>2019-02-24T08:47:27.000Z</time>
      </trkpt>
      <trkpt lat="46.64704" lon="0.53736">
        <ele>184.58</ele>
        <time>2019-02-24T08:47:30.000Z</time>
      </trkpt>
      <trkpt lat="46.64698" lon="0.53747">
        <ele>184.83</ele>
        <time>2019-02-24T08:47:32.000Z</time>
      </trkpt>
      <trkpt lat="46.64693" lon="0.53757">
        <ele>185.14</ele>
        <time>2019-02-24T08:47:34.000Z</time>
      </trkpt>
      <trkpt lat="46.64684" lon="0.5377">
        <ele>185.31</ele>
        <time>2019-02-24T08:47:37.000Z</time>
      </trkpt>
      <trkpt lat="46.64678" lon="0.5378">
        <ele>185.19</ele>
        <time>2019-02-24T08:47:39.000Z</time>
      </trkpt>
      <trkpt lat="46.64673" lon="0.5379">
        <ele>185.5</ele>
        <time>2019-02-24T08:47:41.000Z</time>
      </trkpt>
      <trkpt lat="46.64667" lon="0.538">
        <ele>185.84</ele>
        <time>2019-02-24T08:47:43.000Z</time>
      </trkpt>
      <trkpt lat="46.64661" lon="0.53815">
        <ele>185.82</ele>
        <time>2019-02-24T08:47:46.000Z</time>
      </trkpt>
      <trkpt lat="46.64653" lon="0.53831">
        <ele>183.75</ele>
        <time>2019-02-24T08:47:49.000Z</time>
      </trkpt>
      <trkpt lat="46.64646" lon="0.53843">
        <ele>181.63</ele>
        <time>2019-02-24T08:47:51.000Z</time>
      </trkpt>
      <trkpt lat="46.6464" lon="0.53854">
        <ele>179.69</ele>
        <time>2019-02-24T08:47:53.000Z</time>
      </trkpt>
      <trkpt lat="46.64634" lon="0.53868">
        <ele>178.34</ele>
        <time>2019-02-24T08:47:55.000Z</time>
      </trkpt>
      <trkpt lat="46.64631" lon="0.53881">
        <ele>178.43</ele>
        <time>2019-02-24T08:47:57.000Z</time>
      </trkpt>
      <trkpt lat="46.64629" lon="0.53895">
        <ele>179.05</ele>
        <time>2019-02-24T08:47:59.000Z</time>
      </trkpt>
      <trkpt lat="46.64626" lon="0.5391">
        <ele>179.58</ele>
        <time>2019-02-24T08:48:01.000Z</time>
      </trkpt>
      <trkpt lat="46.64625" lon="0.53924">
        <ele>179.95</ele>
        <time>2019-02-24T08:48:03.000Z</time>
      </trkpt>
      <trkpt lat="46.64621" lon="0.53944">
        <ele>178.96</ele>
        <time>2019-02-24T08:48:06.000Z</time>
      </trkpt>
      <trkpt lat="46.64618" lon="0.53964">
        <ele>178.3</ele>
        <time>2019-02-24T08:48:09.000Z</time>
      </trkpt>
      <trkpt lat="46.64611" lon="0.53972">
        <ele>178.37</ele>
        <time>2019-02-24T08:48:13.000Z</time>
      </trkpt>
      <trkpt lat="46.64598" lon="0.53968">
        <ele>179.48</ele>
        <time>2019-02-24T08:48:17.000Z</time>
      </trkpt>
      <trkpt lat="46.64587" lon="0.53964">
        <ele>181.04</ele>
        <time>2019-02-24T08:48:19.000Z</time>
      </trkpt>
      <trkpt lat="46.64578" lon="0.5396">
        <ele>183.36</ele>
        <time>2019-02-24T08:48:21.000Z</time>
      </trkpt>
      <trkpt lat="46.64569" lon="0.53952">
        <ele>184.21</ele>
        <time>2019-02-24T08:48:23.000Z</time>
      </trkpt>
      <trkpt lat="46.64563" lon="0.53939">
        <ele>185.42</ele>
        <time>2019-02-24T08:48:25.000Z</time>
      </trkpt>
      <trkpt lat="46.6456" lon="0.53925">
        <ele>184.85</ele>
        <time>2019-02-24T08:48:27.000Z</time>
      </trkpt>
      <trkpt lat="46.64559" lon="0.53911">
        <ele>184.01</ele>
        <time>2019-02-24T08:48:29.000Z</time>
      </trkpt>
      <trkpt lat="46.64557" lon="0.53897">
        <ele>182.89</ele>
        <time>2019-02-24T08:48:31.000Z</time>
      </trkpt>
      <trkpt lat="46.64555" lon="0.53882">
        <ele>181.3</ele>
        <time>2019-02-24T08:48:33.000Z</time>
      </trkpt>
      <trkpt lat="46.64553" lon="0.53866">
        <ele>179.45</ele>
        <time>2019-02-24T08:48:35.000Z</time>
      </trkpt>
      <trkpt lat="46.64552" lon="0.53852">
        <ele>177.65</ele>
        <time>2019-02-24T08:48:37.000Z</time>
      </trkpt>
      <trkpt lat="46.64552" lon="0.53835">
        <ele>175.44</ele>
        <time>2019-02-24T08:48:39.000Z</time>
      </trkpt>
      <trkpt lat="46.6455" lon="0.53821">
        <ele>173.38</ele>
        <time>2019-02-24T08:48:41.000Z</time>
      </trkpt>
      <trkpt lat="46.64549" lon="0.53806">
        <ele>172.15</ele>
        <time>2019-02-24T08:48:43.000Z</time>
      </trkpt>
      <trkpt lat="46.64549" lon="0.53787">
        <ele>171.21</ele>
        <time>2019-02-24T08:48:46.000Z</time>
      </trkpt>
      <trkpt lat="46.64547" lon="0.53773">
        <ele>170.98</ele>
        <time>2019-02-24T08:48:48.000Z</time>
      </trkpt>
      <trkpt lat="46.64544" lon="0.53759">
        <ele>170.6</ele>
        <time>2019-02-24T08:48:50.000Z</time>
      </trkpt>
      <trkpt lat="46.64542" lon="0.53744">
        <ele>169.52</ele>
        <time>2019-02-24T08:48:52.000Z</time>
      </trkpt>
      <trkpt lat="46.64541" lon="0.53729">
        <ele>168.76</ele>
        <time>2019-02-24T08:48:54.000Z</time>
      </trkpt>
      <trkpt lat="46.64537" lon="0.53715">
        <ele>167.62</ele>
        <time>2019-02-24T08:48:56.000Z</time>
      </trkpt>
      <trkpt lat="46.64535" lon="0.53701">
        <ele>167.66</ele>
        <time>2019-02-24T08:48:58.000Z</time>
      </trkpt>
      <trkpt lat="46.64526" lon="0.5369">
        <ele>167.15</ele>
        <time>2019-02-24T08:49:00.000Z</time>
      </trkpt>
      <trkpt lat="46.64516" lon="0.5368">
        <ele>166.31</ele>
        <time>2019-02-24T08:49:02.000Z</time>
      </trkpt>
      <trkpt lat="46.64504" lon="0.53669">
        <ele>166.78</ele>
        <time>2019-02-24T08:49:05.000Z</time>
      </trkpt>
      <trkpt lat="46.64489" lon="0.53669">
        <ele>167.08</ele>
        <time>2019-02-24T08:49:07.000Z</time>
      </trkpt>
      <trkpt lat="46.64471" lon="0.53665">
        <ele>167.94</ele>
        <time>2019-02-24T08:49:10.000Z</time>
      </trkpt>
      <trkpt lat="46.64456" lon="0.53669">
        <ele>169.03</ele>
        <time>2019-02-24T08:49:12.000Z</time>
      </trkpt>
      <trkpt lat="46.64446" lon="0.5367">
        <ele>169.93</ele>
        <time>2019-02-24T08:49:14.000Z</time>
      </trkpt>
      <trkpt lat="46.64436" lon="0.53669">
        <ele>171.58</ele>
        <time>2019-02-24T08:49:16.000Z</time>
      </trkpt>
      <trkpt lat="46.64424" lon="0.53672">
        <ele>172.7</ele>
        <time>2019-02-24T08:49:18.000Z</time>
      </trkpt>
      <trkpt lat="46.64414" lon="0.53678">
        <ele>174.15</ele>
        <time>2019-02-24T08:49:20.000Z</time>
      </trkpt>
      <trkpt lat="46.64402" lon="0.53682">
        <ele>175.32</ele>
        <time>2019-02-24T08:49:22.000Z</time>
      </trkpt>
      <trkpt lat="46.64392" lon="0.5369">
        <ele>176.87</ele>
        <time>2019-02-24T08:49:24.000Z</time>
      </trkpt>
      <trkpt lat="46.6438" lon="0.53698">
        <ele>177.15</ele>
        <time>2019-02-24T08:49:26.000Z</time>
      </trkpt>
      <trkpt lat="46.64371" lon="0.53708">
        <ele>177.73</ele>
        <time>2019-02-24T08:49:29.000Z</time>
      </trkpt>
      <trkpt lat="46.64362" lon="0.53718">
        <ele>178.4</ele>
        <time>2019-02-24T08:49:32.000Z</time>
      </trkpt>
      <trkpt lat="46.6435" lon="0.53723">
        <ele>179.13</ele>
        <time>2019-02-24T08:49:35.000Z</time>
      </trkpt>
      <trkpt lat="46.64336" lon="0.53732">
        <ele>183.38</ele>
        <time>2019-02-24T08:49:37.000Z</time>
      </trkpt>
      <trkpt lat="46.64321" lon="0.53738">
        <ele>185.71</ele>
        <time>2019-02-24T08:49:39.000Z</time>
      </trkpt>
      <trkpt lat="46.64309" lon="0.53744">
        <ele>185.95</ele>
        <time>2019-02-24T08:49:41.000Z</time>
      </trkpt>
      <trkpt lat="46.64299" lon="0.53754">
        <ele>185.01</ele>
        <time>2019-02-24T08:49:43.000Z</time>
      </trkpt>
      <trkpt lat="46.6429" lon="0.53762">
        <ele>183.71</ele>
        <time>2019-02-24T08:49:45.000Z</time>
      </trkpt>
      <trkpt lat="46.64278" lon="0.53772">
        <ele>183.65</ele>
        <time>2019-02-24T08:49:48.000Z</time>
      </trkpt>
      <trkpt lat="46.64268" lon="0.53776">
        <ele>183.75</ele>
        <time>2019-02-24T08:49:50.000Z</time>
      </trkpt>
      <trkpt lat="46.64255" lon="0.53786">
        <ele>183.87</ele>
        <time>2019-02-24T08:49:52.000Z</time>
      </trkpt>
      <trkpt lat="46.64244" lon="0.53794">
        <ele>183.86</ele>
        <time>2019-02-24T08:49:54.000Z</time>
      </trkpt>
      <trkpt lat="46.64233" lon="0.53802">
        <ele>183.77</ele>
        <time>2019-02-24T08:49:57.000Z</time>
      </trkpt>
      <trkpt lat="46.6422" lon="0.5381">
        <ele>182.97</ele>
        <time>2019-02-24T08:49:59.000Z</time>
      </trkpt>
      <trkpt lat="46.64208" lon="0.5382">
        <ele>181.67</ele>
        <time>2019-02-24T08:50:01.000Z</time>
      </trkpt>
      <trkpt lat="46.64197" lon="0.53828">
        <ele>180.67</ele>
        <time>2019-02-24T08:50:03.000Z</time>
      </trkpt>
      <trkpt lat="46.64183" lon="0.53835">
        <ele>179.63</ele>
        <time>2019-02-24T08:50:05.000Z</time>
      </trkpt>
      <trkpt lat="46.64172" lon="0.53841">
        <ele>178.45</ele>
        <time>2019-02-24T08:50:07.000Z</time>
      </trkpt>
      <trkpt lat="46.64164" lon="0.53849">
        <ele>177.53</ele>
        <time>2019-02-24T08:50:09.000Z</time>
      </trkpt>
      <trkpt lat="46.64155" lon="0.53855">
        <ele>176.93</ele>
        <time>2019-02-24T08:50:11.000Z</time>
      </trkpt>
      <trkpt lat="46.64147" lon="0.5386">
        <ele>175.95</ele>
        <time>2019-02-24T08:50:13.000Z</time>
      </trkpt>
      <trkpt lat="46.6414" lon="0.5387">
        <ele>175.24</ele>
        <time>2019-02-24T08:50:15.000Z</time>
      </trkpt>
      <trkpt lat="46.64131" lon="0.53879">
        <ele>173.96</ele>
        <time>2019-02-24T08:50:17.000Z</time>
      </trkpt>
      <trkpt lat="46.64119" lon="0.53887">
        <ele>173.06</ele>
        <time>2019-02-24T08:50:19.000Z</time>
      </trkpt>
      <trkpt lat="46.64108" lon="0.53899">
        <ele>172.6</ele>
        <time>2019-02-24T08:50:21.000Z</time>
      </trkpt>
      <trkpt lat="46.64098" lon="0.5391">
        <ele>171.82</ele>
        <time>2019-02-24T08:50:23.000Z</time>
      </trkpt>
      <trkpt lat="46.64086" lon="0.53919">
        <ele>170.75</ele>
        <time>2019-02-24T08:50:26.000Z</time>
      </trkpt>
      <trkpt lat="46.64077" lon="0.53928">
        <ele>170.51</ele>
        <time>2019-02-24T08:50:28.000Z</time>
      </trkpt>
      <trkpt lat="46.64071" lon="0.53944">
        <ele>170.27</ele>
        <time>2019-02-24T08:50:31.000Z</time>
      </trkpt>
      <trkpt lat="46.64061" lon="0.53947">
        <ele>170.21</ele>
        <time>2019-02-24T08:50:36.000Z</time>
      </trkpt>
      <trkpt lat="46.64047" lon="0.53949">
        <ele>170.32</ele>
        <time>2019-02-24T08:50:40.000Z</time>
      </trkpt>
      <trkpt lat="46.64039" lon="0.53956">
        <ele>170.59</ele>
        <time>2019-02-24T08:50:44.000Z</time>
      </trkpt>
      <trkpt lat="46.64028" lon="0.53951">
        <ele>171.68</ele>
        <time>2019-02-24T08:50:49.000Z</time>
      </trkpt>
      <trkpt lat="46.64021" lon="0.53943">
        <ele>171.79</ele>
        <time>2019-02-24T08:50:52.000Z</time>
      </trkpt>
      <trkpt lat="46.64011" lon="0.53934">
        <ele>171.91</ele>
        <time>2019-02-24T08:50:56.000Z</time>
      </trkpt>
      <trkpt lat="46.64003" lon="0.53924">
        <ele>172.15</ele>
        <time>2019-02-24T08:50:59.000Z</time>
      </trkpt>
      <trkpt lat="46.63995" lon="0.53915">
        <ele>172.61</ele>
        <time>2019-02-24T08:51:02.000Z</time>
      </trkpt>
      <trkpt lat="46.6399" lon="0.53902">
        <ele>173.42</ele>
        <time>2019-02-24T08:51:06.000Z</time>
      </trkpt>
      <trkpt lat="46.63979" lon="0.53891">
        <ele>174.06</ele>
        <time>2019-02-24T08:51:09.000Z</time>
      </trkpt>
      <trkpt lat="46.63968" lon="0.53881">
        <ele>174.63</ele>
        <time>2019-02-24T08:51:12.000Z</time>
      </trkpt>
      <trkpt lat="46.63961" lon="0.53871">
        <ele>175.15</ele>
        <time>2019-02-24T08:51:15.000Z</time>
      </trkpt>
      <trkpt lat="46.63951" lon="0.53862">
        <ele>175.77</ele>
        <time>2019-02-24T08:51:18.000Z</time>
      </trkpt>
      <trkpt lat="46.63944" lon="0.53854">
        <ele>176.17</ele>
        <time>2019-02-24T08:51:20.000Z</time>
      </trkpt>
      <trkpt lat="46.63935" lon="0.53847">
        <ele>176.47</ele>
        <time>2019-02-24T08:51:22.000Z</time>
      </trkpt>
      <trkpt lat="46.63926" lon="0.53838">
        <ele>176.72</ele>
        <time>2019-02-24T08:51:24.000Z</time>
      </trkpt>
      <trkpt lat="46.63915" lon="0.53834">
        <ele>177.59</ele>
        <time>2019-02-24T08:51:26.000Z</time>
      </trkpt>
      <trkpt lat="46.63902" lon="0.5383">
        <ele>177.3</ele>
        <time>2019-02-24T08:51:28.000Z</time>
      </trkpt>
      <trkpt lat="46.63892" lon="0.53828">
        <ele>176.93</ele>
        <time>2019-02-24T08:51:30.000Z</time>
      </trkpt>
      <trkpt lat="46.63879" lon="0.53823">
        <ele>175.59</ele>
        <time>2019-02-24T08:51:33.000Z</time>
      </trkpt>
      <trkpt lat="46.6387" lon="0.53818">
        <ele>175.52</ele>
        <time>2019-02-24T08:51:35.000Z</time>
      </trkpt>
      <trkpt lat="46.63859" lon="0.53805">
        <ele>175.47</ele>
        <time>2019-02-24T08:51:38.000Z</time>
      </trkpt>
      <trkpt lat="46.63852" lon="0.53796">
        <ele>175.37</ele>
        <time>2019-02-24T08:51:40.000Z</time>
      </trkpt>
      <trkpt lat="46.63845" lon="0.53785">
        <ele>174.95</ele>
        <time>2019-02-24T08:51:42.000Z</time>
      </trkpt>
      <trkpt lat="46.63837" lon="0.53773">
        <ele>175.64</ele>
        <time>2019-02-24T08:51:44.000Z</time>
      </trkpt>
      <trkpt lat="46.63831" lon="0.53764">
        <ele>175.8</ele>
        <time>2019-02-24T08:51:46.000Z</time>
      </trkpt>
      <trkpt lat="46.63823" lon="0.53754">
        <ele>176.81</ele>
        <time>2019-02-24T08:51:48.000Z</time>
      </trkpt>
      <trkpt lat="46.63815" lon="0.53745">
        <ele>179.44</ele>
        <time>2019-02-24T08:51:50.000Z</time>
      </trkpt>
      <trkpt lat="46.63807" lon="0.53733">
        <ele>181.41</ele>
        <time>2019-02-24T08:51:52.000Z</time>
      </trkpt>
      <trkpt lat="46.638" lon="0.53721">
        <ele>181.62</ele>
        <time>2019-02-24T08:51:55.000Z</time>
      </trkpt>
      <trkpt lat="46.63794" lon="0.53706">
        <ele>181.84</ele>
        <time>2019-02-24T08:51:59.000Z</time>
      </trkpt>
      <trkpt lat="46.63791" lon="0.53689">
        <ele>182.09</ele>
        <time>2019-02-24T08:52:02.000Z</time>
      </trkpt>
      <trkpt lat="46.6379" lon="0.53671">
        <ele>182.19</ele>
        <time>2019-02-24T08:52:05.000Z</time>
      </trkpt>
      <trkpt lat="46.63792" lon="0.53653">
        <ele>182.25</ele>
        <time>2019-02-24T08:52:08.000Z</time>
      </trkpt>
      <trkpt lat="46.63792" lon="0.53637">
        <ele>182.33</ele>
        <time>2019-02-24T08:52:11.000Z</time>
      </trkpt>
      <trkpt lat="46.63791" lon="0.53623">
        <ele>182.33</ele>
        <time>2019-02-24T08:52:13.000Z</time>
      </trkpt>
      <trkpt lat="46.63791" lon="0.53609">
        <ele>182.27</ele>
        <time>2019-02-24T08:52:15.000Z</time>
      </trkpt>
      <trkpt lat="46.63789" lon="0.53595">
        <ele>182.2</ele>
        <time>2019-02-24T08:52:17.000Z</time>
      </trkpt>
      <trkpt lat="46.63788" lon="0.53581">
        <ele>182.08</ele>
        <time>2019-02-24T08:52:19.000Z</time>
      </trkpt>
      <trkpt lat="46.63787" lon="0.53568">
        <ele>181.89</ele>
        <time>2019-02-24T08:52:21.000Z</time>
      </trkpt>
      <trkpt lat="46.63784" lon="0.53553">
        <ele>181.63</ele>
        <time>2019-02-24T08:52:24.000Z</time>
      </trkpt>
      <trkpt lat="46.63781" lon="0.53537">
        <ele>181.38</ele>
        <time>2019-02-24T08:52:28.000Z</time>
      </trkpt>
      <trkpt lat="46.63776" lon="0.53523">
        <ele>181.27</ele>
        <time>2019-02-24T08:52:31.000Z</time>
      </trkpt>
      <trkpt lat="46.63771" lon="0.53511">
        <ele>181.18</ele>
        <time>2019-02-24T08:52:33.000Z</time>
      </trkpt>
      <trkpt lat="46.63765" lon="0.53496">
        <ele>181.08</ele>
        <time>2019-02-24T08:52:36.000Z</time>
      </trkpt>
      <trkpt lat="46.63761" lon="0.5348">
        <ele>181.18</ele>
        <time>2019-02-24T08:52:39.000Z</time>
      </trkpt>
      <trkpt lat="46.63755" lon="0.53468">
        <ele>181.29</ele>
        <time>2019-02-24T08:52:42.000Z</time>
      </trkpt>
      <trkpt lat="46.63751" lon="0.53452">
        <ele>181.32</ele>
        <time>2019-02-24T08:52:44.000Z</time>
      </trkpt>
      <trkpt lat="46.63746" lon="0.53439">
        <ele>181.32</ele>
        <time>2019-02-24T08:52:46.000Z</time>
      </trkpt>
      <trkpt lat="46.63742" lon="0.53426">
        <ele>181.28</ele>
        <time>2019-02-24T08:52:48.000Z</time>
      </trkpt>
      <trkpt lat="46.63738" lon="0.53413">
        <ele>181.08</ele>
        <time>2019-02-24T08:52:50.000Z</time>
      </trkpt>
      <trkpt lat="46.63734" lon="0.53399">
        <ele>178.4</ele>
        <time>2019-02-24T08:52:52.000Z</time>
      </trkpt>
      <trkpt lat="46.63728" lon="0.53387">
        <ele>177.3</ele>
        <time>2019-02-24T08:52:54.000Z</time>
      </trkpt>
      <trkpt lat="46.63722" lon="0.53375">
        <ele>176.33</ele>
        <time>2019-02-24T08:52:56.000Z</time>
      </trkpt>
      <trkpt lat="46.63714" lon="0.53361">
        <ele>175.53</ele>
        <time>2019-02-24T08:52:58.000Z</time>
      </trkpt>
      <trkpt lat="46.63709" lon="0.53346">
        <ele>174.28</ele>
        <time>2019-02-24T08:53:00.000Z</time>
      </trkpt>
      <trkpt lat="46.63704" lon="0.53331">
        <ele>173.1</ele>
        <time>2019-02-24T08:53:02.000Z</time>
      </trkpt>
      <trkpt lat="46.637" lon="0.53318">
        <ele>172.84</ele>
        <time>2019-02-24T08:53:04.000Z</time>
      </trkpt>
      <trkpt lat="46.63692" lon="0.53304">
        <ele>173.28</ele>
        <time>2019-02-24T08:53:07.000Z</time>
      </trkpt>
      <trkpt lat="46.63686" lon="0.53293">
        <ele>173.66</ele>
        <time>2019-02-24T08:53:10.000Z</time>
      </trkpt>
      <trkpt lat="46.63681" lon="0.5328">
        <ele>174.32</ele>
        <time>2019-02-24T08:53:14.000Z</time>
      </trkpt>
      <trkpt lat="46.63671" lon="0.53272">
        <ele>175.18</ele>
        <time>2019-02-24T08:53:18.000Z</time>
      </trkpt>
      <trkpt lat="46.63662" lon="0.53266">
        <ele>176.08</ele>
        <time>2019-02-24T08:53:22.000Z</time>
      </trkpt>
      <trkpt lat="46.63652" lon="0.53257">
        <ele>177.18</ele>
        <time>2019-02-24T08:53:27.000Z</time>
      </trkpt>
      <trkpt lat="46.63643" lon="0.5325">
        <ele>177.83</ele>
        <time>2019-02-24T08:53:30.000Z</time>
      </trkpt>
      <trkpt lat="46.63634" lon="0.53244">
        <ele>178.43</ele>
        <time>2019-02-24T08:53:33.000Z</time>
      </trkpt>
      <trkpt lat="46.63624" lon="0.53235">
        <ele>179.45</ele>
        <time>2019-02-24T08:53:38.000Z</time>
      </trkpt>
      <trkpt lat="46.63614" lon="0.53232">
        <ele>179.91</ele>
        <time>2019-02-24T08:53:41.000Z</time>
      </trkpt>
      <trkpt lat="46.63604" lon="0.53229">
        <ele>180.33</ele>
        <time>2019-02-24T08:53:44.000Z</time>
      </trkpt>
      <trkpt lat="46.63595" lon="0.53219">
        <ele>180.67</ele>
        <time>2019-02-24T08:53:47.000Z</time>
      </trkpt>
      <trkpt lat="46.63584" lon="0.5321">
        <ele>181.06</ele>
        <time>2019-02-24T08:53:51.000Z</time>
      </trkpt>
      <trkpt lat="46.63573" lon="0.53204">
        <ele>181.42</ele>
        <time>2019-02-24T08:53:54.000Z</time>
      </trkpt>
      <trkpt lat="46.63563" lon="0.53196">
        <ele>181.78</ele>
        <time>2019-02-24T08:53:58.000Z</time>
      </trkpt>
      <trkpt lat="46.63555" lon="0.53187">
        <ele>181.91</ele>
        <time>2019-02-24T08:54:01.000Z</time>
      </trkpt>
      <trkpt lat="46.63546" lon="0.53182">
        <ele>182.04</ele>
        <time>2019-02-24T08:54:03.000Z</time>
      </trkpt>
      <trkpt lat="46.63538" lon="0.53178">
        <ele>182.73</ele>
        <time>2019-02-24T08:54:05.000Z</time>
      </trkpt>
      <trkpt lat="46.63527" lon="0.53172">
        <ele>183.55</ele>
        <time>2019-02-24T08:54:08.000Z</time>
      </trkpt>
      <trkpt lat="46.63514" lon="0.53165">
        <ele>183.9</ele>
        <time>2019-02-24T08:54:11.000Z</time>
      </trkpt>
      <trkpt lat="46.63506" lon="0.53159">
        <ele>184.01</ele>
        <time>2019-02-24T08:54:13.000Z</time>
      </trkpt>
      <trkpt lat="46.63497" lon="0.53155">
        <ele>184.7</ele>
        <time>2019-02-24T08:54:15.000Z</time>
      </trkpt>
      <trkpt lat="46.63488" lon="0.53148">
        <ele>185.79</ele>
        <time>2019-02-24T08:54:17.000Z</time>
      </trkpt>
      <trkpt lat="46.63477" lon="0.53141">
        <ele>187.69</ele>
        <time>2019-02-24T08:54:19.000Z</time>
      </trkpt>
      <trkpt lat="46.63465" lon="0.5313">
        <ele>189.93</ele>
        <time>2019-02-24T08:54:22.000Z</time>
      </trkpt>
      <trkpt lat="46.63453" lon="0.53124">
        <ele>190.21</ele>
        <time>2019-02-24T08:54:24.000Z</time>
      </trkpt>
      <trkpt lat="46.63439" lon="0.53117">
        <ele>189.16</ele>
        <time>2019-02-24T08:54:26.000Z</time>
      </trkpt>
      <trkpt lat="46.63426" lon="0.53112">
        <ele>188.34</ele>
        <time>2019-02-24T08:54:27.000Z</time>
      </trkpt>
      <trkpt lat="46.63414" lon="0.53108">
        <ele>187.25</ele>
        <time>2019-02-24T08:54:28.000Z</time>
      </trkpt>
      <trkpt lat="46.63402" lon="0.53103">
        <ele>185.89</ele>
        <time>2019-02-24T08:54:29.000Z</time>
      </trkpt>
      <trkpt lat="46.6339" lon="0.53098">
        <ele>184.06</ele>
        <time>2019-02-24T08:54:31.000Z</time>
      </trkpt>
      <trkpt lat="46.63381" lon="0.53092">
        <ele>181.96</ele>
        <time>2019-02-24T08:54:33.000Z</time>
      </trkpt>
      <trkpt lat="46.63371" lon="0.53081">
        <ele>179.97</ele>
        <time>2019-02-24T08:54:35.000Z</time>
      </trkpt>
      <trkpt lat="46.63364" lon="0.53068">
        <ele>179.11</ele>
        <time>2019-02-24T08:54:37.000Z</time>
      </trkpt>
      <trkpt lat="46.63359" lon="0.53052">
        <ele>179.44</ele>
        <time>2019-02-24T08:54:39.000Z</time>
      </trkpt>
      <trkpt lat="46.63354" lon="0.53037">
        <ele>180.06</ele>
        <time>2019-02-24T08:54:41.000Z</time>
      </trkpt>
      <trkpt lat="46.63347" lon="0.53024">
        <ele>180.86</ele>
        <time>2019-02-24T08:54:43.000Z</time>
      </trkpt>
      <trkpt lat="46.6334" lon="0.5301">
        <ele>181.25</ele>
        <time>2019-02-24T08:54:45.000Z</time>
      </trkpt>
      <trkpt lat="46.63333" lon="0.52996">
        <ele>181.44</ele>
        <time>2019-02-24T08:54:47.000Z</time>
      </trkpt>
      <trkpt lat="46.63327" lon="0.52983">
        <ele>181.71</ele>
        <time>2019-02-24T08:54:49.000Z</time>
      </trkpt>
      <trkpt lat="46.6332" lon="0.52972">
        <ele>181.61</ele>
        <time>2019-02-24T08:54:51.000Z</time>
      </trkpt>
      <trkpt lat="46.63314" lon="0.52961">
        <ele>181.96</ele>
        <time>2019-02-24T08:54:53.000Z</time>
      </trkpt>
      <trkpt lat="46.63308" lon="0.52949">
        <ele>182.05</ele>
        <time>2019-02-24T08:54:55.000Z</time>
      </trkpt>
      <trkpt lat="46.63301" lon="0.52937">
        <ele>181.84</ele>
        <time>2019-02-24T08:54:57.000Z</time>
      </trkpt>
      <trkpt lat="46.63295" lon="0.52926">
        <ele>181.61</ele>
        <time>2019-02-24T08:54:59.000Z</time>
      </trkpt>
      <trkpt lat="46.63288" lon="0.52915">
        <ele>181.54</ele>
        <time>2019-02-24T08:55:01.000Z</time>
      </trkpt>
      <trkpt lat="46.63282" lon="0.52903">
        <ele>181.42</ele>
        <time>2019-02-24T08:55:03.000Z</time>
      </trkpt>
      <trkpt lat="46.63276" lon="0.52893">
        <ele>181.33</ele>
        <time>2019-02-24T08:55:05.000Z</time>
      </trkpt>
      <trkpt lat="46.63269" lon="0.52882">
        <ele>181.41</ele>
        <time>2019-02-24T08:55:07.000Z</time>
      </trkpt>
      <trkpt lat="46.6326" lon="0.52869">
        <ele>180.9</ele>
        <time>2019-02-24T08:55:09.000Z</time>
      </trkpt>
      <trkpt lat="46.63254" lon="0.52856">
        <ele>180.21</ele>
        <time>2019-02-24T08:55:11.000Z</time>
      </trkpt>
      <trkpt lat="46.63246" lon="0.52842">
        <ele>179.84</ele>
        <time>2019-02-24T08:55:13.000Z</time>
      </trkpt>
      <trkpt lat="46.63241" lon="0.52828">
        <ele>179.54</ele>
        <time>2019-02-24T08:55:15.000Z</time>
      </trkpt>
      <trkpt lat="46.63236" lon="0.52817">
        <ele>180.36</ele>
        <time>2019-02-24T08:55:17.000Z</time>
      </trkpt>
      <trkpt lat="46.63231" lon="0.52804">
        <ele>181.54</ele>
        <time>2019-02-24T08:55:19.000Z</time>
      </trkpt>
      <trkpt lat="46.63224" lon="0.52788">
        <ele>182.9</ele>
        <time>2019-02-24T08:55:22.000Z</time>
      </trkpt>
      <trkpt lat="46.63218" lon="0.52775">
        <ele>183.06</ele>
        <time>2019-02-24T08:55:24.000Z</time>
      </trkpt>
      <trkpt lat="46.63211" lon="0.52762">
        <ele>182.53</ele>
        <time>2019-02-24T08:55:26.000Z</time>
      </trkpt>
      <trkpt lat="46.63205" lon="0.52749">
        <ele>181.62</ele>
        <time>2019-02-24T08:55:28.000Z</time>
      </trkpt>
      <trkpt lat="46.63198" lon="0.52738">
        <ele>180.72</ele>
        <time>2019-02-24T08:55:30.000Z</time>
      </trkpt>
      <trkpt lat="46.63191" lon="0.52728">
        <ele>179.77</ele>
        <time>2019-02-24T08:55:32.000Z</time>
      </trkpt>
      <trkpt lat="46.63184" lon="0.52715">
        <ele>179.22</ele>
        <time>2019-02-24T08:55:34.000Z</time>
      </trkpt>
      <trkpt lat="46.63179" lon="0.52703">
        <ele>178.86</ele>
        <time>2019-02-24T08:55:36.000Z</time>
      </trkpt>
      <trkpt lat="46.63171" lon="0.5269">
        <ele>178.16</ele>
        <time>2019-02-24T08:55:38.000Z</time>
      </trkpt>
      <trkpt lat="46.63165" lon="0.52678">
        <ele>177.72</ele>
        <time>2019-02-24T08:55:40.000Z</time>
      </trkpt>
      <trkpt lat="46.63158" lon="0.52667">
        <ele>177.46</ele>
        <time>2019-02-24T08:55:42.000Z</time>
      </trkpt>
      <trkpt lat="46.63151" lon="0.52653">
        <ele>177.23</ele>
        <time>2019-02-24T08:55:44.000Z</time>
      </trkpt>
      <trkpt lat="46.63145" lon="0.52641">
        <ele>177.5</ele>
        <time>2019-02-24T08:55:46.000Z</time>
      </trkpt>
      <trkpt lat="46.63139" lon="0.52628">
        <ele>177.57</ele>
        <time>2019-02-24T08:55:48.000Z</time>
      </trkpt>
      <trkpt lat="46.63134" lon="0.52617">
        <ele>177.57</ele>
        <time>2019-02-24T08:55:50.000Z</time>
      </trkpt>
      <trkpt lat="46.63125" lon="0.52601">
        <ele>177.67</ele>
        <time>2019-02-24T08:55:52.000Z</time>
      </trkpt>
      <trkpt lat="46.63117" lon="0.52585">
        <ele>177.56</ele>
        <time>2019-02-24T08:55:54.000Z</time>
      </trkpt>
      <trkpt lat="46.63111" lon="0.5257">
        <ele>177.12</ele>
        <time>2019-02-24T08:55:56.000Z</time>
      </trkpt>
      <trkpt lat="46.63104" lon="0.52558">
        <ele>176.87</ele>
        <time>2019-02-24T08:55:58.000Z</time>
      </trkpt>
      <trkpt lat="46.63098" lon="0.52546">
        <ele>176.86</ele>
        <time>2019-02-24T08:56:00.000Z</time>
      </trkpt>
      <trkpt lat="46.63092" lon="0.52532">
        <ele>177.17</ele>
        <time>2019-02-24T08:56:02.000Z</time>
      </trkpt>
      <trkpt lat="46.63086" lon="0.52521">
        <ele>177.5</ele>
        <time>2019-02-24T08:56:04.000Z</time>
      </trkpt>
      <trkpt lat="46.63081" lon="0.52511">
        <ele>178.18</ele>
        <time>2019-02-24T08:56:06.000Z</time>
      </trkpt>
      <trkpt lat="46.63073" lon="0.52499">
        <ele>178.63</ele>
        <time>2019-02-24T08:56:08.000Z</time>
      </trkpt>
      <trkpt lat="46.63066" lon="0.52484">
        <ele>179.21</ele>
        <time>2019-02-24T08:56:11.000Z</time>
      </trkpt>
      <trkpt lat="46.63061" lon="0.52473">
        <ele>181.09</ele>
        <time>2019-02-24T08:56:13.000Z</time>
      </trkpt>
      <trkpt lat="46.63055" lon="0.52462">
        <ele>181.67</ele>
        <time>2019-02-24T08:56:15.000Z</time>
      </trkpt>
      <trkpt lat="46.63049" lon="0.5245">
        <ele>182.18</ele>
        <time>2019-02-24T08:56:18.000Z</time>
      </trkpt>
      <trkpt lat="46.63043" lon="0.52437">
        <ele>182.32</ele>
        <time>2019-02-24T08:56:21.000Z</time>
      </trkpt>
      <trkpt lat="46.63039" lon="0.52425">
        <ele>182.44</ele>
        <time>2019-02-24T08:56:24.000Z</time>
      </trkpt>
      <trkpt lat="46.63031" lon="0.52415">
        <ele>182.51</ele>
        <time>2019-02-24T08:56:27.000Z</time>
      </trkpt>
      <trkpt lat="46.63025" lon="0.52404">
        <ele>182.49</ele>
        <time>2019-02-24T08:56:30.000Z</time>
      </trkpt>
      <trkpt lat="46.63017" lon="0.52396">
        <ele>182.52</ele>
        <time>2019-02-24T08:56:33.000Z</time>
      </trkpt>
      <trkpt lat="46.63012" lon="0.52385">
        <ele>182.65</ele>
        <time>2019-02-24T08:56:36.000Z</time>
      </trkpt>
      <trkpt lat="46.63006" lon="0.5237">
        <ele>182.8</ele>
        <time>2019-02-24T08:56:39.000Z</time>
      </trkpt>
      <trkpt lat="46.62998" lon="0.52358">
        <ele>182.96</ele>
        <time>2019-02-24T08:56:42.000Z</time>
      </trkpt>
      <trkpt lat="46.62991" lon="0.52343">
        <ele>183.72</ele>
        <time>2019-02-24T08:56:45.000Z</time>
      </trkpt>
      <trkpt lat="46.62986" lon="0.5233">
        <ele>183.94</ele>
        <time>2019-02-24T08:56:48.000Z</time>
      </trkpt>
      <trkpt lat="46.62981" lon="0.52317">
        <ele>184.27</ele>
        <time>2019-02-24T08:56:51.000Z</time>
      </trkpt>
      <trkpt lat="46.62977" lon="0.52304">
        <ele>184.69</ele>
        <time>2019-02-24T08:56:54.000Z</time>
      </trkpt>
      <trkpt lat="46.6297" lon="0.52292">
        <ele>187.79</ele>
        <time>2019-02-24T08:56:57.000Z</time>
      </trkpt>
      <trkpt lat="46.62964" lon="0.52277">
        <ele>189.57</ele>
        <time>2019-02-24T08:57:00.000Z</time>
      </trkpt>
      <trkpt lat="46.62959" lon="0.52265">
        <ele>191.94</ele>
        <time>2019-02-24T08:57:02.000Z</time>
      </trkpt>
      <trkpt lat="46.62952" lon="0.52255">
        <ele>193.59</ele>
        <time>2019-02-24T08:57:04.000Z</time>
      </trkpt>
      <trkpt lat="46.62945" lon="0.5224">
        <ele>195.87</ele>
        <time>2019-02-24T08:57:07.000Z</time>
      </trkpt>
      <trkpt lat="46.62938" lon="0.52226">
        <ele>196.02</ele>
        <time>2019-02-24T08:57:10.000Z</time>
      </trkpt>
      <trkpt lat="46.62933" lon="0.52214">
        <ele>196.26</ele>
        <time>2019-02-24T08:57:13.000Z</time>
      </trkpt>
      <trkpt lat="46.62927" lon="0.52204">
        <ele>196.58</ele>
        <time>2019-02-24T08:57:16.000Z</time>
      </trkpt>
      <trkpt lat="46.6292" lon="0.52192">
        <ele>196.99</ele>
        <time>2019-02-24T08:57:19.000Z</time>
      </trkpt>
      <trkpt lat="46.62912" lon="0.5218">
        <ele>197.42</ele>
        <time>2019-02-24T08:57:22.000Z</time>
      </trkpt>
      <trkpt lat="46.62906" lon="0.52168">
        <ele>198.06</ele>
        <time>2019-02-24T08:57:26.000Z</time>
      </trkpt>
      <trkpt lat="46.62899" lon="0.52155">
        <ele>198.74</ele>
        <time>2019-02-24T08:57:30.000Z</time>
      </trkpt>
      <trkpt lat="46.62893" lon="0.52145">
        <ele>199.28</ele>
        <time>2019-02-24T08:57:33.000Z</time>
      </trkpt>
      <trkpt lat="46.62886" lon="0.52132">
        <ele>200.11</ele>
        <time>2019-02-24T08:57:37.000Z</time>
      </trkpt>
      <trkpt lat="46.62881" lon="0.52119">
        <ele>201.01</ele>
        <time>2019-02-24T08:57:41.000Z</time>
      </trkpt>
      <trkpt lat="46.62875" lon="0.52106">
        <ele>202</ele>
        <time>2019-02-24T08:57:46.000Z</time>
      </trkpt>
      <trkpt lat="46.6287" lon="0.52093">
        <ele>202.86</ele>
        <time>2019-02-24T08:57:50.000Z</time>
      </trkpt>
      <trkpt lat="46.62862" lon="0.52084">
        <ele>203.78</ele>
        <time>2019-02-24T08:57:54.000Z</time>
      </trkpt>
      <trkpt lat="46.62853" lon="0.52085">
        <ele>204.65</ele>
        <time>2019-02-24T08:57:58.000Z</time>
      </trkpt>
      <trkpt lat="46.62843" lon="0.52091">
        <ele>205.62</ele>
        <time>2019-02-24T08:58:02.000Z</time>
      </trkpt>
      <trkpt lat="46.62833" lon="0.52099">
        <ele>206.39</ele>
        <time>2019-02-24T08:58:06.000Z</time>
      </trkpt>
      <trkpt lat="46.62826" lon="0.52107">
        <ele>206.39</ele>
        <time>2019-02-24T08:58:08.000Z</time>
      </trkpt>
      <trkpt lat="46.62816" lon="0.52116">
        <ele>206.16</ele>
        <time>2019-02-24T08:58:11.000Z</time>
      </trkpt>
      <trkpt lat="46.62807" lon="0.52121">
        <ele>205.71</ele>
        <time>2019-02-24T08:58:14.000Z</time>
      </trkpt>
      <trkpt lat="46.62797" lon="0.52126">
        <ele>205.29</ele>
        <time>2019-02-24T08:58:17.000Z</time>
      </trkpt>
      <trkpt lat="46.62786" lon="0.52132">
        <ele>204.68</ele>
        <time>2019-02-24T08:58:20.000Z</time>
      </trkpt>
      <trkpt lat="46.62776" lon="0.52138">
        <ele>203.36</ele>
        <time>2019-02-24T08:58:27.000Z</time>
      </trkpt>
      <trkpt lat="46.62769" lon="0.52151">
        <ele>202.59</ele>
        <time>2019-02-24T08:58:30.000Z</time>
      </trkpt>
      <trkpt lat="46.62764" lon="0.52162">
        <ele>201.58</ele>
        <time>2019-02-24T08:58:34.000Z</time>
      </trkpt>
      <trkpt lat="46.62754" lon="0.5217">
        <ele>201.02</ele>
        <time>2019-02-24T08:58:37.000Z</time>
      </trkpt>
      <trkpt lat="46.62742" lon="0.52177">
        <ele>198.49</ele>
        <time>2019-02-24T08:58:39.000Z</time>
      </trkpt>
      <trkpt lat="46.62729" lon="0.52188">
        <ele>196.66</ele>
        <time>2019-02-24T08:58:41.000Z</time>
      </trkpt>
      <trkpt lat="46.62721" lon="0.52199">
        <ele>195.16</ele>
        <time>2019-02-24T08:58:43.000Z</time>
      </trkpt>
      <trkpt lat="46.62711" lon="0.52211">
        <ele>194.45</ele>
        <time>2019-02-24T08:58:45.000Z</time>
      </trkpt>
      <trkpt lat="46.62703" lon="0.52221">
        <ele>194.69</ele>
        <time>2019-02-24T08:58:47.000Z</time>
      </trkpt>
      <trkpt lat="46.62694" lon="0.52229">
        <ele>194.93</ele>
        <time>2019-02-24T08:58:49.000Z</time>
      </trkpt>
      <trkpt lat="46.62688" lon="0.52239">
        <ele>194.51</ele>
        <time>2019-02-24T08:58:51.000Z</time>
      </trkpt>
      <trkpt lat="46.6268" lon="0.52246">
        <ele>194.01</ele>
        <time>2019-02-24T08:58:53.000Z</time>
      </trkpt>
      <trkpt lat="46.62673" lon="0.52255">
        <ele>192.89</ele>
        <time>2019-02-24T08:58:55.000Z</time>
      </trkpt>
      <trkpt lat="46.62663" lon="0.52265">
        <ele>192.64</ele>
        <time>2019-02-24T08:58:58.000Z</time>
      </trkpt>
      <trkpt lat="46.62655" lon="0.52271">
        <ele>190.21</ele>
        <time>2019-02-24T08:59:00.000Z</time>
      </trkpt>
      <trkpt lat="46.62645" lon="0.52283">
        <ele>189.89</ele>
        <time>2019-02-24T08:59:03.000Z</time>
      </trkpt>
      <trkpt lat="46.62639" lon="0.52292">
        <ele>189.71</ele>
        <time>2019-02-24T08:59:05.000Z</time>
      </trkpt>
      <trkpt lat="46.6263" lon="0.523">
        <ele>188.49</ele>
        <time>2019-02-24T08:59:07.000Z</time>
      </trkpt>
      <trkpt lat="46.62621" lon="0.52309">
        <ele>188.24</ele>
        <time>2019-02-24T08:59:10.000Z</time>
      </trkpt>
      <trkpt lat="46.62614" lon="0.52322">
        <ele>187.34</ele>
        <time>2019-02-24T08:59:12.000Z</time>
      </trkpt>
      <trkpt lat="46.62605" lon="0.52331">
        <ele>185.49</ele>
        <time>2019-02-24T08:59:14.000Z</time>
      </trkpt>
      <trkpt lat="46.62596" lon="0.5234">
        <ele>184.38</ele>
        <time>2019-02-24T08:59:16.000Z</time>
      </trkpt>
      <trkpt lat="46.6259" lon="0.52353">
        <ele>183.22</ele>
        <time>2019-02-24T08:59:18.000Z</time>
      </trkpt>
      <trkpt lat="46.62582" lon="0.52362">
        <ele>180.88</ele>
        <time>2019-02-24T08:59:20.000Z</time>
      </trkpt>
      <trkpt lat="46.62574" lon="0.5237">
        <ele>179.59</ele>
        <time>2019-02-24T08:59:22.000Z</time>
      </trkpt>
      <trkpt lat="46.62562" lon="0.52378">
        <ele>177.71</ele>
        <time>2019-02-24T08:59:25.000Z</time>
      </trkpt>
      <trkpt lat="46.62553" lon="0.52385">
        <ele>176.68</ele>
        <time>2019-02-24T08:59:27.000Z</time>
      </trkpt>
      <trkpt lat="46.62544" lon="0.5239">
        <ele>175.1</ele>
        <time>2019-02-24T08:59:29.000Z</time>
      </trkpt>
      <trkpt lat="46.62533" lon="0.52395">
        <ele>174.99</ele>
        <time>2019-02-24T08:59:32.000Z</time>
      </trkpt>
      <trkpt lat="46.62524" lon="0.52402">
        <ele>174.97</ele>
        <time>2019-02-24T08:59:35.000Z</time>
      </trkpt>
      <trkpt lat="46.62515" lon="0.52409">
        <ele>175.02</ele>
        <time>2019-02-24T08:59:38.000Z</time>
      </trkpt>
      <trkpt lat="46.62505" lon="0.52417">
        <ele>175.05</ele>
        <time>2019-02-24T08:59:41.000Z</time>
      </trkpt>
      <trkpt lat="46.62496" lon="0.5242">
        <ele>175.4</ele>
        <time>2019-02-24T08:59:45.000Z</time>
      </trkpt>
      <trkpt lat="46.62485" lon="0.52419">
        <ele>176.19</ele>
        <time>2019-02-24T08:59:49.000Z</time>
      </trkpt>
      <trkpt lat="46.62474" lon="0.52415">
        <ele>177.68</ele>
        <time>2019-02-24T08:59:55.000Z</time>
      </trkpt>
      <trkpt lat="46.62465" lon="0.52407">
        <ele>178.78</ele>
        <time>2019-02-24T08:59:59.000Z</time>
      </trkpt>
      <trkpt lat="46.62457" lon="0.52398">
        <ele>179.68</ele>
        <time>2019-02-24T09:00:02.000Z</time>
      </trkpt>
      <trkpt lat="46.62445" lon="0.52393">
        <ele>180.53</ele>
        <time>2019-02-24T09:00:05.000Z</time>
      </trkpt>
      <trkpt lat="46.62435" lon="0.52386">
        <ele>181.29</ele>
        <time>2019-02-24T09:00:08.000Z</time>
      </trkpt>
      <trkpt lat="46.62426" lon="0.52383">
        <ele>183.76</ele>
        <time>2019-02-24T09:00:10.000Z</time>
      </trkpt>
      <trkpt lat="46.62417" lon="0.52378">
        <ele>185.94</ele>
        <time>2019-02-24T09:00:12.000Z</time>
      </trkpt>
      <trkpt lat="46.62407" lon="0.52372">
        <ele>186.64</ele>
        <time>2019-02-24T09:00:15.000Z</time>
      </trkpt>
      <trkpt lat="46.62401" lon="0.52361">
        <ele>188.93</ele>
        <time>2019-02-24T09:00:17.000Z</time>
      </trkpt>
      <trkpt lat="46.62396" lon="0.52349">
        <ele>191.74</ele>
        <time>2019-02-24T09:00:19.000Z</time>
      </trkpt>
      <trkpt lat="46.62389" lon="0.52331">
        <ele>194.62</ele>
        <time>2019-02-24T09:00:22.000Z</time>
      </trkpt>
      <trkpt lat="46.62384" lon="0.52319">
        <ele>196.45</ele>
        <time>2019-02-24T09:00:24.000Z</time>
      </trkpt>
      <trkpt lat="46.6238" lon="0.52303">
        <ele>197.06</ele>
        <time>2019-02-24T09:00:27.000Z</time>
      </trkpt>
      <trkpt lat="46.62374" lon="0.52292">
        <ele>197.84</ele>
        <time>2019-02-24T09:00:29.000Z</time>
      </trkpt>
      <trkpt lat="46.62365" lon="0.52278">
        <ele>198.06</ele>
        <time>2019-02-24T09:00:32.000Z</time>
      </trkpt>
      <trkpt lat="46.62356" lon="0.52264">
        <ele>199.01</ele>
        <time>2019-02-24T09:00:35.000Z</time>
      </trkpt>
      <trkpt lat="46.62351" lon="0.52253">
        <ele>199.89</ele>
        <time>2019-02-24T09:00:37.000Z</time>
      </trkpt>
      <trkpt lat="46.62345" lon="0.52241">
        <ele>200</ele>
        <time>2019-02-24T09:00:39.000Z</time>
      </trkpt>
      <trkpt lat="46.6234" lon="0.52228">
        <ele>199.47</ele>
        <time>2019-02-24T09:00:41.000Z</time>
      </trkpt>
      <trkpt lat="46.62335" lon="0.52216">
        <ele>198.89</ele>
        <time>2019-02-24T09:00:43.000Z</time>
      </trkpt>
      <trkpt lat="46.6233" lon="0.52202">
        <ele>198.17</ele>
        <time>2019-02-24T09:00:45.000Z</time>
      </trkpt>
      <trkpt lat="46.62325" lon="0.52189">
        <ele>198.12</ele>
        <time>2019-02-24T09:00:47.000Z</time>
      </trkpt>
      <trkpt lat="46.62319" lon="0.52177">
        <ele>198.12</ele>
        <time>2019-02-24T09:00:49.000Z</time>
      </trkpt>
      <trkpt lat="46.62312" lon="0.52166">
        <ele>198.2</ele>
        <time>2019-02-24T09:00:51.000Z</time>
      </trkpt>
      <trkpt lat="46.62306" lon="0.52152">
        <ele>198.57</ele>
        <time>2019-02-24T09:00:53.000Z</time>
      </trkpt>
      <trkpt lat="46.62299" lon="0.52141">
        <ele>198.77</ele>
        <time>2019-02-24T09:00:55.000Z</time>
      </trkpt>
      <trkpt lat="46.62289" lon="0.52137">
        <ele>198.81</ele>
        <time>2019-02-24T09:00:57.000Z</time>
      </trkpt>
      <trkpt lat="46.62278" lon="0.52131">
        <ele>199.09</ele>
        <time>2019-02-24T09:00:59.000Z</time>
      </trkpt>
      <trkpt lat="46.6227" lon="0.52125">
        <ele>199.09</ele>
        <time>2019-02-24T09:01:01.000Z</time>
      </trkpt>
      <trkpt lat="46.6226" lon="0.52117">
        <ele>199.35</ele>
        <time>2019-02-24T09:01:03.000Z</time>
      </trkpt>
      <trkpt lat="46.62252" lon="0.52104">
        <ele>199.48</ele>
        <time>2019-02-24T09:01:06.000Z</time>
      </trkpt>
      <trkpt lat="46.62245" lon="0.52089">
        <ele>199.58</ele>
        <time>2019-02-24T09:01:09.000Z</time>
      </trkpt>
      <trkpt lat="46.62236" lon="0.52079">
        <ele>199.93</ele>
        <time>2019-02-24T09:01:12.000Z</time>
      </trkpt>
      <trkpt lat="46.62231" lon="0.52069">
        <ele>200.01</ele>
        <time>2019-02-24T09:01:14.000Z</time>
      </trkpt>
      <trkpt lat="46.62225" lon="0.52059">
        <ele>200.03</ele>
        <time>2019-02-24T09:01:16.000Z</time>
      </trkpt>
      <trkpt lat="46.62217" lon="0.52048">
        <ele>199.98</ele>
        <time>2019-02-24T09:01:19.000Z</time>
      </trkpt>
      <trkpt lat="46.62207" lon="0.52047">
        <ele>199.73</ele>
        <time>2019-02-24T09:01:23.000Z</time>
      </trkpt>
      <trkpt lat="46.62201" lon="0.52038">
        <ele>198.46</ele>
        <time>2019-02-24T09:01:30.000Z</time>
      </trkpt>
      <trkpt lat="46.62192" lon="0.52039">
        <ele>196.2</ele>
        <time>2019-02-24T09:01:45.000Z</time>
      </trkpt>
      <trkpt lat="46.62187" lon="0.52028">
        <ele>195.27</ele>
        <time>2019-02-24T09:02:02.000Z</time>
      </trkpt>
      <trkpt lat="46.62183" lon="0.52016">
        <ele>194.68</ele>
        <time>2019-02-24T09:02:13.000Z</time>
      </trkpt>
      <trkpt lat="46.62188" lon="0.52002">
        <ele>191.1</ele>
        <time>2019-02-24T09:03:12.000Z</time>
      </trkpt>
      <trkpt lat="46.62187" lon="0.52015">
        <ele>183.39</ele>
        <time>2019-02-24T09:11:35.000Z</time>
      </trkpt>
      <trkpt lat="46.62192" lon="0.52026">
        <ele>184.42</ele>
        <time>2019-02-24T09:11:58.000Z</time>
      </trkpt>
      <trkpt lat="46.62184" lon="0.52035">
        <ele>189.07</ele>
        <time>2019-02-24T09:14:45.000Z</time>
      </trkpt>
      <trkpt lat="46.62179" lon="0.52023">
        <ele>190.24</ele>
        <time>2019-02-24T09:14:53.000Z</time>
      </trkpt>
      <trkpt lat="46.62176" lon="0.52009">
        <ele>191.18</ele>
        <time>2019-02-24T09:14:56.000Z</time>
      </trkpt>
      <trkpt lat="46.62172" lon="0.51992">
        <ele>192.27</ele>
        <time>2019-02-24T09:14:59.000Z</time>
      </trkpt>
      <trkpt lat="46.62167" lon="0.51976">
        <ele>192.1</ele>
        <time>2019-02-24T09:15:02.000Z</time>
      </trkpt>
      <trkpt lat="46.62173" lon="0.51962">
        <ele>191.94</ele>
        <time>2019-02-24T09:15:06.000Z</time>
      </trkpt>
      <trkpt lat="46.62177" lon="0.51945">
        <ele>191.68</ele>
        <time>2019-02-24T09:15:10.000Z</time>
      </trkpt>
      <trkpt lat="46.62183" lon="0.5193">
        <ele>191.47</ele>
        <time>2019-02-24T09:15:14.000Z</time>
      </trkpt>
      <trkpt lat="46.6219" lon="0.51915">
        <ele>190.84</ele>
        <time>2019-02-24T09:15:17.000Z</time>
      </trkpt>
      <trkpt lat="46.62197" lon="0.51899">
        <ele>191.18</ele>
        <time>2019-02-24T09:15:20.000Z</time>
      </trkpt>
      <trkpt lat="46.62203" lon="0.51888">
        <ele>191.74</ele>
        <time>2019-02-24T09:15:22.000Z</time>
      </trkpt>
      <trkpt lat="46.62213" lon="0.5188">
        <ele>194.68</ele>
        <time>2019-02-24T09:15:25.000Z</time>
      </trkpt>
      <trkpt lat="46.62225" lon="0.51867">
        <ele>197.72</ele>
        <time>2019-02-24T09:15:28.000Z</time>
      </trkpt>
      <trkpt lat="46.62232" lon="0.51856">
        <ele>199.93</ele>
        <time>2019-02-24T09:15:30.000Z</time>
      </trkpt>
      <trkpt lat="46.62238" lon="0.51846">
        <ele>201.42</ele>
        <time>2019-02-24T09:15:32.000Z</time>
      </trkpt>
      <trkpt lat="46.62245" lon="0.51836">
        <ele>204.04</ele>
        <time>2019-02-24T09:15:34.000Z</time>
      </trkpt>
      <trkpt lat="46.62251" lon="0.51821">
        <ele>206.11</ele>
        <time>2019-02-24T09:15:36.000Z</time>
      </trkpt>
      <trkpt lat="46.62254" lon="0.51805">
        <ele>206.33</ele>
        <time>2019-02-24T09:15:38.000Z</time>
      </trkpt>
      <trkpt lat="46.62256" lon="0.5179">
        <ele>206.57</ele>
        <time>2019-02-24T09:15:40.000Z</time>
      </trkpt>
      <trkpt lat="46.62257" lon="0.51768">
        <ele>208.79</ele>
        <time>2019-02-24T09:15:42.000Z</time>
      </trkpt>
      <trkpt lat="46.62259" lon="0.51755">
        <ele>208.85</ele>
        <time>2019-02-24T09:15:43.000Z</time>
      </trkpt>
      <trkpt lat="46.62264" lon="0.51735">
        <ele>209.78</ele>
        <time>2019-02-24T09:15:45.000Z</time>
      </trkpt>
      <trkpt lat="46.62272" lon="0.5172">
        <ele>211.03</ele>
        <time>2019-02-24T09:15:48.000Z</time>
      </trkpt>
      <trkpt lat="46.62275" lon="0.51705">
        <ele>212.04</ele>
        <time>2019-02-24T09:15:50.000Z</time>
      </trkpt>
      <trkpt lat="46.62281" lon="0.51688">
        <ele>213.48</ele>
        <time>2019-02-24T09:15:52.000Z</time>
      </trkpt>
      <trkpt lat="46.62286" lon="0.51672">
        <ele>213.93</ele>
        <time>2019-02-24T09:15:54.000Z</time>
      </trkpt>
      <trkpt lat="46.62291" lon="0.51655">
        <ele>214.46</ele>
        <time>2019-02-24T09:15:56.000Z</time>
      </trkpt>
      <trkpt lat="46.62295" lon="0.51641">
        <ele>214.53</ele>
        <time>2019-02-24T09:15:58.000Z</time>
      </trkpt>
      <trkpt lat="46.623" lon="0.51624">
        <ele>214.55</ele>
        <time>2019-02-24T09:16:00.000Z</time>
      </trkpt>
      <trkpt lat="46.62304" lon="0.51608">
        <ele>214.16</ele>
        <time>2019-02-24T09:16:02.000Z</time>
      </trkpt>
      <trkpt lat="46.62307" lon="0.51593">
        <ele>214.15</ele>
        <time>2019-02-24T09:16:04.000Z</time>
      </trkpt>
      <trkpt lat="46.62311" lon="0.51574">
        <ele>212.95</ele>
        <time>2019-02-24T09:16:06.000Z</time>
      </trkpt>
      <trkpt lat="46.62315" lon="0.51557">
        <ele>212.04</ele>
        <time>2019-02-24T09:16:08.000Z</time>
      </trkpt>
      <trkpt lat="46.62319" lon="0.51542">
        <ele>211.36</ele>
        <time>2019-02-24T09:16:10.000Z</time>
      </trkpt>
      <trkpt lat="46.62322" lon="0.51529">
        <ele>210.45</ele>
        <time>2019-02-24T09:16:12.000Z</time>
      </trkpt>
      <trkpt lat="46.62325" lon="0.51507">
        <ele>207.61</ele>
        <time>2019-02-24T09:16:14.000Z</time>
      </trkpt>
      <trkpt lat="46.62328" lon="0.51488">
        <ele>204.78</ele>
        <time>2019-02-24T09:16:16.000Z</time>
      </trkpt>
      <trkpt lat="46.6233" lon="0.51466">
        <ele>201.57</ele>
        <time>2019-02-24T09:16:18.000Z</time>
      </trkpt>
      <trkpt lat="46.62333" lon="0.51449">
        <ele>199.1</ele>
        <time>2019-02-24T09:16:20.000Z</time>
      </trkpt>
      <trkpt lat="46.62334" lon="0.51435">
        <ele>197.25</ele>
        <time>2019-02-24T09:16:22.000Z</time>
      </trkpt>
      <trkpt lat="46.62333" lon="0.51419">
        <ele>195.58</ele>
        <time>2019-02-24T09:16:24.000Z</time>
      </trkpt>
      <trkpt lat="46.62334" lon="0.51401">
        <ele>194.2</ele>
        <time>2019-02-24T09:16:26.000Z</time>
      </trkpt>
      <trkpt lat="46.62336" lon="0.51386">
        <ele>193.18</ele>
        <time>2019-02-24T09:16:28.000Z</time>
      </trkpt>
      <trkpt lat="46.62338" lon="0.51365">
        <ele>191.57</ele>
        <time>2019-02-24T09:16:30.000Z</time>
      </trkpt>
      <trkpt lat="46.62338" lon="0.51348">
        <ele>190.62</ele>
        <time>2019-02-24T09:16:32.000Z</time>
      </trkpt>
      <trkpt lat="46.62338" lon="0.51333">
        <ele>189.24</ele>
        <time>2019-02-24T09:16:34.000Z</time>
      </trkpt>
      <trkpt lat="46.62337" lon="0.51316">
        <ele>187.8</ele>
        <time>2019-02-24T09:16:36.000Z</time>
      </trkpt>
      <trkpt lat="46.62335" lon="0.51297">
        <ele>187.4</ele>
        <time>2019-02-24T09:16:38.000Z</time>
      </trkpt>
      <trkpt lat="46.62333" lon="0.51278">
        <ele>187.44</ele>
        <time>2019-02-24T09:16:40.000Z</time>
      </trkpt>
      <trkpt lat="46.62332" lon="0.51262">
        <ele>187.26</ele>
        <time>2019-02-24T09:16:42.000Z</time>
      </trkpt>
      <trkpt lat="46.62332" lon="0.51246">
        <ele>187.29</ele>
        <time>2019-02-24T09:16:44.000Z</time>
      </trkpt>
      <trkpt lat="46.62339" lon="0.51232">
        <ele>188.38</ele>
        <time>2019-02-24T09:16:46.000Z</time>
      </trkpt>
      <trkpt lat="46.62346" lon="0.5122">
        <ele>190.01</ele>
        <time>2019-02-24T09:16:48.000Z</time>
      </trkpt>
      <trkpt lat="46.62352" lon="0.5121">
        <ele>192.42</ele>
        <time>2019-02-24T09:16:50.000Z</time>
      </trkpt>
      <trkpt lat="46.62359" lon="0.51196">
        <ele>193.8</ele>
        <time>2019-02-24T09:16:52.000Z</time>
      </trkpt>
      <trkpt lat="46.62363" lon="0.51184">
        <ele>194.94</ele>
        <time>2019-02-24T09:16:54.000Z</time>
      </trkpt>
      <trkpt lat="46.62371" lon="0.51171">
        <ele>195.76</ele>
        <time>2019-02-24T09:16:57.000Z</time>
      </trkpt>
      <trkpt lat="46.62376" lon="0.51159">
        <ele>195.71</ele>
        <time>2019-02-24T09:16:59.000Z</time>
      </trkpt>
      <trkpt lat="46.62378" lon="0.51145">
        <ele>195.5</ele>
        <time>2019-02-24T09:17:01.000Z</time>
      </trkpt>
      <trkpt lat="46.62384" lon="0.51132">
        <ele>195.23</ele>
        <time>2019-02-24T09:17:04.000Z</time>
      </trkpt>
      <trkpt lat="46.62389" lon="0.51119">
        <ele>195.08</ele>
        <time>2019-02-24T09:17:07.000Z</time>
      </trkpt>
      <trkpt lat="46.62394" lon="0.51107">
        <ele>195.02</ele>
        <time>2019-02-24T09:17:09.000Z</time>
      </trkpt>
      <trkpt lat="46.62396" lon="0.51087">
        <ele>193.69</ele>
        <time>2019-02-24T09:17:11.000Z</time>
      </trkpt>
      <trkpt lat="46.62395" lon="0.5107">
        <ele>193.43</ele>
        <time>2019-02-24T09:17:13.000Z</time>
      </trkpt>
      <trkpt lat="46.62395" lon="0.51055">
        <ele>191.25</ele>
        <time>2019-02-24T09:17:15.000Z</time>
      </trkpt>
      <trkpt lat="46.62396" lon="0.51037">
        <ele>191.11</ele>
        <time>2019-02-24T09:17:18.000Z</time>
      </trkpt>
      <trkpt lat="46.62397" lon="0.51019">
        <ele>190.96</ele>
        <time>2019-02-24T09:17:21.000Z</time>
      </trkpt>
      <trkpt lat="46.62399" lon="0.51004">
        <ele>190.07</ele>
        <time>2019-02-24T09:17:23.000Z</time>
      </trkpt>
      <trkpt lat="46.62401" lon="0.5099">
        <ele>189.99</ele>
        <time>2019-02-24T09:17:25.000Z</time>
      </trkpt>
      <trkpt lat="46.62401" lon="0.50974">
        <ele>189.89</ele>
        <time>2019-02-24T09:17:27.000Z</time>
      </trkpt>
      <trkpt lat="46.62402" lon="0.50959">
        <ele>189.79</ele>
        <time>2019-02-24T09:17:29.000Z</time>
      </trkpt>
      <trkpt lat="46.62401" lon="0.50942">
        <ele>188.38</ele>
        <time>2019-02-24T09:17:31.000Z</time>
      </trkpt>
      <trkpt lat="46.62402" lon="0.50925">
        <ele>187.3</ele>
        <time>2019-02-24T09:17:33.000Z</time>
      </trkpt>
      <trkpt lat="46.62404" lon="0.50906">
        <ele>186.09</ele>
        <time>2019-02-24T09:17:35.000Z</time>
      </trkpt>
      <trkpt lat="46.62405" lon="0.50893">
        <ele>185.58</ele>
        <time>2019-02-24T09:17:37.000Z</time>
      </trkpt>
      <trkpt lat="46.62405" lon="0.50877">
        <ele>185.31</ele>
        <time>2019-02-24T09:17:39.000Z</time>
      </trkpt>
      <trkpt lat="46.62404" lon="0.50862">
        <ele>185.2</ele>
        <time>2019-02-24T09:17:42.000Z</time>
      </trkpt>
      <trkpt lat="46.62404" lon="0.50848">
        <ele>184.5</ele>
        <time>2019-02-24T09:17:44.000Z</time>
      </trkpt>
      <trkpt lat="46.62402" lon="0.50831">
        <ele>184.45</ele>
        <time>2019-02-24T09:17:47.000Z</time>
      </trkpt>
      <trkpt lat="46.62403" lon="0.50815">
        <ele>184.51</ele>
        <time>2019-02-24T09:17:50.000Z</time>
      </trkpt>
      <trkpt lat="46.62402" lon="0.50796">
        <ele>184.67</ele>
        <time>2019-02-24T09:17:53.000Z</time>
      </trkpt>
      <trkpt lat="46.624" lon="0.50783">
        <ele>184.75</ele>
        <time>2019-02-24T09:17:55.000Z</time>
      </trkpt>
      <trkpt lat="46.624" lon="0.50764">
        <ele>184.77</ele>
        <time>2019-02-24T09:17:58.000Z</time>
      </trkpt>
      <trkpt lat="46.624" lon="0.50749">
        <ele>184.75</ele>
        <time>2019-02-24T09:18:00.000Z</time>
      </trkpt>
      <trkpt lat="46.624" lon="0.50733">
        <ele>184.88</ele>
        <time>2019-02-24T09:18:03.000Z</time>
      </trkpt>
      <trkpt lat="46.62402" lon="0.50717">
        <ele>185.6</ele>
        <time>2019-02-24T09:18:05.000Z</time>
      </trkpt>
      <trkpt lat="46.62403" lon="0.50704">
        <ele>185.93</ele>
        <time>2019-02-24T09:18:07.000Z</time>
      </trkpt>
      <trkpt lat="46.62405" lon="0.50691">
        <ele>186.01</ele>
        <time>2019-02-24T09:18:09.000Z</time>
      </trkpt>
      <trkpt lat="46.62407" lon="0.50676">
        <ele>186.68</ele>
        <time>2019-02-24T09:18:11.000Z</time>
      </trkpt>
      <trkpt lat="46.62408" lon="0.50661">
        <ele>187.06</ele>
        <time>2019-02-24T09:18:13.000Z</time>
      </trkpt>
      <trkpt lat="46.6241" lon="0.50648">
        <ele>187.74</ele>
        <time>2019-02-24T09:18:15.000Z</time>
      </trkpt>
      <trkpt lat="46.62411" lon="0.50631">
        <ele>188.02</ele>
        <time>2019-02-24T09:18:17.000Z</time>
      </trkpt>
      <trkpt lat="46.62413" lon="0.50616">
        <ele>187.78</ele>
        <time>2019-02-24T09:18:19.000Z</time>
      </trkpt>
      <trkpt lat="46.62415" lon="0.50601">
        <ele>187.62</ele>
        <time>2019-02-24T09:18:21.000Z</time>
      </trkpt>
      <trkpt lat="46.62417" lon="0.50586">
        <ele>187.19</ele>
        <time>2019-02-24T09:18:23.000Z</time>
      </trkpt>
      <trkpt lat="46.62418" lon="0.50572">
        <ele>187.2</ele>
        <time>2019-02-24T09:18:25.000Z</time>
      </trkpt>
      <trkpt lat="46.62419" lon="0.50559">
        <ele>187.16</ele>
        <time>2019-02-24T09:18:27.000Z</time>
      </trkpt>
      <trkpt lat="46.6242" lon="0.50543">
        <ele>187.03</ele>
        <time>2019-02-24T09:18:29.000Z</time>
      </trkpt>
      <trkpt lat="46.6242" lon="0.50527">
        <ele>186.17</ele>
        <time>2019-02-24T09:18:31.000Z</time>
      </trkpt>
      <trkpt lat="46.6242" lon="0.50507">
        <ele>185.3</ele>
        <time>2019-02-24T09:18:33.000Z</time>
      </trkpt>
      <trkpt lat="46.62421" lon="0.50493">
        <ele>185.27</ele>
        <time>2019-02-24T09:18:35.000Z</time>
      </trkpt>
      <trkpt lat="46.62424" lon="0.50476">
        <ele>185.22</ele>
        <time>2019-02-24T09:18:37.000Z</time>
      </trkpt>
      <trkpt lat="46.62425" lon="0.50459">
        <ele>185.16</ele>
        <time>2019-02-24T09:18:39.000Z</time>
      </trkpt>
      <trkpt lat="46.62426" lon="0.50442">
        <ele>185.08</ele>
        <time>2019-02-24T09:18:41.000Z</time>
      </trkpt>
      <trkpt lat="46.62426" lon="0.50426">
        <ele>185.09</ele>
        <time>2019-02-24T09:18:43.000Z</time>
      </trkpt>
      <trkpt lat="46.62428" lon="0.50405">
        <ele>185.01</ele>
        <time>2019-02-24T09:18:45.000Z</time>
      </trkpt>
      <trkpt lat="46.62428" lon="0.50386">
        <ele>186.07</ele>
        <time>2019-02-24T09:18:47.000Z</time>
      </trkpt>
      <trkpt lat="46.62429" lon="0.50369">
        <ele>187.13</ele>
        <time>2019-02-24T09:18:49.000Z</time>
      </trkpt>
      <trkpt lat="46.62431" lon="0.5035">
        <ele>187.26</ele>
        <time>2019-02-24T09:18:51.000Z</time>
      </trkpt>
      <trkpt lat="46.62433" lon="0.5033">
        <ele>187.34</ele>
        <time>2019-02-24T09:18:53.000Z</time>
      </trkpt>
      <trkpt lat="46.62436" lon="0.50316">
        <ele>187.73</ele>
        <time>2019-02-24T09:18:55.000Z</time>
      </trkpt>
      <trkpt lat="46.62439" lon="0.50303">
        <ele>188.71</ele>
        <time>2019-02-24T09:18:57.000Z</time>
      </trkpt>
      <trkpt lat="46.62443" lon="0.50287">
        <ele>189</ele>
        <time>2019-02-24T09:18:59.000Z</time>
      </trkpt>
      <trkpt lat="46.62447" lon="0.50268">
        <ele>189.39</ele>
        <time>2019-02-24T09:19:01.000Z</time>
      </trkpt>
      <trkpt lat="46.62452" lon="0.50247">
        <ele>189.15</ele>
        <time>2019-02-24T09:19:03.000Z</time>
      </trkpt>
      <trkpt lat="46.62456" lon="0.50228">
        <ele>188.86</ele>
        <time>2019-02-24T09:19:05.000Z</time>
      </trkpt>
      <trkpt lat="46.6246" lon="0.50209">
        <ele>188.61</ele>
        <time>2019-02-24T09:19:07.000Z</time>
      </trkpt>
      <trkpt lat="46.62465" lon="0.50195">
        <ele>188.93</ele>
        <time>2019-02-24T09:19:09.000Z</time>
      </trkpt>
      <trkpt lat="46.62471" lon="0.50178">
        <ele>188.99</ele>
        <time>2019-02-24T09:19:11.000Z</time>
      </trkpt>
      <trkpt lat="46.62476" lon="0.50166">
        <ele>190.03</ele>
        <time>2019-02-24T09:19:13.000Z</time>
      </trkpt>
      <trkpt lat="46.62483" lon="0.50151">
        <ele>190.63</ele>
        <time>2019-02-24T09:19:16.000Z</time>
      </trkpt>
      <trkpt lat="46.62485" lon="0.50137">
        <ele>190.89</ele>
        <time>2019-02-24T09:19:18.000Z</time>
      </trkpt>
      <trkpt lat="46.62479" lon="0.50121">
        <ele>190.53</ele>
        <time>2019-02-24T09:19:20.000Z</time>
      </trkpt>
      <trkpt lat="46.62472" lon="0.50109">
        <ele>189.8</ele>
        <time>2019-02-24T09:19:22.000Z</time>
      </trkpt>
      <trkpt lat="46.62466" lon="0.50092">
        <ele>188.16</ele>
        <time>2019-02-24T09:19:24.000Z</time>
      </trkpt>
      <trkpt lat="46.6246" lon="0.50076">
        <ele>186.27</ele>
        <time>2019-02-24T09:19:26.000Z</time>
      </trkpt>
      <trkpt lat="46.62452" lon="0.50062">
        <ele>184.6</ele>
        <time>2019-02-24T09:19:28.000Z</time>
      </trkpt>
      <trkpt lat="46.62449" lon="0.50044">
        <ele>182.29</ele>
        <time>2019-02-24T09:19:30.000Z</time>
      </trkpt>
      <trkpt lat="46.62442" lon="0.50027">
        <ele>180.25</ele>
        <time>2019-02-24T09:19:32.000Z</time>
      </trkpt>
      <trkpt lat="46.62439" lon="0.50011">
        <ele>178.84</ele>
        <time>2019-02-24T09:19:34.000Z</time>
      </trkpt>
      <trkpt lat="46.62432" lon="0.49994">
        <ele>178.13</ele>
        <time>2019-02-24T09:19:36.000Z</time>
      </trkpt>
      <trkpt lat="46.62426" lon="0.49979">
        <ele>178.09</ele>
        <time>2019-02-24T09:19:38.000Z</time>
      </trkpt>
      <trkpt lat="46.62421" lon="0.49963">
        <ele>178.13</ele>
        <time>2019-02-24T09:19:40.000Z</time>
      </trkpt>
      <trkpt lat="46.62416" lon="0.49948">
        <ele>178.19</ele>
        <time>2019-02-24T09:19:43.000Z</time>
      </trkpt>
      <trkpt lat="46.62406" lon="0.49942">
        <ele>178.81</ele>
        <time>2019-02-24T09:19:49.000Z</time>
      </trkpt>
      <trkpt lat="46.62397" lon="0.49945">
        <ele>178.99</ele>
        <time>2019-02-24T09:19:51.000Z</time>
      </trkpt>
      <trkpt lat="46.62389" lon="0.49936">
        <ele>179.16</ele>
        <time>2019-02-24T09:19:54.000Z</time>
      </trkpt>
      <trkpt lat="46.62381" lon="0.49922">
        <ele>180.66</ele>
        <time>2019-02-24T09:19:57.000Z</time>
      </trkpt>
      <trkpt lat="46.62375" lon="0.49909">
        <ele>182.06</ele>
        <time>2019-02-24T09:20:00.000Z</time>
      </trkpt>
      <trkpt lat="46.62365" lon="0.49895">
        <ele>182.37</ele>
        <time>2019-02-24T09:20:03.000Z</time>
      </trkpt>
      <trkpt lat="46.62357" lon="0.49884">
        <ele>184.7</ele>
        <time>2019-02-24T09:20:05.000Z</time>
      </trkpt>
      <trkpt lat="46.62351" lon="0.49874">
        <ele>186.8</ele>
        <time>2019-02-24T09:20:07.000Z</time>
      </trkpt>
      <trkpt lat="46.62345" lon="0.49862">
        <ele>188.39</ele>
        <time>2019-02-24T09:20:09.000Z</time>
      </trkpt>
      <trkpt lat="46.62339" lon="0.49847">
        <ele>189.76</ele>
        <time>2019-02-24T09:20:11.000Z</time>
      </trkpt>
      <trkpt lat="46.62333" lon="0.49832">
        <ele>190.27</ele>
        <time>2019-02-24T09:20:13.000Z</time>
      </trkpt>
      <trkpt lat="46.62327" lon="0.49817">
        <ele>190.6</ele>
        <time>2019-02-24T09:20:15.000Z</time>
      </trkpt>
      <trkpt lat="46.62322" lon="0.49802">
        <ele>191.45</ele>
        <time>2019-02-24T09:20:17.000Z</time>
      </trkpt>
      <trkpt lat="46.62315" lon="0.49786">
        <ele>192.08</ele>
        <time>2019-02-24T09:20:19.000Z</time>
      </trkpt>
      <trkpt lat="46.62309" lon="0.4977">
        <ele>191.92</ele>
        <time>2019-02-24T09:20:21.000Z</time>
      </trkpt>
      <trkpt lat="46.62303" lon="0.49756">
        <ele>192.17</ele>
        <time>2019-02-24T09:20:23.000Z</time>
      </trkpt>
      <trkpt lat="46.62297" lon="0.49744">
        <ele>190.99</ele>
        <time>2019-02-24T09:20:25.000Z</time>
      </trkpt>
      <trkpt lat="46.62291" lon="0.49733">
        <ele>190.78</ele>
        <time>2019-02-24T09:20:27.000Z</time>
      </trkpt>
      <trkpt lat="46.62286" lon="0.49719">
        <ele>190.53</ele>
        <time>2019-02-24T09:20:30.000Z</time>
      </trkpt>
      <trkpt lat="46.62281" lon="0.49708">
        <ele>190.21</ele>
        <time>2019-02-24T09:20:32.000Z</time>
      </trkpt>
      <trkpt lat="46.62274" lon="0.49693">
        <ele>189.23</ele>
        <time>2019-02-24T09:20:34.000Z</time>
      </trkpt>
      <trkpt lat="46.62271" lon="0.49678">
        <ele>188.3</ele>
        <time>2019-02-24T09:20:36.000Z</time>
      </trkpt>
      <trkpt lat="46.62265" lon="0.49663">
        <ele>187.43</ele>
        <time>2019-02-24T09:20:38.000Z</time>
      </trkpt>
      <trkpt lat="46.62259" lon="0.49653">
        <ele>187.3</ele>
        <time>2019-02-24T09:20:40.000Z</time>
      </trkpt>
      <trkpt lat="46.62254" lon="0.49642">
        <ele>186.58</ele>
        <time>2019-02-24T09:20:42.000Z</time>
      </trkpt>
      <trkpt lat="46.62249" lon="0.49629">
        <ele>186.56</ele>
        <time>2019-02-24T09:20:44.000Z</time>
      </trkpt>
      <trkpt lat="46.62242" lon="0.49618">
        <ele>186.66</ele>
        <time>2019-02-24T09:20:46.000Z</time>
      </trkpt>
      <trkpt lat="46.62235" lon="0.49608">
        <ele>187</ele>
        <time>2019-02-24T09:20:48.000Z</time>
      </trkpt>
      <trkpt lat="46.62225" lon="0.49595">
        <ele>190</ele>
        <time>2019-02-24T09:20:51.000Z</time>
      </trkpt>
      <trkpt lat="46.62219" lon="0.49577">
        <ele>193.85</ele>
        <time>2019-02-24T09:20:54.000Z</time>
      </trkpt>
      <trkpt lat="46.62214" lon="0.49563">
        <ele>193.68</ele>
        <time>2019-02-24T09:20:56.000Z</time>
      </trkpt>
      <trkpt lat="46.6221" lon="0.49549">
        <ele>191.63</ele>
        <time>2019-02-24T09:20:59.000Z</time>
      </trkpt>
      <trkpt lat="46.62209" lon="0.49534">
        <ele>190.06</ele>
        <time>2019-02-24T09:21:02.000Z</time>
      </trkpt>
      <trkpt lat="46.62205" lon="0.49519">
        <ele>189.67</ele>
        <time>2019-02-24T09:21:04.000Z</time>
      </trkpt>
      <trkpt lat="46.62199" lon="0.49502">
        <ele>186.15</ele>
        <time>2019-02-24T09:21:06.000Z</time>
      </trkpt>
      <trkpt lat="46.62193" lon="0.49485">
        <ele>182.78</ele>
        <time>2019-02-24T09:21:08.000Z</time>
      </trkpt>
      <trkpt lat="46.62187" lon="0.4947">
        <ele>180.86</ele>
        <time>2019-02-24T09:21:10.000Z</time>
      </trkpt>
      <trkpt lat="46.62179" lon="0.49461">
        <ele>179.81</ele>
        <time>2019-02-24T09:21:15.000Z</time>
      </trkpt>
      <trkpt lat="46.62173" lon="0.49448">
        <ele>179.03</ele>
        <time>2019-02-24T09:21:19.000Z</time>
      </trkpt>
      <trkpt lat="46.62164" lon="0.49444">
        <ele>178.63</ele>
        <time>2019-02-24T09:21:21.000Z</time>
      </trkpt>
      <trkpt lat="46.62149" lon="0.49443">
        <ele>178.03</ele>
        <time>2019-02-24T09:21:23.000Z</time>
      </trkpt>
      <trkpt lat="46.62136" lon="0.49444">
        <ele>177.27</ele>
        <time>2019-02-24T09:21:25.000Z</time>
      </trkpt>
      <trkpt lat="46.62125" lon="0.49444">
        <ele>176.49</ele>
        <time>2019-02-24T09:21:27.000Z</time>
      </trkpt>
      <trkpt lat="46.62116" lon="0.49445">
        <ele>175.72</ele>
        <time>2019-02-24T09:21:29.000Z</time>
      </trkpt>
      <trkpt lat="46.62103" lon="0.49447">
        <ele>174.82</ele>
        <time>2019-02-24T09:21:32.000Z</time>
      </trkpt>
      <trkpt lat="46.62091" lon="0.4945">
        <ele>174.14</ele>
        <time>2019-02-24T09:21:35.000Z</time>
      </trkpt>
      <trkpt lat="46.62078" lon="0.49453">
        <ele>173.48</ele>
        <time>2019-02-24T09:21:38.000Z</time>
      </trkpt>
      <trkpt lat="46.62068" lon="0.49454">
        <ele>172.95</ele>
        <time>2019-02-24T09:21:41.000Z</time>
      </trkpt>
      <trkpt lat="46.62057" lon="0.49454">
        <ele>170.98</ele>
        <time>2019-02-24T09:21:44.000Z</time>
      </trkpt>
      <trkpt lat="46.62043" lon="0.49453">
        <ele>168.41</ele>
        <time>2019-02-24T09:21:47.000Z</time>
      </trkpt>
      <trkpt lat="46.62033" lon="0.49454">
        <ele>167.12</ele>
        <time>2019-02-24T09:21:49.000Z</time>
      </trkpt>
      <trkpt lat="46.6202" lon="0.49455">
        <ele>166.82</ele>
        <time>2019-02-24T09:21:52.000Z</time>
      </trkpt>
      <trkpt lat="46.6201" lon="0.49456">
        <ele>166.76</ele>
        <time>2019-02-24T09:21:54.000Z</time>
      </trkpt>
      <trkpt lat="46.62" lon="0.49458">
        <ele>166.28</ele>
        <time>2019-02-24T09:21:56.000Z</time>
      </trkpt>
      <trkpt lat="46.61988" lon="0.4946">
        <ele>166.13</ele>
        <time>2019-02-24T09:21:59.000Z</time>
      </trkpt>
      <trkpt lat="46.61977" lon="0.49462">
        <ele>166.2</ele>
        <time>2019-02-24T09:22:02.000Z</time>
      </trkpt>
      <trkpt lat="46.61967" lon="0.49464">
        <ele>166.24</ele>
        <time>2019-02-24T09:22:05.000Z</time>
      </trkpt>
      <trkpt lat="46.61956" lon="0.49467">
        <ele>166.27</ele>
        <time>2019-02-24T09:22:08.000Z</time>
      </trkpt>
      <trkpt lat="46.61943" lon="0.49469">
        <ele>166.72</ele>
        <time>2019-02-24T09:22:11.000Z</time>
      </trkpt>
      <trkpt lat="46.61932" lon="0.49474">
        <ele>165.68</ele>
        <time>2019-02-24T09:22:14.000Z</time>
      </trkpt>
      <trkpt lat="46.6192" lon="0.49478">
        <ele>164.53</ele>
        <time>2019-02-24T09:22:17.000Z</time>
      </trkpt>
      <trkpt lat="46.6191" lon="0.49481">
        <ele>163.7</ele>
        <time>2019-02-24T09:22:19.000Z</time>
      </trkpt>
      <trkpt lat="46.619" lon="0.49483">
        <ele>163.15</ele>
        <time>2019-02-24T09:22:21.000Z</time>
      </trkpt>
      <trkpt lat="46.61889" lon="0.49486">
        <ele>162.42</ele>
        <time>2019-02-24T09:22:23.000Z</time>
      </trkpt>
      <trkpt lat="46.61877" lon="0.49489">
        <ele>161.45</ele>
        <time>2019-02-24T09:22:25.000Z</time>
      </trkpt>
      <trkpt lat="46.61867" lon="0.49492">
        <ele>160.37</ele>
        <time>2019-02-24T09:22:27.000Z</time>
      </trkpt>
      <trkpt lat="46.61857" lon="0.49495">
        <ele>159.31</ele>
        <time>2019-02-24T09:22:29.000Z</time>
      </trkpt>
      <trkpt lat="46.61846" lon="0.49496">
        <ele>158.45</ele>
        <time>2019-02-24T09:22:31.000Z</time>
      </trkpt>
      <trkpt lat="46.61835" lon="0.49497">
        <ele>157.67</ele>
        <time>2019-02-24T09:22:33.000Z</time>
      </trkpt>
      <trkpt lat="46.61826" lon="0.49498">
        <ele>157.27</ele>
        <time>2019-02-24T09:22:35.000Z</time>
      </trkpt>
      <trkpt lat="46.61815" lon="0.49499">
        <ele>157.07</ele>
        <time>2019-02-24T09:22:37.000Z</time>
      </trkpt>
      <trkpt lat="46.61802" lon="0.49501">
        <ele>156.93</ele>
        <time>2019-02-24T09:22:40.000Z</time>
      </trkpt>
      <trkpt lat="46.61792" lon="0.49503">
        <ele>156.87</ele>
        <time>2019-02-24T09:22:42.000Z</time>
      </trkpt>
      <trkpt lat="46.61783" lon="0.49504">
        <ele>156.93</ele>
        <time>2019-02-24T09:22:44.000Z</time>
      </trkpt>
      <trkpt lat="46.61773" lon="0.49506">
        <ele>157.29</ele>
        <time>2019-02-24T09:22:46.000Z</time>
      </trkpt>
      <trkpt lat="46.61763" lon="0.49508">
        <ele>157.82</ele>
        <time>2019-02-24T09:22:48.000Z</time>
      </trkpt>
      <trkpt lat="46.61752" lon="0.49509">
        <ele>158.18</ele>
        <time>2019-02-24T09:22:50.000Z</time>
      </trkpt>
      <trkpt lat="46.6174" lon="0.4951">
        <ele>157.87</ele>
        <time>2019-02-24T09:22:52.000Z</time>
      </trkpt>
      <trkpt lat="46.61729" lon="0.49512">
        <ele>158.38</ele>
        <time>2019-02-24T09:22:54.000Z</time>
      </trkpt>
      <trkpt lat="46.6172" lon="0.49513">
        <ele>159.8</ele>
        <time>2019-02-24T09:22:56.000Z</time>
      </trkpt>
      <trkpt lat="46.61711" lon="0.49513">
        <ele>161.24</ele>
        <time>2019-02-24T09:22:58.000Z</time>
      </trkpt>
      <trkpt lat="46.61701" lon="0.49513">
        <ele>162.71</ele>
        <time>2019-02-24T09:23:00.000Z</time>
      </trkpt>
      <trkpt lat="46.61688" lon="0.49513">
        <ele>164.42</ele>
        <time>2019-02-24T09:23:03.000Z</time>
      </trkpt>
      <trkpt lat="46.61679" lon="0.49513">
        <ele>164.63</ele>
        <time>2019-02-24T09:23:06.000Z</time>
      </trkpt>
      <trkpt lat="46.61668" lon="0.49513">
        <ele>165.07</ele>
        <time>2019-02-24T09:23:10.000Z</time>
      </trkpt>
      <trkpt lat="46.61659" lon="0.49505">
        <ele>166.12</ele>
        <time>2019-02-24T09:23:14.000Z</time>
      </trkpt>
      <trkpt lat="46.61654" lon="0.49489">
        <ele>166.44</ele>
        <time>2019-02-24T09:23:16.000Z</time>
      </trkpt>
      <trkpt lat="46.61651" lon="0.49471">
        <ele>166.6</ele>
        <time>2019-02-24T09:23:18.000Z</time>
      </trkpt>
      <trkpt lat="46.61647" lon="0.49454">
        <ele>166.13</ele>
        <time>2019-02-24T09:23:20.000Z</time>
      </trkpt>
      <trkpt lat="46.61645" lon="0.49439">
        <ele>164.66</ele>
        <time>2019-02-24T09:23:22.000Z</time>
      </trkpt>
      <trkpt lat="46.61643" lon="0.49422">
        <ele>163.68</ele>
        <time>2019-02-24T09:23:24.000Z</time>
      </trkpt>
      <trkpt lat="46.6164" lon="0.49405">
        <ele>163.27</ele>
        <time>2019-02-24T09:23:27.000Z</time>
      </trkpt>
      <trkpt lat="46.61632" lon="0.49396">
        <ele>163.52</ele>
        <time>2019-02-24T09:23:30.000Z</time>
      </trkpt>
      <trkpt lat="46.61623" lon="0.49391">
        <ele>164.01</ele>
        <time>2019-02-24T09:23:33.000Z</time>
      </trkpt>
      <trkpt lat="46.61614" lon="0.49386">
        <ele>164.72</ele>
        <time>2019-02-24T09:23:36.000Z</time>
      </trkpt>
      <trkpt lat="46.61603" lon="0.49376">
        <ele>165.53</ele>
        <time>2019-02-24T09:23:39.000Z</time>
      </trkpt>
      <trkpt lat="46.61597" lon="0.49363">
        <ele>166.35</ele>
        <time>2019-02-24T09:23:43.000Z</time>
      </trkpt>
      <trkpt lat="46.61595" lon="0.49348">
        <ele>166.97</ele>
        <time>2019-02-24T09:23:48.000Z</time>
      </trkpt>
      <trkpt lat="46.61596" lon="0.49332">
        <ele>167.89</ele>
        <time>2019-02-24T09:23:55.000Z</time>
      </trkpt>
      <trkpt lat="46.61603" lon="0.49321">
        <ele>168.94</ele>
        <time>2019-02-24T09:24:00.000Z</time>
      </trkpt>
      <trkpt lat="46.61608" lon="0.49309">
        <ele>169.62</ele>
        <time>2019-02-24T09:24:03.000Z</time>
      </trkpt>
      <trkpt lat="46.61613" lon="0.49295">
        <ele>170.27</ele>
        <time>2019-02-24T09:24:06.000Z</time>
      </trkpt>
      <trkpt lat="46.61613" lon="0.49278">
        <ele>170.71</ele>
        <time>2019-02-24T09:24:08.000Z</time>
      </trkpt>
      <trkpt lat="46.61606" lon="0.49262">
        <ele>171.43</ele>
        <time>2019-02-24T09:24:11.000Z</time>
      </trkpt>
      <trkpt lat="46.61596" lon="0.49253">
        <ele>172.02</ele>
        <time>2019-02-24T09:24:14.000Z</time>
      </trkpt>
      <trkpt lat="46.61588" lon="0.49244">
        <ele>172.59</ele>
        <time>2019-02-24T09:24:17.000Z</time>
      </trkpt>
      <trkpt lat="46.61576" lon="0.49237">
        <ele>173.04</ele>
        <time>2019-02-24T09:24:20.000Z</time>
      </trkpt>
      <trkpt lat="46.61563" lon="0.49228">
        <ele>173.35</ele>
        <time>2019-02-24T09:24:23.000Z</time>
      </trkpt>
      <trkpt lat="46.61554" lon="0.49222">
        <ele>173.55</ele>
        <time>2019-02-24T09:24:25.000Z</time>
      </trkpt>
      <trkpt lat="46.61546" lon="0.49215">
        <ele>173.74</ele>
        <time>2019-02-24T09:24:27.000Z</time>
      </trkpt>
      <trkpt lat="46.61536" lon="0.49205">
        <ele>174.08</ele>
        <time>2019-02-24T09:24:30.000Z</time>
      </trkpt>
      <trkpt lat="46.61528" lon="0.49194">
        <ele>174.37</ele>
        <time>2019-02-24T09:24:33.000Z</time>
      </trkpt>
      <trkpt lat="46.6152" lon="0.49181">
        <ele>174.73</ele>
        <time>2019-02-24T09:24:36.000Z</time>
      </trkpt>
      <trkpt lat="46.61514" lon="0.4917">
        <ele>176.03</ele>
        <time>2019-02-24T09:24:38.000Z</time>
      </trkpt>
      <trkpt lat="46.61507" lon="0.49158">
        <ele>178.28</ele>
        <time>2019-02-24T09:24:40.000Z</time>
      </trkpt>
      <trkpt lat="46.61499" lon="0.49144">
        <ele>179.63</ele>
        <time>2019-02-24T09:24:42.000Z</time>
      </trkpt>
      <trkpt lat="46.61493" lon="0.4913">
        <ele>180.26</ele>
        <time>2019-02-24T09:24:44.000Z</time>
      </trkpt>
      <trkpt lat="46.61489" lon="0.49114">
        <ele>180.29</ele>
        <time>2019-02-24T09:24:46.000Z</time>
      </trkpt>
      <trkpt lat="46.61486" lon="0.49096">
        <ele>180.11</ele>
        <time>2019-02-24T09:24:48.000Z</time>
      </trkpt>
      <trkpt lat="46.61481" lon="0.49078">
        <ele>180.08</ele>
        <time>2019-02-24T09:24:50.000Z</time>
      </trkpt>
      <trkpt lat="46.61475" lon="0.49061">
        <ele>180.43</ele>
        <time>2019-02-24T09:24:52.000Z</time>
      </trkpt>
      <trkpt lat="46.61469" lon="0.49045">
        <ele>180.7</ele>
        <time>2019-02-24T09:24:54.000Z</time>
      </trkpt>
      <trkpt lat="46.61462" lon="0.49031">
        <ele>180.37</ele>
        <time>2019-02-24T09:24:56.000Z</time>
      </trkpt>
      <trkpt lat="46.61457" lon="0.49021">
        <ele>180.34</ele>
        <time>2019-02-24T09:24:58.000Z</time>
      </trkpt>
      <trkpt lat="46.61449" lon="0.49006">
        <ele>180.4</ele>
        <time>2019-02-24T09:25:01.000Z</time>
      </trkpt>
      <trkpt lat="46.61443" lon="0.48992">
        <ele>180.61</ele>
        <time>2019-02-24T09:25:03.000Z</time>
      </trkpt>
      <trkpt lat="46.61438" lon="0.48978">
        <ele>180.55</ele>
        <time>2019-02-24T09:25:05.000Z</time>
      </trkpt>
      <trkpt lat="46.61433" lon="0.48964">
        <ele>180.24</ele>
        <time>2019-02-24T09:25:07.000Z</time>
      </trkpt>
      <trkpt lat="46.61427" lon="0.4895">
        <ele>180.79</ele>
        <time>2019-02-24T09:25:09.000Z</time>
      </trkpt>
      <trkpt lat="46.6142" lon="0.48941">
        <ele>181.33</ele>
        <time>2019-02-24T09:25:11.000Z</time>
      </trkpt>
      <trkpt lat="46.61413" lon="0.48929">
        <ele>181.56</ele>
        <time>2019-02-24T09:25:13.000Z</time>
      </trkpt>
      <trkpt lat="46.61406" lon="0.4892">
        <ele>182.05</ele>
        <time>2019-02-24T09:25:15.000Z</time>
      </trkpt>
      <trkpt lat="46.61398" lon="0.4891">
        <ele>182.3</ele>
        <time>2019-02-24T09:25:18.000Z</time>
      </trkpt>
      <trkpt lat="46.6139" lon="0.48902">
        <ele>182.56</ele>
        <time>2019-02-24T09:25:20.000Z</time>
      </trkpt>
      <trkpt lat="46.61385" lon="0.48887">
        <ele>182.92</ele>
        <time>2019-02-24T09:25:25.000Z</time>
      </trkpt>
      <trkpt lat="46.61385" lon="0.48873">
        <ele>182.9</ele>
        <time>2019-02-24T09:25:27.000Z</time>
      </trkpt>
      <trkpt lat="46.6138" lon="0.48856">
        <ele>182.88</ele>
        <time>2019-02-24T09:25:30.000Z</time>
      </trkpt>
      <trkpt lat="46.61371" lon="0.48848">
        <ele>182.91</ele>
        <time>2019-02-24T09:25:33.000Z</time>
      </trkpt>
      <trkpt lat="46.61358" lon="0.48841">
        <ele>183.54</ele>
        <time>2019-02-24T09:25:36.000Z</time>
      </trkpt>
      <trkpt lat="46.61348" lon="0.48837">
        <ele>183.57</ele>
        <time>2019-02-24T09:25:38.000Z</time>
      </trkpt>
      <trkpt lat="46.61339" lon="0.48831">
        <ele>183.58</ele>
        <time>2019-02-24T09:25:41.000Z</time>
      </trkpt>
      <trkpt lat="46.61329" lon="0.48827">
        <ele>183.54</ele>
        <time>2019-02-24T09:25:44.000Z</time>
      </trkpt>
      <trkpt lat="46.61319" lon="0.48817">
        <ele>183.46</ele>
        <time>2019-02-24T09:25:48.000Z</time>
      </trkpt>
      <trkpt lat="46.61311" lon="0.48807">
        <ele>183.44</ele>
        <time>2019-02-24T09:25:52.000Z</time>
      </trkpt>
      <trkpt lat="46.61303" lon="0.48799">
        <ele>183.54</ele>
        <time>2019-02-24T09:25:55.000Z</time>
      </trkpt>
      <trkpt lat="46.61299" lon="0.48787">
        <ele>183.68</ele>
        <time>2019-02-24T09:25:58.000Z</time>
      </trkpt>
      <trkpt lat="46.61291" lon="0.48776">
        <ele>183.78</ele>
        <time>2019-02-24T09:26:01.000Z</time>
      </trkpt>
      <trkpt lat="46.61281" lon="0.48768">
        <ele>183.88</ele>
        <time>2019-02-24T09:26:04.000Z</time>
      </trkpt>
      <trkpt lat="46.61274" lon="0.4876">
        <ele>184.01</ele>
        <time>2019-02-24T09:26:07.000Z</time>
      </trkpt>
      <trkpt lat="46.61265" lon="0.4875">
        <ele>184.33</ele>
        <time>2019-02-24T09:26:12.000Z</time>
      </trkpt>
      <trkpt lat="46.61259" lon="0.48735">
        <ele>184.41</ele>
        <time>2019-02-24T09:26:15.000Z</time>
      </trkpt>
      <trkpt lat="46.61253" lon="0.48725">
        <ele>184.44</ele>
        <time>2019-02-24T09:26:17.000Z</time>
      </trkpt>
      <trkpt lat="46.61247" lon="0.48712">
        <ele>184.46</ele>
        <time>2019-02-24T09:26:21.000Z</time>
      </trkpt>
      <trkpt lat="46.61243" lon="0.48699">
        <ele>184.39</ele>
        <time>2019-02-24T09:26:24.000Z</time>
      </trkpt>
      <trkpt lat="46.61241" lon="0.48686">
        <ele>184.21</ele>
        <time>2019-02-24T09:26:26.000Z</time>
      </trkpt>
      <trkpt lat="46.61234" lon="0.4867">
        <ele>183.77</ele>
        <time>2019-02-24T09:26:29.000Z</time>
      </trkpt>
      <trkpt lat="46.61229" lon="0.48655">
        <ele>183.25</ele>
        <time>2019-02-24T09:26:32.000Z</time>
      </trkpt>
      <trkpt lat="46.61226" lon="0.48639">
        <ele>182.76</ele>
        <time>2019-02-24T09:26:35.000Z</time>
      </trkpt>
      <trkpt lat="46.61221" lon="0.48628">
        <ele>182.43</ele>
        <time>2019-02-24T09:26:37.000Z</time>
      </trkpt>
      <trkpt lat="46.61218" lon="0.48614">
        <ele>181.83</ele>
        <time>2019-02-24T09:26:40.000Z</time>
      </trkpt>
      <trkpt lat="46.61214" lon="0.486">
        <ele>181.17</ele>
        <time>2019-02-24T09:26:44.000Z</time>
      </trkpt>
      <trkpt lat="46.61205" lon="0.48592">
        <ele>180.85</ele>
        <time>2019-02-24T09:26:47.000Z</time>
      </trkpt>
      <trkpt lat="46.61198" lon="0.48583">
        <ele>180.47</ele>
        <time>2019-02-24T09:26:50.000Z</time>
      </trkpt>
      <trkpt lat="46.61189" lon="0.48573">
        <ele>180.07</ele>
        <time>2019-02-24T09:26:53.000Z</time>
      </trkpt>
      <trkpt lat="46.61181" lon="0.48565">
        <ele>179.71</ele>
        <time>2019-02-24T09:26:56.000Z</time>
      </trkpt>
      <trkpt lat="46.61172" lon="0.48554">
        <ele>179.25</ele>
        <time>2019-02-24T09:26:59.000Z</time>
      </trkpt>
      <trkpt lat="46.61167" lon="0.48543">
        <ele>179</ele>
        <time>2019-02-24T09:27:01.000Z</time>
      </trkpt>
      <trkpt lat="46.61162" lon="0.48529">
        <ele>178.74</ele>
        <time>2019-02-24T09:27:04.000Z</time>
      </trkpt>
      <trkpt lat="46.61156" lon="0.48516">
        <ele>178.55</ele>
        <time>2019-02-24T09:27:07.000Z</time>
      </trkpt>
      <trkpt lat="46.61149" lon="0.48503">
        <ele>178.36</ele>
        <time>2019-02-24T09:27:10.000Z</time>
      </trkpt>
      <trkpt lat="46.61144" lon="0.48488">
        <ele>178.22</ele>
        <time>2019-02-24T09:27:13.000Z</time>
      </trkpt>
      <trkpt lat="46.61137" lon="0.48476">
        <ele>178.12</ele>
        <time>2019-02-24T09:27:16.000Z</time>
      </trkpt>
      <trkpt lat="46.61131" lon="0.48463">
        <ele>178.1</ele>
        <time>2019-02-24T09:27:19.000Z</time>
      </trkpt>
      <trkpt lat="46.61125" lon="0.4845">
        <ele>178.17</ele>
        <time>2019-02-24T09:27:22.000Z</time>
      </trkpt>
      <trkpt lat="46.61116" lon="0.48435">
        <ele>178.32</ele>
        <time>2019-02-24T09:27:25.000Z</time>
      </trkpt>
      <trkpt lat="46.6111" lon="0.48426">
        <ele>178.44</ele>
        <time>2019-02-24T09:27:27.000Z</time>
      </trkpt>
      <trkpt lat="46.61103" lon="0.48412">
        <ele>178.57</ele>
        <time>2019-02-24T09:27:30.000Z</time>
      </trkpt>
      <trkpt lat="46.61099" lon="0.48399">
        <ele>178.76</ele>
        <time>2019-02-24T09:27:33.000Z</time>
      </trkpt>
      <trkpt lat="46.61092" lon="0.48384">
        <ele>179.85</ele>
        <time>2019-02-24T09:27:36.000Z</time>
      </trkpt>
      <trkpt lat="46.61084" lon="0.48373">
        <ele>180.9</ele>
        <time>2019-02-24T09:27:38.000Z</time>
      </trkpt>
      <trkpt lat="46.61076" lon="0.48358">
        <ele>181.94</ele>
        <time>2019-02-24T09:27:40.000Z</time>
      </trkpt>
      <trkpt lat="46.61069" lon="0.48343">
        <ele>182.18</ele>
        <time>2019-02-24T09:27:42.000Z</time>
      </trkpt>
      <trkpt lat="46.61065" lon="0.48325">
        <ele>181.16</ele>
        <time>2019-02-24T09:27:44.000Z</time>
      </trkpt>
      <trkpt lat="46.61062" lon="0.48311">
        <ele>181.04</ele>
        <time>2019-02-24T09:27:46.000Z</time>
      </trkpt>
      <trkpt lat="46.61058" lon="0.48292">
        <ele>179.07</ele>
        <time>2019-02-24T09:27:49.000Z</time>
      </trkpt>
      <trkpt lat="46.61054" lon="0.48275">
        <ele>176.76</ele>
        <time>2019-02-24T09:27:51.000Z</time>
      </trkpt>
      <trkpt lat="46.6105" lon="0.48257">
        <ele>175.58</ele>
        <time>2019-02-24T09:27:53.000Z</time>
      </trkpt>
      <trkpt lat="46.61046" lon="0.48244">
        <ele>174.11</ele>
        <time>2019-02-24T09:27:55.000Z</time>
      </trkpt>
      <trkpt lat="46.61041" lon="0.48229">
        <ele>173.83</ele>
        <time>2019-02-24T09:27:57.000Z</time>
      </trkpt>
      <trkpt lat="46.61038" lon="0.48216">
        <ele>173.88</ele>
        <time>2019-02-24T09:27:59.000Z</time>
      </trkpt>
      <trkpt lat="46.61033" lon="0.48203">
        <ele>175.04</ele>
        <time>2019-02-24T09:28:01.000Z</time>
      </trkpt>
      <trkpt lat="46.61025" lon="0.48188">
        <ele>175.86</ele>
        <time>2019-02-24T09:28:04.000Z</time>
      </trkpt>
      <trkpt lat="46.61018" lon="0.48172">
        <ele>176.96</ele>
        <time>2019-02-24T09:28:07.000Z</time>
      </trkpt>
      <trkpt lat="46.61011" lon="0.48163">
        <ele>178.07</ele>
        <time>2019-02-24T09:28:09.000Z</time>
      </trkpt>
      <trkpt lat="46.61004" lon="0.48153">
        <ele>178.25</ele>
        <time>2019-02-24T09:28:11.000Z</time>
      </trkpt>
      <trkpt lat="46.60997" lon="0.4814">
        <ele>178.69</ele>
        <time>2019-02-24T09:28:14.000Z</time>
      </trkpt>
      <trkpt lat="46.60991" lon="0.48127">
        <ele>180.96</ele>
        <time>2019-02-24T09:28:16.000Z</time>
      </trkpt>
      <trkpt lat="46.60986" lon="0.4811">
        <ele>181.4</ele>
        <time>2019-02-24T09:28:18.000Z</time>
      </trkpt>
      <trkpt lat="46.60984" lon="0.48096">
        <ele>179.99</ele>
        <time>2019-02-24T09:28:20.000Z</time>
      </trkpt>
      <trkpt lat="46.60984" lon="0.48082">
        <ele>179.8</ele>
        <time>2019-02-24T09:28:22.000Z</time>
      </trkpt>
      <trkpt lat="46.60979" lon="0.48067">
        <ele>178.79</ele>
        <time>2019-02-24T09:28:24.000Z</time>
      </trkpt>
      <trkpt lat="46.60974" lon="0.48049">
        <ele>177.96</ele>
        <time>2019-02-24T09:28:27.000Z</time>
      </trkpt>
      <trkpt lat="46.6097" lon="0.48037">
        <ele>177.54</ele>
        <time>2019-02-24T09:28:29.000Z</time>
      </trkpt>
      <trkpt lat="46.60965" lon="0.48023">
        <ele>177.28</ele>
        <time>2019-02-24T09:28:31.000Z</time>
      </trkpt>
      <trkpt lat="46.60963" lon="0.4801">
        <ele>176.62</ele>
        <time>2019-02-24T09:28:33.000Z</time>
      </trkpt>
      <trkpt lat="46.60957" lon="0.47992">
        <ele>176.45</ele>
        <time>2019-02-24T09:28:36.000Z</time>
      </trkpt>
      <trkpt lat="46.60953" lon="0.4798">
        <ele>176.54</ele>
        <time>2019-02-24T09:28:38.000Z</time>
      </trkpt>
      <trkpt lat="46.60946" lon="0.47962">
        <ele>176.76</ele>
        <time>2019-02-24T09:28:41.000Z</time>
      </trkpt>
      <trkpt lat="46.6094" lon="0.47946">
        <ele>176.99</ele>
        <time>2019-02-24T09:28:44.000Z</time>
      </trkpt>
      <trkpt lat="46.60935" lon="0.47929">
        <ele>177.19</ele>
        <time>2019-02-24T09:28:47.000Z</time>
      </trkpt>
      <trkpt lat="46.60931" lon="0.47913">
        <ele>177.42</ele>
        <time>2019-02-24T09:28:49.000Z</time>
      </trkpt>
      <trkpt lat="46.60925" lon="0.47902">
        <ele>177.72</ele>
        <time>2019-02-24T09:28:51.000Z</time>
      </trkpt>
      <trkpt lat="46.60917" lon="0.47888">
        <ele>179.59</ele>
        <time>2019-02-24T09:28:54.000Z</time>
      </trkpt>
      <trkpt lat="46.60906" lon="0.47877">
        <ele>181.84</ele>
        <time>2019-02-24T09:28:57.000Z</time>
      </trkpt>
      <trkpt lat="46.60893" lon="0.47866">
        <ele>184.07</ele>
        <time>2019-02-24T09:29:00.000Z</time>
      </trkpt>
      <trkpt lat="46.60882" lon="0.4786">
        <ele>184.36</ele>
        <time>2019-02-24T09:29:02.000Z</time>
      </trkpt>
      <trkpt lat="46.60871" lon="0.47856">
        <ele>184.72</ele>
        <time>2019-02-24T09:29:04.000Z</time>
      </trkpt>
      <trkpt lat="46.6086" lon="0.4785">
        <ele>184.97</ele>
        <time>2019-02-24T09:29:06.000Z</time>
      </trkpt>
      <trkpt lat="46.60851" lon="0.47844">
        <ele>185.13</ele>
        <time>2019-02-24T09:29:08.000Z</time>
      </trkpt>
      <trkpt lat="46.60842" lon="0.47839">
        <ele>185.05</ele>
        <time>2019-02-24T09:29:10.000Z</time>
      </trkpt>
      <trkpt lat="46.60832" lon="0.4783">
        <ele>184.13</ele>
        <time>2019-02-24T09:29:12.000Z</time>
      </trkpt>
      <trkpt lat="46.6082" lon="0.4782">
        <ele>185.22</ele>
        <time>2019-02-24T09:29:14.000Z</time>
      </trkpt>
      <trkpt lat="46.60809" lon="0.47807">
        <ele>187.97</ele>
        <time>2019-02-24T09:29:16.000Z</time>
      </trkpt>
      <trkpt lat="46.60801" lon="0.47799">
        <ele>189.66</ele>
        <time>2019-02-24T09:29:18.000Z</time>
      </trkpt>
      <trkpt lat="46.6079" lon="0.47787">
        <ele>192.5</ele>
        <time>2019-02-24T09:29:21.000Z</time>
      </trkpt>
      <trkpt lat="46.60781" lon="0.47776">
        <ele>192.59</ele>
        <time>2019-02-24T09:29:24.000Z</time>
      </trkpt>
      <trkpt lat="46.60774" lon="0.47766">
        <ele>192.34</ele>
        <time>2019-02-24T09:29:27.000Z</time>
      </trkpt>
      <trkpt lat="46.60775" lon="0.47748">
        <ele>191.87</ele>
        <time>2019-02-24T09:29:31.000Z</time>
      </trkpt>
      <trkpt lat="46.60779" lon="0.47735">
        <ele>191.55</ele>
        <time>2019-02-24T09:29:34.000Z</time>
      </trkpt>
      <trkpt lat="46.60784" lon="0.47721">
        <ele>191.21</ele>
        <time>2019-02-24T09:29:37.000Z</time>
      </trkpt>
      <trkpt lat="46.60795" lon="0.47717">
        <ele>191.32</ele>
        <time>2019-02-24T09:29:44.000Z</time>
      </trkpt>
      <trkpt lat="46.60805" lon="0.47722">
        <ele>191.13</ele>
        <time>2019-02-24T09:29:46.000Z</time>
      </trkpt>
      <trkpt lat="46.60818" lon="0.47728">
        <ele>190.91</ele>
        <time>2019-02-24T09:29:49.000Z</time>
      </trkpt>
      <trkpt lat="46.6083" lon="0.47738">
        <ele>190.29</ele>
        <time>2019-02-24T09:29:52.000Z</time>
      </trkpt>
      <trkpt lat="46.60843" lon="0.47751">
        <ele>190.28</ele>
        <time>2019-02-24T09:29:54.000Z</time>
      </trkpt>
      <trkpt lat="46.60853" lon="0.47759">
        <ele>190.56</ele>
        <time>2019-02-24T09:29:56.000Z</time>
      </trkpt>
      <trkpt lat="46.60861" lon="0.47765">
        <ele>191.27</ele>
        <time>2019-02-24T09:29:58.000Z</time>
      </trkpt>
      <trkpt lat="46.60869" lon="0.47771">
        <ele>191.38</ele>
        <time>2019-02-24T09:30:00.000Z</time>
      </trkpt>
      <trkpt lat="46.60877" lon="0.47782">
        <ele>193.55</ele>
        <time>2019-02-24T09:30:02.000Z</time>
      </trkpt>
      <trkpt lat="46.60888" lon="0.47787">
        <ele>195.85</ele>
        <time>2019-02-24T09:30:04.000Z</time>
      </trkpt>
      <trkpt lat="46.60899" lon="0.47794">
        <ele>197.49</ele>
        <time>2019-02-24T09:30:06.000Z</time>
      </trkpt>
      <trkpt lat="46.60908" lon="0.478">
        <ele>198.3</ele>
        <time>2019-02-24T09:30:08.000Z</time>
      </trkpt>
      <trkpt lat="46.60918" lon="0.47806">
        <ele>198.52</ele>
        <time>2019-02-24T09:30:10.000Z</time>
      </trkpt>
      <trkpt lat="46.60931" lon="0.47815">
        <ele>198.08</ele>
        <time>2019-02-24T09:30:13.000Z</time>
      </trkpt>
      <trkpt lat="46.6094" lon="0.47822">
        <ele>197.72</ele>
        <time>2019-02-24T09:30:15.000Z</time>
      </trkpt>
      <trkpt lat="46.60949" lon="0.47831">
        <ele>198.48</ele>
        <time>2019-02-24T09:30:17.000Z</time>
      </trkpt>
      <trkpt lat="46.60959" lon="0.47839">
        <ele>198.61</ele>
        <time>2019-02-24T09:30:20.000Z</time>
      </trkpt>
      <trkpt lat="46.60967" lon="0.47847">
        <ele>198.69</ele>
        <time>2019-02-24T09:30:22.000Z</time>
      </trkpt>
      <trkpt lat="46.60978" lon="0.47854">
        <ele>199.15</ele>
        <time>2019-02-24T09:30:25.000Z</time>
      </trkpt>
      <trkpt lat="46.6099" lon="0.47864">
        <ele>199.26</ele>
        <time>2019-02-24T09:30:28.000Z</time>
      </trkpt>
      <trkpt lat="46.61004" lon="0.47864">
        <ele>199.29</ele>
        <time>2019-02-24T09:30:30.000Z</time>
      </trkpt>
      <trkpt lat="46.61015" lon="0.47854">
        <ele>197.99</ele>
        <time>2019-02-24T09:30:32.000Z</time>
      </trkpt>
      <trkpt lat="46.61023" lon="0.4784">
        <ele>195.3</ele>
        <time>2019-02-24T09:30:34.000Z</time>
      </trkpt>
      <trkpt lat="46.61028" lon="0.47824">
        <ele>192.69</ele>
        <time>2019-02-24T09:30:36.000Z</time>
      </trkpt>
      <trkpt lat="46.61032" lon="0.47809">
        <ele>190.45</ele>
        <time>2019-02-24T09:30:38.000Z</time>
      </trkpt>
      <trkpt lat="46.61039" lon="0.47794">
        <ele>189.09</ele>
        <time>2019-02-24T09:30:41.000Z</time>
      </trkpt>
      <trkpt lat="46.61045" lon="0.47781">
        <ele>189.11</ele>
        <time>2019-02-24T09:30:44.000Z</time>
      </trkpt>
      <trkpt lat="46.6105" lon="0.47767">
        <ele>189.34</ele>
        <time>2019-02-24T09:30:47.000Z</time>
      </trkpt>
      <trkpt lat="46.61055" lon="0.47751">
        <ele>189.59</ele>
        <time>2019-02-24T09:30:50.000Z</time>
      </trkpt>
      <trkpt lat="46.61058" lon="0.47738">
        <ele>190.38</ele>
        <time>2019-02-24T09:30:52.000Z</time>
      </trkpt>
      <trkpt lat="46.61063" lon="0.47725">
        <ele>190.62</ele>
        <time>2019-02-24T09:30:55.000Z</time>
      </trkpt>
      <trkpt lat="46.61068" lon="0.47708">
        <ele>190.88</ele>
        <time>2019-02-24T09:30:58.000Z</time>
      </trkpt>
      <trkpt lat="46.61073" lon="0.47692">
        <ele>191.17</ele>
        <time>2019-02-24T09:31:01.000Z</time>
      </trkpt>
      <trkpt lat="46.61078" lon="0.47675">
        <ele>191.31</ele>
        <time>2019-02-24T09:31:04.000Z</time>
      </trkpt>
      <trkpt lat="46.61084" lon="0.4766">
        <ele>191.49</ele>
        <time>2019-02-24T09:31:07.000Z</time>
      </trkpt>
      <trkpt lat="46.61089" lon="0.47647">
        <ele>191.64</ele>
        <time>2019-02-24T09:31:09.000Z</time>
      </trkpt>
      <trkpt lat="46.61094" lon="0.4763">
        <ele>191.98</ele>
        <time>2019-02-24T09:31:11.000Z</time>
      </trkpt>
      <trkpt lat="46.611" lon="0.47613">
        <ele>191.88</ele>
        <time>2019-02-24T09:31:14.000Z</time>
      </trkpt>
      <trkpt lat="46.61105" lon="0.47597">
        <ele>191.83</ele>
        <time>2019-02-24T09:31:17.000Z</time>
      </trkpt>
      <trkpt lat="46.61111" lon="0.47584">
        <ele>191.8</ele>
        <time>2019-02-24T09:31:19.000Z</time>
      </trkpt>
      <trkpt lat="46.61116" lon="0.47572">
        <ele>191.68</ele>
        <time>2019-02-24T09:31:21.000Z</time>
      </trkpt>
      <trkpt lat="46.61124" lon="0.47554">
        <ele>191.6</ele>
        <time>2019-02-24T09:31:24.000Z</time>
      </trkpt>
      <trkpt lat="46.6113" lon="0.47541">
        <ele>191.56</ele>
        <time>2019-02-24T09:31:26.000Z</time>
      </trkpt>
      <trkpt lat="46.61134" lon="0.47528">
        <ele>191.36</ele>
        <time>2019-02-24T09:31:28.000Z</time>
      </trkpt>
      <trkpt lat="46.61138" lon="0.47514">
        <ele>191.41</ele>
        <time>2019-02-24T09:31:31.000Z</time>
      </trkpt>
      <trkpt lat="46.61142" lon="0.47501">
        <ele>191.63</ele>
        <time>2019-02-24T09:31:34.000Z</time>
      </trkpt>
      <trkpt lat="46.61149" lon="0.47487">
        <ele>192.01</ele>
        <time>2019-02-24T09:31:37.000Z</time>
      </trkpt>
      <trkpt lat="46.61153" lon="0.47474">
        <ele>192.23</ele>
        <time>2019-02-24T09:31:39.000Z</time>
      </trkpt>
      <trkpt lat="46.61158" lon="0.47458">
        <ele>192.53</ele>
        <time>2019-02-24T09:31:42.000Z</time>
      </trkpt>
      <trkpt lat="46.61165" lon="0.47447">
        <ele>192.6</ele>
        <time>2019-02-24T09:31:45.000Z</time>
      </trkpt>
      <trkpt lat="46.61172" lon="0.47455">
        <ele>192.69</ele>
        <time>2019-02-24T09:31:48.000Z</time>
      </trkpt>
      <trkpt lat="46.61182" lon="0.47454">
        <ele>192.54</ele>
        <time>2019-02-24T09:31:51.000Z</time>
      </trkpt>
      <trkpt lat="46.61191" lon="0.4746">
        <ele>192.33</ele>
        <time>2019-02-24T09:31:53.000Z</time>
      </trkpt>
      <trkpt lat="46.612" lon="0.47467">
        <ele>191.6</ele>
        <time>2019-02-24T09:31:55.000Z</time>
      </trkpt>
      <trkpt lat="46.61211" lon="0.47469">
        <ele>191.59</ele>
        <time>2019-02-24T09:31:57.000Z</time>
      </trkpt>
      <trkpt lat="46.61223" lon="0.47465">
        <ele>191.66</ele>
        <time>2019-02-24T09:32:00.000Z</time>
      </trkpt>
      <trkpt lat="46.6123" lon="0.47455">
        <ele>191.89</ele>
        <time>2019-02-24T09:32:03.000Z</time>
      </trkpt>
      <trkpt lat="46.61237" lon="0.47439">
        <ele>192.11</ele>
        <time>2019-02-24T09:32:06.000Z</time>
      </trkpt>
      <trkpt lat="46.61245" lon="0.47422">
        <ele>194.25</ele>
        <time>2019-02-24T09:32:09.000Z</time>
      </trkpt>
      <trkpt lat="46.61251" lon="0.47405">
        <ele>195.08</ele>
        <time>2019-02-24T09:32:11.000Z</time>
      </trkpt>
      <trkpt lat="46.61257" lon="0.47386">
        <ele>195.1</ele>
        <time>2019-02-24T09:32:13.000Z</time>
      </trkpt>
      <trkpt lat="46.61262" lon="0.47371">
        <ele>194.1</ele>
        <time>2019-02-24T09:32:15.000Z</time>
      </trkpt>
      <trkpt lat="46.61268" lon="0.47351">
        <ele>192.76</ele>
        <time>2019-02-24T09:32:17.000Z</time>
      </trkpt>
      <trkpt lat="46.61272" lon="0.4733">
        <ele>190.47</ele>
        <time>2019-02-24T09:32:19.000Z</time>
      </trkpt>
      <trkpt lat="46.61277" lon="0.47316">
        <ele>188.08</ele>
        <time>2019-02-24T09:32:21.000Z</time>
      </trkpt>
      <trkpt lat="46.61281" lon="0.47301">
        <ele>185.94</ele>
        <time>2019-02-24T09:32:23.000Z</time>
      </trkpt>
      <trkpt lat="46.61286" lon="0.47287">
        <ele>183.82</ele>
        <time>2019-02-24T09:32:25.000Z</time>
      </trkpt>
      <trkpt lat="46.6129" lon="0.47276">
        <ele>182.83</ele>
        <time>2019-02-24T09:32:27.000Z</time>
      </trkpt>
      <trkpt lat="46.61295" lon="0.47264">
        <ele>181.9</ele>
        <time>2019-02-24T09:32:29.000Z</time>
      </trkpt>
      <trkpt lat="46.61301" lon="0.47251">
        <ele>180.59</ele>
        <time>2019-02-24T09:32:31.000Z</time>
      </trkpt>
      <trkpt lat="46.61305" lon="0.47238">
        <ele>179.85</ele>
        <time>2019-02-24T09:32:33.000Z</time>
      </trkpt>
      <trkpt lat="46.61313" lon="0.47224">
        <ele>179.93</ele>
        <time>2019-02-24T09:32:36.000Z</time>
      </trkpt>
      <trkpt lat="46.61319" lon="0.4721">
        <ele>181</ele>
        <time>2019-02-24T09:32:38.000Z</time>
      </trkpt>
      <trkpt lat="46.61324" lon="0.47197">
        <ele>181.14</ele>
        <time>2019-02-24T09:32:40.000Z</time>
      </trkpt>
      <trkpt lat="46.61326" lon="0.4718">
        <ele>182.23</ele>
        <time>2019-02-24T09:32:42.000Z</time>
      </trkpt>
      <trkpt lat="46.61332" lon="0.47163">
        <ele>182.71</ele>
        <time>2019-02-24T09:32:44.000Z</time>
      </trkpt>
      <trkpt lat="46.6134" lon="0.47142">
        <ele>182.65</ele>
        <time>2019-02-24T09:32:46.000Z</time>
      </trkpt>
      <trkpt lat="46.61345" lon="0.47124">
        <ele>181.81</ele>
        <time>2019-02-24T09:32:48.000Z</time>
      </trkpt>
      <trkpt lat="46.6135" lon="0.47109">
        <ele>180.69</ele>
        <time>2019-02-24T09:32:50.000Z</time>
      </trkpt>
      <trkpt lat="46.61354" lon="0.47097">
        <ele>180.19</ele>
        <time>2019-02-24T09:32:52.000Z</time>
      </trkpt>
      <trkpt lat="46.6136" lon="0.47083">
        <ele>180.01</ele>
        <time>2019-02-24T09:32:54.000Z</time>
      </trkpt>
      <trkpt lat="46.61364" lon="0.47072">
        <ele>179.64</ele>
        <time>2019-02-24T09:32:56.000Z</time>
      </trkpt>
      <trkpt lat="46.61369" lon="0.47058">
        <ele>178.92</ele>
        <time>2019-02-24T09:32:58.000Z</time>
      </trkpt>
      <trkpt lat="46.61374" lon="0.47047">
        <ele>178.31</ele>
        <time>2019-02-24T09:33:00.000Z</time>
      </trkpt>
      <trkpt lat="46.6138" lon="0.47031">
        <ele>177.66</ele>
        <time>2019-02-24T09:33:02.000Z</time>
      </trkpt>
      <trkpt lat="46.61386" lon="0.47015">
        <ele>177.15</ele>
        <time>2019-02-24T09:33:04.000Z</time>
      </trkpt>
      <trkpt lat="46.61392" lon="0.47">
        <ele>177.22</ele>
        <time>2019-02-24T09:33:07.000Z</time>
      </trkpt>
      <trkpt lat="46.614" lon="0.46986">
        <ele>177.42</ele>
        <time>2019-02-24T09:33:10.000Z</time>
      </trkpt>
      <trkpt lat="46.61404" lon="0.46971">
        <ele>177.52</ele>
        <time>2019-02-24T09:33:13.000Z</time>
      </trkpt>
      <trkpt lat="46.61405" lon="0.46956">
        <ele>177.58</ele>
        <time>2019-02-24T09:33:15.000Z</time>
      </trkpt>
      <trkpt lat="46.61406" lon="0.46941">
        <ele>177.62</ele>
        <time>2019-02-24T09:33:17.000Z</time>
      </trkpt>
      <trkpt lat="46.61408" lon="0.46927">
        <ele>177.7</ele>
        <time>2019-02-24T09:33:19.000Z</time>
      </trkpt>
      <trkpt lat="46.61411" lon="0.46913">
        <ele>177.87</ele>
        <time>2019-02-24T09:33:21.000Z</time>
      </trkpt>
      <trkpt lat="46.61412" lon="0.46898">
        <ele>177.98</ele>
        <time>2019-02-24T09:33:23.000Z</time>
      </trkpt>
      <trkpt lat="46.61415" lon="0.46882">
        <ele>178.1</ele>
        <time>2019-02-24T09:33:26.000Z</time>
      </trkpt>
      <trkpt lat="46.61416" lon="0.46865">
        <ele>178.11</ele>
        <time>2019-02-24T09:33:28.000Z</time>
      </trkpt>
      <trkpt lat="46.61417" lon="0.46847">
        <ele>177.97</ele>
        <time>2019-02-24T09:33:31.000Z</time>
      </trkpt>
      <trkpt lat="46.6142" lon="0.46833">
        <ele>177.92</ele>
        <time>2019-02-24T09:33:34.000Z</time>
      </trkpt>
      <trkpt lat="46.61424" lon="0.46819">
        <ele>177.96</ele>
        <time>2019-02-24T09:33:38.000Z</time>
      </trkpt>
      <trkpt lat="46.61425" lon="0.46806">
        <ele>178.17</ele>
        <time>2019-02-24T09:33:41.000Z</time>
      </trkpt>
      <trkpt lat="46.61425" lon="0.46787">
        <ele>178.45</ele>
        <time>2019-02-24T09:33:44.000Z</time>
      </trkpt>
      <trkpt lat="46.61425" lon="0.46773">
        <ele>178.69</ele>
        <time>2019-02-24T09:33:46.000Z</time>
      </trkpt>
      <trkpt lat="46.61427" lon="0.4676">
        <ele>178.96</ele>
        <time>2019-02-24T09:33:49.000Z</time>
      </trkpt>
      <trkpt lat="46.61428" lon="0.46741">
        <ele>179.12</ele>
        <time>2019-02-24T09:33:52.000Z</time>
      </trkpt>
      <trkpt lat="46.61427" lon="0.46727">
        <ele>179.33</ele>
        <time>2019-02-24T09:33:56.000Z</time>
      </trkpt>
      <trkpt lat="46.61429" lon="0.46711">
        <ele>179.62</ele>
        <time>2019-02-24T09:33:59.000Z</time>
      </trkpt>
      <trkpt lat="46.61428" lon="0.46698">
        <ele>179.79</ele>
        <time>2019-02-24T09:34:01.000Z</time>
      </trkpt>
      <trkpt lat="46.61429" lon="0.46683">
        <ele>180.04</ele>
        <time>2019-02-24T09:34:04.000Z</time>
      </trkpt>
      <trkpt lat="46.61429" lon="0.46668">
        <ele>180.3</ele>
        <time>2019-02-24T09:34:07.000Z</time>
      </trkpt>
      <trkpt lat="46.61427" lon="0.46652">
        <ele>180.67</ele>
        <time>2019-02-24T09:34:11.000Z</time>
      </trkpt>
      <trkpt lat="46.61427" lon="0.46637">
        <ele>180.98</ele>
        <time>2019-02-24T09:34:14.000Z</time>
      </trkpt>
      <trkpt lat="46.61426" lon="0.46619">
        <ele>181.23</ele>
        <time>2019-02-24T09:34:17.000Z</time>
      </trkpt>
      <trkpt lat="46.61425" lon="0.46604">
        <ele>181.44</ele>
        <time>2019-02-24T09:34:20.000Z</time>
      </trkpt>
      <trkpt lat="46.61424" lon="0.46586">
        <ele>181.58</ele>
        <time>2019-02-24T09:34:23.000Z</time>
      </trkpt>
      <trkpt lat="46.61424" lon="0.46572">
        <ele>181.56</ele>
        <time>2019-02-24T09:34:26.000Z</time>
      </trkpt>
      <trkpt lat="46.61423" lon="0.46557">
        <ele>181.54</ele>
        <time>2019-02-24T09:34:30.000Z</time>
      </trkpt>
      <trkpt lat="46.61422" lon="0.4654">
        <ele>181.82</ele>
        <time>2019-02-24T09:34:35.000Z</time>
      </trkpt>
      <trkpt lat="46.6142" lon="0.46526">
        <ele>182.12</ele>
        <time>2019-02-24T09:34:38.000Z</time>
      </trkpt>
      <trkpt lat="46.61419" lon="0.46513">
        <ele>182.31</ele>
        <time>2019-02-24T09:34:41.000Z</time>
      </trkpt>
      <trkpt lat="46.61418" lon="0.46499">
        <ele>182.67</ele>
        <time>2019-02-24T09:34:45.000Z</time>
      </trkpt>
      <trkpt lat="46.61417" lon="0.46481">
        <ele>182.94</ele>
        <time>2019-02-24T09:34:49.000Z</time>
      </trkpt>
      <trkpt lat="46.61415" lon="0.46463">
        <ele>183.17</ele>
        <time>2019-02-24T09:34:52.000Z</time>
      </trkpt>
      <trkpt lat="46.61412" lon="0.46448">
        <ele>183.51</ele>
        <time>2019-02-24T09:34:55.000Z</time>
      </trkpt>
      <trkpt lat="46.61408" lon="0.46434">
        <ele>183.97</ele>
        <time>2019-02-24T09:34:58.000Z</time>
      </trkpt>
      <trkpt lat="46.61404" lon="0.46418">
        <ele>184.51</ele>
        <time>2019-02-24T09:35:01.000Z</time>
      </trkpt>
      <trkpt lat="46.61401" lon="0.46405">
        <ele>185.01</ele>
        <time>2019-02-24T09:35:04.000Z</time>
      </trkpt>
      <trkpt lat="46.61398" lon="0.46385">
        <ele>185.36</ele>
        <time>2019-02-24T09:35:07.000Z</time>
      </trkpt>
      <trkpt lat="46.61396" lon="0.46371">
        <ele>185.49</ele>
        <time>2019-02-24T09:35:09.000Z</time>
      </trkpt>
      <trkpt lat="46.61392" lon="0.46354">
        <ele>185.55</ele>
        <time>2019-02-24T09:35:11.000Z</time>
      </trkpt>
      <trkpt lat="46.6139" lon="0.46339">
        <ele>185.65</ele>
        <time>2019-02-24T09:35:13.000Z</time>
      </trkpt>
      <trkpt lat="46.61387" lon="0.46326">
        <ele>185.82</ele>
        <time>2019-02-24T09:35:15.000Z</time>
      </trkpt>
      <trkpt lat="46.61387" lon="0.46309">
        <ele>186.03</ele>
        <time>2019-02-24T09:35:17.000Z</time>
      </trkpt>
      <trkpt lat="46.61387" lon="0.46294">
        <ele>186.36</ele>
        <time>2019-02-24T09:35:19.000Z</time>
      </trkpt>
      <trkpt lat="46.61379" lon="0.46278">
        <ele>187.83</ele>
        <time>2019-02-24T09:35:22.000Z</time>
      </trkpt>
      <trkpt lat="46.61375" lon="0.4626">
        <ele>189.61</ele>
        <time>2019-02-24T09:35:24.000Z</time>
      </trkpt>
      <trkpt lat="46.61372" lon="0.4624">
        <ele>190.29</ele>
        <time>2019-02-24T09:35:26.000Z</time>
      </trkpt>
      <trkpt lat="46.61366" lon="0.46228">
        <ele>190.4</ele>
        <time>2019-02-24T09:35:28.000Z</time>
      </trkpt>
      <trkpt lat="46.61361" lon="0.46212">
        <ele>191.54</ele>
        <time>2019-02-24T09:35:30.000Z</time>
      </trkpt>
      <trkpt lat="46.61353" lon="0.462">
        <ele>194.67</ele>
        <time>2019-02-24T09:35:32.000Z</time>
      </trkpt>
      <trkpt lat="46.61344" lon="0.46184">
        <ele>197.9</ele>
        <time>2019-02-24T09:35:34.000Z</time>
      </trkpt>
      <trkpt lat="46.61339" lon="0.4617">
        <ele>199.11</ele>
        <time>2019-02-24T09:35:36.000Z</time>
      </trkpt>
      <trkpt lat="46.61336" lon="0.46156">
        <ele>199.89</ele>
        <time>2019-02-24T09:35:38.000Z</time>
      </trkpt>
      <trkpt lat="46.61331" lon="0.46138">
        <ele>199.6</ele>
        <time>2019-02-24T09:35:40.000Z</time>
      </trkpt>
      <trkpt lat="46.61326" lon="0.46125">
        <ele>199.74</ele>
        <time>2019-02-24T09:35:42.000Z</time>
      </trkpt>
      <trkpt lat="46.6132" lon="0.46108">
        <ele>199.34</ele>
        <time>2019-02-24T09:35:44.000Z</time>
      </trkpt>
      <trkpt lat="46.61313" lon="0.46096">
        <ele>198.4</ele>
        <time>2019-02-24T09:35:46.000Z</time>
      </trkpt>
      <trkpt lat="46.61306" lon="0.46079">
        <ele>196.44</ele>
        <time>2019-02-24T09:35:48.000Z</time>
      </trkpt>
      <trkpt lat="46.61298" lon="0.46069">
        <ele>195.41</ele>
        <time>2019-02-24T09:35:50.000Z</time>
      </trkpt>
      <trkpt lat="46.61293" lon="0.46052">
        <ele>195.15</ele>
        <time>2019-02-24T09:35:52.000Z</time>
      </trkpt>
      <trkpt lat="46.61289" lon="0.46034">
        <ele>194.99</ele>
        <time>2019-02-24T09:35:54.000Z</time>
      </trkpt>
      <trkpt lat="46.6128" lon="0.46012">
        <ele>192.18</ele>
        <time>2019-02-24T09:35:56.000Z</time>
      </trkpt>
      <trkpt lat="46.61276" lon="0.45997">
        <ele>189.47</ele>
        <time>2019-02-24T09:35:58.000Z</time>
      </trkpt>
      <trkpt lat="46.61269" lon="0.45982">
        <ele>187.24</ele>
        <time>2019-02-24T09:36:00.000Z</time>
      </trkpt>
      <trkpt lat="46.61261" lon="0.45969">
        <ele>185.59</ele>
        <time>2019-02-24T09:36:02.000Z</time>
      </trkpt>
      <trkpt lat="46.61255" lon="0.45956">
        <ele>184.75</ele>
        <time>2019-02-24T09:36:04.000Z</time>
      </trkpt>
      <trkpt lat="46.61248" lon="0.45944">
        <ele>182.71</ele>
        <time>2019-02-24T09:36:06.000Z</time>
      </trkpt>
      <trkpt lat="46.61245" lon="0.45927">
        <ele>182.36</ele>
        <time>2019-02-24T09:36:09.000Z</time>
      </trkpt>
      <trkpt lat="46.61242" lon="0.45914">
        <ele>182.18</ele>
        <time>2019-02-24T09:36:11.000Z</time>
      </trkpt>
      <trkpt lat="46.61239" lon="0.45901">
        <ele>181.89</ele>
        <time>2019-02-24T09:36:13.000Z</time>
      </trkpt>
      <trkpt lat="46.61234" lon="0.45889">
        <ele>181.94</ele>
        <time>2019-02-24T09:36:15.000Z</time>
      </trkpt>
      <trkpt lat="46.6123" lon="0.45875">
        <ele>182.25</ele>
        <time>2019-02-24T09:36:17.000Z</time>
      </trkpt>
      <trkpt lat="46.61225" lon="0.45858">
        <ele>183.02</ele>
        <time>2019-02-24T09:36:19.000Z</time>
      </trkpt>
      <trkpt lat="46.61218" lon="0.45842">
        <ele>183.92</ele>
        <time>2019-02-24T09:36:21.000Z</time>
      </trkpt>
      <trkpt lat="46.61211" lon="0.45826">
        <ele>185.1</ele>
        <time>2019-02-24T09:36:23.000Z</time>
      </trkpt>
      <trkpt lat="46.61206" lon="0.45811">
        <ele>186.15</ele>
        <time>2019-02-24T09:36:25.000Z</time>
      </trkpt>
      <trkpt lat="46.61201" lon="0.45797">
        <ele>187.14</ele>
        <time>2019-02-24T09:36:27.000Z</time>
      </trkpt>
      <trkpt lat="46.61193" lon="0.45781">
        <ele>187.05</ele>
        <time>2019-02-24T09:36:29.000Z</time>
      </trkpt>
      <trkpt lat="46.61184" lon="0.45765">
        <ele>186.2</ele>
        <time>2019-02-24T09:36:31.000Z</time>
      </trkpt>
      <trkpt lat="46.61176" lon="0.45749">
        <ele>186.21</ele>
        <time>2019-02-24T09:36:33.000Z</time>
      </trkpt>
      <trkpt lat="46.61168" lon="0.45731">
        <ele>185.69</ele>
        <time>2019-02-24T09:36:35.000Z</time>
      </trkpt>
      <trkpt lat="46.61159" lon="0.45716">
        <ele>185.15</ele>
        <time>2019-02-24T09:36:37.000Z</time>
      </trkpt>
      <trkpt lat="46.61153" lon="0.45699">
        <ele>184.25</ele>
        <time>2019-02-24T09:36:39.000Z</time>
      </trkpt>
      <trkpt lat="46.61147" lon="0.45684">
        <ele>183.38</ele>
        <time>2019-02-24T09:36:41.000Z</time>
      </trkpt>
      <trkpt lat="46.61141" lon="0.4567">
        <ele>182.66</ele>
        <time>2019-02-24T09:36:43.000Z</time>
      </trkpt>
      <trkpt lat="46.61135" lon="0.45656">
        <ele>181.83</ele>
        <time>2019-02-24T09:36:45.000Z</time>
      </trkpt>
      <trkpt lat="46.6113" lon="0.45642">
        <ele>180.93</ele>
        <time>2019-02-24T09:36:47.000Z</time>
      </trkpt>
      <trkpt lat="46.61124" lon="0.4563">
        <ele>180.22</ele>
        <time>2019-02-24T09:36:49.000Z</time>
      </trkpt>
      <trkpt lat="46.61118" lon="0.45619">
        <ele>179.62</ele>
        <time>2019-02-24T09:36:51.000Z</time>
      </trkpt>
      <trkpt lat="46.61112" lon="0.45608">
        <ele>179</ele>
        <time>2019-02-24T09:36:53.000Z</time>
      </trkpt>
      <trkpt lat="46.61103" lon="0.45594">
        <ele>178.56</ele>
        <time>2019-02-24T09:36:56.000Z</time>
      </trkpt>
      <trkpt lat="46.61097" lon="0.45584">
        <ele>177.76</ele>
        <time>2019-02-24T09:36:58.000Z</time>
      </trkpt>
      <trkpt lat="46.6109" lon="0.45568">
        <ele>176.46</ele>
        <time>2019-02-24T09:37:01.000Z</time>
      </trkpt>
      <trkpt lat="46.61084" lon="0.45553">
        <ele>175.77</ele>
        <time>2019-02-24T09:37:04.000Z</time>
      </trkpt>
      <trkpt lat="46.61077" lon="0.45537">
        <ele>175.36</ele>
        <time>2019-02-24T09:37:07.000Z</time>
      </trkpt>
      <trkpt lat="46.61071" lon="0.45522">
        <ele>174.13</ele>
        <time>2019-02-24T09:37:10.000Z</time>
      </trkpt>
      <trkpt lat="46.61065" lon="0.45507">
        <ele>173.47</ele>
        <time>2019-02-24T09:37:13.000Z</time>
      </trkpt>
      <trkpt lat="46.61058" lon="0.45493">
        <ele>173.3</ele>
        <time>2019-02-24T09:37:16.000Z</time>
      </trkpt>
      <trkpt lat="46.61052" lon="0.45478">
        <ele>172.79</ele>
        <time>2019-02-24T09:37:19.000Z</time>
      </trkpt>
      <trkpt lat="46.61045" lon="0.45465">
        <ele>172.77</ele>
        <time>2019-02-24T09:37:22.000Z</time>
      </trkpt>
      <trkpt lat="46.61039" lon="0.45453">
        <ele>172.77</ele>
        <time>2019-02-24T09:37:25.000Z</time>
      </trkpt>
      <trkpt lat="46.61032" lon="0.4544">
        <ele>172.68</ele>
        <time>2019-02-24T09:37:28.000Z</time>
      </trkpt>
      <trkpt lat="46.61025" lon="0.45428">
        <ele>172.78</ele>
        <time>2019-02-24T09:37:31.000Z</time>
      </trkpt>
      <trkpt lat="46.61017" lon="0.45418">
        <ele>172.82</ele>
        <time>2019-02-24T09:37:34.000Z</time>
      </trkpt>
      <trkpt lat="46.61009" lon="0.4541">
        <ele>172.82</ele>
        <time>2019-02-24T09:37:37.000Z</time>
      </trkpt>
      <trkpt lat="46.60999" lon="0.45404">
        <ele>172.77</ele>
        <time>2019-02-24T09:37:40.000Z</time>
      </trkpt>
      <trkpt lat="46.6099" lon="0.45399">
        <ele>172.71</ele>
        <time>2019-02-24T09:37:43.000Z</time>
      </trkpt>
      <trkpt lat="46.6098" lon="0.45394">
        <ele>172.67</ele>
        <time>2019-02-24T09:37:46.000Z</time>
      </trkpt>
      <trkpt lat="46.6097" lon="0.4539">
        <ele>172.65</ele>
        <time>2019-02-24T09:37:49.000Z</time>
      </trkpt>
      <trkpt lat="46.6096" lon="0.45384">
        <ele>172.72</ele>
        <time>2019-02-24T09:37:53.000Z</time>
      </trkpt>
      <trkpt lat="46.60951" lon="0.4538">
        <ele>172.85</ele>
        <time>2019-02-24T09:37:56.000Z</time>
      </trkpt>
      <trkpt lat="46.60943" lon="0.45375">
        <ele>173.01</ele>
        <time>2019-02-24T09:37:59.000Z</time>
      </trkpt>
      <trkpt lat="46.60933" lon="0.45371">
        <ele>173.19</ele>
        <time>2019-02-24T09:38:02.000Z</time>
      </trkpt>
      <trkpt lat="46.60924" lon="0.45366">
        <ele>173.38</ele>
        <time>2019-02-24T09:38:05.000Z</time>
      </trkpt>
      <trkpt lat="46.60914" lon="0.45362">
        <ele>173.6</ele>
        <time>2019-02-24T09:38:08.000Z</time>
      </trkpt>
      <trkpt lat="46.60904" lon="0.45356">
        <ele>173.81</ele>
        <time>2019-02-24T09:38:11.000Z</time>
      </trkpt>
      <trkpt lat="46.60895" lon="0.45352">
        <ele>173.95</ele>
        <time>2019-02-24T09:38:14.000Z</time>
      </trkpt>
      <trkpt lat="46.60886" lon="0.45347">
        <ele>174.07</ele>
        <time>2019-02-24T09:38:17.000Z</time>
      </trkpt>
      <trkpt lat="46.60875" lon="0.45343">
        <ele>174.14</ele>
        <time>2019-02-24T09:38:20.000Z</time>
      </trkpt>
      <trkpt lat="46.60865" lon="0.45337">
        <ele>174.15</ele>
        <time>2019-02-24T09:38:23.000Z</time>
      </trkpt>
      <trkpt lat="46.60856" lon="0.45333">
        <ele>174.15</ele>
        <time>2019-02-24T09:38:26.000Z</time>
      </trkpt>
      <trkpt lat="46.60846" lon="0.45329">
        <ele>174.27</ele>
        <time>2019-02-24T09:38:29.000Z</time>
      </trkpt>
      <trkpt lat="46.60835" lon="0.45322">
        <ele>174.55</ele>
        <time>2019-02-24T09:38:33.000Z</time>
      </trkpt>
      <trkpt lat="46.60828" lon="0.45313">
        <ele>174.83</ele>
        <time>2019-02-24T09:38:37.000Z</time>
      </trkpt>
      <trkpt lat="46.60818" lon="0.45306">
        <ele>175.18</ele>
        <time>2019-02-24T09:38:40.000Z</time>
      </trkpt>
      <trkpt lat="46.60808" lon="0.45298">
        <ele>176.51</ele>
        <time>2019-02-24T09:38:43.000Z</time>
      </trkpt>
      <trkpt lat="46.60799" lon="0.45294">
        <ele>178.38</ele>
        <time>2019-02-24T09:38:45.000Z</time>
      </trkpt>
      <trkpt lat="46.60789" lon="0.45288">
        <ele>178.66</ele>
        <time>2019-02-24T09:38:48.000Z</time>
      </trkpt>
      <trkpt lat="46.60779" lon="0.45279">
        <ele>178.91</ele>
        <time>2019-02-24T09:38:51.000Z</time>
      </trkpt>
      <trkpt lat="46.60769" lon="0.45271">
        <ele>180.01</ele>
        <time>2019-02-24T09:38:54.000Z</time>
      </trkpt>
      <trkpt lat="46.60761" lon="0.45261">
        <ele>180.25</ele>
        <time>2019-02-24T09:38:57.000Z</time>
      </trkpt>
      <trkpt lat="46.60751" lon="0.45254">
        <ele>180.57</ele>
        <time>2019-02-24T09:39:00.000Z</time>
      </trkpt>
      <trkpt lat="46.60743" lon="0.45247">
        <ele>181.71</ele>
        <time>2019-02-24T09:39:02.000Z</time>
      </trkpt>
      <trkpt lat="46.60735" lon="0.45241">
        <ele>182.86</ele>
        <time>2019-02-24T09:39:04.000Z</time>
      </trkpt>
      <trkpt lat="46.60724" lon="0.45234">
        <ele>183.62</ele>
        <time>2019-02-24T09:39:07.000Z</time>
      </trkpt>
      <trkpt lat="46.60716" lon="0.45226">
        <ele>183.5</ele>
        <time>2019-02-24T09:39:09.000Z</time>
      </trkpt>
      <trkpt lat="46.60704" lon="0.45215">
        <ele>182.63</ele>
        <time>2019-02-24T09:39:12.000Z</time>
      </trkpt>
      <trkpt lat="46.60697" lon="0.45207">
        <ele>182.06</ele>
        <time>2019-02-24T09:39:14.000Z</time>
      </trkpt>
      <trkpt lat="46.60692" lon="0.45195">
        <ele>182.12</ele>
        <time>2019-02-24T09:39:16.000Z</time>
      </trkpt>
      <trkpt lat="46.6069" lon="0.45179">
        <ele>181.72</ele>
        <time>2019-02-24T09:39:18.000Z</time>
      </trkpt>
      <trkpt lat="46.60686" lon="0.45165">
        <ele>181.06</ele>
        <time>2019-02-24T09:39:20.000Z</time>
      </trkpt>
      <trkpt lat="46.60684" lon="0.45151">
        <ele>180.5</ele>
        <time>2019-02-24T09:39:22.000Z</time>
      </trkpt>
      <trkpt lat="46.6068" lon="0.45135">
        <ele>179.61</ele>
        <time>2019-02-24T09:39:24.000Z</time>
      </trkpt>
      <trkpt lat="46.60674" lon="0.45121">
        <ele>178.68</ele>
        <time>2019-02-24T09:39:26.000Z</time>
      </trkpt>
      <trkpt lat="46.60669" lon="0.45103">
        <ele>178.23</ele>
        <time>2019-02-24T09:39:29.000Z</time>
      </trkpt>
      <trkpt lat="46.60664" lon="0.45085">
        <ele>178.03</ele>
        <time>2019-02-24T09:39:32.000Z</time>
      </trkpt>
      <trkpt lat="46.60656" lon="0.45071">
        <ele>178.19</ele>
        <time>2019-02-24T09:39:35.000Z</time>
      </trkpt>
      <trkpt lat="46.60648" lon="0.45062">
        <ele>178.19</ele>
        <time>2019-02-24T09:39:37.000Z</time>
      </trkpt>
      <trkpt lat="46.60638" lon="0.45054">
        <ele>177.81</ele>
        <time>2019-02-24T09:39:39.000Z</time>
      </trkpt>
      <trkpt lat="46.60629" lon="0.45052">
        <ele>177.44</ele>
        <time>2019-02-24T09:39:41.000Z</time>
      </trkpt>
      <trkpt lat="46.60616" lon="0.45049">
        <ele>177.21</ele>
        <time>2019-02-24T09:39:43.000Z</time>
      </trkpt>
      <trkpt lat="46.60606" lon="0.45046">
        <ele>176.58</ele>
        <time>2019-02-24T09:39:45.000Z</time>
      </trkpt>
      <trkpt lat="46.60595" lon="0.45045">
        <ele>175.98</ele>
        <time>2019-02-24T09:39:47.000Z</time>
      </trkpt>
      <trkpt lat="46.60584" lon="0.45046">
        <ele>175.64</ele>
        <time>2019-02-24T09:39:49.000Z</time>
      </trkpt>
      <trkpt lat="46.60575" lon="0.45044">
        <ele>175.38</ele>
        <time>2019-02-24T09:39:51.000Z</time>
      </trkpt>
      <trkpt lat="46.60565" lon="0.45043">
        <ele>175.23</ele>
        <time>2019-02-24T09:39:53.000Z</time>
      </trkpt>
      <trkpt lat="46.60555" lon="0.45039">
        <ele>174.77</ele>
        <time>2019-02-24T09:39:55.000Z</time>
      </trkpt>
      <trkpt lat="46.60546" lon="0.45036">
        <ele>174.7</ele>
        <time>2019-02-24T09:40:00.000Z</time>
      </trkpt>
      <trkpt lat="46.60537" lon="0.45034">
        <ele>175.72</ele>
        <time>2019-02-24T09:40:09.000Z</time>
      </trkpt>
      <trkpt lat="46.60528" lon="0.4502">
        <ele>176.98</ele>
        <time>2019-02-24T09:40:12.000Z</time>
      </trkpt>
      <trkpt lat="46.60522" lon="0.4501">
        <ele>178.23</ele>
        <time>2019-02-24T09:40:14.000Z</time>
      </trkpt>
      <trkpt lat="46.60516" lon="0.44999">
        <ele>179.06</ele>
        <time>2019-02-24T09:40:16.000Z</time>
      </trkpt>
      <trkpt lat="46.60508" lon="0.44987">
        <ele>179.05</ele>
        <time>2019-02-24T09:40:18.000Z</time>
      </trkpt>
      <trkpt lat="46.605" lon="0.44974">
        <ele>178.47</ele>
        <time>2019-02-24T09:40:20.000Z</time>
      </trkpt>
      <trkpt lat="46.60492" lon="0.44963">
        <ele>177.55</ele>
        <time>2019-02-24T09:40:22.000Z</time>
      </trkpt>
      <trkpt lat="46.60484" lon="0.44954">
        <ele>176.34</ele>
        <time>2019-02-24T09:40:24.000Z</time>
      </trkpt>
      <trkpt lat="46.60476" lon="0.44942">
        <ele>174.88</ele>
        <time>2019-02-24T09:40:27.000Z</time>
      </trkpt>
      <trkpt lat="46.60469" lon="0.44929">
        <ele>174</ele>
        <time>2019-02-24T09:40:29.000Z</time>
      </trkpt>
      <trkpt lat="46.60463" lon="0.44919">
        <ele>173.99</ele>
        <time>2019-02-24T09:40:31.000Z</time>
      </trkpt>
      <trkpt lat="46.60455" lon="0.44907">
        <ele>174.18</ele>
        <time>2019-02-24T09:40:33.000Z</time>
      </trkpt>
      <trkpt lat="46.60449" lon="0.44896">
        <ele>174.54</ele>
        <time>2019-02-24T09:40:35.000Z</time>
      </trkpt>
      <trkpt lat="46.6044" lon="0.44883">
        <ele>174.67</ele>
        <time>2019-02-24T09:40:38.000Z</time>
      </trkpt>
      <trkpt lat="46.60434" lon="0.44873">
        <ele>174.96</ele>
        <time>2019-02-24T09:40:40.000Z</time>
      </trkpt>
      <trkpt lat="46.60432" lon="0.4486">
        <ele>175.58</ele>
        <time>2019-02-24T09:40:42.000Z</time>
      </trkpt>
      <trkpt lat="46.60439" lon="0.44845">
        <ele>177.96</ele>
        <time>2019-02-24T09:40:44.000Z</time>
      </trkpt>
      <trkpt lat="46.60442" lon="0.44828">
        <ele>180.03</ele>
        <time>2019-02-24T09:40:46.000Z</time>
      </trkpt>
      <trkpt lat="46.60446" lon="0.44811">
        <ele>181.43</ele>
        <time>2019-02-24T09:40:48.000Z</time>
      </trkpt>
      <trkpt lat="46.60449" lon="0.44797">
        <ele>183.47</ele>
        <time>2019-02-24T09:40:50.000Z</time>
      </trkpt>
      <trkpt lat="46.60454" lon="0.44781">
        <ele>184.33</ele>
        <time>2019-02-24T09:40:52.000Z</time>
      </trkpt>
      <trkpt lat="46.60458" lon="0.44767">
        <ele>184.89</ele>
        <time>2019-02-24T09:40:54.000Z</time>
      </trkpt>
      <trkpt lat="46.60462" lon="0.44751">
        <ele>184.93</ele>
        <time>2019-02-24T09:40:56.000Z</time>
      </trkpt>
      <trkpt lat="46.60465" lon="0.44735">
        <ele>185.07</ele>
        <time>2019-02-24T09:40:58.000Z</time>
      </trkpt>
      <trkpt lat="46.60469" lon="0.44718">
        <ele>184.72</ele>
        <time>2019-02-24T09:41:00.000Z</time>
      </trkpt>
      <trkpt lat="46.60472" lon="0.44703">
        <ele>184.31</ele>
        <time>2019-02-24T09:41:02.000Z</time>
      </trkpt>
      <trkpt lat="46.60475" lon="0.44688">
        <ele>184.24</ele>
        <time>2019-02-24T09:41:04.000Z</time>
      </trkpt>
      <trkpt lat="46.60479" lon="0.44673">
        <ele>184</ele>
        <time>2019-02-24T09:41:06.000Z</time>
      </trkpt>
      <trkpt lat="46.60481" lon="0.44657">
        <ele>183.69</ele>
        <time>2019-02-24T09:41:08.000Z</time>
      </trkpt>
      <trkpt lat="46.60483" lon="0.44643">
        <ele>183.64</ele>
        <time>2019-02-24T09:41:10.000Z</time>
      </trkpt>
      <trkpt lat="46.60487" lon="0.44628">
        <ele>184.64</ele>
        <time>2019-02-24T09:41:12.000Z</time>
      </trkpt>
      <trkpt lat="46.60491" lon="0.44615">
        <ele>185.88</ele>
        <time>2019-02-24T09:41:14.000Z</time>
      </trkpt>
      <trkpt lat="46.60494" lon="0.446">
        <ele>187.26</ele>
        <time>2019-02-24T09:41:16.000Z</time>
      </trkpt>
      <trkpt lat="46.60496" lon="0.44584">
        <ele>188.01</ele>
        <time>2019-02-24T09:41:18.000Z</time>
      </trkpt>
      <trkpt lat="46.60497" lon="0.44568">
        <ele>188.08</ele>
        <time>2019-02-24T09:41:20.000Z</time>
      </trkpt>
      <trkpt lat="46.60501" lon="0.44549">
        <ele>187.23</ele>
        <time>2019-02-24T09:41:22.000Z</time>
      </trkpt>
      <trkpt lat="46.60503" lon="0.44533">
        <ele>186.24</ele>
        <time>2019-02-24T09:41:24.000Z</time>
      </trkpt>
      <trkpt lat="46.60505" lon="0.44513">
        <ele>185.42</ele>
        <time>2019-02-24T09:41:27.000Z</time>
      </trkpt>
      <trkpt lat="46.60506" lon="0.44497">
        <ele>185.47</ele>
        <time>2019-02-24T09:41:29.000Z</time>
      </trkpt>
      <trkpt lat="46.60508" lon="0.44482">
        <ele>185.74</ele>
        <time>2019-02-24T09:41:31.000Z</time>
      </trkpt>
      <trkpt lat="46.6051" lon="0.44468">
        <ele>186.16</ele>
        <time>2019-02-24T09:41:33.000Z</time>
      </trkpt>
      <trkpt lat="46.60513" lon="0.44454">
        <ele>186.63</ele>
        <time>2019-02-24T09:41:35.000Z</time>
      </trkpt>
      <trkpt lat="46.60515" lon="0.4444">
        <ele>186.89</ele>
        <time>2019-02-24T09:41:37.000Z</time>
      </trkpt>
      <trkpt lat="46.60516" lon="0.44424">
        <ele>186.75</ele>
        <time>2019-02-24T09:41:39.000Z</time>
      </trkpt>
      <trkpt lat="46.60517" lon="0.44409">
        <ele>186.31</ele>
        <time>2019-02-24T09:41:41.000Z</time>
      </trkpt>
      <trkpt lat="46.60519" lon="0.44391">
        <ele>185.58</ele>
        <time>2019-02-24T09:41:44.000Z</time>
      </trkpt>
      <trkpt lat="46.60519" lon="0.44378">
        <ele>185.61</ele>
        <time>2019-02-24T09:41:46.000Z</time>
      </trkpt>
      <trkpt lat="46.60522" lon="0.44358">
        <ele>185.71</ele>
        <time>2019-02-24T09:41:49.000Z</time>
      </trkpt>
      <trkpt lat="46.60523" lon="0.44341">
        <ele>185.34</ele>
        <time>2019-02-24T09:41:51.000Z</time>
      </trkpt>
      <trkpt lat="46.60524" lon="0.44327">
        <ele>184.72</ele>
        <time>2019-02-24T09:41:53.000Z</time>
      </trkpt>
      <trkpt lat="46.60526" lon="0.44313">
        <ele>183.85</ele>
        <time>2019-02-24T09:41:55.000Z</time>
      </trkpt>
      <trkpt lat="46.60526" lon="0.44296">
        <ele>183.01</ele>
        <time>2019-02-24T09:41:57.000Z</time>
      </trkpt>
      <trkpt lat="46.60527" lon="0.44282">
        <ele>181.88</ele>
        <time>2019-02-24T09:41:59.000Z</time>
      </trkpt>
      <trkpt lat="46.60529" lon="0.44266">
        <ele>180.81</ele>
        <time>2019-02-24T09:42:02.000Z</time>
      </trkpt>
      <trkpt lat="46.60529" lon="0.44251">
        <ele>180.46</ele>
        <time>2019-02-24T09:42:04.000Z</time>
      </trkpt>
      <trkpt lat="46.60531" lon="0.44233">
        <ele>179.98</ele>
        <time>2019-02-24T09:42:07.000Z</time>
      </trkpt>
      <trkpt lat="46.60532" lon="0.44214">
        <ele>180.09</ele>
        <time>2019-02-24T09:42:10.000Z</time>
      </trkpt>
      <trkpt lat="46.60533" lon="0.44201">
        <ele>180.98</ele>
        <time>2019-02-24T09:42:12.000Z</time>
      </trkpt>
      <trkpt lat="46.6053" lon="0.44182">
        <ele>181.44</ele>
        <time>2019-02-24T09:42:15.000Z</time>
      </trkpt>
      <trkpt lat="46.60527" lon="0.44166">
        <ele>181.58</ele>
        <time>2019-02-24T09:42:17.000Z</time>
      </trkpt>
      <trkpt lat="46.60526" lon="0.44147">
        <ele>181.61</ele>
        <time>2019-02-24T09:42:20.000Z</time>
      </trkpt>
      <trkpt lat="46.60523" lon="0.44134">
        <ele>181.68</ele>
        <time>2019-02-24T09:42:22.000Z</time>
      </trkpt>
      <trkpt lat="46.60521" lon="0.44121">
        <ele>181.86</ele>
        <time>2019-02-24T09:42:24.000Z</time>
      </trkpt>
      <trkpt lat="46.60516" lon="0.44105">
        <ele>182.23</ele>
        <time>2019-02-24T09:42:27.000Z</time>
      </trkpt>
      <trkpt lat="46.60513" lon="0.44092">
        <ele>182.47</ele>
        <time>2019-02-24T09:42:29.000Z</time>
      </trkpt>
      <trkpt lat="46.6051" lon="0.44078">
        <ele>182.72</ele>
        <time>2019-02-24T09:42:31.000Z</time>
      </trkpt>
      <trkpt lat="46.60507" lon="0.44062">
        <ele>183.9</ele>
        <time>2019-02-24T09:42:33.000Z</time>
      </trkpt>
      <trkpt lat="46.60502" lon="0.44048">
        <ele>184.44</ele>
        <time>2019-02-24T09:42:35.000Z</time>
      </trkpt>
      <trkpt lat="46.60502" lon="0.44029">
        <ele>184.72</ele>
        <time>2019-02-24T09:42:38.000Z</time>
      </trkpt>
      <trkpt lat="46.60497" lon="0.44011">
        <ele>185</ele>
        <time>2019-02-24T09:42:41.000Z</time>
      </trkpt>
      <trkpt lat="46.60497" lon="0.43993">
        <ele>185.27</ele>
        <time>2019-02-24T09:42:44.000Z</time>
      </trkpt>
      <trkpt lat="46.60497" lon="0.43979">
        <ele>185.5</ele>
        <time>2019-02-24T09:42:46.000Z</time>
      </trkpt>
      <trkpt lat="46.60495" lon="0.43959">
        <ele>186.99</ele>
        <time>2019-02-24T09:42:49.000Z</time>
      </trkpt>
      <trkpt lat="46.60494" lon="0.43944">
        <ele>188.78</ele>
        <time>2019-02-24T09:42:51.000Z</time>
      </trkpt>
      <trkpt lat="46.60494" lon="0.43924">
        <ele>189.9</ele>
        <time>2019-02-24T09:42:53.000Z</time>
      </trkpt>
      <trkpt lat="46.60493" lon="0.43908">
        <ele>190.84</ele>
        <time>2019-02-24T09:42:55.000Z</time>
      </trkpt>
      <trkpt lat="46.60495" lon="0.43891">
        <ele>192.18</ele>
        <time>2019-02-24T09:42:57.000Z</time>
      </trkpt>
      <trkpt lat="46.60497" lon="0.43876">
        <ele>193.37</ele>
        <time>2019-02-24T09:42:59.000Z</time>
      </trkpt>
      <trkpt lat="46.605" lon="0.43859">
        <ele>194</ele>
        <time>2019-02-24T09:43:01.000Z</time>
      </trkpt>
      <trkpt lat="46.605" lon="0.43842">
        <ele>194.27</ele>
        <time>2019-02-24T09:43:03.000Z</time>
      </trkpt>
      <trkpt lat="46.605" lon="0.43828">
        <ele>194.29</ele>
        <time>2019-02-24T09:43:05.000Z</time>
      </trkpt>
      <trkpt lat="46.605" lon="0.4381">
        <ele>194.35</ele>
        <time>2019-02-24T09:43:08.000Z</time>
      </trkpt>
      <trkpt lat="46.605" lon="0.43795">
        <ele>194.51</ele>
        <time>2019-02-24T09:43:10.000Z</time>
      </trkpt>
      <trkpt lat="46.605" lon="0.43781">
        <ele>196.27</ele>
        <time>2019-02-24T09:43:12.000Z</time>
      </trkpt>
      <trkpt lat="46.605" lon="0.43765">
        <ele>197.73</ele>
        <time>2019-02-24T09:43:14.000Z</time>
      </trkpt>
      <trkpt lat="46.60499" lon="0.43751">
        <ele>198.01</ele>
        <time>2019-02-24T09:43:16.000Z</time>
      </trkpt>
      <trkpt lat="46.60499" lon="0.43736">
        <ele>198.25</ele>
        <time>2019-02-24T09:43:18.000Z</time>
      </trkpt>
      <trkpt lat="46.60497" lon="0.43718">
        <ele>198.51</ele>
        <time>2019-02-24T09:43:21.000Z</time>
      </trkpt>
      <trkpt lat="46.60498" lon="0.43704">
        <ele>199.65</ele>
        <time>2019-02-24T09:43:24.000Z</time>
      </trkpt>
      <trkpt lat="46.60501" lon="0.43691">
        <ele>201.35</ele>
        <time>2019-02-24T09:43:26.000Z</time>
      </trkpt>
      <trkpt lat="46.60503" lon="0.43677">
        <ele>202.07</ele>
        <time>2019-02-24T09:43:28.000Z</time>
      </trkpt>
      <trkpt lat="46.60507" lon="0.43658">
        <ele>202.23</ele>
        <time>2019-02-24T09:43:31.000Z</time>
      </trkpt>
      <trkpt lat="46.60508" lon="0.43644">
        <ele>202.32</ele>
        <time>2019-02-24T09:43:33.000Z</time>
      </trkpt>
      <trkpt lat="46.60511" lon="0.43628">
        <ele>202.37</ele>
        <time>2019-02-24T09:43:36.000Z</time>
      </trkpt>
      <trkpt lat="46.60513" lon="0.43612">
        <ele>202.27</ele>
        <time>2019-02-24T09:43:39.000Z</time>
      </trkpt>
      <trkpt lat="46.60515" lon="0.43593">
        <ele>202.19</ele>
        <time>2019-02-24T09:43:42.000Z</time>
      </trkpt>
      <trkpt lat="46.60517" lon="0.43578">
        <ele>202.15</ele>
        <time>2019-02-24T09:43:44.000Z</time>
      </trkpt>
      <trkpt lat="46.60517" lon="0.43564">
        <ele>202.17</ele>
        <time>2019-02-24T09:43:46.000Z</time>
      </trkpt>
      <trkpt lat="46.60517" lon="0.43546">
        <ele>202.17</ele>
        <time>2019-02-24T09:43:49.000Z</time>
      </trkpt>
      <trkpt lat="46.60518" lon="0.43533">
        <ele>202.12</ele>
        <time>2019-02-24T09:43:51.000Z</time>
      </trkpt>
      <trkpt lat="46.60517" lon="0.4352">
        <ele>202.05</ele>
        <time>2019-02-24T09:43:53.000Z</time>
      </trkpt>
      <trkpt lat="46.60518" lon="0.43502">
        <ele>201.98</ele>
        <time>2019-02-24T09:43:56.000Z</time>
      </trkpt>
      <trkpt lat="46.6052" lon="0.43482">
        <ele>201.88</ele>
        <time>2019-02-24T09:43:59.000Z</time>
      </trkpt>
      <trkpt lat="46.60521" lon="0.43466">
        <ele>201.8</ele>
        <time>2019-02-24T09:44:01.000Z</time>
      </trkpt>
      <trkpt lat="46.60526" lon="0.43454">
        <ele>201.68</ele>
        <time>2019-02-24T09:44:04.000Z</time>
      </trkpt>
      <trkpt lat="46.60534" lon="0.43441">
        <ele>201.25</ele>
        <time>2019-02-24T09:44:07.000Z</time>
      </trkpt>
      <trkpt lat="46.60541" lon="0.4343">
        <ele>200.45</ele>
        <time>2019-02-24T09:44:10.000Z</time>
      </trkpt>
      <trkpt lat="46.60549" lon="0.43416">
        <ele>199.92</ele>
        <time>2019-02-24T09:44:13.000Z</time>
      </trkpt>
      <trkpt lat="46.60556" lon="0.43402">
        <ele>199.52</ele>
        <time>2019-02-24T09:44:15.000Z</time>
      </trkpt>
      <trkpt lat="46.60562" lon="0.43391">
        <ele>198.54</ele>
        <time>2019-02-24T09:44:17.000Z</time>
      </trkpt>
      <trkpt lat="46.60569" lon="0.43378">
        <ele>197.71</ele>
        <time>2019-02-24T09:44:19.000Z</time>
      </trkpt>
      <trkpt lat="46.60575" lon="0.43366">
        <ele>197.29</ele>
        <time>2019-02-24T09:44:21.000Z</time>
      </trkpt>
      <trkpt lat="46.60582" lon="0.43352">
        <ele>196.87</ele>
        <time>2019-02-24T09:44:23.000Z</time>
      </trkpt>
      <trkpt lat="46.60589" lon="0.43341">
        <ele>196.66</ele>
        <time>2019-02-24T09:44:25.000Z</time>
      </trkpt>
      <trkpt lat="46.60597" lon="0.43328">
        <ele>196.18</ele>
        <time>2019-02-24T09:44:27.000Z</time>
      </trkpt>
      <trkpt lat="46.60603" lon="0.43315">
        <ele>195.89</ele>
        <time>2019-02-24T09:44:29.000Z</time>
      </trkpt>
      <trkpt lat="46.60609" lon="0.43303">
        <ele>195.46</ele>
        <time>2019-02-24T09:44:31.000Z</time>
      </trkpt>
      <trkpt lat="46.60615" lon="0.4329">
        <ele>195</ele>
        <time>2019-02-24T09:44:33.000Z</time>
      </trkpt>
      <trkpt lat="46.6062" lon="0.43277">
        <ele>194.74</ele>
        <time>2019-02-24T09:44:35.000Z</time>
      </trkpt>
      <trkpt lat="46.60626" lon="0.43265">
        <ele>194.64</ele>
        <time>2019-02-24T09:44:37.000Z</time>
      </trkpt>
      <trkpt lat="46.6063" lon="0.43253">
        <ele>194.54</ele>
        <time>2019-02-24T09:44:39.000Z</time>
      </trkpt>
      <trkpt lat="46.60636" lon="0.4324">
        <ele>195.16</ele>
        <time>2019-02-24T09:44:41.000Z</time>
      </trkpt>
      <trkpt lat="46.60642" lon="0.43228">
        <ele>195.39</ele>
        <time>2019-02-24T09:44:43.000Z</time>
      </trkpt>
      <trkpt lat="46.60648" lon="0.43215">
        <ele>195.98</ele>
        <time>2019-02-24T09:44:45.000Z</time>
      </trkpt>
      <trkpt lat="46.60655" lon="0.43203">
        <ele>196.64</ele>
        <time>2019-02-24T09:44:47.000Z</time>
      </trkpt>
      <trkpt lat="46.60661" lon="0.43189">
        <ele>196.87</ele>
        <time>2019-02-24T09:44:49.000Z</time>
      </trkpt>
      <trkpt lat="46.60667" lon="0.43177">
        <ele>197.41</ele>
        <time>2019-02-24T09:44:51.000Z</time>
      </trkpt>
      <trkpt lat="46.60677" lon="0.43163">
        <ele>198.02</ele>
        <time>2019-02-24T09:44:54.000Z</time>
      </trkpt>
      <trkpt lat="46.60685" lon="0.43151">
        <ele>198.34</ele>
        <time>2019-02-24T09:44:56.000Z</time>
      </trkpt>
      <trkpt lat="46.60691" lon="0.4314">
        <ele>198.7</ele>
        <time>2019-02-24T09:44:58.000Z</time>
      </trkpt>
      <trkpt lat="46.60701" lon="0.43124">
        <ele>199.46</ele>
        <time>2019-02-24T09:45:01.000Z</time>
      </trkpt>
      <trkpt lat="46.60706" lon="0.43111">
        <ele>199.39</ele>
        <time>2019-02-24T09:45:03.000Z</time>
      </trkpt>
      <trkpt lat="46.60711" lon="0.43098">
        <ele>199.6</ele>
        <time>2019-02-24T09:45:05.000Z</time>
      </trkpt>
      <trkpt lat="46.60714" lon="0.43084">
        <ele>199.84</ele>
        <time>2019-02-24T09:45:07.000Z</time>
      </trkpt>
      <trkpt lat="46.60719" lon="0.43069">
        <ele>199.98</ele>
        <time>2019-02-24T09:45:10.000Z</time>
      </trkpt>
      <trkpt lat="46.60725" lon="0.43055">
        <ele>200.2</ele>
        <time>2019-02-24T09:45:13.000Z</time>
      </trkpt>
      <trkpt lat="46.60731" lon="0.43042">
        <ele>201.76</ele>
        <time>2019-02-24T09:45:15.000Z</time>
      </trkpt>
      <trkpt lat="46.60739" lon="0.43028">
        <ele>201.9</ele>
        <time>2019-02-24T09:45:17.000Z</time>
      </trkpt>
      <trkpt lat="46.6074" lon="0.43012">
        <ele>202.01</ele>
        <time>2019-02-24T09:45:19.000Z</time>
      </trkpt>
      <trkpt lat="46.60746" lon="0.42997">
        <ele>202.17</ele>
        <time>2019-02-24T09:45:21.000Z</time>
      </trkpt>
      <trkpt lat="46.60751" lon="0.42981">
        <ele>202.31</ele>
        <time>2019-02-24T09:45:23.000Z</time>
      </trkpt>
      <trkpt lat="46.60754" lon="0.42967">
        <ele>202.27</ele>
        <time>2019-02-24T09:45:25.000Z</time>
      </trkpt>
      <trkpt lat="46.60761" lon="0.42956">
        <ele>201.92</ele>
        <time>2019-02-24T09:45:27.000Z</time>
      </trkpt>
      <trkpt lat="46.60763" lon="0.42942">
        <ele>200.67</ele>
        <time>2019-02-24T09:45:29.000Z</time>
      </trkpt>
      <trkpt lat="46.60767" lon="0.42925">
        <ele>200.2</ele>
        <time>2019-02-24T09:45:31.000Z</time>
      </trkpt>
      <trkpt lat="46.6077" lon="0.4291">
        <ele>199.88</ele>
        <time>2019-02-24T09:45:33.000Z</time>
      </trkpt>
      <trkpt lat="46.60771" lon="0.42896">
        <ele>199.6</ele>
        <time>2019-02-24T09:45:35.000Z</time>
      </trkpt>
      <trkpt lat="46.6077" lon="0.42876">
        <ele>199.51</ele>
        <time>2019-02-24T09:45:38.000Z</time>
      </trkpt>
      <trkpt lat="46.6077" lon="0.42861">
        <ele>199.45</ele>
        <time>2019-02-24T09:45:40.000Z</time>
      </trkpt>
      <trkpt lat="46.60772" lon="0.42844">
        <ele>198.16</ele>
        <time>2019-02-24T09:45:42.000Z</time>
      </trkpt>
      <trkpt lat="46.60775" lon="0.42827">
        <ele>197.83</ele>
        <time>2019-02-24T09:45:44.000Z</time>
      </trkpt>
      <trkpt lat="46.60778" lon="0.42808">
        <ele>196.52</ele>
        <time>2019-02-24T09:45:47.000Z</time>
      </trkpt>
      <trkpt lat="46.60782" lon="0.42793">
        <ele>195.89</ele>
        <time>2019-02-24T09:45:49.000Z</time>
      </trkpt>
      <trkpt lat="46.60785" lon="0.42776">
        <ele>195.94</ele>
        <time>2019-02-24T09:45:51.000Z</time>
      </trkpt>
      <trkpt lat="46.60788" lon="0.42762">
        <ele>194.88</ele>
        <time>2019-02-24T09:45:53.000Z</time>
      </trkpt>
      <trkpt lat="46.60791" lon="0.42744">
        <ele>194.75</ele>
        <time>2019-02-24T09:45:55.000Z</time>
      </trkpt>
      <trkpt lat="46.60795" lon="0.42722">
        <ele>194.48</ele>
        <time>2019-02-24T09:45:57.000Z</time>
      </trkpt>
      <trkpt lat="46.60799" lon="0.42703">
        <ele>193.62</ele>
        <time>2019-02-24T09:45:59.000Z</time>
      </trkpt>
      <trkpt lat="46.60804" lon="0.42687">
        <ele>192.67</ele>
        <time>2019-02-24T09:46:01.000Z</time>
      </trkpt>
      <trkpt lat="46.60809" lon="0.42671">
        <ele>191.66</ele>
        <time>2019-02-24T09:46:03.000Z</time>
      </trkpt>
      <trkpt lat="46.60813" lon="0.42656">
        <ele>190.65</ele>
        <time>2019-02-24T09:46:05.000Z</time>
      </trkpt>
      <trkpt lat="46.60819" lon="0.42638">
        <ele>188.76</ele>
        <time>2019-02-24T09:46:07.000Z</time>
      </trkpt>
      <trkpt lat="46.6082" lon="0.42615">
        <ele>186.01</ele>
        <time>2019-02-24T09:46:09.000Z</time>
      </trkpt>
      <trkpt lat="46.60822" lon="0.42592">
        <ele>182.2</ele>
        <time>2019-02-24T09:46:11.000Z</time>
      </trkpt>
      <trkpt lat="46.60824" lon="0.42572">
        <ele>177.82</ele>
        <time>2019-02-24T09:46:13.000Z</time>
      </trkpt>
      <trkpt lat="46.60826" lon="0.42556">
        <ele>173.76</ele>
        <time>2019-02-24T09:46:15.000Z</time>
      </trkpt>
      <trkpt lat="46.60828" lon="0.42542">
        <ele>171.92</ele>
        <time>2019-02-24T09:46:17.000Z</time>
      </trkpt>
      <trkpt lat="46.60835" lon="0.42532">
        <ele>170.47</ele>
        <time>2019-02-24T09:46:20.000Z</time>
      </trkpt>
      <trkpt lat="46.60844" lon="0.42526">
        <ele>168.9</ele>
        <time>2019-02-24T09:46:22.000Z</time>
      </trkpt>
      <trkpt lat="46.60854" lon="0.42518">
        <ele>168.39</ele>
        <time>2019-02-24T09:46:24.000Z</time>
      </trkpt>
      <trkpt lat="46.60866" lon="0.4251">
        <ele>168.49</ele>
        <time>2019-02-24T09:46:26.000Z</time>
      </trkpt>
      <trkpt lat="46.60877" lon="0.42501">
        <ele>168.72</ele>
        <time>2019-02-24T09:46:28.000Z</time>
      </trkpt>
      <trkpt lat="46.60889" lon="0.42491">
        <ele>168.98</ele>
        <time>2019-02-24T09:46:30.000Z</time>
      </trkpt>
      <trkpt lat="46.60901" lon="0.42483">
        <ele>169.36</ele>
        <time>2019-02-24T09:46:32.000Z</time>
      </trkpt>
      <trkpt lat="46.60912" lon="0.42476">
        <ele>169.59</ele>
        <time>2019-02-24T09:46:34.000Z</time>
      </trkpt>
      <trkpt lat="46.60923" lon="0.42467">
        <ele>169.95</ele>
        <time>2019-02-24T09:46:36.000Z</time>
      </trkpt>
      <trkpt lat="46.60934" lon="0.4246">
        <ele>170.2</ele>
        <time>2019-02-24T09:46:38.000Z</time>
      </trkpt>
      <trkpt lat="46.60946" lon="0.42451">
        <ele>170.33</ele>
        <time>2019-02-24T09:46:40.000Z</time>
      </trkpt>
      <trkpt lat="46.60957" lon="0.42443">
        <ele>170.38</ele>
        <time>2019-02-24T09:46:42.000Z</time>
      </trkpt>
      <trkpt lat="46.60969" lon="0.42434">
        <ele>170.44</ele>
        <time>2019-02-24T09:46:44.000Z</time>
      </trkpt>
      <trkpt lat="46.60981" lon="0.42426">
        <ele>170.47</ele>
        <time>2019-02-24T09:46:46.000Z</time>
      </trkpt>
      <trkpt lat="46.60992" lon="0.42417">
        <ele>170.47</ele>
        <time>2019-02-24T09:46:48.000Z</time>
      </trkpt>
      <trkpt lat="46.61003" lon="0.42408">
        <ele>170.44</ele>
        <time>2019-02-24T09:46:50.000Z</time>
      </trkpt>
      <trkpt lat="46.61015" lon="0.42399">
        <ele>170.33</ele>
        <time>2019-02-24T09:46:52.000Z</time>
      </trkpt>
      <trkpt lat="46.61026" lon="0.4239">
        <ele>170.2</ele>
        <time>2019-02-24T09:46:54.000Z</time>
      </trkpt>
      <trkpt lat="46.61037" lon="0.42381">
        <ele>170.05</ele>
        <time>2019-02-24T09:46:56.000Z</time>
      </trkpt>
      <trkpt lat="46.61047" lon="0.42373">
        <ele>169.97</ele>
        <time>2019-02-24T09:46:58.000Z</time>
      </trkpt>
      <trkpt lat="46.61057" lon="0.42366">
        <ele>169.68</ele>
        <time>2019-02-24T09:47:00.000Z</time>
      </trkpt>
      <trkpt lat="46.61068" lon="0.42359">
        <ele>169.51</ele>
        <time>2019-02-24T09:47:02.000Z</time>
      </trkpt>
      <trkpt lat="46.61079" lon="0.42351">
        <ele>169.21</ele>
        <time>2019-02-24T09:47:04.000Z</time>
      </trkpt>
      <trkpt lat="46.6109" lon="0.42343">
        <ele>168.92</ele>
        <time>2019-02-24T09:47:06.000Z</time>
      </trkpt>
      <trkpt lat="46.611" lon="0.42334">
        <ele>168.7</ele>
        <time>2019-02-24T09:47:08.000Z</time>
      </trkpt>
      <trkpt lat="46.61112" lon="0.42326">
        <ele>168.49</ele>
        <time>2019-02-24T09:47:10.000Z</time>
      </trkpt>
      <trkpt lat="46.61122" lon="0.42318">
        <ele>168.28</ele>
        <time>2019-02-24T09:47:12.000Z</time>
      </trkpt>
      <trkpt lat="46.61132" lon="0.4231">
        <ele>168.06</ele>
        <time>2019-02-24T09:47:14.000Z</time>
      </trkpt>
      <trkpt lat="46.61143" lon="0.42303">
        <ele>167.93</ele>
        <time>2019-02-24T09:47:16.000Z</time>
      </trkpt>
      <trkpt lat="46.61153" lon="0.42296">
        <ele>167.77</ele>
        <time>2019-02-24T09:47:18.000Z</time>
      </trkpt>
      <trkpt lat="46.61163" lon="0.42288">
        <ele>167.58</ele>
        <time>2019-02-24T09:47:20.000Z</time>
      </trkpt>
      <trkpt lat="46.61174" lon="0.42281">
        <ele>167.48</ele>
        <time>2019-02-24T09:47:22.000Z</time>
      </trkpt>
      <trkpt lat="46.61185" lon="0.42274">
        <ele>167.44</ele>
        <time>2019-02-24T09:47:24.000Z</time>
      </trkpt>
      <trkpt lat="46.61196" lon="0.42268">
        <ele>167.31</ele>
        <time>2019-02-24T09:47:26.000Z</time>
      </trkpt>
      <trkpt lat="46.61206" lon="0.42263">
        <ele>167.09</ele>
        <time>2019-02-24T09:47:28.000Z</time>
      </trkpt>
      <trkpt lat="46.61216" lon="0.42259">
        <ele>166.93</ele>
        <time>2019-02-24T09:47:30.000Z</time>
      </trkpt>
      <trkpt lat="46.61226" lon="0.42253">
        <ele>166.75</ele>
        <time>2019-02-24T09:47:32.000Z</time>
      </trkpt>
      <trkpt lat="46.61235" lon="0.42245">
        <ele>166.59</ele>
        <time>2019-02-24T09:47:34.000Z</time>
      </trkpt>
      <trkpt lat="46.61237" lon="0.42232">
        <ele>166.38</ele>
        <time>2019-02-24T09:47:36.000Z</time>
      </trkpt>
      <trkpt lat="46.61235" lon="0.42218">
        <ele>166.34</ele>
        <time>2019-02-24T09:47:38.000Z</time>
      </trkpt>
      <trkpt lat="46.61237" lon="0.42204">
        <ele>166.35</ele>
        <time>2019-02-24T09:47:40.000Z</time>
      </trkpt>
      <trkpt lat="46.61239" lon="0.42187">
        <ele>166.44</ele>
        <time>2019-02-24T09:47:42.000Z</time>
      </trkpt>
      <trkpt lat="46.6124" lon="0.42171">
        <ele>166.65</ele>
        <time>2019-02-24T09:47:44.000Z</time>
      </trkpt>
      <trkpt lat="46.61242" lon="0.42156">
        <ele>166.7</ele>
        <time>2019-02-24T09:47:46.000Z</time>
      </trkpt>
      <trkpt lat="46.61243" lon="0.4214">
        <ele>166.6</ele>
        <time>2019-02-24T09:47:48.000Z</time>
      </trkpt>
      <trkpt lat="46.61245" lon="0.42124">
        <ele>166.28</ele>
        <time>2019-02-24T09:47:50.000Z</time>
      </trkpt>
      <trkpt lat="46.61247" lon="0.42108">
        <ele>165.86</ele>
        <time>2019-02-24T09:47:52.000Z</time>
      </trkpt>
      <trkpt lat="46.61248" lon="0.42093">
        <ele>165.42</ele>
        <time>2019-02-24T09:47:54.000Z</time>
      </trkpt>
      <trkpt lat="46.61251" lon="0.42079">
        <ele>165.1</ele>
        <time>2019-02-24T09:47:56.000Z</time>
      </trkpt>
      <trkpt lat="46.61253" lon="0.42065">
        <ele>164.86</ele>
        <time>2019-02-24T09:47:58.000Z</time>
      </trkpt>
      <trkpt lat="46.61255" lon="0.42051">
        <ele>164.76</ele>
        <time>2019-02-24T09:48:00.000Z</time>
      </trkpt>
      <trkpt lat="46.61257" lon="0.42038">
        <ele>164.71</ele>
        <time>2019-02-24T09:48:02.000Z</time>
      </trkpt>
      <trkpt lat="46.61261" lon="0.42022">
        <ele>164.46</ele>
        <time>2019-02-24T09:48:04.000Z</time>
      </trkpt>
      <trkpt lat="46.61264" lon="0.42008">
        <ele>164.24</ele>
        <time>2019-02-24T09:48:06.000Z</time>
      </trkpt>
      <trkpt lat="46.61268" lon="0.41992">
        <ele>163.92</ele>
        <time>2019-02-24T09:48:08.000Z</time>
      </trkpt>
      <trkpt lat="46.61271" lon="0.41977">
        <ele>163.49</ele>
        <time>2019-02-24T09:48:10.000Z</time>
      </trkpt>
      <trkpt lat="46.61275" lon="0.4196">
        <ele>163.01</ele>
        <time>2019-02-24T09:48:13.000Z</time>
      </trkpt>
      <trkpt lat="46.61279" lon="0.41943">
        <ele>162.78</ele>
        <time>2019-02-24T09:48:15.000Z</time>
      </trkpt>
      <trkpt lat="46.61282" lon="0.41929">
        <ele>162.51</ele>
        <time>2019-02-24T09:48:17.000Z</time>
      </trkpt>
      <trkpt lat="46.61285" lon="0.4191">
        <ele>162.59</ele>
        <time>2019-02-24T09:48:20.000Z</time>
      </trkpt>
      <trkpt lat="46.61289" lon="0.41892">
        <ele>163.49</ele>
        <time>2019-02-24T09:48:23.000Z</time>
      </trkpt>
      <trkpt lat="46.61293" lon="0.41878">
        <ele>164.09</ele>
        <time>2019-02-24T09:48:25.000Z</time>
      </trkpt>
      <trkpt lat="46.61295" lon="0.41862">
        <ele>164.6</ele>
        <time>2019-02-24T09:48:27.000Z</time>
      </trkpt>
      <trkpt lat="46.61299" lon="0.41846">
        <ele>164.73</ele>
        <time>2019-02-24T09:48:29.000Z</time>
      </trkpt>
      <trkpt lat="46.61301" lon="0.41832">
        <ele>164.63</ele>
        <time>2019-02-24T09:48:31.000Z</time>
      </trkpt>
      <trkpt lat="46.61303" lon="0.41816">
        <ele>164.5</ele>
        <time>2019-02-24T09:48:34.000Z</time>
      </trkpt>
      <trkpt lat="46.61306" lon="0.41803">
        <ele>164.65</ele>
        <time>2019-02-24T09:48:36.000Z</time>
      </trkpt>
      <trkpt lat="46.61309" lon="0.41789">
        <ele>164.67</ele>
        <time>2019-02-24T09:48:39.000Z</time>
      </trkpt>
      <trkpt lat="46.61313" lon="0.41777">
        <ele>164.73</ele>
        <time>2019-02-24T09:48:45.000Z</time>
      </trkpt>
      <trkpt lat="46.61318" lon="0.41766">
        <ele>165.04</ele>
        <time>2019-02-24T09:48:49.000Z</time>
      </trkpt>
      <trkpt lat="46.61324" lon="0.41755">
        <ele>165.38</ele>
        <time>2019-02-24T09:48:52.000Z</time>
      </trkpt>
      <trkpt lat="46.61329" lon="0.41741">
        <ele>165.76</ele>
        <time>2019-02-24T09:48:55.000Z</time>
      </trkpt>
      <trkpt lat="46.61335" lon="0.41724">
        <ele>166</ele>
        <time>2019-02-24T09:48:58.000Z</time>
      </trkpt>
      <trkpt lat="46.61341" lon="0.41707">
        <ele>166.48</ele>
        <time>2019-02-24T09:49:01.000Z</time>
      </trkpt>
      <trkpt lat="46.61346" lon="0.41692">
        <ele>167.05</ele>
        <time>2019-02-24T09:49:05.000Z</time>
      </trkpt>
      <trkpt lat="46.61353" lon="0.41679">
        <ele>168.16</ele>
        <time>2019-02-24T09:49:08.000Z</time>
      </trkpt>
      <trkpt lat="46.61361" lon="0.41664">
        <ele>169.48</ele>
        <time>2019-02-24T09:49:11.000Z</time>
      </trkpt>
      <trkpt lat="46.6137" lon="0.4165">
        <ele>170.81</ele>
        <time>2019-02-24T09:49:14.000Z</time>
      </trkpt>
      <trkpt lat="46.61378" lon="0.41635">
        <ele>171.47</ele>
        <time>2019-02-24T09:49:17.000Z</time>
      </trkpt>
      <trkpt lat="46.61384" lon="0.41624">
        <ele>171.62</ele>
        <time>2019-02-24T09:49:19.000Z</time>
      </trkpt>
      <trkpt lat="46.61392" lon="0.41608">
        <ele>171.73</ele>
        <time>2019-02-24T09:49:22.000Z</time>
      </trkpt>
      <trkpt lat="46.61399" lon="0.41597">
        <ele>171.74</ele>
        <time>2019-02-24T09:49:24.000Z</time>
      </trkpt>
      <trkpt lat="46.61405" lon="0.41586">
        <ele>171.77</ele>
        <time>2019-02-24T09:49:26.000Z</time>
      </trkpt>
      <trkpt lat="46.61414" lon="0.41572">
        <ele>171.73</ele>
        <time>2019-02-24T09:49:29.000Z</time>
      </trkpt>
      <trkpt lat="46.61419" lon="0.41562">
        <ele>171.85</ele>
        <time>2019-02-24T09:49:31.000Z</time>
      </trkpt>
      <trkpt lat="46.61425" lon="0.4155">
        <ele>172.09</ele>
        <time>2019-02-24T09:49:33.000Z</time>
      </trkpt>
      <trkpt lat="46.61431" lon="0.41539">
        <ele>172.25</ele>
        <time>2019-02-24T09:49:35.000Z</time>
      </trkpt>
      <trkpt lat="46.61439" lon="0.41524">
        <ele>171.95</ele>
        <time>2019-02-24T09:49:38.000Z</time>
      </trkpt>
      <trkpt lat="46.61447" lon="0.41515">
        <ele>171.92</ele>
        <time>2019-02-24T09:49:40.000Z</time>
      </trkpt>
      <trkpt lat="46.61458" lon="0.41518">
        <ele>171.11</ele>
        <time>2019-02-24T09:49:43.000Z</time>
      </trkpt>
      <trkpt lat="46.61467" lon="0.41526">
        <ele>170.1</ele>
        <time>2019-02-24T09:49:45.000Z</time>
      </trkpt>
      <trkpt lat="46.61477" lon="0.41535">
        <ele>168.85</ele>
        <time>2019-02-24T09:49:47.000Z</time>
      </trkpt>
      <trkpt lat="46.61485" lon="0.41543">
        <ele>168.37</ele>
        <time>2019-02-24T09:49:49.000Z</time>
      </trkpt>
      <trkpt lat="46.61495" lon="0.41552">
        <ele>168.09</ele>
        <time>2019-02-24T09:49:51.000Z</time>
      </trkpt>
      <trkpt lat="46.61504" lon="0.4156">
        <ele>167.9</ele>
        <time>2019-02-24T09:49:53.000Z</time>
      </trkpt>
      <trkpt lat="46.61512" lon="0.41568">
        <ele>167.9</ele>
        <time>2019-02-24T09:49:55.000Z</time>
      </trkpt>
      <trkpt lat="46.61522" lon="0.41576">
        <ele>167.94</ele>
        <time>2019-02-24T09:49:57.000Z</time>
      </trkpt>
      <trkpt lat="46.6153" lon="0.41583">
        <ele>168.11</ele>
        <time>2019-02-24T09:49:59.000Z</time>
      </trkpt>
      <trkpt lat="46.6154" lon="0.41589">
        <ele>168.51</ele>
        <time>2019-02-24T09:50:01.000Z</time>
      </trkpt>
      <trkpt lat="46.61549" lon="0.41595">
        <ele>168.82</ele>
        <time>2019-02-24T09:50:03.000Z</time>
      </trkpt>
      <trkpt lat="46.61559" lon="0.41602">
        <ele>168.86</ele>
        <time>2019-02-24T09:50:05.000Z</time>
      </trkpt>
      <trkpt lat="46.61568" lon="0.4161">
        <ele>168.98</ele>
        <time>2019-02-24T09:50:07.000Z</time>
      </trkpt>
      <trkpt lat="46.61577" lon="0.41617">
        <ele>169.05</ele>
        <time>2019-02-24T09:50:09.000Z</time>
      </trkpt>
      <trkpt lat="46.61587" lon="0.41626">
        <ele>168.65</ele>
        <time>2019-02-24T09:50:11.000Z</time>
      </trkpt>
      <trkpt lat="46.61597" lon="0.41634">
        <ele>168.01</ele>
        <time>2019-02-24T09:50:13.000Z</time>
      </trkpt>
      <trkpt lat="46.61608" lon="0.41642">
        <ele>167.05</ele>
        <time>2019-02-24T09:50:15.000Z</time>
      </trkpt>
      <trkpt lat="46.61617" lon="0.4165">
        <ele>166.13</ele>
        <time>2019-02-24T09:50:17.000Z</time>
      </trkpt>
      <trkpt lat="46.61627" lon="0.41657">
        <ele>165.7</ele>
        <time>2019-02-24T09:50:19.000Z</time>
      </trkpt>
      <trkpt lat="46.61637" lon="0.41654">
        <ele>165.17</ele>
        <time>2019-02-24T09:50:21.000Z</time>
      </trkpt>
      <trkpt lat="46.61641" lon="0.41641">
        <ele>164.22</ele>
        <time>2019-02-24T09:50:23.000Z</time>
      </trkpt>
      <trkpt lat="46.61645" lon="0.41623">
        <ele>163.54</ele>
        <time>2019-02-24T09:50:26.000Z</time>
      </trkpt>
      <trkpt lat="46.61651" lon="0.41607">
        <ele>163.71</ele>
        <time>2019-02-24T09:50:29.000Z</time>
      </trkpt>
      <trkpt lat="46.61657" lon="0.41592">
        <ele>164.4</ele>
        <time>2019-02-24T09:50:32.000Z</time>
      </trkpt>
      <trkpt lat="46.61663" lon="0.41577">
        <ele>164.76</ele>
        <time>2019-02-24T09:50:35.000Z</time>
      </trkpt>
      <trkpt lat="46.61668" lon="0.41564">
        <ele>164.93</ele>
        <time>2019-02-24T09:50:38.000Z</time>
      </trkpt>
      <trkpt lat="46.61675" lon="0.41555">
        <ele>165</ele>
        <time>2019-02-24T09:50:40.000Z</time>
      </trkpt>
      <trkpt lat="46.61686" lon="0.41558">
        <ele>165.15</ele>
        <time>2019-02-24T09:50:44.000Z</time>
      </trkpt>
      <trkpt lat="46.61698" lon="0.41563">
        <ele>166.47</ele>
        <time>2019-02-24T09:50:47.000Z</time>
      </trkpt>
      <trkpt lat="46.61708" lon="0.41568">
        <ele>166.27</ele>
        <time>2019-02-24T09:50:49.000Z</time>
      </trkpt>
      <trkpt lat="46.61719" lon="0.41573">
        <ele>165.74</ele>
        <time>2019-02-24T09:50:51.000Z</time>
      </trkpt>
      <trkpt lat="46.6173" lon="0.41579">
        <ele>164.89</ele>
        <time>2019-02-24T09:50:53.000Z</time>
      </trkpt>
      <trkpt lat="46.61741" lon="0.41586">
        <ele>163.76</ele>
        <time>2019-02-24T09:50:55.000Z</time>
      </trkpt>
      <trkpt lat="46.61753" lon="0.41588">
        <ele>163.04</ele>
        <time>2019-02-24T09:50:57.000Z</time>
      </trkpt>
      <trkpt lat="46.61767" lon="0.41589">
        <ele>162.33</ele>
        <time>2019-02-24T09:50:59.000Z</time>
      </trkpt>
      <trkpt lat="46.61779" lon="0.41593">
        <ele>161.26</ele>
        <time>2019-02-24T09:51:01.000Z</time>
      </trkpt>
      <trkpt lat="46.61789" lon="0.416">
        <ele>160.94</ele>
        <time>2019-02-24T09:51:03.000Z</time>
      </trkpt>
      <trkpt lat="46.61798" lon="0.41604">
        <ele>161.99</ele>
        <time>2019-02-24T09:51:06.000Z</time>
      </trkpt>
      <trkpt lat="46.61803" lon="0.41592">
        <ele>162.01</ele>
        <time>2019-02-24T09:51:10.000Z</time>
      </trkpt>
      <trkpt lat="46.61807" lon="0.41579">
        <ele>162.09</ele>
        <time>2019-02-24T09:51:13.000Z</time>
      </trkpt>
      <trkpt lat="46.6181" lon="0.41565">
        <ele>162.24</ele>
        <time>2019-02-24T09:51:18.000Z</time>
      </trkpt>
      <trkpt lat="46.61815" lon="0.41551">
        <ele>162.37</ele>
        <time>2019-02-24T09:51:23.000Z</time>
      </trkpt>
      <trkpt lat="46.61819" lon="0.41537">
        <ele>162.52</ele>
        <time>2019-02-24T09:51:29.000Z</time>
      </trkpt>
      <trkpt lat="46.61823" lon="0.41523">
        <ele>162.66</ele>
        <time>2019-02-24T09:51:34.000Z</time>
      </trkpt>
      <trkpt lat="46.61826" lon="0.41508">
        <ele>162.92</ele>
        <time>2019-02-24T09:51:38.000Z</time>
      </trkpt>
      <trkpt lat="46.61829" lon="0.41494">
        <ele>163.14</ele>
        <time>2019-02-24T09:51:41.000Z</time>
      </trkpt>
      <trkpt lat="46.61833" lon="0.41481">
        <ele>163.38</ele>
        <time>2019-02-24T09:51:44.000Z</time>
      </trkpt>
      <trkpt lat="46.61837" lon="0.41468">
        <ele>163.7</ele>
        <time>2019-02-24T09:51:47.000Z</time>
      </trkpt>
      <trkpt lat="46.61842" lon="0.41455">
        <ele>165.17</ele>
        <time>2019-02-24T09:51:50.000Z</time>
      </trkpt>
      <trkpt lat="46.61847" lon="0.4144">
        <ele>165.47</ele>
        <time>2019-02-24T09:51:53.000Z</time>
      </trkpt>
      <trkpt lat="46.61852" lon="0.41423">
        <ele>167.39</ele>
        <time>2019-02-24T09:51:56.000Z</time>
      </trkpt>
      <trkpt lat="46.61856" lon="0.41408">
        <ele>167.57</ele>
        <time>2019-02-24T09:51:59.000Z</time>
      </trkpt>
      <trkpt lat="46.61861" lon="0.41397">
        <ele>167.76</ele>
        <time>2019-02-24T09:52:03.000Z</time>
      </trkpt>
      <trkpt lat="46.61873" lon="0.41405">
        <ele>165.84</ele>
        <time>2019-02-24T09:52:09.000Z</time>
      </trkpt>
      <trkpt lat="46.61882" lon="0.41419">
        <ele>163.07</ele>
        <time>2019-02-24T09:52:11.000Z</time>
      </trkpt>
      <trkpt lat="46.61887" lon="0.41432">
        <ele>160.36</ele>
        <time>2019-02-24T09:52:13.000Z</time>
      </trkpt>
      <trkpt lat="46.6189" lon="0.41445">
        <ele>157.55</ele>
        <time>2019-02-24T09:52:15.000Z</time>
      </trkpt>
      <trkpt lat="46.61893" lon="0.41458">
        <ele>157.19</ele>
        <time>2019-02-24T09:52:18.000Z</time>
      </trkpt>
      <trkpt lat="46.61898" lon="0.41471">
        <ele>156.7</ele>
        <time>2019-02-24T09:52:23.000Z</time>
      </trkpt>
      <trkpt lat="46.61909" lon="0.41479">
        <ele>156.59</ele>
        <time>2019-02-24T09:52:28.000Z</time>
      </trkpt>
      <trkpt lat="46.61921" lon="0.4148">
        <ele>156.8</ele>
        <time>2019-02-24T09:52:32.000Z</time>
      </trkpt>
      <trkpt lat="46.61931" lon="0.41484">
        <ele>157.09</ele>
        <time>2019-02-24T09:52:36.000Z</time>
      </trkpt>
      <trkpt lat="46.61941" lon="0.41488">
        <ele>157.59</ele>
        <time>2019-02-24T09:52:41.000Z</time>
      </trkpt>
      <trkpt lat="46.6195" lon="0.41489">
        <ele>158.34</ele>
        <time>2019-02-24T09:52:47.000Z</time>
      </trkpt>
      <trkpt lat="46.6196" lon="0.41497">
        <ele>158.81</ele>
        <time>2019-02-24T09:52:51.000Z</time>
      </trkpt>
      <trkpt lat="46.61969" lon="0.41502">
        <ele>160.31</ele>
        <time>2019-02-24T09:52:58.000Z</time>
      </trkpt>
      <trkpt lat="46.61978" lon="0.41501">
        <ele>162.4</ele>
        <time>2019-02-24T09:53:07.000Z</time>
      </trkpt>
      <trkpt lat="46.61989" lon="0.41503">
        <ele>163.66</ele>
        <time>2019-02-24T09:53:12.000Z</time>
      </trkpt>
      <trkpt lat="46.61998" lon="0.415">
        <ele>165.64</ele>
        <time>2019-02-24T09:53:20.000Z</time>
      </trkpt>
      <trkpt lat="46.62007" lon="0.41493">
        <ele>167.81</ele>
        <time>2019-02-24T09:53:33.000Z</time>
      </trkpt>
      <trkpt lat="46.62016" lon="0.4149">
        <ele>167.99</ele>
        <time>2019-02-24T09:53:40.000Z</time>
      </trkpt>
      <trkpt lat="46.62017" lon="0.41503">
        <ele>166.37</ele>
        <time>2019-02-24T09:53:49.000Z</time>
      </trkpt>
      <trkpt lat="46.62022" lon="0.41515">
        <ele>165.6</ele>
        <time>2019-02-24T09:53:52.000Z</time>
      </trkpt>
      <trkpt lat="46.6203" lon="0.41525">
        <ele>165.06</ele>
        <time>2019-02-24T09:53:57.000Z</time>
      </trkpt>
      <trkpt lat="46.62036" lon="0.41539">
        <ele>164.79</ele>
        <time>2019-02-24T09:54:00.000Z</time>
      </trkpt>
      <trkpt lat="46.62045" lon="0.41545">
        <ele>164.58</ele>
        <time>2019-02-24T09:54:02.000Z</time>
      </trkpt>
      <trkpt lat="46.62054" lon="0.41554">
        <ele>164.11</ele>
        <time>2019-02-24T09:54:07.000Z</time>
      </trkpt>
      <trkpt lat="46.62064" lon="0.41559">
        <ele>163.06</ele>
        <time>2019-02-24T09:54:15.000Z</time>
      </trkpt>
      <trkpt lat="46.62072" lon="0.41565">
        <ele>162.33</ele>
        <time>2019-02-24T09:54:20.000Z</time>
      </trkpt>
      <trkpt lat="46.62081" lon="0.41566">
        <ele>161.86</ele>
        <time>2019-02-24T09:54:28.000Z</time>
      </trkpt>
      <trkpt lat="46.62091" lon="0.41567">
        <ele>162.34</ele>
        <time>2019-02-24T09:54:36.000Z</time>
      </trkpt>
      <trkpt lat="46.62098" lon="0.4156">
        <ele>162.77</ele>
        <time>2019-02-24T09:54:43.000Z</time>
      </trkpt>
      <trkpt lat="46.62096" lon="0.41544">
        <ele>162.83</ele>
        <time>2019-02-24T09:54:50.000Z</time>
      </trkpt>
      <trkpt lat="46.62093" lon="0.41532">
        <ele>161.97</ele>
        <time>2019-02-24T09:54:56.000Z</time>
      </trkpt>
      <trkpt lat="46.62093" lon="0.41518">
        <ele>160.49</ele>
        <time>2019-02-24T09:55:07.000Z</time>
      </trkpt>
      <trkpt lat="46.62096" lon="0.41532">
        <ele>159.1</ele>
        <time>2019-02-24T09:55:18.000Z</time>
      </trkpt>
      <trkpt lat="46.62097" lon="0.41547">
        <ele>158.44</ele>
        <time>2019-02-24T09:55:21.000Z</time>
      </trkpt>
      <trkpt lat="46.62105" lon="0.41553">
        <ele>157.96</ele>
        <time>2019-02-24T09:55:24.000Z</time>
      </trkpt>
      <trkpt lat="46.62114" lon="0.41555">
        <ele>157.65</ele>
        <time>2019-02-24T09:55:30.000Z</time>
      </trkpt>
      <trkpt lat="46.62117" lon="0.41541">
        <ele>158.01</ele>
        <time>2019-02-24T09:55:36.000Z</time>
      </trkpt>
      <trkpt lat="46.62127" lon="0.41541">
        <ele>159.24</ele>
        <time>2019-02-24T09:55:45.000Z</time>
      </trkpt>
      <trkpt lat="46.62136" lon="0.41545">
        <ele>160.73</ele>
        <time>2019-02-24T09:55:52.000Z</time>
      </trkpt>
      <trkpt lat="46.62146" lon="0.41546">
        <ele>161.75</ele>
        <time>2019-02-24T09:55:59.000Z</time>
      </trkpt>
      <trkpt lat="46.62155" lon="0.41541">
        <ele>162.56</ele>
        <time>2019-02-24T09:56:07.000Z</time>
      </trkpt>
      <trkpt lat="46.62164" lon="0.41545">
        <ele>163.4</ele>
        <time>2019-02-24T09:56:14.000Z</time>
      </trkpt>
      <trkpt lat="46.62172" lon="0.41554">
        <ele>163.52</ele>
        <time>2019-02-24T09:56:20.000Z</time>
      </trkpt>
      <trkpt lat="46.62179" lon="0.41565">
        <ele>163.4</ele>
        <time>2019-02-24T09:56:24.000Z</time>
      </trkpt>
      <trkpt lat="46.62187" lon="0.41573">
        <ele>163.61</ele>
        <time>2019-02-24T09:56:28.000Z</time>
      </trkpt>
      <trkpt lat="46.62194" lon="0.41586">
        <ele>163.78</ele>
        <time>2019-02-24T09:56:32.000Z</time>
      </trkpt>
      <trkpt lat="46.62202" lon="0.41598">
        <ele>163.76</ele>
        <time>2019-02-24T09:56:35.000Z</time>
      </trkpt>
      <trkpt lat="46.62211" lon="0.41603">
        <ele>163.71</ele>
        <time>2019-02-24T09:56:39.000Z</time>
      </trkpt>
      <trkpt lat="46.62221" lon="0.41612">
        <ele>163.83</ele>
        <time>2019-02-24T09:56:43.000Z</time>
      </trkpt>
      <trkpt lat="46.62233" lon="0.4162">
        <ele>164.15</ele>
        <time>2019-02-24T09:56:46.000Z</time>
      </trkpt>
      <trkpt lat="46.62243" lon="0.41625">
        <ele>164.59</ele>
        <time>2019-02-24T09:56:49.000Z</time>
      </trkpt>
      <trkpt lat="46.62254" lon="0.41624">
        <ele>165.29</ele>
        <time>2019-02-24T09:56:53.000Z</time>
      </trkpt>
      <trkpt lat="46.62261" lon="0.41614">
        <ele>165.5</ele>
        <time>2019-02-24T09:56:56.000Z</time>
      </trkpt>
      <trkpt lat="46.62255" lon="0.41623">
        <ele>162.4</ele>
        <time>2019-02-24T09:57:21.000Z</time>
      </trkpt>
      <trkpt lat="46.62252" lon="0.41638">
        <ele>161.21</ele>
        <time>2019-02-24T09:57:26.000Z</time>
      </trkpt>
      <trkpt lat="46.62251" lon="0.41655">
        <ele>160.24</ele>
        <time>2019-02-24T09:57:30.000Z</time>
      </trkpt>
      <trkpt lat="46.62257" lon="0.41664">
        <ele>159.55</ele>
        <time>2019-02-24T09:57:34.000Z</time>
      </trkpt>
      <trkpt lat="46.62265" lon="0.41657">
        <ele>157.6</ele>
        <time>2019-02-24T09:57:47.000Z</time>
      </trkpt>
      <trkpt lat="46.62268" lon="0.41643">
        <ele>157.56</ele>
        <time>2019-02-24T09:57:57.000Z</time>
      </trkpt>
      <trkpt lat="46.62271" lon="0.4163">
        <ele>157.67</ele>
        <time>2019-02-24T09:58:04.000Z</time>
      </trkpt>
      <trkpt lat="46.62275" lon="0.41614">
        <ele>157.78</ele>
        <time>2019-02-24T09:58:15.000Z</time>
      </trkpt>
      <trkpt lat="46.62278" lon="0.41601">
        <ele>158.49</ele>
        <time>2019-02-24T09:58:25.000Z</time>
      </trkpt>
      <trkpt lat="46.6228" lon="0.41587">
        <ele>160.34</ele>
        <time>2019-02-24T09:58:35.000Z</time>
      </trkpt>
      <trkpt lat="46.62281" lon="0.41573">
        <ele>161.28</ele>
        <time>2019-02-24T09:58:44.000Z</time>
      </trkpt>
      <trkpt lat="46.62283" lon="0.41558">
        <ele>162.19</ele>
        <time>2019-02-24T09:58:51.000Z</time>
      </trkpt>
      <trkpt lat="46.62281" lon="0.41545">
        <ele>162.37</ele>
        <time>2019-02-24T09:58:57.000Z</time>
      </trkpt>
      <trkpt lat="46.62281" lon="0.4153">
        <ele>162.32</ele>
        <time>2019-02-24T09:59:02.000Z</time>
      </trkpt>
      <trkpt lat="46.62281" lon="0.41516">
        <ele>162.16</ele>
        <time>2019-02-24T09:59:06.000Z</time>
      </trkpt>
      <trkpt lat="46.6228" lon="0.41502">
        <ele>161.93</ele>
        <time>2019-02-24T09:59:10.000Z</time>
      </trkpt>
      <trkpt lat="46.62281" lon="0.41487">
        <ele>161.65</ele>
        <time>2019-02-24T09:59:14.000Z</time>
      </trkpt>
      <trkpt lat="46.62281" lon="0.41472">
        <ele>161.38</ele>
        <time>2019-02-24T09:59:18.000Z</time>
      </trkpt>
      <trkpt lat="46.62281" lon="0.41459">
        <ele>161.18</ele>
        <time>2019-02-24T09:59:21.000Z</time>
      </trkpt>
      <trkpt lat="46.62281" lon="0.41446">
        <ele>160.99</ele>
        <time>2019-02-24T09:59:24.000Z</time>
      </trkpt>
      <trkpt lat="46.62283" lon="0.41429">
        <ele>160.77</ele>
        <time>2019-02-24T09:59:27.000Z</time>
      </trkpt>
      <trkpt lat="46.62283" lon="0.41413">
        <ele>160.52</ele>
        <time>2019-02-24T09:59:30.000Z</time>
      </trkpt>
      <trkpt lat="46.62283" lon="0.41397">
        <ele>158.29</ele>
        <time>2019-02-24T09:59:33.000Z</time>
      </trkpt>
      <trkpt lat="46.62285" lon="0.4138">
        <ele>157.51</ele>
        <time>2019-02-24T09:59:36.000Z</time>
      </trkpt>
      <trkpt lat="46.62286" lon="0.41366">
        <ele>157.03</ele>
        <time>2019-02-24T09:59:38.000Z</time>
      </trkpt>
      <trkpt lat="46.62287" lon="0.41353">
        <ele>156.74</ele>
        <time>2019-02-24T09:59:40.000Z</time>
      </trkpt>
      <trkpt lat="46.62289" lon="0.4134">
        <ele>156.28</ele>
        <time>2019-02-24T09:59:42.000Z</time>
      </trkpt>
      <trkpt lat="46.62292" lon="0.41326">
        <ele>155.67</ele>
        <time>2019-02-24T09:59:44.000Z</time>
      </trkpt>
      <trkpt lat="46.62295" lon="0.41309">
        <ele>154.8</ele>
        <time>2019-02-24T09:59:46.000Z</time>
      </trkpt>
      <trkpt lat="46.62299" lon="0.4129">
        <ele>153.77</ele>
        <time>2019-02-24T09:59:48.000Z</time>
      </trkpt>
      <trkpt lat="46.62303" lon="0.41269">
        <ele>152.76</ele>
        <time>2019-02-24T09:59:50.000Z</time>
      </trkpt>
      <trkpt lat="46.62307" lon="0.41248">
        <ele>151.83</ele>
        <time>2019-02-24T09:59:52.000Z</time>
      </trkpt>
      <trkpt lat="46.62314" lon="0.41228">
        <ele>150.86</ele>
        <time>2019-02-24T09:59:54.000Z</time>
      </trkpt>
      <trkpt lat="46.62322" lon="0.41209">
        <ele>149.79</ele>
        <time>2019-02-24T09:59:56.000Z</time>
      </trkpt>
      <trkpt lat="46.62329" lon="0.41192">
        <ele>148.87</ele>
        <time>2019-02-24T09:59:58.000Z</time>
      </trkpt>
      <trkpt lat="46.62335" lon="0.41178">
        <ele>148.18</ele>
        <time>2019-02-24T10:00:00.000Z</time>
      </trkpt>
      <trkpt lat="46.62341" lon="0.4119">
        <ele>147.73</ele>
        <time>2019-02-24T10:00:08.000Z</time>
      </trkpt>
      <trkpt lat="46.62345" lon="0.4121">
        <ele>147.65</ele>
        <time>2019-02-24T10:00:11.000Z</time>
      </trkpt>
      <trkpt lat="46.62349" lon="0.41225">
        <ele>148.08</ele>
        <time>2019-02-24T10:00:13.000Z</time>
      </trkpt>
      <trkpt lat="46.62355" lon="0.41242">
        <ele>148.74</ele>
        <time>2019-02-24T10:00:15.000Z</time>
      </trkpt>
      <trkpt lat="46.62362" lon="0.41259">
        <ele>149.34</ele>
        <time>2019-02-24T10:00:17.000Z</time>
      </trkpt>
      <trkpt lat="46.62368" lon="0.41275">
        <ele>149.44</ele>
        <time>2019-02-24T10:00:19.000Z</time>
      </trkpt>
      <trkpt lat="46.62377" lon="0.41291">
        <ele>149.73</ele>
        <time>2019-02-24T10:00:21.000Z</time>
      </trkpt>
      <trkpt lat="46.62385" lon="0.41309">
        <ele>150.67</ele>
        <time>2019-02-24T10:00:23.000Z</time>
      </trkpt>
      <trkpt lat="46.62394" lon="0.41326">
        <ele>151.39</ele>
        <time>2019-02-24T10:00:25.000Z</time>
      </trkpt>
      <trkpt lat="46.62404" lon="0.41348">
        <ele>151.59</ele>
        <time>2019-02-24T10:00:27.000Z</time>
      </trkpt>
      <trkpt lat="46.62408" lon="0.4136">
        <ele>151.81</ele>
        <time>2019-02-24T10:00:28.000Z</time>
      </trkpt>
      <trkpt lat="46.62413" lon="0.41372">
        <ele>152.15</ele>
        <time>2019-02-24T10:00:29.000Z</time>
      </trkpt>
      <trkpt lat="46.62418" lon="0.41385">
        <ele>152.11</ele>
        <time>2019-02-24T10:00:30.000Z</time>
      </trkpt>
      <trkpt lat="46.62421" lon="0.41398">
        <ele>151.96</ele>
        <time>2019-02-24T10:00:31.000Z</time>
      </trkpt>
      <trkpt lat="46.62428" lon="0.41418">
        <ele>150.42</ele>
        <time>2019-02-24T10:00:33.000Z</time>
      </trkpt>
      <trkpt lat="46.62435" lon="0.41435">
        <ele>148.08</ele>
        <time>2019-02-24T10:00:35.000Z</time>
      </trkpt>
      <trkpt lat="46.6244" lon="0.4145">
        <ele>146.83</ele>
        <time>2019-02-24T10:00:37.000Z</time>
      </trkpt>
      <trkpt lat="46.62444" lon="0.41463">
        <ele>146.84</ele>
        <time>2019-02-24T10:00:39.000Z</time>
      </trkpt>
      <trkpt lat="46.62451" lon="0.41475">
        <ele>148.03</ele>
        <time>2019-02-24T10:00:41.000Z</time>
      </trkpt>
      <trkpt lat="46.62458" lon="0.41488">
        <ele>149.69</ele>
        <time>2019-02-24T10:00:43.000Z</time>
      </trkpt>
      <trkpt lat="46.62463" lon="0.41503">
        <ele>151.3</ele>
        <time>2019-02-24T10:00:45.000Z</time>
      </trkpt>
      <trkpt lat="46.62469" lon="0.41514">
        <ele>153.77</ele>
        <time>2019-02-24T10:00:47.000Z</time>
      </trkpt>
      <trkpt lat="46.62477" lon="0.41527">
        <ele>157.34</ele>
        <time>2019-02-24T10:00:49.000Z</time>
      </trkpt>
      <trkpt lat="46.62485" lon="0.41538">
        <ele>157.83</ele>
        <time>2019-02-24T10:00:53.000Z</time>
      </trkpt>
      <trkpt lat="46.62493" lon="0.41548">
        <ele>158.2</ele>
        <time>2019-02-24T10:00:56.000Z</time>
      </trkpt>
      <trkpt lat="46.62502" lon="0.41556">
        <ele>158.95</ele>
        <time>2019-02-24T10:01:00.000Z</time>
      </trkpt>
      <trkpt lat="46.62513" lon="0.41559">
        <ele>159.83</ele>
        <time>2019-02-24T10:01:05.000Z</time>
      </trkpt>
      <trkpt lat="46.62523" lon="0.41562">
        <ele>160.8</ele>
        <time>2019-02-24T10:01:10.000Z</time>
      </trkpt>
      <trkpt lat="46.62532" lon="0.4157">
        <ele>161.4</ele>
        <time>2019-02-24T10:01:15.000Z</time>
      </trkpt>
      <trkpt lat="46.62543" lon="0.41573">
        <ele>161.96</ele>
        <time>2019-02-24T10:01:19.000Z</time>
      </trkpt>
      <trkpt lat="46.6255" lon="0.41587">
        <ele>161.08</ele>
        <time>2019-02-24T10:01:34.000Z</time>
      </trkpt>
      <trkpt lat="46.62555" lon="0.41599">
        <ele>159.91</ele>
        <time>2019-02-24T10:01:38.000Z</time>
      </trkpt>
      <trkpt lat="46.62559" lon="0.41612">
        <ele>158.64</ele>
        <time>2019-02-24T10:01:43.000Z</time>
      </trkpt>
      <trkpt lat="46.62563" lon="0.41628">
        <ele>157.98</ele>
        <time>2019-02-24T10:01:48.000Z</time>
      </trkpt>
      <trkpt lat="46.62565" lon="0.41641">
        <ele>157.75</ele>
        <time>2019-02-24T10:01:54.000Z</time>
      </trkpt>
      <trkpt lat="46.62569" lon="0.41654">
        <ele>157.17</ele>
        <time>2019-02-24T10:02:03.000Z</time>
      </trkpt>
      <trkpt lat="46.6257" lon="0.41668">
        <ele>157.25</ele>
        <time>2019-02-24T10:02:09.000Z</time>
      </trkpt>
      <trkpt lat="46.62562" lon="0.41678">
        <ele>157.32</ele>
        <time>2019-02-24T10:02:17.000Z</time>
      </trkpt>
      <trkpt lat="46.62557" lon="0.41689">
        <ele>156.95</ele>
        <time>2019-02-24T10:02:22.000Z</time>
      </trkpt>
      <trkpt lat="46.62553" lon="0.41703">
        <ele>155.81</ele>
        <time>2019-02-24T10:02:27.000Z</time>
      </trkpt>
      <trkpt lat="46.62552" lon="0.41717">
        <ele>154.66</ele>
        <time>2019-02-24T10:02:32.000Z</time>
      </trkpt>
      <trkpt lat="46.62545" lon="0.41729">
        <ele>153.39</ele>
        <time>2019-02-24T10:02:40.000Z</time>
      </trkpt>
      <trkpt lat="46.62536" lon="0.41731">
        <ele>153.17</ele>
        <time>2019-02-24T10:02:42.000Z</time>
      </trkpt>
      <trkpt lat="46.62543" lon="0.41722">
        <ele>152.16</ele>
        <time>2019-02-24T10:02:57.000Z</time>
      </trkpt>
      <trkpt lat="46.6255" lon="0.41711">
        <ele>152.11</ele>
        <time>2019-02-24T10:03:02.000Z</time>
      </trkpt>
      <trkpt lat="46.6255" lon="0.41696">
        <ele>151.89</ele>
        <time>2019-02-24T10:03:09.000Z</time>
      </trkpt>
      <trkpt lat="46.62543" lon="0.41686">
        <ele>151.15</ele>
        <time>2019-02-24T10:03:13.000Z</time>
      </trkpt>
      <trkpt lat="46.62534" lon="0.41691">
        <ele>149.61</ele>
        <time>2019-02-24T10:03:21.000Z</time>
      </trkpt>
      <trkpt lat="46.62523" lon="0.41695">
        <ele>149.09</ele>
        <time>2019-02-24T10:03:25.000Z</time>
      </trkpt>
      <trkpt lat="46.62515" lon="0.41705">
        <ele>148.65</ele>
        <time>2019-02-24T10:03:29.000Z</time>
      </trkpt>
      <trkpt lat="46.62506" lon="0.41713">
        <ele>148.13</ele>
        <time>2019-02-24T10:03:33.000Z</time>
      </trkpt>
      <trkpt lat="46.62502" lon="0.41727">
        <ele>147.65</ele>
        <time>2019-02-24T10:03:37.000Z</time>
      </trkpt>
      <trkpt lat="46.62507" lon="0.41738">
        <ele>147.38</ele>
        <time>2019-02-24T10:03:40.000Z</time>
      </trkpt>
      <trkpt lat="46.62515" lon="0.41748">
        <ele>147.2</ele>
        <time>2019-02-24T10:03:44.000Z</time>
      </trkpt>
      <trkpt lat="46.62522" lon="0.41757">
        <ele>147.19</ele>
        <time>2019-02-24T10:03:48.000Z</time>
      </trkpt>
      <trkpt lat="46.6253" lon="0.41766">
        <ele>147.24</ele>
        <time>2019-02-24T10:03:52.000Z</time>
      </trkpt>
      <trkpt lat="46.62538" lon="0.41774">
        <ele>147.39</ele>
        <time>2019-02-24T10:03:56.000Z</time>
      </trkpt>
      <trkpt lat="46.62548" lon="0.41779">
        <ele>147.79</ele>
        <time>2019-02-24T10:04:01.000Z</time>
      </trkpt>
      <trkpt lat="46.62558" lon="0.41786">
        <ele>148.38</ele>
        <time>2019-02-24T10:04:06.000Z</time>
      </trkpt>
      <trkpt lat="46.62569" lon="0.41794">
        <ele>149.18</ele>
        <time>2019-02-24T10:04:12.000Z</time>
      </trkpt>
      <trkpt lat="46.62577" lon="0.41803">
        <ele>149.67</ele>
        <time>2019-02-24T10:04:16.000Z</time>
      </trkpt>
      <trkpt lat="46.62587" lon="0.4181">
        <ele>150.08</ele>
        <time>2019-02-24T10:04:20.000Z</time>
      </trkpt>
      <trkpt lat="46.62595" lon="0.41817">
        <ele>150.34</ele>
        <time>2019-02-24T10:04:24.000Z</time>
      </trkpt>
      <trkpt lat="46.62603" lon="0.41826">
        <ele>150.44</ele>
        <time>2019-02-24T10:04:30.000Z</time>
      </trkpt>
      <trkpt lat="46.6261" lon="0.41836">
        <ele>150.51</ele>
        <time>2019-02-24T10:04:35.000Z</time>
      </trkpt>
      <trkpt lat="46.62618" lon="0.41847">
        <ele>150.77</ele>
        <time>2019-02-24T10:04:42.000Z</time>
      </trkpt>
      <trkpt lat="46.62627" lon="0.41857">
        <ele>151.03</ele>
        <time>2019-02-24T10:04:47.000Z</time>
      </trkpt>
      <trkpt lat="46.62635" lon="0.41866">
        <ele>151.34</ele>
        <time>2019-02-24T10:04:52.000Z</time>
      </trkpt>
      <trkpt lat="46.62642" lon="0.41875">
        <ele>151.7</ele>
        <time>2019-02-24T10:04:56.000Z</time>
      </trkpt>
      <trkpt lat="46.62649" lon="0.41883">
        <ele>151.9</ele>
        <time>2019-02-24T10:05:02.000Z</time>
      </trkpt>
      <trkpt lat="46.62656" lon="0.41891">
        <ele>152.11</ele>
        <time>2019-02-24T10:05:08.000Z</time>
      </trkpt>
      <trkpt lat="46.62665" lon="0.41896">
        <ele>152.69</ele>
        <time>2019-02-24T10:05:12.000Z</time>
      </trkpt>
      <trkpt lat="46.62674" lon="0.41904">
        <ele>153.41</ele>
        <time>2019-02-24T10:05:18.000Z</time>
      </trkpt>
      <trkpt lat="46.62679" lon="0.41916">
        <ele>154.43</ele>
        <time>2019-02-24T10:05:27.000Z</time>
      </trkpt>
      <trkpt lat="46.62679" lon="0.4193">
        <ele>155.19</ele>
        <time>2019-02-24T10:05:34.000Z</time>
      </trkpt>
      <trkpt lat="46.62678" lon="0.41945">
        <ele>156.03</ele>
        <time>2019-02-24T10:05:43.000Z</time>
      </trkpt>
      <trkpt lat="46.62679" lon="0.41959">
        <ele>156.01</ele>
        <time>2019-02-24T10:05:47.000Z</time>
      </trkpt>
      <trkpt lat="46.62679" lon="0.41972">
        <ele>155.9</ele>
        <time>2019-02-24T10:05:51.000Z</time>
      </trkpt>
      <trkpt lat="46.62679" lon="0.41988">
        <ele>156.02</ele>
        <time>2019-02-24T10:05:56.000Z</time>
      </trkpt>
      <trkpt lat="46.62682" lon="0.42004">
        <ele>156.35</ele>
        <time>2019-02-24T10:06:01.000Z</time>
      </trkpt>
      <trkpt lat="46.62685" lon="0.42017">
        <ele>156.69</ele>
        <time>2019-02-24T10:06:05.000Z</time>
      </trkpt>
      <trkpt lat="46.62686" lon="0.42031">
        <ele>157.04</ele>
        <time>2019-02-24T10:06:09.000Z</time>
      </trkpt>
      <trkpt lat="46.62687" lon="0.42046">
        <ele>157.48</ele>
        <time>2019-02-24T10:06:14.000Z</time>
      </trkpt>
      <trkpt lat="46.62689" lon="0.42059">
        <ele>157.85</ele>
        <time>2019-02-24T10:06:18.000Z</time>
      </trkpt>
      <trkpt lat="46.6269" lon="0.42075">
        <ele>158.22</ele>
        <time>2019-02-24T10:06:22.000Z</time>
      </trkpt>
      <trkpt lat="46.62693" lon="0.42089">
        <ele>158.42</ele>
        <time>2019-02-24T10:06:25.000Z</time>
      </trkpt>
      <trkpt lat="46.62697" lon="0.421">
        <ele>158.59</ele>
        <time>2019-02-24T10:06:28.000Z</time>
      </trkpt>
      <trkpt lat="46.62702" lon="0.42117">
        <ele>158.78</ele>
        <time>2019-02-24T10:06:31.000Z</time>
      </trkpt>
      <trkpt lat="46.62705" lon="0.4213">
        <ele>159.05</ele>
        <time>2019-02-24T10:06:34.000Z</time>
      </trkpt>
      <trkpt lat="46.62708" lon="0.42145">
        <ele>159.33</ele>
        <time>2019-02-24T10:06:38.000Z</time>
      </trkpt>
      <trkpt lat="46.6271" lon="0.42159">
        <ele>159.63</ele>
        <time>2019-02-24T10:06:42.000Z</time>
      </trkpt>
      <trkpt lat="46.62713" lon="0.42173">
        <ele>159.73</ele>
        <time>2019-02-24T10:07:19.000Z</time>
      </trkpt>
      <trkpt lat="46.62707" lon="0.42184">
        <ele>159.99</ele>
        <time>2019-02-24T10:07:23.000Z</time>
      </trkpt>
      <trkpt lat="46.62715" lon="0.42177">
        <ele>162.13</ele>
        <time>2019-02-24T10:08:15.000Z</time>
      </trkpt>
      <trkpt lat="46.62711" lon="0.4219">
        <ele>163.18</ele>
        <time>2019-02-24T10:08:53.000Z</time>
      </trkpt>
      <trkpt lat="46.62702" lon="0.42201">
        <ele>163.74</ele>
        <time>2019-02-24T10:08:57.000Z</time>
      </trkpt>
      <trkpt lat="46.62697" lon="0.42212">
        <ele>164.18</ele>
        <time>2019-02-24T10:09:00.000Z</time>
      </trkpt>
      <trkpt lat="46.62693" lon="0.42227">
        <ele>164.61</ele>
        <time>2019-02-24T10:09:03.000Z</time>
      </trkpt>
      <trkpt lat="46.62693" lon="0.4224">
        <ele>165.06</ele>
        <time>2019-02-24T10:09:06.000Z</time>
      </trkpt>
      <trkpt lat="46.62694" lon="0.42258">
        <ele>168.3</ele>
        <time>2019-02-24T10:09:09.000Z</time>
      </trkpt>
      <trkpt lat="46.62695" lon="0.42277">
        <ele>169.29</ele>
        <time>2019-02-24T10:09:12.000Z</time>
      </trkpt>
      <trkpt lat="46.62696" lon="0.42297">
        <ele>169.45</ele>
        <time>2019-02-24T10:09:15.000Z</time>
      </trkpt>
      <trkpt lat="46.62698" lon="0.42311">
        <ele>169.39</ele>
        <time>2019-02-24T10:09:17.000Z</time>
      </trkpt>
      <trkpt lat="46.62702" lon="0.42327">
        <ele>169.37</ele>
        <time>2019-02-24T10:09:19.000Z</time>
      </trkpt>
      <trkpt lat="46.62706" lon="0.42341">
        <ele>169.57</ele>
        <time>2019-02-24T10:09:21.000Z</time>
      </trkpt>
      <trkpt lat="46.62711" lon="0.42356">
        <ele>169.79</ele>
        <time>2019-02-24T10:09:23.000Z</time>
      </trkpt>
      <trkpt lat="46.62718" lon="0.42371">
        <ele>169.74</ele>
        <time>2019-02-24T10:09:25.000Z</time>
      </trkpt>
      <trkpt lat="46.62725" lon="0.42384">
        <ele>169.54</ele>
        <time>2019-02-24T10:09:27.000Z</time>
      </trkpt>
      <trkpt lat="46.6273" lon="0.42396">
        <ele>169.45</ele>
        <time>2019-02-24T10:09:29.000Z</time>
      </trkpt>
      <trkpt lat="46.62735" lon="0.42408">
        <ele>169.54</ele>
        <time>2019-02-24T10:09:31.000Z</time>
      </trkpt>
      <trkpt lat="46.6274" lon="0.42421">
        <ele>169.88</ele>
        <time>2019-02-24T10:09:33.000Z</time>
      </trkpt>
      <trkpt lat="46.62745" lon="0.42433">
        <ele>170.06</ele>
        <time>2019-02-24T10:09:35.000Z</time>
      </trkpt>
      <trkpt lat="46.62749" lon="0.42446">
        <ele>170.33</ele>
        <time>2019-02-24T10:09:37.000Z</time>
      </trkpt>
      <trkpt lat="46.62753" lon="0.42458">
        <ele>170.69</ele>
        <time>2019-02-24T10:09:39.000Z</time>
      </trkpt>
      <trkpt lat="46.62757" lon="0.4247">
        <ele>171.03</ele>
        <time>2019-02-24T10:09:41.000Z</time>
      </trkpt>
      <trkpt lat="46.62761" lon="0.42486">
        <ele>171.41</ele>
        <time>2019-02-24T10:09:44.000Z</time>
      </trkpt>
      <trkpt lat="46.62763" lon="0.42502">
        <ele>171.27</ele>
        <time>2019-02-24T10:09:47.000Z</time>
      </trkpt>
      <trkpt lat="46.62765" lon="0.42517">
        <ele>171.26</ele>
        <time>2019-02-24T10:09:50.000Z</time>
      </trkpt>
      <trkpt lat="46.62766" lon="0.4253">
        <ele>171.3</ele>
        <time>2019-02-24T10:09:53.000Z</time>
      </trkpt>
      <trkpt lat="46.62767" lon="0.42546">
        <ele>171.4</ele>
        <time>2019-02-24T10:09:57.000Z</time>
      </trkpt>
      <trkpt lat="46.62769" lon="0.42564">
        <ele>171.55</ele>
        <time>2019-02-24T10:10:01.000Z</time>
      </trkpt>
      <trkpt lat="46.62769" lon="0.42577">
        <ele>171.68</ele>
        <time>2019-02-24T10:10:04.000Z</time>
      </trkpt>
      <trkpt lat="46.6277" lon="0.42591">
        <ele>171.8</ele>
        <time>2019-02-24T10:10:07.000Z</time>
      </trkpt>
      <trkpt lat="46.62771" lon="0.42608">
        <ele>171.92</ele>
        <time>2019-02-24T10:10:11.000Z</time>
      </trkpt>
      <trkpt lat="46.62772" lon="0.42621">
        <ele>171.96</ele>
        <time>2019-02-24T10:10:14.000Z</time>
      </trkpt>
      <trkpt lat="46.62772" lon="0.42634">
        <ele>171.98</ele>
        <time>2019-02-24T10:10:17.000Z</time>
      </trkpt>
      <trkpt lat="46.62771" lon="0.42647">
        <ele>172.03</ele>
        <time>2019-02-24T10:10:20.000Z</time>
      </trkpt>
      <trkpt lat="46.6277" lon="0.42661">
        <ele>172.09</ele>
        <time>2019-02-24T10:10:23.000Z</time>
      </trkpt>
      <trkpt lat="46.62768" lon="0.42678">
        <ele>172.18</ele>
        <time>2019-02-24T10:10:27.000Z</time>
      </trkpt>
      <trkpt lat="46.62767" lon="0.42691">
        <ele>172.29</ele>
        <time>2019-02-24T10:10:30.000Z</time>
      </trkpt>
      <trkpt lat="46.62766" lon="0.42705">
        <ele>172.43</ele>
        <time>2019-02-24T10:10:33.000Z</time>
      </trkpt>
      <trkpt lat="46.62765" lon="0.42719">
        <ele>172.57</ele>
        <time>2019-02-24T10:10:36.000Z</time>
      </trkpt>
      <trkpt lat="46.62763" lon="0.42732">
        <ele>172.71</ele>
        <time>2019-02-24T10:10:39.000Z</time>
      </trkpt>
      <trkpt lat="46.62761" lon="0.42749">
        <ele>172.91</ele>
        <time>2019-02-24T10:10:43.000Z</time>
      </trkpt>
      <trkpt lat="46.62759" lon="0.42763">
        <ele>173</ele>
        <time>2019-02-24T10:10:46.000Z</time>
      </trkpt>
      <trkpt lat="46.62759" lon="0.42777">
        <ele>173.1</ele>
        <time>2019-02-24T10:10:49.000Z</time>
      </trkpt>
      <trkpt lat="46.62757" lon="0.4279">
        <ele>173.25</ele>
        <time>2019-02-24T10:10:52.000Z</time>
      </trkpt>
      <trkpt lat="46.62755" lon="0.42804">
        <ele>173.41</ele>
        <time>2019-02-24T10:10:55.000Z</time>
      </trkpt>
      <trkpt lat="46.62753" lon="0.42818">
        <ele>173.57</ele>
        <time>2019-02-24T10:10:58.000Z</time>
      </trkpt>
      <trkpt lat="46.62751" lon="0.42831">
        <ele>173.66</ele>
        <time>2019-02-24T10:11:01.000Z</time>
      </trkpt>
      <trkpt lat="46.62749" lon="0.42846">
        <ele>173.71</ele>
        <time>2019-02-24T10:11:04.000Z</time>
      </trkpt>
      <trkpt lat="46.62747" lon="0.42859">
        <ele>173.76</ele>
        <time>2019-02-24T10:11:07.000Z</time>
      </trkpt>
      <trkpt lat="46.62745" lon="0.42872">
        <ele>173.83</ele>
        <time>2019-02-24T10:11:10.000Z</time>
      </trkpt>
      <trkpt lat="46.62742" lon="0.42886">
        <ele>173.92</ele>
        <time>2019-02-24T10:11:13.000Z</time>
      </trkpt>
      <trkpt lat="46.62734" lon="0.42891">
        <ele>174.07</ele>
        <time>2019-02-24T10:11:17.000Z</time>
      </trkpt>
      <trkpt lat="46.62723" lon="0.42887">
        <ele>174.34</ele>
        <time>2019-02-24T10:11:20.000Z</time>
      </trkpt>
      <trkpt lat="46.62713" lon="0.42883">
        <ele>176.74</ele>
        <time>2019-02-24T10:11:23.000Z</time>
      </trkpt>
      <trkpt lat="46.62701" lon="0.42878">
        <ele>179.4</ele>
        <time>2019-02-24T10:11:26.000Z</time>
      </trkpt>
      <trkpt lat="46.62689" lon="0.42872">
        <ele>181.15</ele>
        <time>2019-02-24T10:11:29.000Z</time>
      </trkpt>
      <trkpt lat="46.62679" lon="0.42866">
        <ele>182.14</ele>
        <time>2019-02-24T10:11:32.000Z</time>
      </trkpt>
      <trkpt lat="46.62668" lon="0.42877">
        <ele>183.43</ele>
        <time>2019-02-24T10:11:35.000Z</time>
      </trkpt>
      <trkpt lat="46.62665" lon="0.4289">
        <ele>184.2</ele>
        <time>2019-02-24T10:11:37.000Z</time>
      </trkpt>
      <trkpt lat="46.62662" lon="0.42903">
        <ele>184.81</ele>
        <time>2019-02-24T10:11:39.000Z</time>
      </trkpt>
      <trkpt lat="46.62658" lon="0.42917">
        <ele>184.96</ele>
        <time>2019-02-24T10:11:41.000Z</time>
      </trkpt>
      <trkpt lat="46.62655" lon="0.42932">
        <ele>184.15</ele>
        <time>2019-02-24T10:11:43.000Z</time>
      </trkpt>
      <trkpt lat="46.62652" lon="0.42945">
        <ele>182.72</ele>
        <time>2019-02-24T10:11:45.000Z</time>
      </trkpt>
      <trkpt lat="46.6265" lon="0.42957">
        <ele>180.92</ele>
        <time>2019-02-24T10:11:47.000Z</time>
      </trkpt>
      <trkpt lat="46.62646" lon="0.42974">
        <ele>178.7</ele>
        <time>2019-02-24T10:11:50.000Z</time>
      </trkpt>
      <trkpt lat="46.62639" lon="0.42987">
        <ele>177.85</ele>
        <time>2019-02-24T10:11:53.000Z</time>
      </trkpt>
      <trkpt lat="46.62626" lon="0.42991">
        <ele>177.78</ele>
        <time>2019-02-24T10:11:56.000Z</time>
      </trkpt>
      <trkpt lat="46.62618" lon="0.42986">
        <ele>178.15</ele>
        <time>2019-02-24T10:11:58.000Z</time>
      </trkpt>
      <trkpt lat="46.62609" lon="0.42981">
        <ele>178.72</ele>
        <time>2019-02-24T10:12:00.000Z</time>
      </trkpt>
      <trkpt lat="46.62598" lon="0.42987">
        <ele>179.1</ele>
        <time>2019-02-24T10:12:03.000Z</time>
      </trkpt>
      <trkpt lat="46.62594" lon="0.43001">
        <ele>179.17</ele>
        <time>2019-02-24T10:12:05.000Z</time>
      </trkpt>
      <trkpt lat="46.6259" lon="0.43013">
        <ele>178.86</ele>
        <time>2019-02-24T10:12:07.000Z</time>
      </trkpt>
      <trkpt lat="46.62585" lon="0.43032">
        <ele>178.06</ele>
        <time>2019-02-24T10:12:10.000Z</time>
      </trkpt>
      <trkpt lat="46.6258" lon="0.4305">
        <ele>177.01</ele>
        <time>2019-02-24T10:12:13.000Z</time>
      </trkpt>
      <trkpt lat="46.62579" lon="0.43063">
        <ele>176.55</ele>
        <time>2019-02-24T10:12:15.000Z</time>
      </trkpt>
      <trkpt lat="46.62588" lon="0.43078">
        <ele>176.39</ele>
        <time>2019-02-24T10:12:18.000Z</time>
      </trkpt>
      <trkpt lat="46.62597" lon="0.43086">
        <ele>176.41</ele>
        <time>2019-02-24T10:12:20.000Z</time>
      </trkpt>
      <trkpt lat="46.62606" lon="0.43091">
        <ele>177.02</ele>
        <time>2019-02-24T10:12:22.000Z</time>
      </trkpt>
      <trkpt lat="46.62618" lon="0.43098">
        <ele>179.87</ele>
        <time>2019-02-24T10:12:25.000Z</time>
      </trkpt>
      <trkpt lat="46.6263" lon="0.43105">
        <ele>183.58</ele>
        <time>2019-02-24T10:12:28.000Z</time>
      </trkpt>
      <trkpt lat="46.6264" lon="0.43113">
        <ele>184.32</ele>
        <time>2019-02-24T10:12:32.000Z</time>
      </trkpt>
      <trkpt lat="46.62642" lon="0.4313">
        <ele>185.42</ele>
        <time>2019-02-24T10:12:38.000Z</time>
      </trkpt>
      <trkpt lat="46.62639" lon="0.43144">
        <ele>185.45</ele>
        <time>2019-02-24T10:12:41.000Z</time>
      </trkpt>
      <trkpt lat="46.62644" lon="0.43157">
        <ele>185.34</ele>
        <time>2019-02-24T10:12:44.000Z</time>
      </trkpt>
      <trkpt lat="46.62645" lon="0.43171">
        <ele>185.04</ele>
        <time>2019-02-24T10:12:48.000Z</time>
      </trkpt>
      <trkpt lat="46.62647" lon="0.43184">
        <ele>184.31</ele>
        <time>2019-02-24T10:12:58.000Z</time>
      </trkpt>
      <trkpt lat="46.62656" lon="0.43181">
        <ele>186.39</ele>
        <time>2019-02-24T10:13:23.000Z</time>
      </trkpt>
      <trkpt lat="46.62656" lon="0.43194">
        <ele>186.21</ele>
        <time>2019-02-24T10:15:07.000Z</time>
      </trkpt>
      <trkpt lat="46.62658" lon="0.4321">
        <ele>186.39</ele>
        <time>2019-02-24T10:15:11.000Z</time>
      </trkpt>
      <trkpt lat="46.62657" lon="0.43224">
        <ele>186.32</ele>
        <time>2019-02-24T10:15:15.000Z</time>
      </trkpt>
      <trkpt lat="46.62656" lon="0.4324">
        <ele>186.07</ele>
        <time>2019-02-24T10:15:19.000Z</time>
      </trkpt>
      <trkpt lat="46.62654" lon="0.43253">
        <ele>185.7</ele>
        <time>2019-02-24T10:15:22.000Z</time>
      </trkpt>
      <trkpt lat="46.62652" lon="0.43267">
        <ele>185.31</ele>
        <time>2019-02-24T10:15:25.000Z</time>
      </trkpt>
      <trkpt lat="46.62649" lon="0.43282">
        <ele>184.96</ele>
        <time>2019-02-24T10:15:28.000Z</time>
      </trkpt>
      <trkpt lat="46.62644" lon="0.43297">
        <ele>183.91</ele>
        <time>2019-02-24T10:15:31.000Z</time>
      </trkpt>
      <trkpt lat="46.62636" lon="0.43308">
        <ele>182.68</ele>
        <time>2019-02-24T10:15:34.000Z</time>
      </trkpt>
      <trkpt lat="46.62625" lon="0.4332">
        <ele>181.85</ele>
        <time>2019-02-24T10:15:37.000Z</time>
      </trkpt>
      <trkpt lat="46.62617" lon="0.43329">
        <ele>181.37</ele>
        <time>2019-02-24T10:15:39.000Z</time>
      </trkpt>
      <trkpt lat="46.62608" lon="0.43338">
        <ele>180.84</ele>
        <time>2019-02-24T10:15:41.000Z</time>
      </trkpt>
      <trkpt lat="46.62598" lon="0.43346">
        <ele>180.4</ele>
        <time>2019-02-24T10:15:43.000Z</time>
      </trkpt>
      <trkpt lat="46.62589" lon="0.43353">
        <ele>180.1</ele>
        <time>2019-02-24T10:15:45.000Z</time>
      </trkpt>
      <trkpt lat="46.62578" lon="0.43361">
        <ele>179.61</ele>
        <time>2019-02-24T10:15:47.000Z</time>
      </trkpt>
      <trkpt lat="46.62571" lon="0.43373">
        <ele>179.07</ele>
        <time>2019-02-24T10:15:49.000Z</time>
      </trkpt>
      <trkpt lat="46.62571" lon="0.4339">
        <ele>178.59</ele>
        <time>2019-02-24T10:15:51.000Z</time>
      </trkpt>
      <trkpt lat="46.62575" lon="0.43406">
        <ele>177.96</ele>
        <time>2019-02-24T10:15:53.000Z</time>
      </trkpt>
      <trkpt lat="46.62579" lon="0.43423">
        <ele>177.41</ele>
        <time>2019-02-24T10:15:55.000Z</time>
      </trkpt>
      <trkpt lat="46.62582" lon="0.43441">
        <ele>176.45</ele>
        <time>2019-02-24T10:15:57.000Z</time>
      </trkpt>
      <trkpt lat="46.62585" lon="0.43458">
        <ele>175.06</ele>
        <time>2019-02-24T10:15:59.000Z</time>
      </trkpt>
      <trkpt lat="46.62588" lon="0.43476">
        <ele>173.7</ele>
        <time>2019-02-24T10:16:01.000Z</time>
      </trkpt>
      <trkpt lat="46.62588" lon="0.43493">
        <ele>172.53</ele>
        <time>2019-02-24T10:16:03.000Z</time>
      </trkpt>
      <trkpt lat="46.62592" lon="0.43509">
        <ele>171.51</ele>
        <time>2019-02-24T10:16:05.000Z</time>
      </trkpt>
      <trkpt lat="46.62597" lon="0.43524">
        <ele>170.61</ele>
        <time>2019-02-24T10:16:07.000Z</time>
      </trkpt>
      <trkpt lat="46.62602" lon="0.4354">
        <ele>169.94</ele>
        <time>2019-02-24T10:16:09.000Z</time>
      </trkpt>
      <trkpt lat="46.62607" lon="0.43555">
        <ele>169.29</ele>
        <time>2019-02-24T10:16:11.000Z</time>
      </trkpt>
      <trkpt lat="46.62611" lon="0.43571">
        <ele>168.73</ele>
        <time>2019-02-24T10:16:13.000Z</time>
      </trkpt>
      <trkpt lat="46.62617" lon="0.43586">
        <ele>168.14</ele>
        <time>2019-02-24T10:16:15.000Z</time>
      </trkpt>
      <trkpt lat="46.62623" lon="0.43601">
        <ele>167.55</ele>
        <time>2019-02-24T10:16:17.000Z</time>
      </trkpt>
      <trkpt lat="46.62627" lon="0.43615">
        <ele>167.04</ele>
        <time>2019-02-24T10:16:19.000Z</time>
      </trkpt>
      <trkpt lat="46.62632" lon="0.43628">
        <ele>166.49</ele>
        <time>2019-02-24T10:16:21.000Z</time>
      </trkpt>
      <trkpt lat="46.62637" lon="0.43642">
        <ele>165.93</ele>
        <time>2019-02-24T10:16:23.000Z</time>
      </trkpt>
      <trkpt lat="46.62642" lon="0.43656">
        <ele>165.47</ele>
        <time>2019-02-24T10:16:25.000Z</time>
      </trkpt>
      <trkpt lat="46.62648" lon="0.4367">
        <ele>165.01</ele>
        <time>2019-02-24T10:16:27.000Z</time>
      </trkpt>
      <trkpt lat="46.62655" lon="0.43683">
        <ele>164.35</ele>
        <time>2019-02-24T10:16:29.000Z</time>
      </trkpt>
      <trkpt lat="46.62658" lon="0.43696">
        <ele>163.84</ele>
        <time>2019-02-24T10:16:31.000Z</time>
      </trkpt>
      <trkpt lat="46.62662" lon="0.43708">
        <ele>163.38</ele>
        <time>2019-02-24T10:16:33.000Z</time>
      </trkpt>
      <trkpt lat="46.62666" lon="0.43726">
        <ele>162.44</ele>
        <time>2019-02-24T10:16:36.000Z</time>
      </trkpt>
      <trkpt lat="46.62671" lon="0.4374">
        <ele>161.94</ele>
        <time>2019-02-24T10:16:38.000Z</time>
      </trkpt>
      <trkpt lat="46.62677" lon="0.43752">
        <ele>161.61</ele>
        <time>2019-02-24T10:16:40.000Z</time>
      </trkpt>
      <trkpt lat="46.62684" lon="0.43764">
        <ele>161.29</ele>
        <time>2019-02-24T10:16:42.000Z</time>
      </trkpt>
      <trkpt lat="46.62692" lon="0.43776">
        <ele>161.43</ele>
        <time>2019-02-24T10:16:44.000Z</time>
      </trkpt>
      <trkpt lat="46.62701" lon="0.43788">
        <ele>161.96</ele>
        <time>2019-02-24T10:16:46.000Z</time>
      </trkpt>
      <trkpt lat="46.62708" lon="0.438">
        <ele>162.83</ele>
        <time>2019-02-24T10:16:48.000Z</time>
      </trkpt>
      <trkpt lat="46.62716" lon="0.43812">
        <ele>163.83</ele>
        <time>2019-02-24T10:16:50.000Z</time>
      </trkpt>
      <trkpt lat="46.62723" lon="0.43824">
        <ele>164.93</ele>
        <time>2019-02-24T10:16:52.000Z</time>
      </trkpt>
      <trkpt lat="46.6273" lon="0.43836">
        <ele>165.88</ele>
        <time>2019-02-24T10:16:54.000Z</time>
      </trkpt>
      <trkpt lat="46.62738" lon="0.43848">
        <ele>166.79</ele>
        <time>2019-02-24T10:16:56.000Z</time>
      </trkpt>
      <trkpt lat="46.62743" lon="0.43858">
        <ele>167.79</ele>
        <time>2019-02-24T10:16:58.000Z</time>
      </trkpt>
      <trkpt lat="46.62749" lon="0.43869">
        <ele>168.64</ele>
        <time>2019-02-24T10:17:00.000Z</time>
      </trkpt>
      <trkpt lat="46.62754" lon="0.43884">
        <ele>169.11</ele>
        <time>2019-02-24T10:17:03.000Z</time>
      </trkpt>
      <trkpt lat="46.62761" lon="0.43895">
        <ele>170.02</ele>
        <time>2019-02-24T10:17:05.000Z</time>
      </trkpt>
      <trkpt lat="46.62768" lon="0.43906">
        <ele>171.28</ele>
        <time>2019-02-24T10:17:07.000Z</time>
      </trkpt>
      <trkpt lat="46.62775" lon="0.43918">
        <ele>172.4</ele>
        <time>2019-02-24T10:17:09.000Z</time>
      </trkpt>
      <trkpt lat="46.62783" lon="0.43929">
        <ele>172.9</ele>
        <time>2019-02-24T10:17:11.000Z</time>
      </trkpt>
      <trkpt lat="46.62791" lon="0.43939">
        <ele>173.09</ele>
        <time>2019-02-24T10:17:13.000Z</time>
      </trkpt>
      <trkpt lat="46.62799" lon="0.43953">
        <ele>173.59</ele>
        <time>2019-02-24T10:17:15.000Z</time>
      </trkpt>
      <trkpt lat="46.62807" lon="0.43966">
        <ele>173.99</ele>
        <time>2019-02-24T10:17:17.000Z</time>
      </trkpt>
      <trkpt lat="46.62816" lon="0.43976">
        <ele>174.78</ele>
        <time>2019-02-24T10:17:19.000Z</time>
      </trkpt>
      <trkpt lat="46.62826" lon="0.43983">
        <ele>175.42</ele>
        <time>2019-02-24T10:17:21.000Z</time>
      </trkpt>
      <trkpt lat="46.62825" lon="0.43998">
        <ele>174.96</ele>
        <time>2019-02-24T10:17:26.000Z</time>
      </trkpt>
      <trkpt lat="46.62814" lon="0.44007">
        <ele>174.1</ele>
        <time>2019-02-24T10:17:28.000Z</time>
      </trkpt>
      <trkpt lat="46.62803" lon="0.44021">
        <ele>172.71</ele>
        <time>2019-02-24T10:17:30.000Z</time>
      </trkpt>
      <trkpt lat="46.62791" lon="0.44033">
        <ele>171.63</ele>
        <time>2019-02-24T10:17:32.000Z</time>
      </trkpt>
      <trkpt lat="46.6278" lon="0.44043">
        <ele>171.56</ele>
        <time>2019-02-24T10:17:34.000Z</time>
      </trkpt>
      <trkpt lat="46.62769" lon="0.44056">
        <ele>171.67</ele>
        <time>2019-02-24T10:17:36.000Z</time>
      </trkpt>
      <trkpt lat="46.62759" lon="0.44068">
        <ele>171.6</ele>
        <time>2019-02-24T10:17:38.000Z</time>
      </trkpt>
      <trkpt lat="46.6275" lon="0.44081">
        <ele>171.55</ele>
        <time>2019-02-24T10:17:40.000Z</time>
      </trkpt>
      <trkpt lat="46.62742" lon="0.44092">
        <ele>171.44</ele>
        <time>2019-02-24T10:17:42.000Z</time>
      </trkpt>
      <trkpt lat="46.62734" lon="0.44102">
        <ele>171.43</ele>
        <time>2019-02-24T10:17:44.000Z</time>
      </trkpt>
      <trkpt lat="46.62724" lon="0.44113">
        <ele>170.68</ele>
        <time>2019-02-24T10:17:46.000Z</time>
      </trkpt>
      <trkpt lat="46.62714" lon="0.44123">
        <ele>169.79</ele>
        <time>2019-02-24T10:17:48.000Z</time>
      </trkpt>
      <trkpt lat="46.62705" lon="0.4413">
        <ele>169.13</ele>
        <time>2019-02-24T10:17:50.000Z</time>
      </trkpt>
      <trkpt lat="46.62695" lon="0.44139">
        <ele>168.63</ele>
        <time>2019-02-24T10:17:52.000Z</time>
      </trkpt>
      <trkpt lat="46.62682" lon="0.44153">
        <ele>167.78</ele>
        <time>2019-02-24T10:17:54.000Z</time>
      </trkpt>
      <trkpt lat="46.62669" lon="0.44171">
        <ele>167.23</ele>
        <time>2019-02-24T10:17:56.000Z</time>
      </trkpt>
      <trkpt lat="46.62656" lon="0.44187">
        <ele>166.54</ele>
        <time>2019-02-24T10:17:58.000Z</time>
      </trkpt>
      <trkpt lat="46.62649" lon="0.4421">
        <ele>166.56</ele>
        <time>2019-02-24T10:18:00.000Z</time>
      </trkpt>
      <trkpt lat="46.62637" lon="0.44222">
        <ele>166.81</ele>
        <time>2019-02-24T10:18:02.000Z</time>
      </trkpt>
      <trkpt lat="46.62629" lon="0.44239">
        <ele>166.38</ele>
        <time>2019-02-24T10:18:04.000Z</time>
      </trkpt>
      <trkpt lat="46.62624" lon="0.44262">
        <ele>165.22</ele>
        <time>2019-02-24T10:18:06.000Z</time>
      </trkpt>
      <trkpt lat="46.62616" lon="0.44281">
        <ele>163.55</ele>
        <time>2019-02-24T10:18:08.000Z</time>
      </trkpt>
      <trkpt lat="46.6261" lon="0.44301">
        <ele>161.89</ele>
        <time>2019-02-24T10:18:10.000Z</time>
      </trkpt>
      <trkpt lat="46.62606" lon="0.44321">
        <ele>159.95</ele>
        <time>2019-02-24T10:18:12.000Z</time>
      </trkpt>
      <trkpt lat="46.62599" lon="0.44338">
        <ele>158.8</ele>
        <time>2019-02-24T10:18:14.000Z</time>
      </trkpt>
      <trkpt lat="46.62589" lon="0.44349">
        <ele>158.02</ele>
        <time>2019-02-24T10:18:16.000Z</time>
      </trkpt>
      <trkpt lat="46.62581" lon="0.44359">
        <ele>158.42</ele>
        <time>2019-02-24T10:18:18.000Z</time>
      </trkpt>
      <trkpt lat="46.62571" lon="0.44369">
        <ele>159.01</ele>
        <time>2019-02-24T10:18:20.000Z</time>
      </trkpt>
      <trkpt lat="46.62565" lon="0.44381">
        <ele>159.13</ele>
        <time>2019-02-24T10:18:22.000Z</time>
      </trkpt>
      <trkpt lat="46.62566" lon="0.44399">
        <ele>159.03</ele>
        <time>2019-02-24T10:18:25.000Z</time>
      </trkpt>
      <trkpt lat="46.62572" lon="0.4441">
        <ele>158.76</ele>
        <time>2019-02-24T10:18:27.000Z</time>
      </trkpt>
      <trkpt lat="46.62581" lon="0.44424">
        <ele>158.03</ele>
        <time>2019-02-24T10:18:31.000Z</time>
      </trkpt>
      <trkpt lat="46.62588" lon="0.44436">
        <ele>157.32</ele>
        <time>2019-02-24T10:18:34.000Z</time>
      </trkpt>
      <trkpt lat="46.62598" lon="0.44448">
        <ele>156.71</ele>
        <time>2019-02-24T10:18:37.000Z</time>
      </trkpt>
      <trkpt lat="46.62607" lon="0.4446">
        <ele>156.09</ele>
        <time>2019-02-24T10:18:40.000Z</time>
      </trkpt>
      <trkpt lat="46.62614" lon="0.44475">
        <ele>153.97</ele>
        <time>2019-02-24T10:18:43.000Z</time>
      </trkpt>
      <trkpt lat="46.62625" lon="0.44489">
        <ele>151.96</ele>
        <time>2019-02-24T10:18:46.000Z</time>
      </trkpt>
      <trkpt lat="46.62633" lon="0.44501">
        <ele>149.21</ele>
        <time>2019-02-24T10:18:48.000Z</time>
      </trkpt>
      <trkpt lat="46.62641" lon="0.44509">
        <ele>148.41</ele>
        <time>2019-02-24T10:18:50.000Z</time>
      </trkpt>
      <trkpt lat="46.62647" lon="0.44519">
        <ele>147.07</ele>
        <time>2019-02-24T10:18:52.000Z</time>
      </trkpt>
      <trkpt lat="46.62651" lon="0.44532">
        <ele>145.78</ele>
        <time>2019-02-24T10:18:54.000Z</time>
      </trkpt>
      <trkpt lat="46.62657" lon="0.44544">
        <ele>144.22</ele>
        <time>2019-02-24T10:18:56.000Z</time>
      </trkpt>
      <trkpt lat="46.62661" lon="0.44556">
        <ele>143.38</ele>
        <time>2019-02-24T10:18:58.000Z</time>
      </trkpt>
      <trkpt lat="46.6267" lon="0.44565">
        <ele>142.23</ele>
        <time>2019-02-24T10:19:00.000Z</time>
      </trkpt>
      <trkpt lat="46.62676" lon="0.44577">
        <ele>142.03</ele>
        <time>2019-02-24T10:19:02.000Z</time>
      </trkpt>
      <trkpt lat="46.62683" lon="0.44588">
        <ele>141.49</ele>
        <time>2019-02-24T10:19:05.000Z</time>
      </trkpt>
      <trkpt lat="46.62692" lon="0.446">
        <ele>140.97</ele>
        <time>2019-02-24T10:19:07.000Z</time>
      </trkpt>
      <trkpt lat="46.62702" lon="0.44609">
        <ele>140.5</ele>
        <time>2019-02-24T10:19:09.000Z</time>
      </trkpt>
      <trkpt lat="46.6271" lon="0.44615">
        <ele>140.29</ele>
        <time>2019-02-24T10:19:11.000Z</time>
      </trkpt>
      <trkpt lat="46.62721" lon="0.44623">
        <ele>140.28</ele>
        <time>2019-02-24T10:19:14.000Z</time>
      </trkpt>
      <trkpt lat="46.6273" lon="0.44629">
        <ele>140.6</ele>
        <time>2019-02-24T10:19:17.000Z</time>
      </trkpt>
      <trkpt lat="46.62739" lon="0.44636">
        <ele>141</ele>
        <time>2019-02-24T10:19:21.000Z</time>
      </trkpt>
      <trkpt lat="46.62747" lon="0.44646">
        <ele>141.65</ele>
        <time>2019-02-24T10:19:25.000Z</time>
      </trkpt>
      <trkpt lat="46.62756" lon="0.44655">
        <ele>142.18</ele>
        <time>2019-02-24T10:19:29.000Z</time>
      </trkpt>
      <trkpt lat="46.62764" lon="0.44664">
        <ele>142.71</ele>
        <time>2019-02-24T10:19:33.000Z</time>
      </trkpt>
      <trkpt lat="46.62774" lon="0.44669">
        <ele>143.13</ele>
        <time>2019-02-24T10:19:37.000Z</time>
      </trkpt>
      <trkpt lat="46.62784" lon="0.44674">
        <ele>143.03</ele>
        <time>2019-02-24T10:19:41.000Z</time>
      </trkpt>
      <trkpt lat="46.62794" lon="0.44679">
        <ele>143.65</ele>
        <time>2019-02-24T10:19:46.000Z</time>
      </trkpt>
      <trkpt lat="46.62803" lon="0.44679">
        <ele>144.57</ele>
        <time>2019-02-24T10:19:51.000Z</time>
      </trkpt>
      <trkpt lat="46.62814" lon="0.44681">
        <ele>145.48</ele>
        <time>2019-02-24T10:19:55.000Z</time>
      </trkpt>
      <trkpt lat="46.62824" lon="0.44683">
        <ele>146.14</ele>
        <time>2019-02-24T10:19:59.000Z</time>
      </trkpt>
      <trkpt lat="46.62835" lon="0.44688">
        <ele>146.52</ele>
        <time>2019-02-24T10:20:03.000Z</time>
      </trkpt>
      <trkpt lat="46.62845" lon="0.44691">
        <ele>146.42</ele>
        <time>2019-02-24T10:20:06.000Z</time>
      </trkpt>
      <trkpt lat="46.62853" lon="0.44696">
        <ele>146.41</ele>
        <time>2019-02-24T10:20:09.000Z</time>
      </trkpt>
      <trkpt lat="46.62862" lon="0.44705">
        <ele>146.4</ele>
        <time>2019-02-24T10:20:12.000Z</time>
      </trkpt>
      <trkpt lat="46.6287" lon="0.44714">
        <ele>146.62</ele>
        <time>2019-02-24T10:20:15.000Z</time>
      </trkpt>
      <trkpt lat="46.62879" lon="0.44722">
        <ele>147.14</ele>
        <time>2019-02-24T10:20:18.000Z</time>
      </trkpt>
      <trkpt lat="46.62888" lon="0.44734">
        <ele>150.48</ele>
        <time>2019-02-24T10:20:21.000Z</time>
      </trkpt>
      <trkpt lat="46.62898" lon="0.44746">
        <ele>152.12</ele>
        <time>2019-02-24T10:20:25.000Z</time>
      </trkpt>
      <trkpt lat="46.62907" lon="0.4476">
        <ele>154.07</ele>
        <time>2019-02-24T10:20:28.000Z</time>
      </trkpt>
      <trkpt lat="46.62915" lon="0.44771">
        <ele>156.21</ele>
        <time>2019-02-24T10:20:31.000Z</time>
      </trkpt>
      <trkpt lat="46.62924" lon="0.44781">
        <ele>158.12</ele>
        <time>2019-02-24T10:20:34.000Z</time>
      </trkpt>
      <trkpt lat="46.62931" lon="0.44789">
        <ele>159.18</ele>
        <time>2019-02-24T10:20:36.000Z</time>
      </trkpt>
      <trkpt lat="46.6294" lon="0.44798">
        <ele>160.75</ele>
        <time>2019-02-24T10:20:39.000Z</time>
      </trkpt>
      <trkpt lat="46.62949" lon="0.44803">
        <ele>162.44</ele>
        <time>2019-02-24T10:20:43.000Z</time>
      </trkpt>
      <trkpt lat="46.62957" lon="0.44811">
        <ele>163.42</ele>
        <time>2019-02-24T10:20:46.000Z</time>
      </trkpt>
      <trkpt lat="46.62964" lon="0.4482">
        <ele>163.81</ele>
        <time>2019-02-24T10:20:48.000Z</time>
      </trkpt>
      <trkpt lat="46.62973" lon="0.44831">
        <ele>164.12</ele>
        <time>2019-02-24T10:20:51.000Z</time>
      </trkpt>
      <trkpt lat="46.62983" lon="0.44837">
        <ele>164.44</ele>
        <time>2019-02-24T10:20:55.000Z</time>
      </trkpt>
      <trkpt lat="46.62993" lon="0.44843">
        <ele>164.49</ele>
        <time>2019-02-24T10:20:59.000Z</time>
      </trkpt>
      <trkpt lat="46.63002" lon="0.4485">
        <ele>164.61</ele>
        <time>2019-02-24T10:21:02.000Z</time>
      </trkpt>
      <trkpt lat="46.63012" lon="0.44846">
        <ele>165.01</ele>
        <time>2019-02-24T10:21:08.000Z</time>
      </trkpt>
      <trkpt lat="46.63023" lon="0.44846">
        <ele>165.42</ele>
        <time>2019-02-24T10:21:14.000Z</time>
      </trkpt>
      <trkpt lat="46.63032" lon="0.44848">
        <ele>165.86</ele>
        <time>2019-02-24T10:21:18.000Z</time>
      </trkpt>
      <trkpt lat="46.63041" lon="0.44854">
        <ele>166.86</ele>
        <time>2019-02-24T10:21:24.000Z</time>
      </trkpt>
      <trkpt lat="46.63049" lon="0.44864">
        <ele>167.6</ele>
        <time>2019-02-24T10:21:27.000Z</time>
      </trkpt>
      <trkpt lat="46.63059" lon="0.44863">
        <ele>168.69</ele>
        <time>2019-02-24T10:21:31.000Z</time>
      </trkpt>
      <trkpt lat="46.63068" lon="0.44865">
        <ele>169.87</ele>
        <time>2019-02-24T10:21:36.000Z</time>
      </trkpt>
      <trkpt lat="46.63078" lon="0.44871">
        <ele>170.43</ele>
        <time>2019-02-24T10:21:40.000Z</time>
      </trkpt>
      <trkpt lat="46.63087" lon="0.44877">
        <ele>171.09</ele>
        <time>2019-02-24T10:21:44.000Z</time>
      </trkpt>
      <trkpt lat="46.63099" lon="0.44884">
        <ele>171.34</ele>
        <time>2019-02-24T10:21:46.000Z</time>
      </trkpt>
      <trkpt lat="46.63112" lon="0.44895">
        <ele>171.66</ele>
        <time>2019-02-24T10:21:49.000Z</time>
      </trkpt>
      <trkpt lat="46.63121" lon="0.44902">
        <ele>171.82</ele>
        <time>2019-02-24T10:21:51.000Z</time>
      </trkpt>
      <trkpt lat="46.63133" lon="0.44907">
        <ele>172.2</ele>
        <time>2019-02-24T10:21:54.000Z</time>
      </trkpt>
      <trkpt lat="46.63142" lon="0.44913">
        <ele>172.7</ele>
        <time>2019-02-24T10:21:58.000Z</time>
      </trkpt>
      <trkpt lat="46.63152" lon="0.44919">
        <ele>174.1</ele>
        <time>2019-02-24T10:22:04.000Z</time>
      </trkpt>
      <trkpt lat="46.63161" lon="0.44925">
        <ele>175.67</ele>
        <time>2019-02-24T10:22:10.000Z</time>
      </trkpt>
      <trkpt lat="46.63171" lon="0.44932">
        <ele>176.71</ele>
        <time>2019-02-24T10:22:16.000Z</time>
      </trkpt>
      <trkpt lat="46.6318" lon="0.44938">
        <ele>177.46</ele>
        <time>2019-02-24T10:22:21.000Z</time>
      </trkpt>
      <trkpt lat="46.63189" lon="0.44946">
        <ele>177.95</ele>
        <time>2019-02-24T10:22:28.000Z</time>
      </trkpt>
      <trkpt lat="46.63197" lon="0.44956">
        <ele>178.7</ele>
        <time>2019-02-24T10:22:33.000Z</time>
      </trkpt>
      <trkpt lat="46.63203" lon="0.44965">
        <ele>179.46</ele>
        <time>2019-02-24T10:22:37.000Z</time>
      </trkpt>
      <trkpt lat="46.63211" lon="0.44975">
        <ele>180.06</ele>
        <time>2019-02-24T10:22:40.000Z</time>
      </trkpt>
      <trkpt lat="46.63218" lon="0.44986">
        <ele>180.76</ele>
        <time>2019-02-24T10:22:43.000Z</time>
      </trkpt>
      <trkpt lat="46.63229" lon="0.44997">
        <ele>181.34</ele>
        <time>2019-02-24T10:22:47.000Z</time>
      </trkpt>
      <trkpt lat="46.63238" lon="0.45007">
        <ele>181.54</ele>
        <time>2019-02-24T10:22:51.000Z</time>
      </trkpt>
      <trkpt lat="46.63246" lon="0.45015">
        <ele>181.75</ele>
        <time>2019-02-24T10:22:54.000Z</time>
      </trkpt>
      <trkpt lat="46.63254" lon="0.45026">
        <ele>181.92</ele>
        <time>2019-02-24T10:22:57.000Z</time>
      </trkpt>
      <trkpt lat="46.63261" lon="0.45036">
        <ele>181.99</ele>
        <time>2019-02-24T10:22:59.000Z</time>
      </trkpt>
      <trkpt lat="46.63269" lon="0.45047">
        <ele>181.98</ele>
        <time>2019-02-24T10:23:02.000Z</time>
      </trkpt>
      <trkpt lat="46.63277" lon="0.45058">
        <ele>182.03</ele>
        <time>2019-02-24T10:23:05.000Z</time>
      </trkpt>
      <trkpt lat="46.63283" lon="0.4507">
        <ele>182.47</ele>
        <time>2019-02-24T10:23:09.000Z</time>
      </trkpt>
      <trkpt lat="46.63284" lon="0.45083">
        <ele>183.84</ele>
        <time>2019-02-24T10:23:12.000Z</time>
      </trkpt>
      <trkpt lat="46.63286" lon="0.45098">
        <ele>184.28</ele>
        <time>2019-02-24T10:23:15.000Z</time>
      </trkpt>
      <trkpt lat="46.63289" lon="0.45115">
        <ele>184.55</ele>
        <time>2019-02-24T10:23:18.000Z</time>
      </trkpt>
      <trkpt lat="46.63292" lon="0.45129">
        <ele>184.73</ele>
        <time>2019-02-24T10:23:21.000Z</time>
      </trkpt>
      <trkpt lat="46.63294" lon="0.45141">
        <ele>184.71</ele>
        <time>2019-02-24T10:23:23.000Z</time>
      </trkpt>
      <trkpt lat="46.63297" lon="0.45157">
        <ele>184.6</ele>
        <time>2019-02-24T10:23:25.000Z</time>
      </trkpt>
      <trkpt lat="46.63303" lon="0.45172">
        <ele>182.76</ele>
        <time>2019-02-24T10:23:27.000Z</time>
      </trkpt>
      <trkpt lat="46.6331" lon="0.45188">
        <ele>181.77</ele>
        <time>2019-02-24T10:23:29.000Z</time>
      </trkpt>
      <trkpt lat="46.63316" lon="0.45199">
        <ele>181.76</ele>
        <time>2019-02-24T10:23:31.000Z</time>
      </trkpt>
      <trkpt lat="46.63323" lon="0.45215">
        <ele>182.16</ele>
        <time>2019-02-24T10:23:33.000Z</time>
      </trkpt>
      <trkpt lat="46.63329" lon="0.45232">
        <ele>182.38</ele>
        <time>2019-02-24T10:23:35.000Z</time>
      </trkpt>
      <trkpt lat="46.63338" lon="0.45251">
        <ele>182.26</ele>
        <time>2019-02-24T10:23:37.000Z</time>
      </trkpt>
      <trkpt lat="46.63345" lon="0.45267">
        <ele>182.14</ele>
        <time>2019-02-24T10:23:39.000Z</time>
      </trkpt>
      <trkpt lat="46.63354" lon="0.45286">
        <ele>180.42</ele>
        <time>2019-02-24T10:23:41.000Z</time>
      </trkpt>
      <trkpt lat="46.63361" lon="0.45301">
        <ele>179.69</ele>
        <time>2019-02-24T10:23:43.000Z</time>
      </trkpt>
      <trkpt lat="46.63368" lon="0.45317">
        <ele>179.16</ele>
        <time>2019-02-24T10:23:45.000Z</time>
      </trkpt>
      <trkpt lat="46.63373" lon="0.45331">
        <ele>178.37</ele>
        <time>2019-02-24T10:23:47.000Z</time>
      </trkpt>
      <trkpt lat="46.63379" lon="0.45348">
        <ele>178.17</ele>
        <time>2019-02-24T10:23:49.000Z</time>
      </trkpt>
      <trkpt lat="46.63387" lon="0.45366">
        <ele>177.37</ele>
        <time>2019-02-24T10:23:51.000Z</time>
      </trkpt>
      <trkpt lat="46.63392" lon="0.45381">
        <ele>175.5</ele>
        <time>2019-02-24T10:23:53.000Z</time>
      </trkpt>
      <trkpt lat="46.63398" lon="0.45394">
        <ele>174.2</ele>
        <time>2019-02-24T10:23:55.000Z</time>
      </trkpt>
      <trkpt lat="46.63405" lon="0.45411">
        <ele>171.07</ele>
        <time>2019-02-24T10:23:57.000Z</time>
      </trkpt>
      <trkpt lat="46.63409" lon="0.45425">
        <ele>169.01</ele>
        <time>2019-02-24T10:23:59.000Z</time>
      </trkpt>
      <trkpt lat="46.63417" lon="0.45444">
        <ele>169.32</ele>
        <time>2019-02-24T10:24:01.000Z</time>
      </trkpt>
      <trkpt lat="46.63426" lon="0.45465">
        <ele>172.03</ele>
        <time>2019-02-24T10:24:03.000Z</time>
      </trkpt>
      <trkpt lat="46.63435" lon="0.45484">
        <ele>173.78</ele>
        <time>2019-02-24T10:24:05.000Z</time>
      </trkpt>
      <trkpt lat="46.63444" lon="0.45505">
        <ele>174.21</ele>
        <time>2019-02-24T10:24:07.000Z</time>
      </trkpt>
      <trkpt lat="46.63453" lon="0.45527">
        <ele>174.43</ele>
        <time>2019-02-24T10:24:09.000Z</time>
      </trkpt>
      <trkpt lat="46.63462" lon="0.45542">
        <ele>175.19</ele>
        <time>2019-02-24T10:24:11.000Z</time>
      </trkpt>
      <trkpt lat="46.63473" lon="0.45555">
        <ele>173.61</ele>
        <time>2019-02-24T10:24:13.000Z</time>
      </trkpt>
      <trkpt lat="46.63484" lon="0.45573">
        <ele>171.95</ele>
        <time>2019-02-24T10:24:15.000Z</time>
      </trkpt>
      <trkpt lat="46.63492" lon="0.45588">
        <ele>172.4</ele>
        <time>2019-02-24T10:24:17.000Z</time>
      </trkpt>
      <trkpt lat="46.635" lon="0.45601">
        <ele>173.77</ele>
        <time>2019-02-24T10:24:19.000Z</time>
      </trkpt>
      <trkpt lat="46.63507" lon="0.45615">
        <ele>173.42</ele>
        <time>2019-02-24T10:24:21.000Z</time>
      </trkpt>
      <trkpt lat="46.63514" lon="0.45632">
        <ele>171.8</ele>
        <time>2019-02-24T10:24:23.000Z</time>
      </trkpt>
      <trkpt lat="46.63519" lon="0.45646">
        <ele>170.56</ele>
        <time>2019-02-24T10:24:25.000Z</time>
      </trkpt>
      <trkpt lat="46.63525" lon="0.45658">
        <ele>170.33</ele>
        <time>2019-02-24T10:24:28.000Z</time>
      </trkpt>
      <trkpt lat="46.63533" lon="0.45672">
        <ele>170.14</ele>
        <time>2019-02-24T10:24:32.000Z</time>
      </trkpt>
      <trkpt lat="46.63541" lon="0.45685">
        <ele>170.05</ele>
        <time>2019-02-24T10:24:35.000Z</time>
      </trkpt>
      <trkpt lat="46.63547" lon="0.45697">
        <ele>169.94</ele>
        <time>2019-02-24T10:24:38.000Z</time>
      </trkpt>
      <trkpt lat="46.63555" lon="0.45713">
        <ele>169.69</ele>
        <time>2019-02-24T10:24:51.000Z</time>
      </trkpt>
      <trkpt lat="46.63562" lon="0.45704">
        <ele>167.57</ele>
        <time>2019-02-24T10:25:42.000Z</time>
      </trkpt>
      <trkpt lat="46.6357" lon="0.45713">
        <ele>167.79</ele>
        <time>2019-02-24T10:25:49.000Z</time>
      </trkpt>
      <trkpt lat="46.63576" lon="0.45724">
        <ele>168.01</ele>
        <time>2019-02-24T10:25:55.000Z</time>
      </trkpt>
      <trkpt lat="46.63583" lon="0.45736">
        <ele>168.12</ele>
        <time>2019-02-24T10:26:00.000Z</time>
      </trkpt>
      <trkpt lat="46.6359" lon="0.45745">
        <ele>168.38</ele>
        <time>2019-02-24T10:26:04.000Z</time>
      </trkpt>
      <trkpt lat="46.63598" lon="0.45751">
        <ele>168.85</ele>
        <time>2019-02-24T10:26:08.000Z</time>
      </trkpt>
      <trkpt lat="46.63606" lon="0.45758">
        <ele>169.43</ele>
        <time>2019-02-24T10:26:12.000Z</time>
      </trkpt>
      <trkpt lat="46.63616" lon="0.45766">
        <ele>170.02</ele>
        <time>2019-02-24T10:26:16.000Z</time>
      </trkpt>
      <trkpt lat="46.63626" lon="0.45774">
        <ele>170.49</ele>
        <time>2019-02-24T10:26:19.000Z</time>
      </trkpt>
      <trkpt lat="46.63635" lon="0.45782">
        <ele>170.98</ele>
        <time>2019-02-24T10:26:22.000Z</time>
      </trkpt>
      <trkpt lat="46.63645" lon="0.45792">
        <ele>171.54</ele>
        <time>2019-02-24T10:26:26.000Z</time>
      </trkpt>
      <trkpt lat="46.63654" lon="0.45799">
        <ele>171.98</ele>
        <time>2019-02-24T10:26:29.000Z</time>
      </trkpt>
      <trkpt lat="46.63662" lon="0.45804">
        <ele>172.38</ele>
        <time>2019-02-24T10:26:32.000Z</time>
      </trkpt>
      <trkpt lat="46.63672" lon="0.45813">
        <ele>172.79</ele>
        <time>2019-02-24T10:26:35.000Z</time>
      </trkpt>
      <trkpt lat="46.63682" lon="0.45822">
        <ele>173.31</ele>
        <time>2019-02-24T10:26:38.000Z</time>
      </trkpt>
      <trkpt lat="46.6369" lon="0.45828">
        <ele>173.69</ele>
        <time>2019-02-24T10:26:40.000Z</time>
      </trkpt>
      <trkpt lat="46.63699" lon="0.45837">
        <ele>174.1</ele>
        <time>2019-02-24T10:26:42.000Z</time>
      </trkpt>
      <trkpt lat="46.6371" lon="0.45847">
        <ele>174.7</ele>
        <time>2019-02-24T10:26:45.000Z</time>
      </trkpt>
      <trkpt lat="46.63717" lon="0.45855">
        <ele>175.36</ele>
        <time>2019-02-24T10:26:48.000Z</time>
      </trkpt>
      <trkpt lat="46.63726" lon="0.45864">
        <ele>176.06</ele>
        <time>2019-02-24T10:26:51.000Z</time>
      </trkpt>
      <trkpt lat="46.63735" lon="0.45872">
        <ele>176.85</ele>
        <time>2019-02-24T10:26:54.000Z</time>
      </trkpt>
      <trkpt lat="46.63745" lon="0.4588">
        <ele>177.69</ele>
        <time>2019-02-24T10:26:57.000Z</time>
      </trkpt>
      <trkpt lat="46.63755" lon="0.45884">
        <ele>178.47</ele>
        <time>2019-02-24T10:27:00.000Z</time>
      </trkpt>
      <trkpt lat="46.63767" lon="0.45885">
        <ele>179.07</ele>
        <time>2019-02-24T10:27:03.000Z</time>
      </trkpt>
      <trkpt lat="46.63778" lon="0.45886">
        <ele>179.47</ele>
        <time>2019-02-24T10:27:06.000Z</time>
      </trkpt>
      <trkpt lat="46.63789" lon="0.45892">
        <ele>179.79</ele>
        <time>2019-02-24T10:27:09.000Z</time>
      </trkpt>
      <trkpt lat="46.63799" lon="0.45898">
        <ele>180.22</ele>
        <time>2019-02-24T10:27:12.000Z</time>
      </trkpt>
      <trkpt lat="46.63807" lon="0.45907">
        <ele>180.72</ele>
        <time>2019-02-24T10:27:15.000Z</time>
      </trkpt>
      <trkpt lat="46.63818" lon="0.45914">
        <ele>181.03</ele>
        <time>2019-02-24T10:27:18.000Z</time>
      </trkpt>
      <trkpt lat="46.6383" lon="0.45918">
        <ele>181.41</ele>
        <time>2019-02-24T10:27:21.000Z</time>
      </trkpt>
      <trkpt lat="46.63842" lon="0.45928">
        <ele>185.49</ele>
        <time>2019-02-24T10:27:24.000Z</time>
      </trkpt>
      <trkpt lat="46.6385" lon="0.45935">
        <ele>187.17</ele>
        <time>2019-02-24T10:27:26.000Z</time>
      </trkpt>
      <trkpt lat="46.63862" lon="0.45941">
        <ele>191.29</ele>
        <time>2019-02-24T10:27:29.000Z</time>
      </trkpt>
      <trkpt lat="46.6387" lon="0.45948">
        <ele>193.25</ele>
        <time>2019-02-24T10:27:31.000Z</time>
      </trkpt>
      <trkpt lat="46.63881" lon="0.45958">
        <ele>196.1</ele>
        <time>2019-02-24T10:27:34.000Z</time>
      </trkpt>
      <trkpt lat="46.63888" lon="0.45969">
        <ele>196.73</ele>
        <time>2019-02-24T10:27:36.000Z</time>
      </trkpt>
      <trkpt lat="46.63896" lon="0.45978">
        <ele>196.66</ele>
        <time>2019-02-24T10:27:38.000Z</time>
      </trkpt>
      <trkpt lat="46.63908" lon="0.45992">
        <ele>195.11</ele>
        <time>2019-02-24T10:27:40.000Z</time>
      </trkpt>
      <trkpt lat="46.63916" lon="0.46002">
        <ele>193.89</ele>
        <time>2019-02-24T10:27:42.000Z</time>
      </trkpt>
      <trkpt lat="46.63928" lon="0.46006">
        <ele>192.16</ele>
        <time>2019-02-24T10:27:44.000Z</time>
      </trkpt>
      <trkpt lat="46.63937" lon="0.46016">
        <ele>191.66</ele>
        <time>2019-02-24T10:27:46.000Z</time>
      </trkpt>
      <trkpt lat="46.63947" lon="0.46029">
        <ele>191.77</ele>
        <time>2019-02-24T10:27:48.000Z</time>
      </trkpt>
      <trkpt lat="46.63954" lon="0.46038">
        <ele>191.66</ele>
        <time>2019-02-24T10:27:49.000Z</time>
      </trkpt>
      <trkpt lat="46.63966" lon="0.46043">
        <ele>191.88</ele>
        <time>2019-02-24T10:27:50.000Z</time>
      </trkpt>
      <trkpt lat="46.6398" lon="0.46051">
        <ele>189.5</ele>
        <time>2019-02-24T10:27:52.000Z</time>
      </trkpt>
      <trkpt lat="46.63997" lon="0.46057">
        <ele>185.24</ele>
        <time>2019-02-24T10:27:54.000Z</time>
      </trkpt>
      <trkpt lat="46.6401" lon="0.46062">
        <ele>182.9</ele>
        <time>2019-02-24T10:27:56.000Z</time>
      </trkpt>
      <trkpt lat="46.64021" lon="0.46073">
        <ele>182.74</ele>
        <time>2019-02-24T10:27:58.000Z</time>
      </trkpt>
      <trkpt lat="46.64029" lon="0.46086">
        <ele>183.76</ele>
        <time>2019-02-24T10:28:00.000Z</time>
      </trkpt>
      <trkpt lat="46.64038" lon="0.46096">
        <ele>185.03</ele>
        <time>2019-02-24T10:28:02.000Z</time>
      </trkpt>
      <trkpt lat="46.6405" lon="0.46106">
        <ele>185.3</ele>
        <time>2019-02-24T10:28:04.000Z</time>
      </trkpt>
      <trkpt lat="46.64061" lon="0.46118">
        <ele>184.82</ele>
        <time>2019-02-24T10:28:06.000Z</time>
      </trkpt>
      <trkpt lat="46.64071" lon="0.46134">
        <ele>183.74</ele>
        <time>2019-02-24T10:28:08.000Z</time>
      </trkpt>
      <trkpt lat="46.64079" lon="0.4615">
        <ele>182.45</ele>
        <time>2019-02-24T10:28:10.000Z</time>
      </trkpt>
      <trkpt lat="46.64088" lon="0.46165">
        <ele>181.28</ele>
        <time>2019-02-24T10:28:12.000Z</time>
      </trkpt>
      <trkpt lat="46.64095" lon="0.4618">
        <ele>180.72</ele>
        <time>2019-02-24T10:28:14.000Z</time>
      </trkpt>
      <trkpt lat="46.64103" lon="0.46191">
        <ele>179.98</ele>
        <time>2019-02-24T10:28:16.000Z</time>
      </trkpt>
      <trkpt lat="46.64108" lon="0.46203">
        <ele>179.24</ele>
        <time>2019-02-24T10:28:18.000Z</time>
      </trkpt>
      <trkpt lat="46.64113" lon="0.46216">
        <ele>178.86</ele>
        <time>2019-02-24T10:28:20.000Z</time>
      </trkpt>
      <trkpt lat="46.64117" lon="0.4623">
        <ele>178.33</ele>
        <time>2019-02-24T10:28:22.000Z</time>
      </trkpt>
      <trkpt lat="46.6412" lon="0.46243">
        <ele>178.07</ele>
        <time>2019-02-24T10:28:24.000Z</time>
      </trkpt>
      <trkpt lat="46.64124" lon="0.46258">
        <ele>178.37</ele>
        <time>2019-02-24T10:28:26.000Z</time>
      </trkpt>
      <trkpt lat="46.64129" lon="0.46276">
        <ele>178.66</ele>
        <time>2019-02-24T10:28:28.000Z</time>
      </trkpt>
      <trkpt lat="46.64136" lon="0.46294">
        <ele>179</ele>
        <time>2019-02-24T10:28:30.000Z</time>
      </trkpt>
      <trkpt lat="46.64142" lon="0.46313">
        <ele>179.02</ele>
        <time>2019-02-24T10:28:32.000Z</time>
      </trkpt>
      <trkpt lat="46.64147" lon="0.46333">
        <ele>178.69</ele>
        <time>2019-02-24T10:28:34.000Z</time>
      </trkpt>
      <trkpt lat="46.64151" lon="0.46351">
        <ele>178.91</ele>
        <time>2019-02-24T10:28:36.000Z</time>
      </trkpt>
      <trkpt lat="46.64157" lon="0.46366">
        <ele>178.26</ele>
        <time>2019-02-24T10:28:38.000Z</time>
      </trkpt>
      <trkpt lat="46.64164" lon="0.46385">
        <ele>177.71</ele>
        <time>2019-02-24T10:28:40.000Z</time>
      </trkpt>
      <trkpt lat="46.64171" lon="0.46401">
        <ele>177.49</ele>
        <time>2019-02-24T10:28:42.000Z</time>
      </trkpt>
      <trkpt lat="46.64179" lon="0.46416">
        <ele>177.38</ele>
        <time>2019-02-24T10:28:44.000Z</time>
      </trkpt>
      <trkpt lat="46.64186" lon="0.4643">
        <ele>177.31</ele>
        <time>2019-02-24T10:28:46.000Z</time>
      </trkpt>
      <trkpt lat="46.64193" lon="0.46443">
        <ele>176.96</ele>
        <time>2019-02-24T10:28:48.000Z</time>
      </trkpt>
      <trkpt lat="46.64199" lon="0.46457">
        <ele>176.41</ele>
        <time>2019-02-24T10:28:50.000Z</time>
      </trkpt>
      <trkpt lat="46.64206" lon="0.4647">
        <ele>175.57</ele>
        <time>2019-02-24T10:28:52.000Z</time>
      </trkpt>
      <trkpt lat="46.64211" lon="0.46484">
        <ele>174.77</ele>
        <time>2019-02-24T10:28:54.000Z</time>
      </trkpt>
      <trkpt lat="46.64216" lon="0.46495">
        <ele>174</ele>
        <time>2019-02-24T10:28:56.000Z</time>
      </trkpt>
      <trkpt lat="46.64221" lon="0.46507">
        <ele>173.73</ele>
        <time>2019-02-24T10:28:58.000Z</time>
      </trkpt>
      <trkpt lat="46.64226" lon="0.4652">
        <ele>173.78</ele>
        <time>2019-02-24T10:29:00.000Z</time>
      </trkpt>
      <trkpt lat="46.64231" lon="0.46532">
        <ele>173.83</ele>
        <time>2019-02-24T10:29:02.000Z</time>
      </trkpt>
      <trkpt lat="46.64237" lon="0.46548">
        <ele>174.13</ele>
        <time>2019-02-24T10:29:05.000Z</time>
      </trkpt>
      <trkpt lat="46.64243" lon="0.4656">
        <ele>174.19</ele>
        <time>2019-02-24T10:29:07.000Z</time>
      </trkpt>
      <trkpt lat="46.64249" lon="0.46574">
        <ele>174.49</ele>
        <time>2019-02-24T10:29:10.000Z</time>
      </trkpt>
      <trkpt lat="46.64255" lon="0.46586">
        <ele>174.58</ele>
        <time>2019-02-24T10:29:13.000Z</time>
      </trkpt>
      <trkpt lat="46.64261" lon="0.466">
        <ele>174.8</ele>
        <time>2019-02-24T10:29:17.000Z</time>
      </trkpt>
      <trkpt lat="46.64266" lon="0.46613">
        <ele>175.05</ele>
        <time>2019-02-24T10:29:20.000Z</time>
      </trkpt>
      <trkpt lat="46.6427" lon="0.46625">
        <ele>175.36</ele>
        <time>2019-02-24T10:29:23.000Z</time>
      </trkpt>
      <trkpt lat="46.64276" lon="0.46637">
        <ele>175.74</ele>
        <time>2019-02-24T10:29:26.000Z</time>
      </trkpt>
      <trkpt lat="46.64285" lon="0.46641">
        <ele>176.06</ele>
        <time>2019-02-24T10:29:29.000Z</time>
      </trkpt>
      <trkpt lat="46.64294" lon="0.4664">
        <ele>176.38</ele>
        <time>2019-02-24T10:29:32.000Z</time>
      </trkpt>
      <trkpt lat="46.64304" lon="0.46638">
        <ele>176.8</ele>
        <time>2019-02-24T10:29:36.000Z</time>
      </trkpt>
      <trkpt lat="46.64313" lon="0.46637">
        <ele>177.1</ele>
        <time>2019-02-24T10:29:40.000Z</time>
      </trkpt>
      <trkpt lat="46.64325" lon="0.46635">
        <ele>177.32</ele>
        <time>2019-02-24T10:29:44.000Z</time>
      </trkpt>
      <trkpt lat="46.64336" lon="0.46632">
        <ele>177.47</ele>
        <time>2019-02-24T10:29:47.000Z</time>
      </trkpt>
      <trkpt lat="46.64346" lon="0.46629">
        <ele>177.65</ele>
        <time>2019-02-24T10:29:50.000Z</time>
      </trkpt>
      <trkpt lat="46.64357" lon="0.46626">
        <ele>177.95</ele>
        <time>2019-02-24T10:29:53.000Z</time>
      </trkpt>
      <trkpt lat="46.64367" lon="0.46622">
        <ele>178.42</ele>
        <time>2019-02-24T10:29:56.000Z</time>
      </trkpt>
      <trkpt lat="46.64378" lon="0.46619">
        <ele>178.96</ele>
        <time>2019-02-24T10:29:59.000Z</time>
      </trkpt>
      <trkpt lat="46.64389" lon="0.46615">
        <ele>179.61</ele>
        <time>2019-02-24T10:30:02.000Z</time>
      </trkpt>
      <trkpt lat="46.644" lon="0.46612">
        <ele>180.26</ele>
        <time>2019-02-24T10:30:05.000Z</time>
      </trkpt>
      <trkpt lat="46.64412" lon="0.46606">
        <ele>182.63</ele>
        <time>2019-02-24T10:30:08.000Z</time>
      </trkpt>
      <trkpt lat="46.64421" lon="0.46602">
        <ele>184.07</ele>
        <time>2019-02-24T10:30:10.000Z</time>
      </trkpt>
      <trkpt lat="46.6443" lon="0.46598">
        <ele>184.95</ele>
        <time>2019-02-24T10:30:12.000Z</time>
      </trkpt>
      <trkpt lat="46.64439" lon="0.46595">
        <ele>185.1</ele>
        <time>2019-02-24T10:30:14.000Z</time>
      </trkpt>
      <trkpt lat="46.64449" lon="0.46591">
        <ele>184.32</ele>
        <time>2019-02-24T10:30:16.000Z</time>
      </trkpt>
      <trkpt lat="46.64457" lon="0.46588">
        <ele>183.91</ele>
        <time>2019-02-24T10:30:18.000Z</time>
      </trkpt>
      <trkpt lat="46.64467" lon="0.46585">
        <ele>183.59</ele>
        <time>2019-02-24T10:30:20.000Z</time>
      </trkpt>
      <trkpt lat="46.64478" lon="0.46583">
        <ele>182.57</ele>
        <time>2019-02-24T10:30:22.000Z</time>
      </trkpt>
      <trkpt lat="46.64488" lon="0.4658">
        <ele>182.22</ele>
        <time>2019-02-24T10:30:24.000Z</time>
      </trkpt>
      <trkpt lat="46.64497" lon="0.46577">
        <ele>182.2</ele>
        <time>2019-02-24T10:30:26.000Z</time>
      </trkpt>
      <trkpt lat="46.64506" lon="0.46575">
        <ele>182.27</ele>
        <time>2019-02-24T10:30:28.000Z</time>
      </trkpt>
      <trkpt lat="46.64518" lon="0.46573">
        <ele>182.94</ele>
        <time>2019-02-24T10:30:31.000Z</time>
      </trkpt>
      <trkpt lat="46.64528" lon="0.46572">
        <ele>183.11</ele>
        <time>2019-02-24T10:30:33.000Z</time>
      </trkpt>
      <trkpt lat="46.64538" lon="0.46569">
        <ele>184.3</ele>
        <time>2019-02-24T10:30:35.000Z</time>
      </trkpt>
      <trkpt lat="46.64548" lon="0.46566">
        <ele>186.18</ele>
        <time>2019-02-24T10:30:37.000Z</time>
      </trkpt>
      <trkpt lat="46.64558" lon="0.46562">
        <ele>188</ele>
        <time>2019-02-24T10:30:39.000Z</time>
      </trkpt>
      <trkpt lat="46.6457" lon="0.46555">
        <ele>189.79</ele>
        <time>2019-02-24T10:30:42.000Z</time>
      </trkpt>
      <trkpt lat="46.64581" lon="0.46555">
        <ele>190.07</ele>
        <time>2019-02-24T10:30:45.000Z</time>
      </trkpt>
      <trkpt lat="46.64586" lon="0.46569">
        <ele>190.6</ele>
        <time>2019-02-24T10:30:49.000Z</time>
      </trkpt>
      <trkpt lat="46.64593" lon="0.46582">
        <ele>191.11</ele>
        <time>2019-02-24T10:30:52.000Z</time>
      </trkpt>
      <trkpt lat="46.646" lon="0.46598">
        <ele>192.72</ele>
        <time>2019-02-24T10:30:55.000Z</time>
      </trkpt>
      <trkpt lat="46.64607" lon="0.46614">
        <ele>193.02</ele>
        <time>2019-02-24T10:30:58.000Z</time>
      </trkpt>
      <trkpt lat="46.64612" lon="0.46626">
        <ele>194.18</ele>
        <time>2019-02-24T10:31:00.000Z</time>
      </trkpt>
      <trkpt lat="46.64619" lon="0.4664">
        <ele>194.37</ele>
        <time>2019-02-24T10:31:03.000Z</time>
      </trkpt>
      <trkpt lat="46.64623" lon="0.46653">
        <ele>194.32</ele>
        <time>2019-02-24T10:31:05.000Z</time>
      </trkpt>
      <trkpt lat="46.64629" lon="0.46665">
        <ele>194.26</ele>
        <time>2019-02-24T10:31:07.000Z</time>
      </trkpt>
      <trkpt lat="46.64635" lon="0.46676">
        <ele>194.39</ele>
        <time>2019-02-24T10:31:10.000Z</time>
      </trkpt>
      <trkpt lat="46.6464" lon="0.46689">
        <ele>195.44</ele>
        <time>2019-02-24T10:31:12.000Z</time>
      </trkpt>
      <trkpt lat="46.6465" lon="0.46702">
        <ele>195.42</ele>
        <time>2019-02-24T10:31:14.000Z</time>
      </trkpt>
      <trkpt lat="46.64659" lon="0.46718">
        <ele>195.2</ele>
        <time>2019-02-24T10:31:16.000Z</time>
      </trkpt>
      <trkpt lat="46.64668" lon="0.46731">
        <ele>194.52</ele>
        <time>2019-02-24T10:31:18.000Z</time>
      </trkpt>
      <trkpt lat="46.64676" lon="0.46746">
        <ele>193.64</ele>
        <time>2019-02-24T10:31:20.000Z</time>
      </trkpt>
      <trkpt lat="46.64689" lon="0.4676">
        <ele>191.25</ele>
        <time>2019-02-24T10:31:22.000Z</time>
      </trkpt>
      <trkpt lat="46.64702" lon="0.46783">
        <ele>188.41</ele>
        <time>2019-02-24T10:31:25.000Z</time>
      </trkpt>
      <trkpt lat="46.6471" lon="0.46798">
        <ele>187.77</ele>
        <time>2019-02-24T10:31:27.000Z</time>
      </trkpt>
      <trkpt lat="46.64717" lon="0.46813">
        <ele>187.2</ele>
        <time>2019-02-24T10:31:29.000Z</time>
      </trkpt>
      <trkpt lat="46.64725" lon="0.46829">
        <ele>187.28</ele>
        <time>2019-02-24T10:31:31.000Z</time>
      </trkpt>
      <trkpt lat="46.64732" lon="0.46844">
        <ele>187.52</ele>
        <time>2019-02-24T10:31:33.000Z</time>
      </trkpt>
      <trkpt lat="46.64739" lon="0.46857">
        <ele>187.68</ele>
        <time>2019-02-24T10:31:35.000Z</time>
      </trkpt>
      <trkpt lat="46.64746" lon="0.4687">
        <ele>188.05</ele>
        <time>2019-02-24T10:31:37.000Z</time>
      </trkpt>
      <trkpt lat="46.64752" lon="0.46882">
        <ele>188.07</ele>
        <time>2019-02-24T10:31:39.000Z</time>
      </trkpt>
      <trkpt lat="46.64758" lon="0.46894">
        <ele>188.07</ele>
        <time>2019-02-24T10:31:41.000Z</time>
      </trkpt>
      <trkpt lat="46.64764" lon="0.46906">
        <ele>187.95</ele>
        <time>2019-02-24T10:31:43.000Z</time>
      </trkpt>
      <trkpt lat="46.64769" lon="0.46917">
        <ele>188.02</ele>
        <time>2019-02-24T10:31:45.000Z</time>
      </trkpt>
      <trkpt lat="46.64776" lon="0.46933">
        <ele>189.11</ele>
        <time>2019-02-24T10:31:48.000Z</time>
      </trkpt>
      <trkpt lat="46.64782" lon="0.46949">
        <ele>190.45</ele>
        <time>2019-02-24T10:31:51.000Z</time>
      </trkpt>
      <trkpt lat="46.6479" lon="0.46964">
        <ele>191.29</ele>
        <time>2019-02-24T10:31:54.000Z</time>
      </trkpt>
      <trkpt lat="46.64796" lon="0.46977">
        <ele>191.33</ele>
        <time>2019-02-24T10:31:57.000Z</time>
      </trkpt>
      <trkpt lat="46.64803" lon="0.4699">
        <ele>191.29</ele>
        <time>2019-02-24T10:32:00.000Z</time>
      </trkpt>
      <trkpt lat="46.64808" lon="0.47002">
        <ele>191.18</ele>
        <time>2019-02-24T10:32:03.000Z</time>
      </trkpt>
      <trkpt lat="46.64814" lon="0.47013">
        <ele>191.01</ele>
        <time>2019-02-24T10:32:06.000Z</time>
      </trkpt>
      <trkpt lat="46.64819" lon="0.47027">
        <ele>190.92</ele>
        <time>2019-02-24T10:32:09.000Z</time>
      </trkpt>
      <trkpt lat="46.64826" lon="0.47041">
        <ele>190.7</ele>
        <time>2019-02-24T10:32:12.000Z</time>
      </trkpt>
      <trkpt lat="46.64833" lon="0.47054">
        <ele>191.16</ele>
        <time>2019-02-24T10:32:15.000Z</time>
      </trkpt>
      <trkpt lat="46.64839" lon="0.47067">
        <ele>191.62</ele>
        <time>2019-02-24T10:32:18.000Z</time>
      </trkpt>
      <trkpt lat="46.64844" lon="0.47078">
        <ele>191.93</ele>
        <time>2019-02-24T10:32:22.000Z</time>
      </trkpt>
      <trkpt lat="46.64836" lon="0.47085">
        <ele>192.29</ele>
        <time>2019-02-24T10:32:26.000Z</time>
      </trkpt>
      <trkpt lat="46.64827" lon="0.47092">
        <ele>192.81</ele>
        <time>2019-02-24T10:32:30.000Z</time>
      </trkpt>
      <trkpt lat="46.64818" lon="0.471">
        <ele>193.25</ele>
        <time>2019-02-24T10:32:33.000Z</time>
      </trkpt>
      <trkpt lat="46.64806" lon="0.47107">
        <ele>195.87</ele>
        <time>2019-02-24T10:32:36.000Z</time>
      </trkpt>
      <trkpt lat="46.64797" lon="0.47111">
        <ele>197.26</ele>
        <time>2019-02-24T10:32:38.000Z</time>
      </trkpt>
      <trkpt lat="46.64788" lon="0.47115">
        <ele>197.35</ele>
        <time>2019-02-24T10:32:40.000Z</time>
      </trkpt>
      <trkpt lat="46.6478" lon="0.47124">
        <ele>198.25</ele>
        <time>2019-02-24T10:32:42.000Z</time>
      </trkpt>
      <trkpt lat="46.64771" lon="0.47131">
        <ele>198.31</ele>
        <time>2019-02-24T10:32:44.000Z</time>
      </trkpt>
      <trkpt lat="46.6476" lon="0.47142">
        <ele>197.69</ele>
        <time>2019-02-24T10:32:47.000Z</time>
      </trkpt>
      <trkpt lat="46.6475" lon="0.4715">
        <ele>196.46</ele>
        <time>2019-02-24T10:32:49.000Z</time>
      </trkpt>
      <trkpt lat="46.6474" lon="0.47158">
        <ele>195.81</ele>
        <time>2019-02-24T10:32:51.000Z</time>
      </trkpt>
      <trkpt lat="46.64729" lon="0.47173">
        <ele>195.61</ele>
        <time>2019-02-24T10:32:53.000Z</time>
      </trkpt>
      <trkpt lat="46.6472" lon="0.47183">
        <ele>195.98</ele>
        <time>2019-02-24T10:32:55.000Z</time>
      </trkpt>
      <trkpt lat="46.64713" lon="0.47191">
        <ele>195.91</ele>
        <time>2019-02-24T10:32:57.000Z</time>
      </trkpt>
      <trkpt lat="46.64704" lon="0.47203">
        <ele>195.87</ele>
        <time>2019-02-24T10:33:00.000Z</time>
      </trkpt>
      <trkpt lat="46.64695" lon="0.47207">
        <ele>195.74</ele>
        <time>2019-02-24T10:33:03.000Z</time>
      </trkpt>
      <trkpt lat="46.64684" lon="0.47215">
        <ele>195.67</ele>
        <time>2019-02-24T10:33:07.000Z</time>
      </trkpt>
      <trkpt lat="46.64674" lon="0.4722">
        <ele>195.69</ele>
        <time>2019-02-24T10:33:10.000Z</time>
      </trkpt>
      <trkpt lat="46.64667" lon="0.47227">
        <ele>195.73</ele>
        <time>2019-02-24T10:33:13.000Z</time>
      </trkpt>
      <trkpt lat="46.64658" lon="0.47232">
        <ele>195.86</ele>
        <time>2019-02-24T10:33:16.000Z</time>
      </trkpt>
      <trkpt lat="46.64648" lon="0.4724">
        <ele>196.1</ele>
        <time>2019-02-24T10:33:19.000Z</time>
      </trkpt>
      <trkpt lat="46.64639" lon="0.4725">
        <ele>196.65</ele>
        <time>2019-02-24T10:33:23.000Z</time>
      </trkpt>
      <trkpt lat="46.64631" lon="0.47258">
        <ele>197.08</ele>
        <time>2019-02-24T10:33:26.000Z</time>
      </trkpt>
      <trkpt lat="46.64624" lon="0.47267">
        <ele>197.47</ele>
        <time>2019-02-24T10:33:29.000Z</time>
      </trkpt>
      <trkpt lat="46.64615" lon="0.47274">
        <ele>197.88</ele>
        <time>2019-02-24T10:33:32.000Z</time>
      </trkpt>
      <trkpt lat="46.64606" lon="0.47287">
        <ele>198.29</ele>
        <time>2019-02-24T10:33:35.000Z</time>
      </trkpt>
      <trkpt lat="46.64599" lon="0.47299">
        <ele>198.77</ele>
        <time>2019-02-24T10:33:38.000Z</time>
      </trkpt>
      <trkpt lat="46.64588" lon="0.4731">
        <ele>199.39</ele>
        <time>2019-02-24T10:33:41.000Z</time>
      </trkpt>
      <trkpt lat="46.64582" lon="0.47322">
        <ele>199.74</ele>
        <time>2019-02-24T10:33:43.000Z</time>
      </trkpt>
      <trkpt lat="46.64576" lon="0.47335">
        <ele>200.01</ele>
        <time>2019-02-24T10:33:46.000Z</time>
      </trkpt>
      <trkpt lat="46.64571" lon="0.47346">
        <ele>200.07</ele>
        <time>2019-02-24T10:33:49.000Z</time>
      </trkpt>
      <trkpt lat="46.64564" lon="0.47356">
        <ele>200.07</ele>
        <time>2019-02-24T10:33:52.000Z</time>
      </trkpt>
      <trkpt lat="46.64555" lon="0.47365">
        <ele>200.06</ele>
        <time>2019-02-24T10:33:55.000Z</time>
      </trkpt>
      <trkpt lat="46.6455" lon="0.47376">
        <ele>199.99</ele>
        <time>2019-02-24T10:33:58.000Z</time>
      </trkpt>
      <trkpt lat="46.64543" lon="0.47386">
        <ele>199.95</ele>
        <time>2019-02-24T10:34:01.000Z</time>
      </trkpt>
      <trkpt lat="46.64535" lon="0.47398">
        <ele>199.72</ele>
        <time>2019-02-24T10:34:04.000Z</time>
      </trkpt>
      <trkpt lat="46.64526" lon="0.47407">
        <ele>199.37</ele>
        <time>2019-02-24T10:34:07.000Z</time>
      </trkpt>
      <trkpt lat="46.64516" lon="0.47413">
        <ele>199.04</ele>
        <time>2019-02-24T10:34:10.000Z</time>
      </trkpt>
      <trkpt lat="46.64506" lon="0.4742">
        <ele>198.78</ele>
        <time>2019-02-24T10:34:13.000Z</time>
      </trkpt>
      <trkpt lat="46.64496" lon="0.47429">
        <ele>198.41</ele>
        <time>2019-02-24T10:34:16.000Z</time>
      </trkpt>
      <trkpt lat="46.64489" lon="0.47439">
        <ele>198.04</ele>
        <time>2019-02-24T10:34:19.000Z</time>
      </trkpt>
      <trkpt lat="46.64481" lon="0.47448">
        <ele>197.57</ele>
        <time>2019-02-24T10:34:22.000Z</time>
      </trkpt>
      <trkpt lat="46.64473" lon="0.47457">
        <ele>197.01</ele>
        <time>2019-02-24T10:34:25.000Z</time>
      </trkpt>
      <trkpt lat="46.64465" lon="0.47464">
        <ele>196.46</ele>
        <time>2019-02-24T10:34:28.000Z</time>
      </trkpt>
      <trkpt lat="46.64454" lon="0.47472">
        <ele>195.9</ele>
        <time>2019-02-24T10:34:31.000Z</time>
      </trkpt>
      <trkpt lat="46.64445" lon="0.47483">
        <ele>195.26</ele>
        <time>2019-02-24T10:34:34.000Z</time>
      </trkpt>
      <trkpt lat="46.64442" lon="0.47497">
        <ele>194.42</ele>
        <time>2019-02-24T10:34:37.000Z</time>
      </trkpt>
      <trkpt lat="46.64434" lon="0.47504">
        <ele>190.36</ele>
        <time>2019-02-24T10:34:40.000Z</time>
      </trkpt>
      <trkpt lat="46.64426" lon="0.47513">
        <ele>185.95</ele>
        <time>2019-02-24T10:34:43.000Z</time>
      </trkpt>
      <trkpt lat="46.64418" lon="0.4752">
        <ele>183.48</ele>
        <time>2019-02-24T10:34:45.000Z</time>
      </trkpt>
      <trkpt lat="46.6441" lon="0.47529">
        <ele>182.42</ele>
        <time>2019-02-24T10:34:47.000Z</time>
      </trkpt>
      <trkpt lat="46.64401" lon="0.47535">
        <ele>182.09</ele>
        <time>2019-02-24T10:34:49.000Z</time>
      </trkpt>
      <trkpt lat="46.64393" lon="0.47543">
        <ele>181.5</ele>
        <time>2019-02-24T10:34:51.000Z</time>
      </trkpt>
      <trkpt lat="46.64386" lon="0.47554">
        <ele>181.04</ele>
        <time>2019-02-24T10:34:53.000Z</time>
      </trkpt>
      <trkpt lat="46.64375" lon="0.47562">
        <ele>181.54</ele>
        <time>2019-02-24T10:34:56.000Z</time>
      </trkpt>
      <trkpt lat="46.64367" lon="0.47571">
        <ele>182</ele>
        <time>2019-02-24T10:34:58.000Z</time>
      </trkpt>
      <trkpt lat="46.64358" lon="0.47577">
        <ele>182.58</ele>
        <time>2019-02-24T10:35:00.000Z</time>
      </trkpt>
      <trkpt lat="46.64351" lon="0.47587">
        <ele>182.64</ele>
        <time>2019-02-24T10:35:02.000Z</time>
      </trkpt>
      <trkpt lat="46.64343" lon="0.47595">
        <ele>182.58</ele>
        <time>2019-02-24T10:35:04.000Z</time>
      </trkpt>
      <trkpt lat="46.64335" lon="0.47605">
        <ele>182.42</ele>
        <time>2019-02-24T10:35:06.000Z</time>
      </trkpt>
      <trkpt lat="46.64323" lon="0.47614">
        <ele>181.74</ele>
        <time>2019-02-24T10:35:08.000Z</time>
      </trkpt>
      <trkpt lat="46.64315" lon="0.47624">
        <ele>181.32</ele>
        <time>2019-02-24T10:35:10.000Z</time>
      </trkpt>
      <trkpt lat="46.64306" lon="0.47634">
        <ele>181.5</ele>
        <time>2019-02-24T10:35:12.000Z</time>
      </trkpt>
      <trkpt lat="46.64298" lon="0.47641">
        <ele>181.87</ele>
        <time>2019-02-24T10:35:14.000Z</time>
      </trkpt>
      <trkpt lat="46.64288" lon="0.47648">
        <ele>182.73</ele>
        <time>2019-02-24T10:35:16.000Z</time>
      </trkpt>
      <trkpt lat="46.6428" lon="0.47654">
        <ele>183.36</ele>
        <time>2019-02-24T10:35:18.000Z</time>
      </trkpt>
      <trkpt lat="46.64278" lon="0.47671">
        <ele>183.63</ele>
        <time>2019-02-24T10:35:21.000Z</time>
      </trkpt>
      <trkpt lat="46.64284" lon="0.47687">
        <ele>183.9</ele>
        <time>2019-02-24T10:35:23.000Z</time>
      </trkpt>
      <trkpt lat="46.64291" lon="0.47703">
        <ele>184.11</ele>
        <time>2019-02-24T10:35:25.000Z</time>
      </trkpt>
      <trkpt lat="46.64298" lon="0.47719">
        <ele>185.48</ele>
        <time>2019-02-24T10:35:27.000Z</time>
      </trkpt>
      <trkpt lat="46.64304" lon="0.47731">
        <ele>186.18</ele>
        <time>2019-02-24T10:35:29.000Z</time>
      </trkpt>
      <trkpt lat="46.6431" lon="0.47744">
        <ele>185.9</ele>
        <time>2019-02-24T10:35:31.000Z</time>
      </trkpt>
      <trkpt lat="46.64316" lon="0.47757">
        <ele>184.53</ele>
        <time>2019-02-24T10:35:33.000Z</time>
      </trkpt>
      <trkpt lat="46.64321" lon="0.47769">
        <ele>182.79</ele>
        <time>2019-02-24T10:35:35.000Z</time>
      </trkpt>
      <trkpt lat="46.64327" lon="0.47782">
        <ele>180.84</ele>
        <time>2019-02-24T10:35:37.000Z</time>
      </trkpt>
      <trkpt lat="46.64333" lon="0.47793">
        <ele>179.13</ele>
        <time>2019-02-24T10:35:39.000Z</time>
      </trkpt>
      <trkpt lat="46.64339" lon="0.47805">
        <ele>177.69</ele>
        <time>2019-02-24T10:35:41.000Z</time>
      </trkpt>
      <trkpt lat="46.64345" lon="0.47817">
        <ele>176.12</ele>
        <time>2019-02-24T10:35:43.000Z</time>
      </trkpt>
      <trkpt lat="46.64351" lon="0.47828">
        <ele>174.56</ele>
        <time>2019-02-24T10:35:45.000Z</time>
      </trkpt>
      <trkpt lat="46.64357" lon="0.4784">
        <ele>173.07</ele>
        <time>2019-02-24T10:35:47.000Z</time>
      </trkpt>
      <trkpt lat="46.64364" lon="0.47854">
        <ele>171.65</ele>
        <time>2019-02-24T10:35:49.000Z</time>
      </trkpt>
      <trkpt lat="46.64369" lon="0.47867">
        <ele>170.5</ele>
        <time>2019-02-24T10:35:51.000Z</time>
      </trkpt>
      <trkpt lat="46.64375" lon="0.47879">
        <ele>169.56</ele>
        <time>2019-02-24T10:35:53.000Z</time>
      </trkpt>
      <trkpt lat="46.6438" lon="0.4789">
        <ele>169.12</ele>
        <time>2019-02-24T10:35:55.000Z</time>
      </trkpt>
      <trkpt lat="46.64386" lon="0.47904">
        <ele>169</ele>
        <time>2019-02-24T10:35:57.000Z</time>
      </trkpt>
      <trkpt lat="46.64392" lon="0.47917">
        <ele>168.82</ele>
        <time>2019-02-24T10:35:59.000Z</time>
      </trkpt>
      <trkpt lat="46.64399" lon="0.47931">
        <ele>168.4</ele>
        <time>2019-02-24T10:36:01.000Z</time>
      </trkpt>
      <trkpt lat="46.64406" lon="0.47945">
        <ele>167.99</ele>
        <time>2019-02-24T10:36:03.000Z</time>
      </trkpt>
      <trkpt lat="46.64412" lon="0.47961">
        <ele>166.91</ele>
        <time>2019-02-24T10:36:05.000Z</time>
      </trkpt>
      <trkpt lat="46.6442" lon="0.47973">
        <ele>164.75</ele>
        <time>2019-02-24T10:36:07.000Z</time>
      </trkpt>
      <trkpt lat="46.64426" lon="0.47984">
        <ele>163.67</ele>
        <time>2019-02-24T10:36:09.000Z</time>
      </trkpt>
      <trkpt lat="46.6442" lon="0.47997">
        <ele>163.7</ele>
        <time>2019-02-24T10:36:14.000Z</time>
      </trkpt>
      <trkpt lat="46.6441" lon="0.48006">
        <ele>167.12</ele>
        <time>2019-02-24T10:36:17.000Z</time>
      </trkpt>
      <trkpt lat="46.64397" lon="0.48013">
        <ele>170.49</ele>
        <time>2019-02-24T10:36:19.000Z</time>
      </trkpt>
      <trkpt lat="46.64386" lon="0.48025">
        <ele>174.08</ele>
        <time>2019-02-24T10:36:22.000Z</time>
      </trkpt>
      <trkpt lat="46.64378" lon="0.4803">
        <ele>175.81</ele>
        <time>2019-02-24T10:36:24.000Z</time>
      </trkpt>
      <trkpt lat="46.64368" lon="0.48038">
        <ele>176.96</ele>
        <time>2019-02-24T10:36:26.000Z</time>
      </trkpt>
      <trkpt lat="46.64359" lon="0.48047">
        <ele>177.64</ele>
        <time>2019-02-24T10:36:28.000Z</time>
      </trkpt>
      <trkpt lat="46.64351" lon="0.48052">
        <ele>178.34</ele>
        <time>2019-02-24T10:36:30.000Z</time>
      </trkpt>
      <trkpt lat="46.64343" lon="0.48061">
        <ele>178.79</ele>
        <time>2019-02-24T10:36:32.000Z</time>
      </trkpt>
      <trkpt lat="46.64333" lon="0.48072">
        <ele>179.22</ele>
        <time>2019-02-24T10:36:34.000Z</time>
      </trkpt>
      <trkpt lat="46.64322" lon="0.48084">
        <ele>179.44</ele>
        <time>2019-02-24T10:36:36.000Z</time>
      </trkpt>
      <trkpt lat="46.64311" lon="0.48095">
        <ele>180.75</ele>
        <time>2019-02-24T10:36:38.000Z</time>
      </trkpt>
      <trkpt lat="46.64301" lon="0.48106">
        <ele>182.49</ele>
        <time>2019-02-24T10:36:40.000Z</time>
      </trkpt>
      <trkpt lat="46.64291" lon="0.48117">
        <ele>184.09</ele>
        <time>2019-02-24T10:36:42.000Z</time>
      </trkpt>
      <trkpt lat="46.64281" lon="0.4813">
        <ele>185.67</ele>
        <time>2019-02-24T10:36:44.000Z</time>
      </trkpt>
      <trkpt lat="46.6427" lon="0.48143">
        <ele>186.83</ele>
        <time>2019-02-24T10:36:46.000Z</time>
      </trkpt>
      <trkpt lat="46.64259" lon="0.48154">
        <ele>187.22</ele>
        <time>2019-02-24T10:36:48.000Z</time>
      </trkpt>
      <trkpt lat="46.6425" lon="0.48166">
        <ele>187.25</ele>
        <time>2019-02-24T10:36:50.000Z</time>
      </trkpt>
      <trkpt lat="46.64237" lon="0.48178">
        <ele>186.78</ele>
        <time>2019-02-24T10:36:52.000Z</time>
      </trkpt>
      <trkpt lat="46.64227" lon="0.48191">
        <ele>186.23</ele>
        <time>2019-02-24T10:36:54.000Z</time>
      </trkpt>
      <trkpt lat="46.64217" lon="0.48201">
        <ele>186.02</ele>
        <time>2019-02-24T10:36:56.000Z</time>
      </trkpt>
      <trkpt lat="46.64207" lon="0.48212">
        <ele>185.8</ele>
        <time>2019-02-24T10:36:58.000Z</time>
      </trkpt>
      <trkpt lat="46.64196" lon="0.48223">
        <ele>185.85</ele>
        <time>2019-02-24T10:37:00.000Z</time>
      </trkpt>
      <trkpt lat="46.64185" lon="0.48233">
        <ele>186.36</ele>
        <time>2019-02-24T10:37:02.000Z</time>
      </trkpt>
      <trkpt lat="46.64174" lon="0.48245">
        <ele>186.18</ele>
        <time>2019-02-24T10:37:04.000Z</time>
      </trkpt>
      <trkpt lat="46.64162" lon="0.48257">
        <ele>186.06</ele>
        <time>2019-02-24T10:37:06.000Z</time>
      </trkpt>
      <trkpt lat="46.64152" lon="0.48269">
        <ele>185.65</ele>
        <time>2019-02-24T10:37:08.000Z</time>
      </trkpt>
      <trkpt lat="46.64142" lon="0.4828">
        <ele>185.6</ele>
        <time>2019-02-24T10:37:10.000Z</time>
      </trkpt>
      <trkpt lat="46.64131" lon="0.48289">
        <ele>185.5</ele>
        <time>2019-02-24T10:37:12.000Z</time>
      </trkpt>
      <trkpt lat="46.6412" lon="0.48301">
        <ele>185.22</ele>
        <time>2019-02-24T10:37:14.000Z</time>
      </trkpt>
      <trkpt lat="46.64108" lon="0.48314">
        <ele>184.51</ele>
        <time>2019-02-24T10:37:16.000Z</time>
      </trkpt>
      <trkpt lat="46.64096" lon="0.48324">
        <ele>183.91</ele>
        <time>2019-02-24T10:37:18.000Z</time>
      </trkpt>
      <trkpt lat="46.64083" lon="0.48333">
        <ele>183.62</ele>
        <time>2019-02-24T10:37:20.000Z</time>
      </trkpt>
      <trkpt lat="46.64071" lon="0.48349">
        <ele>183.35</ele>
        <time>2019-02-24T10:37:22.000Z</time>
      </trkpt>
      <trkpt lat="46.64059" lon="0.48363">
        <ele>182.25</ele>
        <time>2019-02-24T10:37:24.000Z</time>
      </trkpt>
      <trkpt lat="46.64046" lon="0.48381">
        <ele>181.05</ele>
        <time>2019-02-24T10:37:26.000Z</time>
      </trkpt>
      <trkpt lat="46.64033" lon="0.48396">
        <ele>179.81</ele>
        <time>2019-02-24T10:37:28.000Z</time>
      </trkpt>
      <trkpt lat="46.64019" lon="0.48407">
        <ele>178.39</ele>
        <time>2019-02-24T10:37:30.000Z</time>
      </trkpt>
      <trkpt lat="46.64008" lon="0.48421">
        <ele>177.56</ele>
        <time>2019-02-24T10:37:32.000Z</time>
      </trkpt>
      <trkpt lat="46.63996" lon="0.48439">
        <ele>176.85</ele>
        <time>2019-02-24T10:37:34.000Z</time>
      </trkpt>
      <trkpt lat="46.63983" lon="0.48455">
        <ele>176.5</ele>
        <time>2019-02-24T10:37:36.000Z</time>
      </trkpt>
      <trkpt lat="46.63973" lon="0.48466">
        <ele>176.34</ele>
        <time>2019-02-24T10:37:38.000Z</time>
      </trkpt>
      <trkpt lat="46.63964" lon="0.48476">
        <ele>176.33</ele>
        <time>2019-02-24T10:37:41.000Z</time>
      </trkpt>
      <trkpt lat="46.63955" lon="0.48483">
        <ele>176.35</ele>
        <time>2019-02-24T10:37:44.000Z</time>
      </trkpt>
      <trkpt lat="46.63947" lon="0.48491">
        <ele>176.41</ele>
        <time>2019-02-24T10:37:47.000Z</time>
      </trkpt>
      <trkpt lat="46.63937" lon="0.48497">
        <ele>176.57</ele>
        <time>2019-02-24T10:37:51.000Z</time>
      </trkpt>
      <trkpt lat="46.63928" lon="0.48503">
        <ele>176.73</ele>
        <time>2019-02-24T10:37:55.000Z</time>
      </trkpt>
      <trkpt lat="46.63918" lon="0.48511">
        <ele>177.06</ele>
        <time>2019-02-24T10:37:59.000Z</time>
      </trkpt>
      <trkpt lat="46.63909" lon="0.48515">
        <ele>177.5</ele>
        <time>2019-02-24T10:38:02.000Z</time>
      </trkpt>
      <trkpt lat="46.639" lon="0.48522">
        <ele>178.2</ele>
        <time>2019-02-24T10:38:06.000Z</time>
      </trkpt>
      <trkpt lat="46.63892" lon="0.48528">
        <ele>178.78</ele>
        <time>2019-02-24T10:38:09.000Z</time>
      </trkpt>
      <trkpt lat="46.63882" lon="0.48535">
        <ele>179.55</ele>
        <time>2019-02-24T10:38:13.000Z</time>
      </trkpt>
      <trkpt lat="46.63872" lon="0.48545">
        <ele>180.28</ele>
        <time>2019-02-24T10:38:17.000Z</time>
      </trkpt>
      <trkpt lat="46.63865" lon="0.48556">
        <ele>180.83</ele>
        <time>2019-02-24T10:38:21.000Z</time>
      </trkpt>
      <trkpt lat="46.63859" lon="0.48572">
        <ele>181.24</ele>
        <time>2019-02-24T10:38:25.000Z</time>
      </trkpt>
      <trkpt lat="46.6386" lon="0.48586">
        <ele>181.06</ele>
        <time>2019-02-24T10:38:27.000Z</time>
      </trkpt>
      <trkpt lat="46.63853" lon="0.48576">
        <ele>179.11</ele>
        <time>2019-02-24T10:38:34.000Z</time>
      </trkpt>
      <trkpt lat="46.63845" lon="0.48564">
        <ele>177.92</ele>
        <time>2019-02-24T10:38:37.000Z</time>
      </trkpt>
      <trkpt lat="46.63837" lon="0.48555">
        <ele>176.6</ele>
        <time>2019-02-24T10:38:40.000Z</time>
      </trkpt>
      <trkpt lat="46.63829" lon="0.48546">
        <ele>175.3</ele>
        <time>2019-02-24T10:38:43.000Z</time>
      </trkpt>
      <trkpt lat="46.6382" lon="0.48547">
        <ele>174.58</ele>
        <time>2019-02-24T10:38:45.000Z</time>
      </trkpt>
      <trkpt lat="46.6381" lon="0.4855">
        <ele>173.65</ele>
        <time>2019-02-24T10:38:48.000Z</time>
      </trkpt>
      <trkpt lat="46.63801" lon="0.48554">
        <ele>172.98</ele>
        <time>2019-02-24T10:38:51.000Z</time>
      </trkpt>
      <trkpt lat="46.63791" lon="0.48557">
        <ele>172.62</ele>
        <time>2019-02-24T10:38:54.000Z</time>
      </trkpt>
      <trkpt lat="46.63781" lon="0.48563">
        <ele>172.5</ele>
        <time>2019-02-24T10:38:57.000Z</time>
      </trkpt>
      <trkpt lat="46.6377" lon="0.48571">
        <ele>172.72</ele>
        <time>2019-02-24T10:39:01.000Z</time>
      </trkpt>
      <trkpt lat="46.63761" lon="0.48577">
        <ele>173.17</ele>
        <time>2019-02-24T10:39:04.000Z</time>
      </trkpt>
      <trkpt lat="46.63752" lon="0.48584">
        <ele>173.74</ele>
        <time>2019-02-24T10:39:07.000Z</time>
      </trkpt>
      <trkpt lat="46.63744" lon="0.48588">
        <ele>174.18</ele>
        <time>2019-02-24T10:39:09.000Z</time>
      </trkpt>
      <trkpt lat="46.63735" lon="0.48596">
        <ele>174.78</ele>
        <time>2019-02-24T10:39:12.000Z</time>
      </trkpt>
      <trkpt lat="46.63725" lon="0.48605">
        <ele>175.53</ele>
        <time>2019-02-24T10:39:16.000Z</time>
      </trkpt>
      <trkpt lat="46.63715" lon="0.48613">
        <ele>176.15</ele>
        <time>2019-02-24T10:39:19.000Z</time>
      </trkpt>
      <trkpt lat="46.63705" lon="0.48619">
        <ele>176.84</ele>
        <time>2019-02-24T10:39:22.000Z</time>
      </trkpt>
      <trkpt lat="46.63695" lon="0.48628">
        <ele>177.56</ele>
        <time>2019-02-24T10:39:25.000Z</time>
      </trkpt>
      <trkpt lat="46.63685" lon="0.48635">
        <ele>178.24</ele>
        <time>2019-02-24T10:39:28.000Z</time>
      </trkpt>
      <trkpt lat="46.63675" lon="0.48641">
        <ele>178.72</ele>
        <time>2019-02-24T10:39:30.000Z</time>
      </trkpt>
      <trkpt lat="46.63665" lon="0.48648">
        <ele>181.49</ele>
        <time>2019-02-24T10:39:32.000Z</time>
      </trkpt>
      <trkpt lat="46.63657" lon="0.48654">
        <ele>181.96</ele>
        <time>2019-02-24T10:39:34.000Z</time>
      </trkpt>
      <trkpt lat="46.63649" lon="0.4866">
        <ele>182.46</ele>
        <time>2019-02-24T10:39:36.000Z</time>
      </trkpt>
      <trkpt lat="46.63641" lon="0.48668">
        <ele>182.94</ele>
        <time>2019-02-24T10:39:38.000Z</time>
      </trkpt>
      <trkpt lat="46.63632" lon="0.48675">
        <ele>187.13</ele>
        <time>2019-02-24T10:39:40.000Z</time>
      </trkpt>
      <trkpt lat="46.63622" lon="0.48684">
        <ele>189.69</ele>
        <time>2019-02-24T10:39:42.000Z</time>
      </trkpt>
      <trkpt lat="46.63611" lon="0.48693">
        <ele>191.28</ele>
        <time>2019-02-24T10:39:44.000Z</time>
      </trkpt>
      <trkpt lat="46.636" lon="0.48705">
        <ele>192.3</ele>
        <time>2019-02-24T10:39:46.000Z</time>
      </trkpt>
      <trkpt lat="46.63591" lon="0.48721">
        <ele>193.27</ele>
        <time>2019-02-24T10:39:48.000Z</time>
      </trkpt>
      <trkpt lat="46.6358" lon="0.48732">
        <ele>194.64</ele>
        <time>2019-02-24T10:39:50.000Z</time>
      </trkpt>
      <trkpt lat="46.63571" lon="0.48742">
        <ele>195.57</ele>
        <time>2019-02-24T10:39:52.000Z</time>
      </trkpt>
      <trkpt lat="46.63561" lon="0.48753">
        <ele>195.2</ele>
        <time>2019-02-24T10:39:54.000Z</time>
      </trkpt>
      <trkpt lat="46.63551" lon="0.48764">
        <ele>194.5</ele>
        <time>2019-02-24T10:39:56.000Z</time>
      </trkpt>
      <trkpt lat="46.63539" lon="0.48778">
        <ele>194.56</ele>
        <time>2019-02-24T10:39:58.000Z</time>
      </trkpt>
      <trkpt lat="46.63526" lon="0.48794">
        <ele>195.56</ele>
        <time>2019-02-24T10:40:00.000Z</time>
      </trkpt>
      <trkpt lat="46.63517" lon="0.48801">
        <ele>196.12</ele>
        <time>2019-02-24T10:40:01.000Z</time>
      </trkpt>
      <trkpt lat="46.63507" lon="0.48817">
        <ele>196.6</ele>
        <time>2019-02-24T10:40:03.000Z</time>
      </trkpt>
      <trkpt lat="46.63504" lon="0.4883">
        <ele>196.89</ele>
        <time>2019-02-24T10:40:05.000Z</time>
      </trkpt>
      <trkpt lat="46.63503" lon="0.48844">
        <ele>201.5</ele>
        <time>2019-02-24T10:40:07.000Z</time>
      </trkpt>
      <trkpt lat="46.63502" lon="0.48861">
        <ele>206.25</ele>
        <time>2019-02-24T10:40:09.000Z</time>
      </trkpt>
      <trkpt lat="46.63503" lon="0.48882">
        <ele>209.7</ele>
        <time>2019-02-24T10:40:11.000Z</time>
      </trkpt>
      <trkpt lat="46.63504" lon="0.48899">
        <ele>209.96</ele>
        <time>2019-02-24T10:40:12.000Z</time>
      </trkpt>
      <trkpt lat="46.63504" lon="0.48918">
        <ele>209.32</ele>
        <time>2019-02-24T10:40:13.000Z</time>
      </trkpt>
      <trkpt lat="46.63503" lon="0.4894">
        <ele>208.13</ele>
        <time>2019-02-24T10:40:15.000Z</time>
      </trkpt>
      <trkpt lat="46.63503" lon="0.48957">
        <ele>207.92</ele>
        <time>2019-02-24T10:40:17.000Z</time>
      </trkpt>
      <trkpt lat="46.63502" lon="0.48971">
        <ele>207.62</ele>
        <time>2019-02-24T10:40:19.000Z</time>
      </trkpt>
      <trkpt lat="46.63502" lon="0.48985">
        <ele>207.23</ele>
        <time>2019-02-24T10:40:21.000Z</time>
      </trkpt>
      <trkpt lat="46.63502" lon="0.49003">
        <ele>206.51</ele>
        <time>2019-02-24T10:40:24.000Z</time>
      </trkpt>
      <trkpt lat="46.63502" lon="0.4902">
        <ele>205.55</ele>
        <time>2019-02-24T10:40:27.000Z</time>
      </trkpt>
      <trkpt lat="46.635" lon="0.49033">
        <ele>204.22</ele>
        <time>2019-02-24T10:40:31.000Z</time>
      </trkpt>
      <trkpt lat="46.63499" lon="0.49049">
        <ele>203.16</ele>
        <time>2019-02-24T10:40:35.000Z</time>
      </trkpt>
      <trkpt lat="46.63495" lon="0.49066">
        <ele>202.56</ele>
        <time>2019-02-24T10:40:39.000Z</time>
      </trkpt>
      <trkpt lat="46.63493" lon="0.49083">
        <ele>202.3</ele>
        <time>2019-02-24T10:40:42.000Z</time>
      </trkpt>
      <trkpt lat="46.63491" lon="0.49097">
        <ele>202.15</ele>
        <time>2019-02-24T10:40:44.000Z</time>
      </trkpt>
      <trkpt lat="46.6349" lon="0.49112">
        <ele>202.15</ele>
        <time>2019-02-24T10:40:46.000Z</time>
      </trkpt>
      <trkpt lat="46.6349" lon="0.49129">
        <ele>202.32</ele>
        <time>2019-02-24T10:40:48.000Z</time>
      </trkpt>
      <trkpt lat="46.6349" lon="0.49143">
        <ele>202.58</ele>
        <time>2019-02-24T10:40:50.000Z</time>
      </trkpt>
      <trkpt lat="46.63489" lon="0.49157">
        <ele>202.91</ele>
        <time>2019-02-24T10:40:52.000Z</time>
      </trkpt>
      <trkpt lat="46.63489" lon="0.49171">
        <ele>203.53</ele>
        <time>2019-02-24T10:40:55.000Z</time>
      </trkpt>
      <trkpt lat="46.63487" lon="0.49185">
        <ele>204.27</ele>
        <time>2019-02-24T10:40:58.000Z</time>
      </trkpt>
      <trkpt lat="46.63484" lon="0.49202">
        <ele>205.11</ele>
        <time>2019-02-24T10:41:01.000Z</time>
      </trkpt>
      <trkpt lat="46.63483" lon="0.49218">
        <ele>205.81</ele>
        <time>2019-02-24T10:41:04.000Z</time>
      </trkpt>
      <trkpt lat="46.63482" lon="0.49236">
        <ele>206.53</ele>
        <time>2019-02-24T10:41:07.000Z</time>
      </trkpt>
      <trkpt lat="46.63482" lon="0.49252">
        <ele>206.96</ele>
        <time>2019-02-24T10:41:09.000Z</time>
      </trkpt>
      <trkpt lat="46.63483" lon="0.49272">
        <ele>207.43</ele>
        <time>2019-02-24T10:41:11.000Z</time>
      </trkpt>
      <trkpt lat="46.63481" lon="0.49288">
        <ele>207.92</ele>
        <time>2019-02-24T10:41:13.000Z</time>
      </trkpt>
      <trkpt lat="46.63481" lon="0.49304">
        <ele>208.31</ele>
        <time>2019-02-24T10:41:15.000Z</time>
      </trkpt>
      <trkpt lat="46.63482" lon="0.49322">
        <ele>208.46</ele>
        <time>2019-02-24T10:41:17.000Z</time>
      </trkpt>
      <trkpt lat="46.63481" lon="0.49335">
        <ele>208.87</ele>
        <time>2019-02-24T10:41:19.000Z</time>
      </trkpt>
      <trkpt lat="46.63478" lon="0.49353">
        <ele>209.08</ele>
        <time>2019-02-24T10:41:23.000Z</time>
      </trkpt>
      <trkpt lat="46.63477" lon="0.49369">
        <ele>208.59</ele>
        <time>2019-02-24T10:41:25.000Z</time>
      </trkpt>
      <trkpt lat="46.63477" lon="0.49391">
        <ele>207.2</ele>
        <time>2019-02-24T10:41:27.000Z</time>
      </trkpt>
      <trkpt lat="46.63478" lon="0.49414">
        <ele>205.93</ele>
        <time>2019-02-24T10:41:29.000Z</time>
      </trkpt>
      <trkpt lat="46.63478" lon="0.49434">
        <ele>204.8</ele>
        <time>2019-02-24T10:41:31.000Z</time>
      </trkpt>
      <trkpt lat="46.63478" lon="0.49454">
        <ele>203.42</ele>
        <time>2019-02-24T10:41:33.000Z</time>
      </trkpt>
      <trkpt lat="46.63478" lon="0.49474">
        <ele>201.81</ele>
        <time>2019-02-24T10:41:35.000Z</time>
      </trkpt>
      <trkpt lat="46.63477" lon="0.49489">
        <ele>200.64</ele>
        <time>2019-02-24T10:41:37.000Z</time>
      </trkpt>
      <trkpt lat="46.63477" lon="0.49507">
        <ele>199.8</ele>
        <time>2019-02-24T10:41:39.000Z</time>
      </trkpt>
      <trkpt lat="46.63476" lon="0.49522">
        <ele>198.3</ele>
        <time>2019-02-24T10:41:41.000Z</time>
      </trkpt>
      <trkpt lat="46.63475" lon="0.49535">
        <ele>197.37</ele>
        <time>2019-02-24T10:41:43.000Z</time>
      </trkpt>
      <trkpt lat="46.63469" lon="0.49545">
        <ele>197.24</ele>
        <time>2019-02-24T10:41:46.000Z</time>
      </trkpt>
      <trkpt lat="46.63468" lon="0.4956">
        <ele>196.57</ele>
        <time>2019-02-24T10:41:49.000Z</time>
      </trkpt>
      <trkpt lat="46.63466" lon="0.49546">
        <ele>193.88</ele>
        <time>2019-02-24T10:41:56.000Z</time>
      </trkpt>
      <trkpt lat="46.63458" lon="0.49535">
        <ele>185.36</ele>
        <time>2019-02-24T10:41:59.000Z</time>
      </trkpt>
      <trkpt lat="46.63453" lon="0.49523">
        <ele>184.46</ele>
        <time>2019-02-24T10:42:02.000Z</time>
      </trkpt>
      <trkpt lat="46.63446" lon="0.49509">
        <ele>183.53</ele>
        <time>2019-02-24T10:42:05.000Z</time>
      </trkpt>
      <trkpt lat="46.63441" lon="0.49496">
        <ele>182.72</ele>
        <time>2019-02-24T10:42:08.000Z</time>
      </trkpt>
      <trkpt lat="46.63435" lon="0.49481">
        <ele>182.07</ele>
        <time>2019-02-24T10:42:11.000Z</time>
      </trkpt>
      <trkpt lat="46.63429" lon="0.4947">
        <ele>179.62</ele>
        <time>2019-02-24T10:42:14.000Z</time>
      </trkpt>
      <trkpt lat="46.63423" lon="0.49458">
        <ele>178.49</ele>
        <time>2019-02-24T10:42:16.000Z</time>
      </trkpt>
      <trkpt lat="46.63416" lon="0.49443">
        <ele>177.5</ele>
        <time>2019-02-24T10:42:18.000Z</time>
      </trkpt>
      <trkpt lat="46.63411" lon="0.49431">
        <ele>176.12</ele>
        <time>2019-02-24T10:42:20.000Z</time>
      </trkpt>
      <trkpt lat="46.63408" lon="0.49419">
        <ele>175.89</ele>
        <time>2019-02-24T10:42:22.000Z</time>
      </trkpt>
      <trkpt lat="46.63405" lon="0.49405">
        <ele>174.95</ele>
        <time>2019-02-24T10:42:24.000Z</time>
      </trkpt>
      <trkpt lat="46.63398" lon="0.49393">
        <ele>174.25</ele>
        <time>2019-02-24T10:42:26.000Z</time>
      </trkpt>
      <trkpt lat="46.63393" lon="0.49378">
        <ele>172.4</ele>
        <time>2019-02-24T10:42:28.000Z</time>
      </trkpt>
      <trkpt lat="46.63385" lon="0.49358">
        <ele>170.91</ele>
        <time>2019-02-24T10:42:30.000Z</time>
      </trkpt>
      <trkpt lat="46.63376" lon="0.49338">
        <ele>169.27</ele>
        <time>2019-02-24T10:42:32.000Z</time>
      </trkpt>
      <trkpt lat="46.63369" lon="0.49326">
        <ele>168.38</ele>
        <time>2019-02-24T10:42:34.000Z</time>
      </trkpt>
      <trkpt lat="46.6336" lon="0.49312">
        <ele>168.23</ele>
        <time>2019-02-24T10:42:36.000Z</time>
      </trkpt>
      <trkpt lat="46.63355" lon="0.49298">
        <ele>168.25</ele>
        <time>2019-02-24T10:42:38.000Z</time>
      </trkpt>
      <trkpt lat="46.63352" lon="0.49286">
        <ele>168.75</ele>
        <time>2019-02-24T10:42:40.000Z</time>
      </trkpt>
      <trkpt lat="46.63346" lon="0.49269">
        <ele>169.67</ele>
        <time>2019-02-24T10:42:43.000Z</time>
      </trkpt>
      <trkpt lat="46.63343" lon="0.4925">
        <ele>171.16</ele>
        <time>2019-02-24T10:42:46.000Z</time>
      </trkpt>
      <trkpt lat="46.63339" lon="0.49233">
        <ele>171.35</ele>
        <time>2019-02-24T10:42:49.000Z</time>
      </trkpt>
      <trkpt lat="46.63335" lon="0.49219">
        <ele>171.56</ele>
        <time>2019-02-24T10:42:52.000Z</time>
      </trkpt>
      <trkpt lat="46.63327" lon="0.49203">
        <ele>171.59</ele>
        <time>2019-02-24T10:42:55.000Z</time>
      </trkpt>
      <trkpt lat="46.63319" lon="0.49191">
        <ele>171.77</ele>
        <time>2019-02-24T10:42:59.000Z</time>
      </trkpt>
      <trkpt lat="46.63312" lon="0.49178">
        <ele>172.01</ele>
        <time>2019-02-24T10:43:02.000Z</time>
      </trkpt>
      <trkpt lat="46.63305" lon="0.4917">
        <ele>172.09</ele>
        <time>2019-02-24T10:43:04.000Z</time>
      </trkpt>
      <trkpt lat="46.63294" lon="0.49158">
        <ele>172.03</ele>
        <time>2019-02-24T10:43:06.000Z</time>
      </trkpt>
      <trkpt lat="46.63285" lon="0.49148">
        <ele>171.88</ele>
        <time>2019-02-24T10:43:08.000Z</time>
      </trkpt>
      <trkpt lat="46.63276" lon="0.49139">
        <ele>171.7</ele>
        <time>2019-02-24T10:43:10.000Z</time>
      </trkpt>
      <trkpt lat="46.63265" lon="0.49129">
        <ele>171.4</ele>
        <time>2019-02-24T10:43:12.000Z</time>
      </trkpt>
      <trkpt lat="46.63256" lon="0.4912">
        <ele>170.82</ele>
        <time>2019-02-24T10:43:16.000Z</time>
      </trkpt>
      <trkpt lat="46.63248" lon="0.49112">
        <ele>169.94</ele>
        <time>2019-02-24T10:43:23.000Z</time>
      </trkpt>
      <trkpt lat="46.63243" lon="0.491">
        <ele>168.71</ele>
        <time>2019-02-24T10:43:52.000Z</time>
      </trkpt>
      <trkpt lat="46.63238" lon="0.49088">
        <ele>166.17</ele>
        <time>2019-02-24T10:44:07.000Z</time>
      </trkpt>
      <trkpt lat="46.63235" lon="0.49076">
        <ele>162.12</ele>
        <time>2019-02-24T10:46:39.000Z</time>
      </trkpt>
      <trkpt lat="46.63228" lon="0.49067">
        <ele>157.3</ele>
        <time>2019-02-24T10:47:43.000Z</time>
      </trkpt>
    </trkseg>
  </trk>
</gpx>